<?xml version='1.0' encoding='UTF-8'?><gpx version="1.1" creator="JPX - https://github.com/jenetics/jpx" xmlns="http://www.topografix.com/GPX/1/1"><trk><trkseg><trkpt lat="42.1500721" lon="14.5852246"><ele>204.99999999999997</ele><time>2026-04-16T12:21:47.869Z</time></trkpt><trkpt lat="42.1500215" lon="14.5852796"><ele>205.0</ele><time>2026-04-16T12:22:17.869Z</time></trkpt><trkpt lat="42.149946" lon="14.5853036"><ele>205.0</ele><time>2026-04-16T12:23:16.868Z</time></trkpt><trkpt lat="42.149863" lon="14.5853017"><ele>205.0</ele><time>2026-04-16T12:23:19.868Z</time></trkpt><trkpt lat="42.1497841" lon="14.5852715"><ele>204.99999999999997</ele><time>2026-04-16T12:23:22.868Z</time></trkpt><trkpt lat="42.1497091" lon="14.5852553"><ele>205.0</ele><time>2026-04-16T12:23:25.868Z</time></trkpt><trkpt lat="42.1496387" lon="14.5852454"><ele>203.66666666666666</ele><time>2026-04-16T12:23:27.869Z</time></trkpt><trkpt lat="42.149555" lon="14.5852117"><ele>202.33333333333331</ele><time>2026-04-16T12:23:29.868Z</time></trkpt><trkpt lat="42.1494263" lon="14.5851828"><ele>201.0</ele><time>2026-04-16T12:23:31.869Z</time></trkpt><trkpt lat="42.1493492" lon="14.5851767"><ele>199.66666666666669</ele><time>2026-04-16T12:23:33.868Z</time></trkpt><trkpt lat="42.1492868" lon="14.5852077"><ele>198.33333333333334</ele><time>2026-04-16T12:23:35.869Z</time></trkpt><trkpt lat="42.1492276" lon="14.5852482"><ele>197.0</ele><time>2026-04-16T12:23:38.869Z</time></trkpt><trkpt lat="42.1491951" lon="14.5853524"><ele>196.2</ele><time>2026-04-16T12:23:42.868Z</time></trkpt><trkpt lat="42.1491633" lon="14.585455"><ele>195.39999999999998</ele><time>2026-04-16T12:23:44.869Z</time></trkpt><trkpt lat="42.14913" lon="14.5855967"><ele>194.60000000000002</ele><time>2026-04-16T12:23:46.869Z</time></trkpt><trkpt lat="42.14911" lon="14.5857433"><ele>193.8</ele><time>2026-04-16T12:23:48.868Z</time></trkpt><trkpt lat="42.1490733" lon="14.5858983"><ele>193.0</ele><time>2026-04-16T12:23:50.869Z</time></trkpt><trkpt lat="42.1490533" lon="14.585985"><ele>191.16666666666666</ele><time>2026-04-16T12:23:51.868Z</time></trkpt><trkpt lat="42.1490317" lon="14.586075"><ele>189.33333333333331</ele><time>2026-04-16T12:23:52.868Z</time></trkpt><trkpt lat="42.1490117" lon="14.5861683"><ele>187.5</ele><time>2026-04-16T12:23:53.869Z</time></trkpt><trkpt lat="42.1489933" lon="14.5862717"><ele>185.66666666666666</ele><time>2026-04-16T12:23:54.868Z</time></trkpt><trkpt lat="42.1489683" lon="14.58638"><ele>183.83333333333331</ele><time>2026-04-16T12:23:55.869Z</time></trkpt><trkpt lat="42.14894" lon="14.5864883"><ele>182.0</ele><time>2026-04-16T12:23:56.869Z</time></trkpt><trkpt lat="42.1489167" lon="14.5865967"><ele>182.0</ele><time>2026-04-16T12:23:57.869Z</time></trkpt><trkpt lat="42.1488967" lon="14.5867083"><ele>182.0</ele><time>2026-04-16T12:23:58.869Z</time></trkpt><trkpt lat="42.1488683" lon="14.5868267"><ele>182.0</ele><time>2026-04-16T12:23:59.869Z</time></trkpt><trkpt lat="42.1488417" lon="14.5869467"><ele>182.0</ele><time>2026-04-16T12:24:00.868Z</time></trkpt><trkpt lat="42.1488217" lon="14.587065"><ele>182.0</ele><time>2026-04-16T12:24:01.868Z</time></trkpt><trkpt lat="42.1488017" lon="14.58718"><ele>182.0</ele><time>2026-04-16T12:24:02.868Z</time></trkpt><trkpt lat="42.1487867" lon="14.58729"><ele>182.16666666666666</ele><time>2026-04-16T12:24:03.868Z</time></trkpt><trkpt lat="42.1487733" lon="14.5873967"><ele>182.33333333333331</ele><time>2026-04-16T12:24:04.869Z</time></trkpt><trkpt lat="42.148755" lon="14.5875017"><ele>182.5</ele><time>2026-04-16T12:24:05.869Z</time></trkpt><trkpt lat="42.14874" lon="14.5875983"><ele>182.66666666666666</ele><time>2026-04-16T12:24:06.869Z</time></trkpt><trkpt lat="42.148725" lon="14.58769"><ele>182.83333333333334</ele><time>2026-04-16T12:24:07.868Z</time></trkpt><trkpt lat="42.14871" lon="14.5877767"><ele>183.0</ele><time>2026-04-16T12:24:08.868Z</time></trkpt><trkpt lat="42.1486583" lon="14.5879217"><ele>182.2</ele><time>2026-04-16T12:24:10.868Z</time></trkpt><trkpt lat="42.1485767" lon="14.588025"><ele>181.4</ele><time>2026-04-16T12:24:12.869Z</time></trkpt><trkpt lat="42.14848" lon="14.58808"><ele>180.6</ele><time>2026-04-16T12:24:14.869Z</time></trkpt><trkpt lat="42.1483867" lon="14.5881183"><ele>179.79999999999998</ele><time>2026-04-16T12:24:16.868Z</time></trkpt><trkpt lat="42.1482883" lon="14.5881383"><ele>179.0</ele><time>2026-04-16T12:24:18.869Z</time></trkpt><trkpt lat="42.148185" lon="14.5881617"><ele>179.0</ele><time>2026-04-16T12:24:20.869Z</time></trkpt><trkpt lat="42.1480833" lon="14.5881733"><ele>179.0</ele><time>2026-04-16T12:24:22.869Z</time></trkpt><trkpt lat="42.14799" lon="14.588175"><ele>179.0</ele><time>2026-04-16T12:24:24.869Z</time></trkpt><trkpt lat="42.1478983" lon="14.588165"><ele>179.0</ele><time>2026-04-16T12:24:26.869Z</time></trkpt><trkpt lat="42.1478" lon="14.5881567"><ele>179.0</ele><time>2026-04-16T12:24:28.869Z</time></trkpt><trkpt lat="42.1477167" lon="14.5881367"><ele>179.0</ele><time>2026-04-16T12:24:30.869Z</time></trkpt><trkpt lat="42.147625" lon="14.5881133"><ele>179.0</ele><time>2026-04-16T12:24:32.868Z</time></trkpt><trkpt lat="42.14754" lon="14.5880833"><ele>179.0</ele><time>2026-04-16T12:24:34.869Z</time></trkpt><trkpt lat="42.1474617" lon="14.5880567"><ele>179.0</ele><time>2026-04-16T12:24:36.868Z</time></trkpt><trkpt lat="42.1473733" lon="14.5880283"><ele>179.0</ele><time>2026-04-16T12:24:38.869Z</time></trkpt><trkpt lat="42.1472783" lon="14.588"><ele>175.5</ele><time>2026-04-16T12:24:40.869Z</time></trkpt><trkpt lat="42.147205" lon="14.5879433"><ele>172.0</ele><time>2026-04-16T12:24:42.868Z</time></trkpt><trkpt lat="42.1471917" lon="14.587815"><ele>168.5</ele><time>2026-04-16T12:24:44.869Z</time></trkpt><trkpt lat="42.14723" lon="14.58766"><ele>165.0</ele><time>2026-04-16T12:24:46.869Z</time></trkpt><trkpt lat="42.1472517" lon="14.5875717"><ele>161.5</ele><time>2026-04-16T12:24:47.869Z</time></trkpt><trkpt lat="42.147265" lon="14.587485"><ele>158.0</ele><time>2026-04-16T12:24:48.869Z</time></trkpt><trkpt lat="42.1472767" lon="14.5873983"><ele>156.83333333333331</ele><time>2026-04-16T12:24:49.869Z</time></trkpt><trkpt lat="42.1472817" lon="14.5873083"><ele>155.66666666666666</ele><time>2026-04-16T12:24:50.869Z</time></trkpt><trkpt lat="42.1472883" lon="14.5872183"><ele>154.5</ele><time>2026-04-16T12:24:51.869Z</time></trkpt><trkpt lat="42.14731" lon="14.5870567"><ele>153.33333333333334</ele><time>2026-04-16T12:24:53.869Z</time></trkpt><trkpt lat="42.14734" lon="14.58698"><ele>152.16666666666669</ele><time>2026-04-16T12:24:54.868Z</time></trkpt><trkpt lat="42.1474067" lon="14.58685"><ele>151.0</ele><time>2026-04-16T12:24:56.869Z</time></trkpt><trkpt lat="42.1474967" lon="14.5867433"><ele>153.5</ele><time>2026-04-16T12:24:58.869Z</time></trkpt><trkpt lat="42.14759" lon="14.5866317"><ele>156.0</ele><time>2026-04-16T12:25:00.868Z</time></trkpt><trkpt lat="42.1476317" lon="14.586565"><ele>158.5</ele><time>2026-04-16T12:25:01.868Z</time></trkpt><trkpt lat="42.14767" lon="14.5864917"><ele>161.0</ele><time>2026-04-16T12:25:02.869Z</time></trkpt><trkpt lat="42.1476983" lon="14.58641"><ele>163.5</ele><time>2026-04-16T12:25:03.868Z</time></trkpt><trkpt lat="42.147725" lon="14.586325"><ele>166.0</ele><time>2026-04-16T12:25:04.869Z</time></trkpt><trkpt lat="42.14775" lon="14.58624"><ele>163.66666666666669</ele><time>2026-04-16T12:25:05.869Z</time></trkpt><trkpt lat="42.1477733" lon="14.5861533"><ele>161.33333333333334</ele><time>2026-04-16T12:25:06.869Z</time></trkpt><trkpt lat="42.1477933" lon="14.5860633"><ele>159.0</ele><time>2026-04-16T12:25:07.869Z</time></trkpt><trkpt lat="42.1478117" lon="14.5859783"><ele>156.66666666666666</ele><time>2026-04-16T12:25:08.869Z</time></trkpt><trkpt lat="42.14784" lon="14.58582"><ele>154.33333333333331</ele><time>2026-04-16T12:25:10.869Z</time></trkpt><trkpt lat="42.1478667" lon="14.5856667"><ele>152.0</ele><time>2026-04-16T12:25:12.869Z</time></trkpt><trkpt lat="42.1478867" lon="14.585535"><ele>152.0</ele><time>2026-04-16T12:25:14.868Z</time></trkpt><trkpt lat="42.1478717" lon="14.585425"><ele>152.0</ele><time>2026-04-16T12:25:16.868Z</time></trkpt><trkpt lat="42.1478367" lon="14.5853433"><ele>152.0</ele><time>2026-04-16T12:25:18.868Z</time></trkpt><trkpt lat="42.1477617" lon="14.5853267"><ele>152.0</ele><time>2026-04-16T12:25:21.868Z</time></trkpt><trkpt lat="42.1477217" lon="14.5853967"><ele>152.0</ele><time>2026-04-16T12:25:23.868Z</time></trkpt><trkpt lat="42.14769" lon="14.58551"><ele>152.0</ele><time>2026-04-16T12:25:25.869Z</time></trkpt><trkpt lat="42.1476583" lon="14.5856117"><ele>152.0</ele><time>2026-04-16T12:25:27.869Z</time></trkpt><trkpt lat="42.14762" lon="14.5856933"><ele>152.0</ele><time>2026-04-16T12:25:29.869Z</time></trkpt><trkpt lat="42.1475617" lon="14.5857667"><ele>152.0</ele><time>2026-04-16T12:25:31.869Z</time></trkpt><trkpt lat="42.147495" lon="14.585835"><ele>152.0</ele><time>2026-04-16T12:25:33.868Z</time></trkpt><trkpt lat="42.1474267" lon="14.5859067"><ele>152.0</ele><time>2026-04-16T12:25:35.868Z</time></trkpt><trkpt lat="42.1473567" lon="14.5859583"><ele>152.0</ele><time>2026-04-16T12:25:37.869Z</time></trkpt><trkpt lat="42.14728" lon="14.585965"><ele>148.0</ele><time>2026-04-16T12:25:39.868Z</time></trkpt><trkpt lat="42.14722" lon="14.58593"><ele>144.0</ele><time>2026-04-16T12:25:41.869Z</time></trkpt><trkpt lat="42.1471833" lon="14.5858483"><ele>140.0</ele><time>2026-04-16T12:25:43.868Z</time></trkpt><trkpt lat="42.1471883" lon="14.5857283"><ele>136.0</ele><time>2026-04-16T12:25:45.869Z</time></trkpt><trkpt lat="42.1472117" lon="14.585595"><ele>132.0</ele><time>2026-04-16T12:25:47.869Z</time></trkpt><trkpt lat="42.1472417" lon="14.5854517"><ele>128.0</ele><time>2026-04-16T12:25:49.869Z</time></trkpt><trkpt lat="42.1472383" lon="14.585315"><ele>127.99999999999999</ele><time>2026-04-16T12:25:51.869Z</time></trkpt><trkpt lat="42.14721" lon="14.5852183"><ele>128.0</ele><time>2026-04-16T12:25:53.868Z</time></trkpt><trkpt lat="42.1471317" lon="14.585265"><ele>128.0</ele><time>2026-04-16T12:25:57.869Z</time></trkpt><trkpt lat="42.1471" lon="14.5853717"><ele>128.0</ele><time>2026-04-16T12:25:59.869Z</time></trkpt><trkpt lat="42.147065" lon="14.58549"><ele>127.99999999999999</ele><time>2026-04-16T12:26:01.869Z</time></trkpt><trkpt lat="42.1470217" lon="14.585615"><ele>128.0</ele><time>2026-04-16T12:26:03.869Z</time></trkpt><trkpt lat="42.1469717" lon="14.5857283"><ele>128.0</ele><time>2026-04-16T12:26:05.869Z</time></trkpt><trkpt lat="42.1469067" lon="14.5858267"><ele>128.0</ele><time>2026-04-16T12:26:07.868Z</time></trkpt><trkpt lat="42.146825" lon="14.585915"><ele>128.0</ele><time>2026-04-16T12:26:09.869Z</time></trkpt><trkpt lat="42.146735" lon="14.5859917"><ele>128.0</ele><time>2026-04-16T12:26:11.869Z</time></trkpt><trkpt lat="42.14665" lon="14.58607"><ele>128.0</ele><time>2026-04-16T12:26:13.869Z</time></trkpt><trkpt lat="42.1465633" lon="14.5861517"><ele>124.2</ele><time>2026-04-16T12:26:15.868Z</time></trkpt><trkpt lat="42.1464917" lon="14.5862467"><ele>120.4</ele><time>2026-04-16T12:26:17.868Z</time></trkpt><trkpt lat="42.14642" lon="14.58636"><ele>116.60000000000001</ele><time>2026-04-16T12:26:19.869Z</time></trkpt><trkpt lat="42.14635" lon="14.5864817"><ele>112.80000000000001</ele><time>2026-04-16T12:26:21.869Z</time></trkpt><trkpt lat="42.146295" lon="14.586605"><ele>109.0</ele><time>2026-04-16T12:26:23.869Z</time></trkpt><trkpt lat="42.14625" lon="14.5867133"><ele>109.00000000000001</ele><time>2026-04-16T12:26:25.868Z</time></trkpt><trkpt lat="42.146215" lon="14.5867983"><ele>109.0</ele><time>2026-04-16T12:26:28.868Z</time></trkpt><trkpt lat="42.1461683" lon="14.5868817"><ele>109.0</ele><time>2026-04-16T12:26:32.868Z</time></trkpt><trkpt lat="42.14611" lon="14.58696"><ele>109.0</ele><time>2026-04-16T12:26:36.869Z</time></trkpt><trkpt lat="42.1460517" lon="14.58704"><ele>109.00000000000001</ele><time>2026-04-16T12:26:39.868Z</time></trkpt><trkpt lat="42.146" lon="14.5871167"><ele>109.0</ele><time>2026-04-16T12:26:41.869Z</time></trkpt><trkpt lat="42.1459433" lon="14.5872083"><ele>110.33333333333334</ele><time>2026-04-16T12:26:43.868Z</time></trkpt><trkpt lat="42.1458883" lon="14.5872967"><ele>111.66666666666667</ele><time>2026-04-16T12:26:45.869Z</time></trkpt><trkpt lat="42.1458317" lon="14.587385"><ele>113.0</ele><time>2026-04-16T12:26:47.869Z</time></trkpt><trkpt lat="42.1457717" lon="14.5874667"><ele>114.33333333333334</ele><time>2026-04-16T12:26:49.869Z</time></trkpt><trkpt lat="42.14571" lon="14.5875483"><ele>115.66666666666667</ele><time>2026-04-16T12:26:51.869Z</time></trkpt><trkpt lat="42.145635" lon="14.587625"><ele>117.0</ele><time>2026-04-16T12:26:53.869Z</time></trkpt><trkpt lat="42.1455667" lon="14.5876983"><ele>113.19999999999999</ele><time>2026-04-16T12:26:55.869Z</time></trkpt><trkpt lat="42.1454933" lon="14.58778"><ele>109.39999999999999</ele><time>2026-04-16T12:26:57.869Z</time></trkpt><trkpt lat="42.145405" lon="14.5878783"><ele>105.6</ele><time>2026-04-16T12:26:59.868Z</time></trkpt><trkpt lat="42.145335" lon="14.588005"><ele>101.80000000000001</ele><time>2026-04-16T12:27:01.868Z</time></trkpt><trkpt lat="42.14529" lon="14.5881417"><ele>98.0</ele><time>2026-04-16T12:27:03.868Z</time></trkpt><trkpt lat="42.1452633" lon="14.588265"><ele>98.0</ele><time>2026-04-16T12:27:05.869Z</time></trkpt><trkpt lat="42.1452417" lon="14.5883633"><ele>98.0</ele><time>2026-04-16T12:27:07.869Z</time></trkpt><trkpt lat="42.14523" lon="14.588455"><ele>98.0</ele><time>2026-04-16T12:27:11.869Z</time></trkpt><trkpt lat="42.14523" lon="14.5885433"><ele>98.0</ele><time>2026-04-16T12:27:15.869Z</time></trkpt><trkpt lat="42.1452133" lon="14.5886267"><ele>98.0</ele><time>2026-04-16T12:27:20.869Z</time></trkpt><trkpt lat="42.1452083" lon="14.5887117"><ele>98.0</ele><time>2026-04-16T12:27:23.869Z</time></trkpt><trkpt lat="42.145215" lon="14.5888167"><ele>98.0</ele><time>2026-04-16T12:27:26.869Z</time></trkpt><trkpt lat="42.1452217" lon="14.5889167"><ele>98.16666666666666</ele><time>2026-04-16T12:27:29.869Z</time></trkpt><trkpt lat="42.14524" lon="14.589025"><ele>98.33333333333333</ele><time>2026-04-16T12:27:32.869Z</time></trkpt><trkpt lat="42.1452483" lon="14.5891367"><ele>98.5</ele><time>2026-04-16T12:27:35.868Z</time></trkpt><trkpt lat="42.1452567" lon="14.5892517"><ele>98.66666666666666</ele><time>2026-04-16T12:27:52.868Z</time></trkpt><trkpt lat="42.1452567" lon="14.589345"><ele>98.83333333333333</ele><time>2026-04-16T12:27:57.869Z</time></trkpt><trkpt lat="42.145285" lon="14.5892633"><ele>99.0</ele><time>2026-04-16T12:28:47.869Z</time></trkpt><trkpt lat="42.1452883" lon="14.58916"><ele>99.0</ele><time>2026-04-16T12:28:51.868Z</time></trkpt><trkpt lat="42.1452767" lon="14.58906"><ele>99.0</ele><time>2026-04-16T12:28:55.868Z</time></trkpt><trkpt lat="42.1452683" lon="14.588975"><ele>99.0</ele><time>2026-04-16T12:28:59.869Z</time></trkpt><trkpt lat="42.1452583" lon="14.5888783"><ele>99.0</ele><time>2026-04-16T12:29:03.868Z</time></trkpt><trkpt lat="42.1452533" lon="14.588785"><ele>99.0</ele><time>2026-04-16T12:29:07.869Z</time></trkpt><trkpt lat="42.1452517" lon="14.58867"><ele>99.0</ele><time>2026-04-16T12:29:14.868Z</time></trkpt><trkpt lat="42.14525" lon="14.588585"><ele>99.0</ele><time>2026-04-16T12:29:19.868Z</time></trkpt><trkpt lat="42.1452483" lon="14.5884867"><ele>98.83333333333333</ele><time>2026-04-16T12:29:24.869Z</time></trkpt><trkpt lat="42.145265" lon="14.5884017"><ele>98.66666666666666</ele><time>2026-04-16T12:29:28.868Z</time></trkpt><trkpt lat="42.1453017" lon="14.5883"><ele>98.5</ele><time>2026-04-16T12:29:33.869Z</time></trkpt><trkpt lat="42.14531" lon="14.5881083"><ele>98.33333333333333</ele><time>2026-04-16T12:30:22.869Z</time></trkpt><trkpt lat="42.14534" lon="14.5880317"><ele>98.16666666666666</ele><time>2026-04-16T12:30:26.869Z</time></trkpt><trkpt lat="42.14538" lon="14.5879533"><ele>98.0</ele><time>2026-04-16T12:30:31.869Z</time></trkpt><trkpt lat="42.1454283" lon="14.58788"><ele>97.71428571428571</ele><time>2026-04-16T12:30:36.868Z</time></trkpt><trkpt lat="42.1454767" lon="14.5878133"><ele>97.42857142857143</ele><time>2026-04-16T12:30:40.868Z</time></trkpt><trkpt lat="42.1455333" lon="14.587765"><ele>97.14285714285714</ele><time>2026-04-16T12:30:44.868Z</time></trkpt><trkpt lat="42.14559" lon="14.5876967"><ele>96.85714285714286</ele><time>2026-04-16T12:30:49.868Z</time></trkpt><trkpt lat="42.1456567" lon="14.587635"><ele>96.57142857142857</ele><time>2026-04-16T12:30:54.869Z</time></trkpt><trkpt lat="42.145715" lon="14.5875667"><ele>96.28571428571428</ele><time>2026-04-16T12:30:58.869Z</time></trkpt><trkpt lat="42.1457667" lon="14.58751"><ele>96.0</ele><time>2026-04-16T12:31:02.869Z</time></trkpt><trkpt lat="42.14582" lon="14.5874367"><ele>97.85714285714285</ele><time>2026-04-16T12:31:07.869Z</time></trkpt><trkpt lat="42.1458633" lon="14.587375"><ele>99.71428571428571</ele><time>2026-04-16T12:31:11.869Z</time></trkpt><trkpt lat="42.1459067" lon="14.5873017"><ele>101.57142857142857</ele><time>2026-04-16T12:31:16.869Z</time></trkpt><trkpt lat="42.1459567" lon="14.587225"><ele>103.42857142857142</ele><time>2026-04-16T12:31:21.869Z</time></trkpt><trkpt lat="42.145995" lon="14.5871483"><ele>105.28571428571429</ele><time>2026-04-16T12:31:25.868Z</time></trkpt><trkpt lat="42.1460417" lon="14.5870783"><ele>107.14285714285714</ele><time>2026-04-16T12:31:29.869Z</time></trkpt><trkpt lat="42.1460817" lon="14.58701"><ele>109.0</ele><time>2026-04-16T12:31:33.869Z</time></trkpt><trkpt lat="42.14613" lon="14.5869283"><ele>109.00000000000001</ele><time>2026-04-16T12:31:38.869Z</time></trkpt><trkpt lat="42.1461717" lon="14.58686"><ele>109.0</ele><time>2026-04-16T12:31:42.869Z</time></trkpt><trkpt lat="42.1462267" lon="14.5867867"><ele>109.0</ele><time>2026-04-16T12:31:47.869Z</time></trkpt><trkpt lat="42.1462617" lon="14.5867033"><ele>109.0</ele><time>2026-04-16T12:31:52.869Z</time></trkpt><trkpt lat="42.1462983" lon="14.58661"><ele>109.00000000000001</ele><time>2026-04-16T12:31:57.868Z</time></trkpt><trkpt lat="42.1463417" lon="14.5865233"><ele>109.0</ele><time>2026-04-16T12:32:02.869Z</time></trkpt><trkpt lat="42.1463917" lon="14.5864383"><ele>109.0</ele><time>2026-04-16T12:32:07.869Z</time></trkpt><trkpt lat="42.1464317" lon="14.5863617"><ele>109.0</ele><time>2026-04-16T12:32:11.868Z</time></trkpt><trkpt lat="42.1464833" lon="14.5862867"><ele>109.0</ele><time>2026-04-16T12:32:16.868Z</time></trkpt><trkpt lat="42.1465333" lon="14.5862317"><ele>109.0</ele><time>2026-04-16T12:32:20.869Z</time></trkpt><trkpt lat="42.14659" lon="14.5861767"><ele>109.0</ele><time>2026-04-16T12:32:24.869Z</time></trkpt><trkpt lat="42.14665" lon="14.5861083"><ele>109.0</ele><time>2026-04-16T12:32:29.868Z</time></trkpt><trkpt lat="42.146705" lon="14.5860483"><ele>109.0</ele><time>2026-04-16T12:32:34.869Z</time></trkpt><trkpt lat="42.1467633" lon="14.5859933"><ele>111.71428571428572</ele><time>2026-04-16T12:32:38.869Z</time></trkpt><trkpt lat="42.1468233" lon="14.5859467"><ele>114.42857142857143</ele><time>2026-04-16T12:32:42.869Z</time></trkpt><trkpt lat="42.146875" lon="14.5858767"><ele>117.14285714285714</ele><time>2026-04-16T12:32:46.868Z</time></trkpt><trkpt lat="42.14692" lon="14.585815"><ele>119.85714285714286</ele><time>2026-04-16T12:32:50.869Z</time></trkpt><trkpt lat="42.14696" lon="14.5857367"><ele>122.57142857142856</ele><time>2026-04-16T12:32:55.868Z</time></trkpt><trkpt lat="42.147" lon="14.5856667"><ele>125.28571428571428</ele><time>2026-04-16T12:32:59.869Z</time></trkpt><trkpt lat="42.1470317" lon="14.58556"><ele>128.0</ele><time>2026-04-16T12:33:05.868Z</time></trkpt><trkpt lat="42.147065" lon="14.5854583"><ele>128.0</ele><time>2026-04-16T12:33:10.869Z</time></trkpt><trkpt lat="42.1470983" lon="14.5853583"><ele>127.99999999999999</ele><time>2026-04-16T12:33:14.869Z</time></trkpt><trkpt lat="42.1471333" lon="14.58528"><ele>128.0</ele><time>2026-04-16T12:33:18.869Z</time></trkpt><trkpt lat="42.1471517" lon="14.5851783"><ele>128.0</ele><time>2026-04-16T12:33:21.869Z</time></trkpt><trkpt lat="42.14715" lon="14.5850917"><ele>127.99999999999999</ele><time>2026-04-16T12:33:23.868Z</time></trkpt><trkpt lat="42.14713" lon="14.5849967"><ele>128.0</ele><time>2026-04-16T12:33:25.869Z</time></trkpt><trkpt lat="42.1471083" lon="14.5849"><ele>128.0</ele><time>2026-04-16T12:33:27.868Z</time></trkpt><trkpt lat="42.1470967" lon="14.58481"><ele>126.71428571428571</ele><time>2026-04-16T12:33:29.869Z</time></trkpt><trkpt lat="42.1471067" lon="14.5847167"><ele>125.42857142857142</ele><time>2026-04-16T12:33:31.868Z</time></trkpt><trkpt lat="42.1471317" lon="14.58463"><ele>124.14285714285714</ele><time>2026-04-16T12:33:33.869Z</time></trkpt><trkpt lat="42.1471633" lon="14.5845417"><ele>122.85714285714286</ele><time>2026-04-16T12:33:35.868Z</time></trkpt><trkpt lat="42.1471933" lon="14.5844567"><ele>121.57142857142857</ele><time>2026-04-16T12:33:37.869Z</time></trkpt><trkpt lat="42.1472283" lon="14.5843783"><ele>120.28571428571428</ele><time>2026-04-16T12:33:39.869Z</time></trkpt><trkpt lat="42.14726" lon="14.5842983"><ele>119.0</ele><time>2026-04-16T12:33:41.868Z</time></trkpt><trkpt lat="42.1473033" lon="14.5841917"><ele>118.83333333333333</ele><time>2026-04-16T12:33:44.869Z</time></trkpt><trkpt lat="42.1473267" lon="14.5840833"><ele>118.66666666666666</ele><time>2026-04-16T12:33:47.869Z</time></trkpt><trkpt lat="42.1473133" lon="14.583975"><ele>118.5</ele><time>2026-04-16T12:33:50.868Z</time></trkpt><trkpt lat="42.14728" lon="14.5838917"><ele>118.33333333333334</ele><time>2026-04-16T12:33:55.869Z</time></trkpt><trkpt lat="42.1472317" lon="14.583815"><ele>118.16666666666667</ele><time>2026-04-16T12:33:58.868Z</time></trkpt><trkpt lat="42.1471767" lon="14.5837367"><ele>118.0</ele><time>2026-04-16T12:34:01.868Z</time></trkpt><trkpt lat="42.1471317" lon="14.583675"><ele>119.33333333333334</ele><time>2026-04-16T12:34:03.868Z</time></trkpt><trkpt lat="42.1470783" lon="14.583615"><ele>120.66666666666667</ele><time>2026-04-16T12:34:05.869Z</time></trkpt><trkpt lat="42.1470283" lon="14.5835483"><ele>122.0</ele><time>2026-04-16T12:34:07.869Z</time></trkpt><trkpt lat="42.1469833" lon="14.5834767"><ele>123.33333333333334</ele><time>2026-04-16T12:34:09.868Z</time></trkpt><trkpt lat="42.1469217" lon="14.5833983"><ele>124.66666666666667</ele><time>2026-04-16T12:34:11.869Z</time></trkpt><trkpt lat="42.146845" lon="14.583315"><ele>126.0</ele><time>2026-04-16T12:34:13.869Z</time></trkpt><trkpt lat="42.1467567" lon="14.5832267"><ele>126.0</ele><time>2026-04-16T12:34:15.869Z</time></trkpt><trkpt lat="42.1466683" lon="14.5831433"><ele>126.0</ele><time>2026-04-16T12:34:17.869Z</time></trkpt><trkpt lat="42.1465783" lon="14.5830733"><ele>126.0</ele><time>2026-04-16T12:34:19.869Z</time></trkpt><trkpt lat="42.146495" lon="14.58299"><ele>126.0</ele><time>2026-04-16T12:34:21.869Z</time></trkpt><trkpt lat="42.1464317" lon="14.582905"><ele>126.0</ele><time>2026-04-16T12:34:23.869Z</time></trkpt><trkpt lat="42.1463783" lon="14.5827983"><ele>123.0</ele><time>2026-04-16T12:34:25.868Z</time></trkpt><trkpt lat="42.146335" lon="14.5826883"><ele>120.0</ele><time>2026-04-16T12:34:27.869Z</time></trkpt><trkpt lat="42.1462967" lon="14.5825983"><ele>117.0</ele><time>2026-04-16T12:34:29.869Z</time></trkpt><trkpt lat="42.1462567" lon="14.5825017"><ele>114.0</ele><time>2026-04-16T12:34:32.869Z</time></trkpt><trkpt lat="42.146225" lon="14.5824183"><ele>111.0</ele><time>2026-04-16T12:34:35.869Z</time></trkpt><trkpt lat="42.14621" lon="14.5823167"><ele>108.0</ele><time>2026-04-16T12:34:39.869Z</time></trkpt><trkpt lat="42.1462" lon="14.582225"><ele>108.0</ele><time>2026-04-16T12:34:42.869Z</time></trkpt><trkpt lat="42.1462" lon="14.5821283"><ele>108.0</ele><time>2026-04-16T12:34:45.869Z</time></trkpt><trkpt lat="42.146195" lon="14.5820433"><ele>108.0</ele><time>2026-04-16T12:34:48.869Z</time></trkpt><trkpt lat="42.14621" lon="14.58195"><ele>108.0</ele><time>2026-04-16T12:34:53.868Z</time></trkpt><trkpt lat="42.1461933" lon="14.58184"><ele>108.0</ele><time>2026-04-16T12:35:02.868Z</time></trkpt><trkpt lat="42.1461683" lon="14.5817533"><ele>108.0</ele><time>2026-04-16T12:35:06.868Z</time></trkpt><trkpt lat="42.14615" lon="14.581665"><ele>108.0</ele><time>2026-04-16T12:35:11.869Z</time></trkpt><trkpt lat="42.1461433" lon="14.581575"><ele>108.0</ele><time>2026-04-16T12:35:16.869Z</time></trkpt><trkpt lat="42.1461233" lon="14.5814917"><ele>108.0</ele><time>2026-04-16T12:35:21.869Z</time></trkpt><trkpt lat="42.1461067" lon="14.58139"><ele>108.0</ele><time>2026-04-16T12:35:26.869Z</time></trkpt><trkpt lat="42.1460933" lon="14.5812817"><ele>108.0</ele><time>2026-04-16T12:35:30.868Z</time></trkpt><trkpt lat="42.1460883" lon="14.5811783"><ele>108.0</ele><time>2026-04-16T12:35:34.869Z</time></trkpt><trkpt lat="42.146085" lon="14.5810933"><ele>108.0</ele><time>2026-04-16T12:35:37.868Z</time></trkpt><trkpt lat="42.14608" lon="14.580985"><ele>108.0</ele><time>2026-04-16T12:35:41.868Z</time></trkpt><trkpt lat="42.146075" lon="14.5808867"><ele>108.71428571428571</ele><time>2026-04-16T12:35:45.869Z</time></trkpt><trkpt lat="42.146065" lon="14.5807983"><ele>109.42857142857142</ele><time>2026-04-16T12:35:48.869Z</time></trkpt><trkpt lat="42.14605" lon="14.5806967"><ele>110.14285714285714</ele><time>2026-04-16T12:35:52.869Z</time></trkpt><trkpt lat="42.1460433" lon="14.580605"><ele>110.85714285714286</ele><time>2026-04-16T12:35:55.868Z</time></trkpt><trkpt lat="42.1460367" lon="14.5804917"><ele>111.57142857142857</ele><time>2026-04-16T12:35:59.869Z</time></trkpt><trkpt lat="42.1460367" lon="14.5804067"><ele>112.28571428571429</ele><time>2026-04-16T12:36:02.869Z</time></trkpt><trkpt lat="42.1460217" lon="14.5803217"><ele>113.0</ele><time>2026-04-16T12:36:05.869Z</time></trkpt><trkpt lat="42.1460133" lon="14.5802267"><ele>113.71428571428572</ele><time>2026-04-16T12:36:08.869Z</time></trkpt><trkpt lat="42.1460067" lon="14.5801283"><ele>114.42857142857142</ele><time>2026-04-16T12:36:11.869Z</time></trkpt><trkpt lat="42.1460033" lon="14.5800333"><ele>115.14285714285714</ele><time>2026-04-16T12:36:14.869Z</time></trkpt><trkpt lat="42.1459933" lon="14.5799283"><ele>115.85714285714286</ele><time>2026-04-16T12:36:17.869Z</time></trkpt><trkpt lat="42.14599" lon="14.57984"><ele>116.57142857142858</ele><time>2026-04-16T12:36:20.868Z</time></trkpt><trkpt lat="42.14599" lon="14.5797517"><ele>117.28571428571428</ele><time>2026-04-16T12:36:23.869Z</time></trkpt><trkpt lat="42.1459917" lon="14.5796567"><ele>118.0</ele><time>2026-04-16T12:36:26.869Z</time></trkpt><trkpt lat="42.1459933" lon="14.57955"><ele>117.71428571428571</ele><time>2026-04-16T12:36:29.869Z</time></trkpt><trkpt lat="42.146" lon="14.5794567"><ele>117.42857142857144</ele><time>2026-04-16T12:36:32.868Z</time></trkpt><trkpt lat="42.14603" lon="14.5793633"><ele>117.14285714285715</ele><time>2026-04-16T12:36:35.868Z</time></trkpt><trkpt lat="42.1460467" lon="14.5792533"><ele>116.85714285714286</ele><time>2026-04-16T12:36:39.868Z</time></trkpt><trkpt lat="42.1460617" lon="14.5791617"><ele>116.57142857142858</ele><time>2026-04-16T12:36:42.869Z</time></trkpt><trkpt lat="42.14607" lon="14.5790767"><ele>116.2857142857143</ele><time>2026-04-16T12:36:45.869Z</time></trkpt><trkpt lat="42.146075" lon="14.5789917"><ele>116.00000000000001</ele><time>2026-04-16T12:36:48.869Z</time></trkpt><trkpt lat="42.1460833" lon="14.5789017"><ele>115.99999999999999</ele><time>2026-04-16T12:36:51.869Z</time></trkpt><trkpt lat="42.1461033" lon="14.57878"><ele>116.0</ele><time>2026-04-16T12:36:54.868Z</time></trkpt><trkpt lat="42.146125" lon="14.5786667"><ele>116.0</ele><time>2026-04-16T12:36:57.869Z</time></trkpt><trkpt lat="42.1461367" lon="14.578565"><ele>116.0</ele><time>2026-04-16T12:37:00.869Z</time></trkpt><trkpt lat="42.14615" lon="14.5784767"><ele>115.99999999999999</ele><time>2026-04-16T12:37:03.869Z</time></trkpt><trkpt lat="42.1461683" lon="14.57839"><ele>116.0</ele><time>2026-04-16T12:37:06.868Z</time></trkpt><trkpt lat="42.1461967" lon="14.57829"><ele>116.00000000000001</ele><time>2026-04-16T12:37:10.869Z</time></trkpt><trkpt lat="42.1462017" lon="14.5782"><ele>116.0</ele><time>2026-04-16T12:37:13.869Z</time></trkpt><trkpt lat="42.146225" lon="14.578115"><ele>116.00000000000001</ele><time>2026-04-16T12:37:16.869Z</time></trkpt><trkpt lat="42.14624" lon="14.5780083"><ele>116.00000000000001</ele><time>2026-04-16T12:37:20.868Z</time></trkpt><trkpt lat="42.1462533" lon="14.577905"><ele>116.0</ele><time>2026-04-16T12:37:23.868Z</time></trkpt><trkpt lat="42.1462533" lon="14.5777933"><ele>116.00000000000001</ele><time>2026-04-16T12:37:26.868Z</time></trkpt><trkpt lat="42.1462767" lon="14.57771"><ele>116.00000000000001</ele><time>2026-04-16T12:37:29.869Z</time></trkpt><trkpt lat="42.1462933" lon="14.5776167"><ele>116.00000000000001</ele><time>2026-04-16T12:37:32.869Z</time></trkpt><trkpt lat="42.1463083" lon="14.577525"><ele>116.0</ele><time>2026-04-16T12:37:35.869Z</time></trkpt><trkpt lat="42.1463283" lon="14.57743"><ele>116.00000000000001</ele><time>2026-04-16T12:37:38.869Z</time></trkpt><trkpt lat="42.1463433" lon="14.5773433"><ele>116.00000000000001</ele><time>2026-04-16T12:37:41.868Z</time></trkpt><trkpt lat="42.1463567" lon="14.5772533"><ele>116.0</ele><time>2026-04-16T12:37:45.868Z</time></trkpt><trkpt lat="42.1463617" lon="14.57715"><ele>116.00000000000001</ele><time>2026-04-16T12:37:49.869Z</time></trkpt><trkpt lat="42.1463717" lon="14.5770633"><ele>116.00000000000001</ele><time>2026-04-16T12:37:52.868Z</time></trkpt><trkpt lat="42.1463783" lon="14.5769733"><ele>116.33333333333333</ele><time>2026-04-16T12:37:55.868Z</time></trkpt><trkpt lat="42.1463683" lon="14.5768633"><ele>116.66666666666666</ele><time>2026-04-16T12:37:58.868Z</time></trkpt><trkpt lat="42.146345" lon="14.5767517"><ele>117.0</ele><time>2026-04-16T12:38:01.869Z</time></trkpt><trkpt lat="42.14632" lon="14.5766633"><ele>117.33333333333334</ele><time>2026-04-16T12:38:03.869Z</time></trkpt><trkpt lat="42.1462833" lon="14.5765833"><ele>117.66666666666667</ele><time>2026-04-16T12:38:05.868Z</time></trkpt><trkpt lat="42.14624" lon="14.57652"><ele>118.0</ele><time>2026-04-16T12:38:07.869Z</time></trkpt><trkpt lat="42.146195" lon="14.5764283"><ele>118.00000000000001</ele><time>2026-04-16T12:38:10.869Z</time></trkpt><trkpt lat="42.14616" lon="14.576355"><ele>118.0</ele><time>2026-04-16T12:38:13.868Z</time></trkpt><trkpt lat="42.14612" lon="14.5762417"><ele>118.0</ele><time>2026-04-16T12:38:17.868Z</time></trkpt><trkpt lat="42.1461083" lon="14.5761217"><ele>118.0</ele><time>2026-04-16T12:38:20.869Z</time></trkpt><trkpt lat="42.1461033" lon="14.5760067"><ele>118.00000000000001</ele><time>2026-04-16T12:38:23.869Z</time></trkpt><trkpt lat="42.1460933" lon="14.5759167"><ele>118.0</ele><time>2026-04-16T12:38:25.868Z</time></trkpt><trkpt lat="42.1460817" lon="14.5758"><ele>118.14285714285714</ele><time>2026-04-16T12:38:28.869Z</time></trkpt><trkpt lat="42.1460817" lon="14.5756783"><ele>118.28571428571429</ele><time>2026-04-16T12:38:31.869Z</time></trkpt><trkpt lat="42.1460883" lon="14.57559"><ele>118.42857142857143</ele><time>2026-04-16T12:38:33.869Z</time></trkpt><trkpt lat="42.1461033" lon="14.5755"><ele>118.57142857142857</ele><time>2026-04-16T12:38:35.869Z</time></trkpt><trkpt lat="42.14612" lon="14.5754083"><ele>118.71428571428572</ele><time>2026-04-16T12:38:37.869Z</time></trkpt><trkpt lat="42.146145" lon="14.5753033"><ele>118.85714285714286</ele><time>2026-04-16T12:38:39.868Z</time></trkpt><trkpt lat="42.146165" lon="14.5752183"><ele>119.0</ele><time>2026-04-16T12:38:41.869Z</time></trkpt><trkpt lat="42.1461883" lon="14.5751117"><ele>118.49999999999999</ele><time>2026-04-16T12:38:44.869Z</time></trkpt><trkpt lat="42.1462133" lon="14.5750083"><ele>118.0</ele><time>2026-04-16T12:38:47.869Z</time></trkpt><trkpt lat="42.1462517" lon="14.5749133"><ele>117.5</ele><time>2026-04-16T12:38:50.869Z</time></trkpt><trkpt lat="42.1462883" lon="14.5748317"><ele>117.0</ele><time>2026-04-16T12:38:53.869Z</time></trkpt><trkpt lat="42.1463417" lon="14.5747567"><ele>116.49999999999999</ele><time>2026-04-16T12:38:56.869Z</time></trkpt><trkpt lat="42.1464033" lon="14.5746667"><ele>116.0</ele><time>2026-04-16T12:38:59.869Z</time></trkpt><trkpt lat="42.14647" lon="14.57458"><ele>115.2857142857143</ele><time>2026-04-16T12:39:02.868Z</time></trkpt><trkpt lat="42.1465117" lon="14.5745083"><ele>114.57142857142858</ele><time>2026-04-16T12:39:04.868Z</time></trkpt><trkpt lat="42.1465633" lon="14.57441"><ele>113.85714285714286</ele><time>2026-04-16T12:39:07.868Z</time></trkpt><trkpt lat="42.1466083" lon="14.5743367"><ele>113.14285714285715</ele><time>2026-04-16T12:39:10.869Z</time></trkpt><trkpt lat="42.1466467" lon="14.5742533"><ele>112.42857142857144</ele><time>2026-04-16T12:39:13.869Z</time></trkpt><trkpt lat="42.14668" lon="14.574155"><ele>111.71428571428571</ele><time>2026-04-16T12:39:17.868Z</time></trkpt><trkpt lat="42.1466883" lon="14.57407"><ele>111.0</ele><time>2026-04-16T12:39:20.869Z</time></trkpt><trkpt lat="42.14669" lon="14.5739833"><ele>114.14285714285714</ele><time>2026-04-16T12:39:23.869Z</time></trkpt><trkpt lat="42.14669" lon="14.573885"><ele>117.28571428571429</ele><time>2026-04-16T12:39:26.869Z</time></trkpt><trkpt lat="42.1466917" lon="14.5737883"><ele>120.42857142857143</ele><time>2026-04-16T12:39:29.869Z</time></trkpt><trkpt lat="42.1466867" lon="14.5736983"><ele>123.57142857142857</ele><time>2026-04-16T12:39:32.869Z</time></trkpt><trkpt lat="42.14668" lon="14.5735983"><ele>126.71428571428572</ele><time>2026-04-16T12:39:35.868Z</time></trkpt><trkpt lat="42.1466767" lon="14.5735017"><ele>129.85714285714286</ele><time>2026-04-16T12:39:38.869Z</time></trkpt><trkpt lat="42.1466717" lon="14.5733967"><ele>133.0</ele><time>2026-04-16T12:39:41.869Z</time></trkpt><trkpt lat="42.14666" lon="14.5732983"><ele>134.0</ele><time>2026-04-16T12:39:44.869Z</time></trkpt><trkpt lat="42.14665" lon="14.573205"><ele>135.0</ele><time>2026-04-16T12:39:47.868Z</time></trkpt><trkpt lat="42.1466267" lon="14.573095"><ele>136.0</ele><time>2026-04-16T12:39:51.868Z</time></trkpt><trkpt lat="42.1466117" lon="14.572985"><ele>137.0</ele><time>2026-04-16T12:39:55.869Z</time></trkpt><trkpt lat="42.1466033" lon="14.5728883"><ele>138.0</ele><time>2026-04-16T12:39:58.869Z</time></trkpt><trkpt lat="42.1465833" lon="14.572795"><ele>139.0</ele><time>2026-04-16T12:40:01.869Z</time></trkpt><trkpt lat="42.1465733" lon="14.5726933"><ele>139.16666666666669</ele><time>2026-04-16T12:40:04.869Z</time></trkpt><trkpt lat="42.1465667" lon="14.5725817"><ele>139.33333333333334</ele><time>2026-04-16T12:40:07.868Z</time></trkpt><trkpt lat="42.1465617" lon="14.5724767"><ele>139.5</ele><time>2026-04-16T12:40:10.869Z</time></trkpt><trkpt lat="42.1465617" lon="14.5723533"><ele>139.66666666666666</ele><time>2026-04-16T12:40:13.869Z</time></trkpt><trkpt lat="42.146575" lon="14.5722533"><ele>139.83333333333331</ele><time>2026-04-16T12:40:15.868Z</time></trkpt><trkpt lat="42.1466" lon="14.5721517"><ele>140.0</ele><time>2026-04-16T12:40:17.869Z</time></trkpt><trkpt lat="42.1466333" lon="14.572035"><ele>138.4</ele><time>2026-04-16T12:40:19.868Z</time></trkpt><trkpt lat="42.14666" lon="14.5719117"><ele>136.8</ele><time>2026-04-16T12:40:21.868Z</time></trkpt><trkpt lat="42.146685" lon="14.571775"><ele>135.2</ele><time>2026-04-16T12:40:23.869Z</time></trkpt><trkpt lat="42.1467183" lon="14.5716267"><ele>133.6</ele><time>2026-04-16T12:40:25.869Z</time></trkpt><trkpt lat="42.1467367" lon="14.571475"><ele>132.0</ele><time>2026-04-16T12:40:27.869Z</time></trkpt><trkpt lat="42.1467433" lon="14.5713283"><ele>131.33333333333334</ele><time>2026-04-16T12:40:29.868Z</time></trkpt><trkpt lat="42.146735" lon="14.5711767"><ele>130.66666666666666</ele><time>2026-04-16T12:40:31.869Z</time></trkpt><trkpt lat="42.1467367" lon="14.57104"><ele>130.0</ele><time>2026-04-16T12:40:33.868Z</time></trkpt><trkpt lat="42.1467517" lon="14.57093"><ele>129.33333333333331</ele><time>2026-04-16T12:40:35.869Z</time></trkpt><trkpt lat="42.1467867" lon="14.5708483"><ele>128.66666666666666</ele><time>2026-04-16T12:40:37.868Z</time></trkpt><trkpt lat="42.14684" lon="14.5707917"><ele>128.0</ele><time>2026-04-16T12:40:39.869Z</time></trkpt><trkpt lat="42.1468983" lon="14.57073"><ele>128.0</ele><time>2026-04-16T12:40:42.869Z</time></trkpt><trkpt lat="42.1469633" lon="14.57069"><ele>127.99999999999999</ele><time>2026-04-16T12:40:46.869Z</time></trkpt><trkpt lat="42.14703" lon="14.5706567"><ele>128.0</ele><time>2026-04-16T12:40:50.868Z</time></trkpt><trkpt lat="42.1470983" lon="14.5706333"><ele>128.0</ele><time>2026-04-16T12:40:54.868Z</time></trkpt><trkpt lat="42.14717" lon="14.5705867"><ele>127.99999999999999</ele><time>2026-04-16T12:40:59.869Z</time></trkpt><trkpt lat="42.1472333" lon="14.5705433"><ele>128.0</ele><time>2026-04-16T12:41:04.869Z</time></trkpt><trkpt lat="42.1472733" lon="14.5704633"><ele>128.0</ele><time>2026-04-16T12:41:09.868Z</time></trkpt><trkpt lat="42.14729" lon="14.5703717"><ele>128.0</ele><time>2026-04-16T12:41:13.868Z</time></trkpt><trkpt lat="42.1472967" lon="14.570285"><ele>127.99999999999999</ele><time>2026-04-16T12:41:17.869Z</time></trkpt><trkpt lat="42.14729" lon="14.5701833"><ele>128.0</ele><time>2026-04-16T12:41:22.869Z</time></trkpt><trkpt lat="42.147275" lon="14.5700833"><ele>128.0</ele><time>2026-04-16T12:41:26.869Z</time></trkpt><trkpt lat="42.14726" lon="14.5699867"><ele>127.99999999999999</ele><time>2026-04-16T12:41:30.869Z</time></trkpt><trkpt lat="42.147245" lon="14.5699"><ele>128.0</ele><time>2026-04-16T12:41:34.869Z</time></trkpt><trkpt lat="42.147225" lon="14.5698083"><ele>128.0</ele><time>2026-04-16T12:41:38.869Z</time></trkpt><trkpt lat="42.1472217" lon="14.56972"><ele>128.0</ele><time>2026-04-16T12:41:42.869Z</time></trkpt><trkpt lat="42.14724" lon="14.569615"><ele>127.99999999999999</ele><time>2026-04-16T12:41:47.868Z</time></trkpt><trkpt lat="42.14725" lon="14.5695283"><ele>128.0</ele><time>2026-04-16T12:41:50.869Z</time></trkpt><trkpt lat="42.1472583" lon="14.56944"><ele>128.0</ele><time>2026-04-16T12:41:53.869Z</time></trkpt><trkpt lat="42.1472667" lon="14.56935"><ele>127.99999999999999</ele><time>2026-04-16T12:41:56.869Z</time></trkpt><trkpt lat="42.1472783" lon="14.5692567"><ele>128.0</ele><time>2026-04-16T12:41:59.868Z</time></trkpt><trkpt lat="42.1472783" lon="14.5691667"><ele>128.0</ele><time>2026-04-16T12:42:02.869Z</time></trkpt><trkpt lat="42.1472783" lon="14.5690617"><ele>128.0</ele><time>2026-04-16T12:42:06.868Z</time></trkpt><trkpt lat="42.1472833" lon="14.5689617"><ele>127.99999999999999</ele><time>2026-04-16T12:42:10.869Z</time></trkpt><trkpt lat="42.1472783" lon="14.5688733"><ele>128.0</ele><time>2026-04-16T12:42:13.869Z</time></trkpt><trkpt lat="42.1472733" lon="14.5687817"><ele>128.0</ele><time>2026-04-16T12:42:16.868Z</time></trkpt><trkpt lat="42.1472717" lon="14.5686883"><ele>127.99999999999999</ele><time>2026-04-16T12:42:19.869Z</time></trkpt><trkpt lat="42.1472683" lon="14.5685983"><ele>128.0</ele><time>2026-04-16T12:42:22.868Z</time></trkpt><trkpt lat="42.1472783" lon="14.56849"><ele>128.0</ele><time>2026-04-16T12:42:26.869Z</time></trkpt><trkpt lat="42.147285" lon="14.5684017"><ele>127.66666666666666</ele><time>2026-04-16T12:42:29.869Z</time></trkpt><trkpt lat="42.1473133" lon="14.56831"><ele>127.33333333333333</ele><time>2026-04-16T12:42:32.868Z</time></trkpt><trkpt lat="42.14733" lon="14.5682117"><ele>127.0</ele><time>2026-04-16T12:42:35.868Z</time></trkpt><trkpt lat="42.1473483" lon="14.5681083"><ele>126.66666666666666</ele><time>2026-04-16T12:42:38.868Z</time></trkpt><trkpt lat="42.1473733" lon="14.5680067"><ele>126.33333333333333</ele><time>2026-04-16T12:42:41.869Z</time></trkpt><trkpt lat="42.1473983" lon="14.5679067"><ele>126.0</ele><time>2026-04-16T12:42:44.869Z</time></trkpt><trkpt lat="42.1474233" lon="14.567805"><ele>129.83333333333334</ele><time>2026-04-16T12:42:47.869Z</time></trkpt><trkpt lat="42.1474483" lon="14.5677267"><ele>133.66666666666666</ele><time>2026-04-16T12:42:49.868Z</time></trkpt><trkpt lat="42.14749" lon="14.567645"><ele>137.5</ele><time>2026-04-16T12:42:51.869Z</time></trkpt><trkpt lat="42.1475433" lon="14.5675717"><ele>141.33333333333331</ele><time>2026-04-16T12:42:53.868Z</time></trkpt><trkpt lat="42.1476" lon="14.56749"><ele>145.16666666666666</ele><time>2026-04-16T12:42:55.869Z</time></trkpt><trkpt lat="42.1476583" lon="14.5674067"><ele>149.0</ele><time>2026-04-16T12:42:57.869Z</time></trkpt><trkpt lat="42.1477233" lon="14.5673183"><ele>149.0</ele><time>2026-04-16T12:42:59.869Z</time></trkpt><trkpt lat="42.1477917" lon="14.56725"><ele>149.0</ele><time>2026-04-16T12:43:01.868Z</time></trkpt><trkpt lat="42.1478583" lon="14.5671783"><ele>149.0</ele><time>2026-04-16T12:43:03.868Z</time></trkpt><trkpt lat="42.147925" lon="14.5670917"><ele>149.0</ele><time>2026-04-16T12:43:05.869Z</time></trkpt><trkpt lat="42.14799" lon="14.56701"><ele>149.0</ele><time>2026-04-16T12:43:07.869Z</time></trkpt><trkpt lat="42.1480533" lon="14.566935"><ele>149.0</ele><time>2026-04-16T12:43:09.869Z</time></trkpt><trkpt lat="42.148115" lon="14.566865"><ele>149.5</ele><time>2026-04-16T12:43:11.868Z</time></trkpt><trkpt lat="42.1481733" lon="14.5668167"><ele>150.0</ele><time>2026-04-16T12:43:13.869Z</time></trkpt><trkpt lat="42.1482283" lon="14.566765"><ele>150.5</ele><time>2026-04-16T12:43:16.868Z</time></trkpt><trkpt lat="42.1482933" lon="14.566725"><ele>151.0</ele><time>2026-04-16T12:43:19.869Z</time></trkpt><trkpt lat="42.1483667" lon="14.5666567"><ele>151.5</ele><time>2026-04-16T12:43:22.869Z</time></trkpt><trkpt lat="42.1484283" lon="14.5665833"><ele>152.0</ele><time>2026-04-16T12:43:25.869Z</time></trkpt><trkpt lat="42.1484933" lon="14.566495"><ele>152.0</ele><time>2026-04-16T12:43:28.868Z</time></trkpt><trkpt lat="42.1485533" lon="14.566435"><ele>152.0</ele><time>2026-04-16T12:43:31.868Z</time></trkpt><trkpt lat="42.14862" lon="14.5663783"><ele>152.0</ele><time>2026-04-16T12:43:34.869Z</time></trkpt><trkpt lat="42.1486833" lon="14.56631"><ele>152.0</ele><time>2026-04-16T12:43:37.869Z</time></trkpt><trkpt lat="42.1487433" lon="14.5662333"><ele>152.0</ele><time>2026-04-16T12:43:41.869Z</time></trkpt><trkpt lat="42.1487883" lon="14.5661583"><ele>152.0</ele><time>2026-04-16T12:43:45.868Z</time></trkpt><trkpt lat="42.1488367" lon="14.56609"><ele>150.7142857142857</ele><time>2026-04-16T12:43:49.868Z</time></trkpt><trkpt lat="42.14889" lon="14.5660317"><ele>149.42857142857144</ele><time>2026-04-16T12:43:53.869Z</time></trkpt><trkpt lat="42.1489417" lon="14.5659733"><ele>148.14285714285714</ele><time>2026-04-16T12:43:57.868Z</time></trkpt><trkpt lat="42.1489917" lon="14.5659067"><ele>146.85714285714283</ele><time>2026-04-16T12:44:01.869Z</time></trkpt><trkpt lat="42.1490433" lon="14.565825"><ele>145.57142857142856</ele><time>2026-04-16T12:44:05.869Z</time></trkpt><trkpt lat="42.1490883" lon="14.5657317"><ele>144.28571428571428</ele><time>2026-04-16T12:44:09.869Z</time></trkpt><trkpt lat="42.1491083" lon="14.56565"><ele>143.0</ele><time>2026-04-16T12:44:13.868Z</time></trkpt><trkpt lat="42.1491267" lon="14.5655633"><ele>145.99999999999997</ele><time>2026-04-16T12:44:17.869Z</time></trkpt><trkpt lat="42.1491483" lon="14.56548"><ele>149.0</ele><time>2026-04-16T12:44:21.869Z</time></trkpt><trkpt lat="42.14917" lon="14.5653967"><ele>152.0</ele><time>2026-04-16T12:44:25.868Z</time></trkpt><trkpt lat="42.1491783" lon="14.5653117"><ele>155.0</ele><time>2026-04-16T12:44:29.869Z</time></trkpt><trkpt lat="42.1491683" lon="14.56522"><ele>158.0</ele><time>2026-04-16T12:44:33.869Z</time></trkpt><trkpt lat="42.1491667" lon="14.5651217"><ele>160.99999999999997</ele><time>2026-04-16T12:44:37.869Z</time></trkpt><trkpt lat="42.1491583" lon="14.5650233"><ele>164.0</ele><time>2026-04-16T12:44:41.869Z</time></trkpt><trkpt lat="42.1491567" lon="14.5649333"><ele>164.14285714285714</ele><time>2026-04-16T12:44:45.869Z</time></trkpt><trkpt lat="42.149145" lon="14.5648467"><ele>164.28571428571428</ele><time>2026-04-16T12:44:49.868Z</time></trkpt><trkpt lat="42.1491517" lon="14.5647567"><ele>164.42857142857144</ele><time>2026-04-16T12:44:53.869Z</time></trkpt><trkpt lat="42.1491617" lon="14.5646717"><ele>164.57142857142856</ele><time>2026-04-16T12:44:57.869Z</time></trkpt><trkpt lat="42.1491717" lon="14.56458"><ele>164.71428571428572</ele><time>2026-04-16T12:45:01.869Z</time></trkpt><trkpt lat="42.1491817" lon="14.5644833"><ele>164.85714285714286</ele><time>2026-04-16T12:45:05.869Z</time></trkpt><trkpt lat="42.1491883" lon="14.564385"><ele>165.0</ele><time>2026-04-16T12:45:10.869Z</time></trkpt><trkpt lat="42.1492017" lon="14.56429"><ele>166.57142857142858</ele><time>2026-04-16T12:45:15.868Z</time></trkpt><trkpt lat="42.1492383" lon="14.5642067"><ele>168.14285714285714</ele><time>2026-04-16T12:45:19.868Z</time></trkpt><trkpt lat="42.1493" lon="14.5641567"><ele>169.71428571428572</ele><time>2026-04-16T12:45:23.869Z</time></trkpt><trkpt lat="42.14937" lon="14.564155"><ele>171.28571428571428</ele><time>2026-04-16T12:45:27.869Z</time></trkpt><trkpt lat="42.149435" lon="14.5641817"><ele>172.85714285714286</ele><time>2026-04-16T12:45:32.869Z</time></trkpt><trkpt lat="42.1494733" lon="14.5642583"><ele>174.42857142857144</ele><time>2026-04-16T12:45:37.868Z</time></trkpt><trkpt lat="42.1495017" lon="14.5643417"><ele>176.0</ele><time>2026-04-16T12:45:41.868Z</time></trkpt><trkpt lat="42.1495283" lon="14.564425"><ele>176.0</ele><time>2026-04-16T12:45:45.869Z</time></trkpt><trkpt lat="42.1495483" lon="14.5645217"><ele>176.0</ele><time>2026-04-16T12:45:49.868Z</time></trkpt><trkpt lat="42.1495717" lon="14.5646183"><ele>176.0</ele><time>2026-04-16T12:45:53.868Z</time></trkpt><trkpt lat="42.149615" lon="14.564715"><ele>176.0</ele><time>2026-04-16T12:45:57.868Z</time></trkpt><trkpt lat="42.1496767" lon="14.564775"><ele>176.0</ele><time>2026-04-16T12:46:01.869Z</time></trkpt><trkpt lat="42.14974" lon="14.5647767"><ele>176.0</ele><time>2026-04-16T12:46:04.868Z</time></trkpt><trkpt lat="42.1497933" lon="14.5647133"><ele>176.0</ele><time>2026-04-16T12:46:08.869Z</time></trkpt><trkpt lat="42.149805" lon="14.5646083"><ele>176.0</ele><time>2026-04-16T12:46:13.869Z</time></trkpt><trkpt lat="42.1498083" lon="14.5645167"><ele>176.0</ele><time>2026-04-16T12:46:17.869Z</time></trkpt><trkpt lat="42.14981" lon="14.56443"><ele>176.0</ele><time>2026-04-16T12:46:21.869Z</time></trkpt><trkpt lat="42.1497967" lon="14.56433"><ele>176.0</ele><time>2026-04-16T12:46:25.869Z</time></trkpt><trkpt lat="42.149785" lon="14.564235"><ele>176.0</ele><time>2026-04-16T12:46:29.868Z</time></trkpt><trkpt lat="42.149785" lon="14.5641433"><ele>176.0</ele><time>2026-04-16T12:46:33.869Z</time></trkpt><trkpt lat="42.1497817" lon="14.5640567"><ele>176.0</ele><time>2026-04-16T12:46:37.869Z</time></trkpt><trkpt lat="42.149775" lon="14.56396"><ele>176.0</ele><time>2026-04-16T12:46:41.868Z</time></trkpt><trkpt lat="42.149775" lon="14.563865"><ele>176.0</ele><time>2026-04-16T12:46:45.868Z</time></trkpt><trkpt lat="42.1497817" lon="14.563765"><ele>176.0</ele><time>2026-04-16T12:46:49.869Z</time></trkpt><trkpt lat="42.149785" lon="14.5636767"><ele>176.0</ele><time>2026-04-16T12:46:53.869Z</time></trkpt><trkpt lat="42.1497933" lon="14.5635817"><ele>176.0</ele><time>2026-04-16T12:46:57.869Z</time></trkpt><trkpt lat="42.1498133" lon="14.5634917"><ele>176.0</ele><time>2026-04-16T12:47:01.869Z</time></trkpt><trkpt lat="42.149815" lon="14.5633917"><ele>176.0</ele><time>2026-04-16T12:47:05.868Z</time></trkpt><trkpt lat="42.14982" lon="14.563295"><ele>178.0</ele><time>2026-04-16T12:47:09.869Z</time></trkpt><trkpt lat="42.1498167" lon="14.5632083"><ele>180.0</ele><time>2026-04-16T12:47:13.868Z</time></trkpt><trkpt lat="42.1498" lon="14.5631033"><ele>182.0</ele><time>2026-04-16T12:47:18.869Z</time></trkpt><trkpt lat="42.1497817" lon="14.5630083"><ele>184.0</ele><time>2026-04-16T12:47:22.868Z</time></trkpt><trkpt lat="42.14975" lon="14.562905"><ele>186.0</ele><time>2026-04-16T12:47:26.868Z</time></trkpt><trkpt lat="42.1497217" lon="14.5628233"><ele>188.0</ele><time>2026-04-16T12:47:29.868Z</time></trkpt><trkpt lat="42.1496867" lon="14.5627517"><ele>190.0</ele><time>2026-04-16T12:47:33.869Z</time></trkpt><trkpt lat="42.14965" lon="14.5626817"><ele>192.14285714285714</ele><time>2026-04-16T12:47:36.869Z</time></trkpt><trkpt lat="42.1496083" lon="14.562575"><ele>194.28571428571428</ele><time>2026-04-16T12:47:40.868Z</time></trkpt><trkpt lat="42.149565" lon="14.5625017"><ele>196.42857142857144</ele><time>2026-04-16T12:47:44.869Z</time></trkpt><trkpt lat="42.149515" lon="14.5624383"><ele>198.57142857142856</ele><time>2026-04-16T12:47:48.869Z</time></trkpt><trkpt lat="42.1494583" lon="14.562385"><ele>200.7142857142857</ele><time>2026-04-16T12:47:52.869Z</time></trkpt><trkpt lat="42.1494033" lon="14.5623367"><ele>202.85714285714286</ele><time>2026-04-16T12:47:56.869Z</time></trkpt><trkpt lat="42.1493333" lon="14.5622933"><ele>205.0</ele><time>2026-04-16T12:48:00.869Z</time></trkpt><trkpt lat="42.149255" lon="14.562265"><ele>205.0</ele><time>2026-04-16T12:48:04.869Z</time></trkpt><trkpt lat="42.1491867" lon="14.5622367"><ele>205.0</ele><time>2026-04-16T12:48:08.869Z</time></trkpt><trkpt lat="42.1491217" lon="14.562195"><ele>205.0</ele><time>2026-04-16T12:48:12.868Z</time></trkpt><trkpt lat="42.149065" lon="14.56215"><ele>205.0</ele><time>2026-04-16T12:48:15.869Z</time></trkpt><trkpt lat="42.1490133" lon="14.5620983"><ele>205.0</ele><time>2026-04-16T12:48:18.868Z</time></trkpt><trkpt lat="42.1489617" lon="14.5620367"><ele>205.0</ele><time>2026-04-16T12:48:21.869Z</time></trkpt><trkpt lat="42.1489283" lon="14.5619533"><ele>205.0</ele><time>2026-04-16T12:48:25.869Z</time></trkpt><trkpt lat="42.148915" lon="14.56186"><ele>206.0</ele><time>2026-04-16T12:48:30.868Z</time></trkpt><trkpt lat="42.1489483" lon="14.5617767"><ele>207.0</ele><time>2026-04-16T12:48:35.868Z</time></trkpt><trkpt lat="42.1490033" lon="14.5617183"><ele>208.0</ele><time>2026-04-16T12:48:39.869Z</time></trkpt><trkpt lat="42.1490683" lon="14.56168"><ele>209.0</ele><time>2026-04-16T12:48:43.868Z</time></trkpt><trkpt lat="42.1491367" lon="14.5616417"><ele>210.0</ele><time>2026-04-16T12:48:47.869Z</time></trkpt><trkpt lat="42.1492083" lon="14.5615983"><ele>211.0</ele><time>2026-04-16T12:48:51.869Z</time></trkpt><trkpt lat="42.149275" lon="14.56157"><ele>212.0</ele><time>2026-04-16T12:48:55.869Z</time></trkpt><trkpt lat="42.1493433" lon="14.5615433"><ele>212.0</ele><time>2026-04-16T12:48:59.868Z</time></trkpt><trkpt lat="42.1494117" lon="14.5615333"><ele>212.0</ele><time>2026-04-16T12:49:03.869Z</time></trkpt><trkpt lat="42.1494767" lon="14.5615217"><ele>212.0</ele><time>2026-04-16T12:49:07.868Z</time></trkpt><trkpt lat="42.14955" lon="14.5615317"><ele>212.0</ele><time>2026-04-16T12:49:11.869Z</time></trkpt><trkpt lat="42.1496233" lon="14.5615533"><ele>212.0</ele><time>2026-04-16T12:49:15.868Z</time></trkpt><trkpt lat="42.1496933" lon="14.5615767"><ele>212.0</ele><time>2026-04-16T12:49:19.868Z</time></trkpt><trkpt lat="42.14977" lon="14.5616133"><ele>212.0</ele><time>2026-04-16T12:49:23.869Z</time></trkpt><trkpt lat="42.149835" lon="14.5616633"><ele>212.57142857142858</ele><time>2026-04-16T12:49:27.868Z</time></trkpt><trkpt lat="42.1499117" lon="14.56171"><ele>213.14285714285714</ele><time>2026-04-16T12:49:31.869Z</time></trkpt><trkpt lat="42.149975" lon="14.5617633"><ele>213.71428571428572</ele><time>2026-04-16T12:49:35.869Z</time></trkpt><trkpt lat="42.1500383" lon="14.5618267"><ele>214.28571428571428</ele><time>2026-04-16T12:49:39.869Z</time></trkpt><trkpt lat="42.150095" lon="14.5618783"><ele>214.85714285714283</ele><time>2026-04-16T12:49:43.869Z</time></trkpt><trkpt lat="42.15015" lon="14.5619367"><ele>215.42857142857142</ele><time>2026-04-16T12:49:47.868Z</time></trkpt><trkpt lat="42.1502017" lon="14.561995"><ele>216.0</ele><time>2026-04-16T12:49:51.869Z</time></trkpt><trkpt lat="42.1502517" lon="14.56205"><ele>216.0</ele><time>2026-04-16T12:49:55.869Z</time></trkpt><trkpt lat="42.15031" lon="14.5621183"><ele>216.0</ele><time>2026-04-16T12:50:00.869Z</time></trkpt><trkpt lat="42.1503733" lon="14.5621917"><ele>216.0</ele><time>2026-04-16T12:50:04.869Z</time></trkpt><trkpt lat="42.150425" lon="14.56227"><ele>216.0</ele><time>2026-04-16T12:50:08.869Z</time></trkpt><trkpt lat="42.1504917" lon="14.5622917"><ele>216.0</ele><time>2026-04-16T12:50:13.869Z</time></trkpt><trkpt lat="42.1504917" lon="14.5622017"><ele>216.0</ele><time>2026-04-16T12:50:18.868Z</time></trkpt><trkpt lat="42.1504617" lon="14.5621067"><ele>218.0</ele><time>2026-04-16T12:50:21.868Z</time></trkpt><trkpt lat="42.15042" lon="14.562015"><ele>220.0</ele><time>2026-04-16T12:50:24.868Z</time></trkpt><trkpt lat="42.1503833" lon="14.5619033"><ele>222.0</ele><time>2026-04-16T12:50:27.868Z</time></trkpt><trkpt lat="42.15034" lon="14.5618267"><ele>224.0</ele><time>2026-04-16T12:50:29.869Z</time></trkpt><trkpt lat="42.1502917" lon="14.5617633"><ele>226.0</ele><time>2026-04-16T12:50:31.868Z</time></trkpt><trkpt lat="42.150245" lon="14.5617017"><ele>228.0</ele><time>2026-04-16T12:50:33.868Z</time></trkpt><trkpt lat="42.1501633" lon="14.5616267"><ele>228.0</ele><time>2026-04-16T12:50:36.869Z</time></trkpt><trkpt lat="42.1501" lon="14.5615733"><ele>228.0</ele><time>2026-04-16T12:50:38.869Z</time></trkpt><trkpt lat="42.1500417" lon="14.5615033"><ele>228.0</ele><time>2026-04-16T12:50:40.869Z</time></trkpt><trkpt lat="42.1500017" lon="14.5614117"><ele>228.0</ele><time>2026-04-16T12:50:42.868Z</time></trkpt><trkpt lat="42.14999" lon="14.5613217"><ele>228.0</ele><time>2026-04-16T12:50:44.869Z</time></trkpt><trkpt lat="42.150005" lon="14.5611967"><ele>228.0</ele><time>2026-04-16T12:50:47.869Z</time></trkpt><trkpt lat="42.1500183" lon="14.56111"><ele>228.16666666666666</ele><time>2026-04-16T12:50:49.868Z</time></trkpt><trkpt lat="42.1500417" lon="14.5610117"><ele>228.33333333333331</ele><time>2026-04-16T12:50:51.868Z</time></trkpt><trkpt lat="42.15006" lon="14.56091"><ele>228.5</ele><time>2026-04-16T12:50:53.869Z</time></trkpt><trkpt lat="42.1500867" lon="14.5608033"><ele>228.66666666666666</ele><time>2026-04-16T12:50:55.869Z</time></trkpt><trkpt lat="42.150115" lon="14.5606983"><ele>228.83333333333331</ele><time>2026-04-16T12:50:57.869Z</time></trkpt><trkpt lat="42.1501483" lon="14.56058"><ele>229.0</ele><time>2026-04-16T12:50:59.869Z</time></trkpt><trkpt lat="42.1501733" lon="14.560455"><ele>228.2</ele><time>2026-04-16T12:51:01.869Z</time></trkpt><trkpt lat="42.1501967" lon="14.560335"><ele>227.39999999999998</ele><time>2026-04-16T12:51:03.869Z</time></trkpt><trkpt lat="42.15022" lon="14.5602083"><ele>226.6</ele><time>2026-04-16T12:51:05.868Z</time></trkpt><trkpt lat="42.1502483" lon="14.5600817"><ele>225.8</ele><time>2026-04-16T12:51:07.869Z</time></trkpt><trkpt lat="42.1502733" lon="14.5599533"><ele>225.0</ele><time>2026-04-16T12:51:09.869Z</time></trkpt><trkpt lat="42.150295" lon="14.5598267"><ele>225.0</ele><time>2026-04-16T12:51:11.869Z</time></trkpt><trkpt lat="42.150315" lon="14.559705"><ele>225.0</ele><time>2026-04-16T12:51:13.869Z</time></trkpt><trkpt lat="42.1503283" lon="14.55958"><ele>225.0</ele><time>2026-04-16T12:51:15.869Z</time></trkpt><trkpt lat="42.15033" lon="14.5594517"><ele>225.0</ele><time>2026-04-16T12:51:17.868Z</time></trkpt><trkpt lat="42.15033" lon="14.559305"><ele>225.0</ele><time>2026-04-16T12:51:19.869Z</time></trkpt><trkpt lat="42.1503217" lon="14.5591633"><ele>225.2</ele><time>2026-04-16T12:51:21.868Z</time></trkpt><trkpt lat="42.1503033" lon="14.5590233"><ele>225.4</ele><time>2026-04-16T12:51:23.869Z</time></trkpt><trkpt lat="42.1502867" lon="14.5588883"><ele>225.60000000000002</ele><time>2026-04-16T12:51:25.869Z</time></trkpt><trkpt lat="42.1502633" lon="14.558755"><ele>225.8</ele><time>2026-04-16T12:51:27.868Z</time></trkpt><trkpt lat="42.1502383" lon="14.5586267"><ele>226.0</ele><time>2026-04-16T12:51:29.868Z</time></trkpt><trkpt lat="42.1502133" lon="14.5585017"><ele>227.0</ele><time>2026-04-16T12:51:31.869Z</time></trkpt><trkpt lat="42.1501867" lon="14.5583783"><ele>228.00000000000003</ele><time>2026-04-16T12:51:33.868Z</time></trkpt><trkpt lat="42.150155" lon="14.5582533"><ele>229.00000000000003</ele><time>2026-04-16T12:51:35.869Z</time></trkpt><trkpt lat="42.1501367" lon="14.5581317"><ele>230.0</ele><time>2026-04-16T12:51:37.868Z</time></trkpt><trkpt lat="42.15011" lon="14.557995"><ele>231.0</ele><time>2026-04-16T12:51:39.868Z</time></trkpt><trkpt lat="42.1500833" lon="14.557855"><ele>231.0</ele><time>2026-04-16T12:51:41.868Z</time></trkpt><trkpt lat="42.150055" lon="14.5577317"><ele>231.00000000000003</ele><time>2026-04-16T12:51:43.869Z</time></trkpt><trkpt lat="42.1500317" lon="14.5576017"><ele>231.00000000000003</ele><time>2026-04-16T12:51:45.869Z</time></trkpt><trkpt lat="42.150005" lon="14.5574683"><ele>231.0</ele><time>2026-04-16T12:51:47.869Z</time></trkpt><trkpt lat="42.1499767" lon="14.5573517"><ele>231.0</ele><time>2026-04-16T12:51:49.868Z</time></trkpt><trkpt lat="42.149945" lon="14.557245"><ele>231.0</ele><time>2026-04-16T12:51:51.868Z</time></trkpt><trkpt lat="42.14992" lon="14.5571167"><ele>231.00000000000003</ele><time>2026-04-16T12:51:53.869Z</time></trkpt><trkpt lat="42.1499067" lon="14.5569867"><ele>231.00000000000003</ele><time>2026-04-16T12:51:55.868Z</time></trkpt><trkpt lat="42.14991" lon="14.556855"><ele>231.0</ele><time>2026-04-16T12:51:57.869Z</time></trkpt><trkpt lat="42.1499183" lon="14.5567283"><ele>231.0</ele><time>2026-04-16T12:51:59.868Z</time></trkpt><trkpt lat="42.149925" lon="14.5566017"><ele>231.0</ele><time>2026-04-16T12:52:01.869Z</time></trkpt><trkpt lat="42.149935" lon="14.5564733"><ele>231.00000000000003</ele><time>2026-04-16T12:52:03.869Z</time></trkpt><trkpt lat="42.1499483" lon="14.5563483"><ele>231.00000000000003</ele><time>2026-04-16T12:52:05.868Z</time></trkpt><trkpt lat="42.1499583" lon="14.5562267"><ele>231.0</ele><time>2026-04-16T12:52:07.869Z</time></trkpt><trkpt lat="42.14997" lon="14.5561083"><ele>231.0</ele><time>2026-04-16T12:52:09.869Z</time></trkpt><trkpt lat="42.149985" lon="14.5559883"><ele>231.0</ele><time>2026-04-16T12:52:11.869Z</time></trkpt><trkpt lat="42.14999" lon="14.5558683"><ele>231.0</ele><time>2026-04-16T12:52:13.868Z</time></trkpt><trkpt lat="42.1499983" lon="14.5557517"><ele>231.0</ele><time>2026-04-16T12:52:15.868Z</time></trkpt><trkpt lat="42.1500117" lon="14.5556433"><ele>231.0</ele><time>2026-04-16T12:52:17.869Z</time></trkpt><trkpt lat="42.1500233" lon="14.5555417"><ele>231.0</ele><time>2026-04-16T12:52:19.868Z</time></trkpt><trkpt lat="42.1500383" lon="14.5554417"><ele>231.0</ele><time>2026-04-16T12:52:21.869Z</time></trkpt><trkpt lat="42.1500467" lon="14.555335"><ele>231.33333333333334</ele><time>2026-04-16T12:52:23.869Z</time></trkpt><trkpt lat="42.150055" lon="14.5552333"><ele>231.66666666666669</ele><time>2026-04-16T12:52:25.869Z</time></trkpt><trkpt lat="42.150065" lon="14.5551267"><ele>232.0</ele><time>2026-04-16T12:52:27.868Z</time></trkpt><trkpt lat="42.1500783" lon="14.5550183"><ele>232.33333333333334</ele><time>2026-04-16T12:52:29.869Z</time></trkpt><trkpt lat="42.15009" lon="14.5549183"><ele>232.66666666666669</ele><time>2026-04-16T12:52:31.869Z</time></trkpt><trkpt lat="42.150105" lon="14.5548133"><ele>233.0</ele><time>2026-04-16T12:52:33.868Z</time></trkpt><trkpt lat="42.150115" lon="14.5547133"><ele>233.00000000000003</ele><time>2026-04-16T12:52:35.869Z</time></trkpt><trkpt lat="42.15012" lon="14.55462"><ele>233.0</ele><time>2026-04-16T12:52:37.868Z</time></trkpt><trkpt lat="42.150125" lon="14.5545067"><ele>233.0</ele><time>2026-04-16T12:52:39.869Z</time></trkpt><trkpt lat="42.1501433" lon="14.5543917"><ele>233.0</ele><time>2026-04-16T12:52:41.868Z</time></trkpt><trkpt lat="42.1501583" lon="14.554275"><ele>233.00000000000003</ele><time>2026-04-16T12:52:43.869Z</time></trkpt><trkpt lat="42.15017" lon="14.554155"><ele>233.0</ele><time>2026-04-16T12:52:45.869Z</time></trkpt><trkpt lat="42.1501817" lon="14.5540467"><ele>233.83333333333334</ele><time>2026-04-16T12:52:47.869Z</time></trkpt><trkpt lat="42.1501883" lon="14.553935"><ele>234.66666666666669</ele><time>2026-04-16T12:52:49.869Z</time></trkpt><trkpt lat="42.1502" lon="14.55383"><ele>235.5</ele><time>2026-04-16T12:52:51.868Z</time></trkpt><trkpt lat="42.1502067" lon="14.553725"><ele>236.33333333333331</ele><time>2026-04-16T12:52:53.868Z</time></trkpt><trkpt lat="42.1501933" lon="14.5536083"><ele>237.16666666666666</ele><time>2026-04-16T12:52:55.868Z</time></trkpt><trkpt lat="42.1501867" lon="14.5534933"><ele>238.0</ele><time>2026-04-16T12:52:57.868Z</time></trkpt><trkpt lat="42.150175" lon="14.5533867"><ele>238.16666666666666</ele><time>2026-04-16T12:52:59.869Z</time></trkpt><trkpt lat="42.15016" lon="14.5532817"><ele>238.33333333333331</ele><time>2026-04-16T12:53:01.869Z</time></trkpt><trkpt lat="42.1501333" lon="14.55318"><ele>238.5</ele><time>2026-04-16T12:53:03.868Z</time></trkpt><trkpt lat="42.15011" lon="14.5530767"><ele>238.66666666666669</ele><time>2026-04-16T12:53:05.869Z</time></trkpt><trkpt lat="42.1500733" lon="14.5529983"><ele>238.83333333333334</ele><time>2026-04-16T12:53:07.869Z</time></trkpt><trkpt lat="42.15004" lon="14.55291"><ele>239.0</ele><time>2026-04-16T12:53:09.869Z</time></trkpt><trkpt lat="42.150015" lon="14.55282"><ele>239.00000000000003</ele><time>2026-04-16T12:53:11.869Z</time></trkpt><trkpt lat="42.1499867" lon="14.5527183"><ele>239.0</ele><time>2026-04-16T12:53:13.869Z</time></trkpt><trkpt lat="42.1499467" lon="14.5526333"><ele>239.0</ele><time>2026-04-16T12:53:15.869Z</time></trkpt><trkpt lat="42.1498933" lon="14.5525467"><ele>239.0</ele><time>2026-04-16T12:53:17.868Z</time></trkpt><trkpt lat="42.149845" lon="14.5524417"><ele>239.00000000000003</ele><time>2026-04-16T12:53:19.869Z</time></trkpt><trkpt lat="42.1498" lon="14.5523383"><ele>239.0</ele><time>2026-04-16T12:53:21.869Z</time></trkpt><trkpt lat="42.1497483" lon="14.55225"><ele>240.2</ele><time>2026-04-16T12:53:23.869Z</time></trkpt><trkpt lat="42.1497" lon="14.5521467"><ele>241.39999999999998</ele><time>2026-04-16T12:53:25.868Z</time></trkpt><trkpt lat="42.1496467" lon="14.5520267"><ele>242.6</ele><time>2026-04-16T12:53:27.868Z</time></trkpt><trkpt lat="42.1496033" lon="14.5519117"><ele>243.8</ele><time>2026-04-16T12:53:29.869Z</time></trkpt><trkpt lat="42.1495733" lon="14.5518067"><ele>245.0</ele><time>2026-04-16T12:53:31.869Z</time></trkpt><trkpt lat="42.14956" lon="14.5517017"><ele>245.00000000000003</ele><time>2026-04-16T12:53:33.868Z</time></trkpt><trkpt lat="42.1495583" lon="14.5515933"><ele>245.0</ele><time>2026-04-16T12:53:35.868Z</time></trkpt><trkpt lat="42.1495633" lon="14.5514833"><ele>245.0</ele><time>2026-04-16T12:53:37.868Z</time></trkpt><trkpt lat="42.1495817" lon="14.5513717"><ele>245.0</ele><time>2026-04-16T12:53:39.869Z</time></trkpt><trkpt lat="42.1496167" lon="14.551275"><ele>245.00000000000003</ele><time>2026-04-16T12:53:41.869Z</time></trkpt><trkpt lat="42.1496617" lon="14.551195"><ele>245.0</ele><time>2026-04-16T12:53:43.869Z</time></trkpt><trkpt lat="42.1497133" lon="14.55112"><ele>244.66666666666669</ele><time>2026-04-16T12:53:45.869Z</time></trkpt><trkpt lat="42.1497717" lon="14.5510417"><ele>244.33333333333334</ele><time>2026-04-16T12:53:47.869Z</time></trkpt><trkpt lat="42.149845" lon="14.55097"><ele>244.0</ele><time>2026-04-16T12:53:49.869Z</time></trkpt><trkpt lat="42.14991" lon="14.5508933"><ele>243.66666666666669</ele><time>2026-04-16T12:53:51.869Z</time></trkpt><trkpt lat="42.1499683" lon="14.55082"><ele>243.33333333333334</ele><time>2026-04-16T12:53:53.868Z</time></trkpt><trkpt lat="42.15003" lon="14.5507567"><ele>243.0</ele><time>2026-04-16T12:53:55.869Z</time></trkpt><trkpt lat="42.150095" lon="14.5506817"><ele>243.0</ele><time>2026-04-16T12:53:57.869Z</time></trkpt><trkpt lat="42.1501633" lon="14.5506117"><ele>243.0</ele><time>2026-04-16T12:53:59.869Z</time></trkpt><trkpt lat="42.15023" lon="14.5505367"><ele>243.0</ele><time>2026-04-16T12:54:01.868Z</time></trkpt><trkpt lat="42.150295" lon="14.5504683"><ele>243.0</ele><time>2026-04-16T12:54:03.868Z</time></trkpt><trkpt lat="42.1503583" lon="14.5504067"><ele>243.0</ele><time>2026-04-16T12:54:05.868Z</time></trkpt><trkpt lat="42.1504283" lon="14.5503483"><ele>243.0</ele><time>2026-04-16T12:54:07.868Z</time></trkpt><trkpt lat="42.1505017" lon="14.5502917"><ele>244.16666666666666</ele><time>2026-04-16T12:54:09.868Z</time></trkpt><trkpt lat="42.1505767" lon="14.5502367"><ele>245.33333333333331</ele><time>2026-04-16T12:54:11.868Z</time></trkpt><trkpt lat="42.1506483" lon="14.5501867"><ele>246.5</ele><time>2026-04-16T12:54:13.869Z</time></trkpt><trkpt lat="42.1507083" lon="14.5501483"><ele>247.66666666666666</ele><time>2026-04-16T12:54:15.869Z</time></trkpt><trkpt lat="42.1507717" lon="14.55011"><ele>248.83333333333331</ele><time>2026-04-16T12:54:17.869Z</time></trkpt><trkpt lat="42.1508417" lon="14.550055"><ele>250.0</ele><time>2026-04-16T12:54:19.869Z</time></trkpt><trkpt lat="42.1509033" lon="14.5500083"><ele>250.0</ele><time>2026-04-16T12:54:21.868Z</time></trkpt><trkpt lat="42.1509633" lon="14.549965"><ele>250.0</ele><time>2026-04-16T12:54:23.868Z</time></trkpt><trkpt lat="42.1510283" lon="14.5499217"><ele>250.0</ele><time>2026-04-16T12:54:25.869Z</time></trkpt><trkpt lat="42.1510833" lon="14.549865"><ele>250.0</ele><time>2026-04-16T12:54:27.869Z</time></trkpt><trkpt lat="42.1511383" lon="14.54981"><ele>250.0</ele><time>2026-04-16T12:54:29.868Z</time></trkpt><trkpt lat="42.1511983" lon="14.5497383"><ele>250.0</ele><time>2026-04-16T12:54:31.868Z</time></trkpt><trkpt lat="42.1512717" lon="14.54969"><ele>250.0</ele><time>2026-04-16T12:54:33.869Z</time></trkpt><trkpt lat="42.1513483" lon="14.5496867"><ele>249.99999999999997</ele><time>2026-04-16T12:54:35.868Z</time></trkpt><trkpt lat="42.1514117" lon="14.5497233"><ele>250.0</ele><time>2026-04-16T12:54:37.869Z</time></trkpt><trkpt lat="42.151495" lon="14.5497667"><ele>250.0</ele><time>2026-04-16T12:54:40.869Z</time></trkpt><trkpt lat="42.1515867" lon="14.5498133"><ele>250.0</ele><time>2026-04-16T12:54:43.868Z</time></trkpt><trkpt lat="42.15166" lon="14.549855"><ele>249.99999999999997</ele><time>2026-04-16T12:54:45.868Z</time></trkpt><trkpt lat="42.15173" lon="14.5499067"><ele>250.0</ele><time>2026-04-16T12:54:47.869Z</time></trkpt><trkpt lat="42.1518" lon="14.54996"><ele>249.99999999999997</ele><time>2026-04-16T12:54:49.869Z</time></trkpt><trkpt lat="42.1518767" lon="14.5500267"><ele>250.0</ele><time>2026-04-16T12:54:51.869Z</time></trkpt><trkpt lat="42.1519533" lon="14.5500933"><ele>250.0</ele><time>2026-04-16T12:54:53.868Z</time></trkpt><trkpt lat="42.1520267" lon="14.5501567"><ele>250.0</ele><time>2026-04-16T12:54:55.868Z</time></trkpt><trkpt lat="42.152095" lon="14.5502117"><ele>249.99999999999997</ele><time>2026-04-16T12:54:57.869Z</time></trkpt><trkpt lat="42.152165" lon="14.550265"><ele>250.0</ele><time>2026-04-16T12:54:59.869Z</time></trkpt><trkpt lat="42.1522367" lon="14.550325"><ele>249.6</ele><time>2026-04-16T12:55:01.869Z</time></trkpt><trkpt lat="42.152315" lon="14.5503917"><ele>249.2</ele><time>2026-04-16T12:55:03.869Z</time></trkpt><trkpt lat="42.1523917" lon="14.550455"><ele>248.8</ele><time>2026-04-16T12:55:05.869Z</time></trkpt><trkpt lat="42.1524717" lon="14.5505217"><ele>248.4</ele><time>2026-04-16T12:55:07.869Z</time></trkpt><trkpt lat="42.1525467" lon="14.5505933"><ele>248.0</ele><time>2026-04-16T12:55:09.868Z</time></trkpt><trkpt lat="42.1526283" lon="14.5506483"><ele>248.00000000000003</ele><time>2026-04-16T12:55:11.869Z</time></trkpt><trkpt lat="42.1527017" lon="14.55071"><ele>248.0</ele><time>2026-04-16T12:55:13.869Z</time></trkpt><trkpt lat="42.15277" lon="14.5507683"><ele>248.0</ele><time>2026-04-16T12:55:15.869Z</time></trkpt><trkpt lat="42.15284" lon="14.550815"><ele>248.0</ele><time>2026-04-16T12:55:17.868Z</time></trkpt><trkpt lat="42.1529167" lon="14.5508733"><ele>248.00000000000003</ele><time>2026-04-16T12:55:19.868Z</time></trkpt><trkpt lat="42.15299" lon="14.5509383"><ele>248.0</ele><time>2026-04-16T12:55:21.868Z</time></trkpt><trkpt lat="42.1530633" lon="14.5510083"><ele>248.00000000000003</ele><time>2026-04-16T12:55:23.869Z</time></trkpt><trkpt lat="42.1531283" lon="14.5510683"><ele>248.0</ele><time>2026-04-16T12:55:25.868Z</time></trkpt><trkpt lat="42.1532" lon="14.5511283"><ele>248.0</ele><time>2026-04-16T12:55:27.869Z</time></trkpt><trkpt lat="42.15327" lon="14.5511867"><ele>248.0</ele><time>2026-04-16T12:55:29.869Z</time></trkpt><trkpt lat="42.1533283" lon="14.5512317"><ele>248.00000000000003</ele><time>2026-04-16T12:55:31.869Z</time></trkpt><trkpt lat="42.15338" lon="14.5512833"><ele>248.0</ele><time>2026-04-16T12:55:33.869Z</time></trkpt><trkpt lat="42.153445" lon="14.5513467"><ele>247.66666666666669</ele><time>2026-04-16T12:55:35.869Z</time></trkpt><trkpt lat="42.153515" lon="14.5514083"><ele>247.33333333333334</ele><time>2026-04-16T12:55:37.869Z</time></trkpt><trkpt lat="42.153575" lon="14.5514667"><ele>247.0</ele><time>2026-04-16T12:55:39.868Z</time></trkpt><trkpt lat="42.15363" lon="14.5515283"><ele>246.66666666666669</ele><time>2026-04-16T12:55:41.869Z</time></trkpt><trkpt lat="42.1536983" lon="14.5516067"><ele>246.33333333333334</ele><time>2026-04-16T12:55:43.869Z</time></trkpt><trkpt lat="42.15376" lon="14.551685"><ele>246.0</ele><time>2026-04-16T12:55:45.869Z</time></trkpt><trkpt lat="42.153815" lon="14.551755"><ele>246.0</ele><time>2026-04-16T12:55:47.869Z</time></trkpt><trkpt lat="42.15387" lon="14.5518267"><ele>246.0</ele><time>2026-04-16T12:55:49.868Z</time></trkpt><trkpt lat="42.1539433" lon="14.5519133"><ele>246.0</ele><time>2026-04-16T12:55:52.869Z</time></trkpt><trkpt lat="42.153995" lon="14.551975"><ele>246.0</ele><time>2026-04-16T12:55:54.869Z</time></trkpt><trkpt lat="42.15406" lon="14.5520517"><ele>246.0</ele><time>2026-04-16T12:55:57.868Z</time></trkpt><trkpt lat="42.1541083" lon="14.5521083"><ele>246.0</ele><time>2026-04-16T12:55:59.868Z</time></trkpt><trkpt lat="42.1541683" lon="14.5521783"><ele>247.16666666666666</ele><time>2026-04-16T12:56:01.869Z</time></trkpt><trkpt lat="42.1542217" lon="14.5522467"><ele>248.33333333333331</ele><time>2026-04-16T12:56:03.869Z</time></trkpt><trkpt lat="42.1542667" lon="14.5523233"><ele>249.5</ele><time>2026-04-16T12:56:05.868Z</time></trkpt><trkpt lat="42.1543167" lon="14.55241"><ele>250.66666666666666</ele><time>2026-04-16T12:56:07.868Z</time></trkpt><trkpt lat="42.15436" lon="14.5525067"><ele>251.83333333333331</ele><time>2026-04-16T12:56:09.869Z</time></trkpt><trkpt lat="42.1543967" lon="14.5525933"><ele>253.0</ele><time>2026-04-16T12:56:11.869Z</time></trkpt><trkpt lat="42.15445" lon="14.5526833"><ele>253.0</ele><time>2026-04-16T12:56:13.869Z</time></trkpt><trkpt lat="42.1544933" lon="14.5527733"><ele>253.0</ele><time>2026-04-16T12:56:15.869Z</time></trkpt><trkpt lat="42.1545517" lon="14.5528733"><ele>253.0</ele><time>2026-04-16T12:56:17.869Z</time></trkpt><trkpt lat="42.1546083" lon="14.5529733"><ele>253.0</ele><time>2026-04-16T12:56:19.869Z</time></trkpt><trkpt lat="42.15467" lon="14.5530783"><ele>253.0</ele><time>2026-04-16T12:56:21.869Z</time></trkpt><trkpt lat="42.1547333" lon="14.55318"><ele>253.16666666666666</ele><time>2026-04-16T12:56:23.868Z</time></trkpt><trkpt lat="42.154785" lon="14.5532833"><ele>253.33333333333331</ele><time>2026-04-16T12:56:25.869Z</time></trkpt><trkpt lat="42.154835" lon="14.5533833"><ele>253.5</ele><time>2026-04-16T12:56:27.869Z</time></trkpt><trkpt lat="42.1548867" lon="14.5534783"><ele>253.66666666666669</ele><time>2026-04-16T12:56:29.868Z</time></trkpt><trkpt lat="42.1549433" lon="14.55357"><ele>253.83333333333334</ele><time>2026-04-16T12:56:31.868Z</time></trkpt><trkpt lat="42.1549933" lon="14.5536533"><ele>254.0</ele><time>2026-04-16T12:56:33.868Z</time></trkpt><trkpt lat="42.15504" lon="14.553735"><ele>253.6</ele><time>2026-04-16T12:56:35.869Z</time></trkpt><trkpt lat="42.155095" lon="14.553815"><ele>253.2</ele><time>2026-04-16T12:56:37.869Z</time></trkpt><trkpt lat="42.1551583" lon="14.5538967"><ele>252.79999999999998</ele><time>2026-04-16T12:56:39.869Z</time></trkpt><trkpt lat="42.1552367" lon="14.5539767"><ele>252.39999999999998</ele><time>2026-04-16T12:56:41.869Z</time></trkpt><trkpt lat="42.155335" lon="14.5540333"><ele>252.0</ele><time>2026-04-16T12:56:43.869Z</time></trkpt><trkpt lat="42.1554533" lon="14.5540833"><ele>252.0</ele><time>2026-04-16T12:56:45.869Z</time></trkpt><trkpt lat="42.1555583" lon="14.5540983"><ele>252.0</ele><time>2026-04-16T12:56:47.869Z</time></trkpt><trkpt lat="42.1556567" lon="14.5541233"><ele>252.0</ele><time>2026-04-16T12:56:49.868Z</time></trkpt><trkpt lat="42.1557617" lon="14.5541333"><ele>252.0</ele><time>2026-04-16T12:56:51.869Z</time></trkpt><trkpt lat="42.1558767" lon="14.5541517"><ele>252.0</ele><time>2026-04-16T12:56:53.869Z</time></trkpt><trkpt lat="42.1560067" lon="14.5541717"><ele>251.57142857142856</ele><time>2026-04-16T12:56:55.868Z</time></trkpt><trkpt lat="42.1560717" lon="14.5541867"><ele>251.14285714285714</ele><time>2026-04-16T12:56:56.869Z</time></trkpt><trkpt lat="42.1561367" lon="14.5541967"><ele>250.71428571428572</ele><time>2026-04-16T12:56:57.869Z</time></trkpt><trkpt lat="42.156205" lon="14.55421"><ele>250.28571428571428</ele><time>2026-04-16T12:56:58.869Z</time></trkpt><trkpt lat="42.156275" lon="14.5542167"><ele>249.85714285714283</ele><time>2026-04-16T12:56:59.868Z</time></trkpt><trkpt lat="42.15635" lon="14.55421"><ele>249.42857142857142</ele><time>2026-04-16T12:57:00.868Z</time></trkpt><trkpt lat="42.156425" lon="14.5542083"><ele>249.0</ele><time>2026-04-16T12:57:01.869Z</time></trkpt><trkpt lat="42.1565033" lon="14.5542167"><ele>247.7142857142857</ele><time>2026-04-16T12:57:02.869Z</time></trkpt><trkpt lat="42.1565833" lon="14.554225"><ele>246.4285714285714</ele><time>2026-04-16T12:57:03.869Z</time></trkpt><trkpt lat="42.1566567" lon="14.5542267"><ele>245.14285714285714</ele><time>2026-04-16T12:57:04.868Z</time></trkpt><trkpt lat="42.156735" lon="14.554225"><ele>243.85714285714283</ele><time>2026-04-16T12:57:05.868Z</time></trkpt><trkpt lat="42.156805" lon="14.5542217"><ele>242.57142857142856</ele><time>2026-04-16T12:57:06.869Z</time></trkpt><trkpt lat="42.15687" lon="14.5542067"><ele>241.28571428571428</ele><time>2026-04-16T12:57:07.869Z</time></trkpt><trkpt lat="42.1569317" lon="14.5541833"><ele>240.0</ele><time>2026-04-16T12:57:08.869Z</time></trkpt><trkpt lat="42.156995" lon="14.5541533"><ele>240.0</ele><time>2026-04-16T12:57:09.869Z</time></trkpt><trkpt lat="42.15706" lon="14.55413"><ele>240.0</ele><time>2026-04-16T12:57:10.869Z</time></trkpt><trkpt lat="42.1571333" lon="14.5541033"><ele>240.0</ele><time>2026-04-16T12:57:11.869Z</time></trkpt><trkpt lat="42.1572067" lon="14.554065"><ele>240.0</ele><time>2026-04-16T12:57:12.869Z</time></trkpt><trkpt lat="42.1572783" lon="14.5540217"><ele>240.0</ele><time>2026-04-16T12:57:13.868Z</time></trkpt><trkpt lat="42.1573483" lon="14.5539667"><ele>240.0</ele><time>2026-04-16T12:57:14.869Z</time></trkpt><trkpt lat="42.1574267" lon="14.55391"><ele>237.8</ele><time>2026-04-16T12:57:15.868Z</time></trkpt><trkpt lat="42.15751" lon="14.5538567"><ele>235.6</ele><time>2026-04-16T12:57:16.869Z</time></trkpt><trkpt lat="42.1576017" lon="14.5537967"><ele>233.39999999999998</ele><time>2026-04-16T12:57:17.869Z</time></trkpt><trkpt lat="42.1576833" lon="14.5537367"><ele>231.2</ele><time>2026-04-16T12:57:18.869Z</time></trkpt><trkpt lat="42.1577667" lon="14.5536767"><ele>229.0</ele><time>2026-04-16T12:57:19.869Z</time></trkpt><trkpt lat="42.157855" lon="14.5536233"><ele>228.49999999999997</ele><time>2026-04-16T12:57:20.869Z</time></trkpt><trkpt lat="42.1579383" lon="14.5535817"><ele>228.0</ele><time>2026-04-16T12:57:21.869Z</time></trkpt><trkpt lat="42.158015" lon="14.553545"><ele>227.5</ele><time>2026-04-16T12:57:22.869Z</time></trkpt><trkpt lat="42.1580917" lon="14.5535067"><ele>227.0</ele><time>2026-04-16T12:57:23.869Z</time></trkpt><trkpt lat="42.1581667" lon="14.5534767"><ele>226.49999999999997</ele><time>2026-04-16T12:57:24.868Z</time></trkpt><trkpt lat="42.158245" lon="14.5534317"><ele>226.0</ele><time>2026-04-16T12:57:25.869Z</time></trkpt><trkpt lat="42.1583367" lon="14.5533983"><ele>224.4</ele><time>2026-04-16T12:57:26.869Z</time></trkpt><trkpt lat="42.1584467" lon="14.5533583"><ele>222.8</ele><time>2026-04-16T12:57:27.869Z</time></trkpt><trkpt lat="42.158525" lon="14.5533167"><ele>221.20000000000002</ele><time>2026-04-16T12:57:28.869Z</time></trkpt><trkpt lat="42.1586083" lon="14.5532867"><ele>219.60000000000002</ele><time>2026-04-16T12:57:29.868Z</time></trkpt><trkpt lat="42.1586967" lon="14.553255"><ele>218.0</ele><time>2026-04-16T12:57:30.869Z</time></trkpt><trkpt lat="42.158785" lon="14.55322"><ele>218.0</ele><time>2026-04-16T12:57:31.869Z</time></trkpt><trkpt lat="42.1588733" lon="14.553195"><ele>218.0</ele><time>2026-04-16T12:57:32.869Z</time></trkpt><trkpt lat="42.1589667" lon="14.5531833"><ele>218.0</ele><time>2026-04-16T12:57:33.869Z</time></trkpt><trkpt lat="42.1590567" lon="14.5531717"><ele>218.0</ele><time>2026-04-16T12:57:34.869Z</time></trkpt><trkpt lat="42.159145" lon="14.55317"><ele>218.0</ele><time>2026-04-16T12:57:35.869Z</time></trkpt><trkpt lat="42.159235" lon="14.5531617"><ele>217.0</ele><time>2026-04-16T12:57:36.868Z</time></trkpt><trkpt lat="42.1593283" lon="14.5531517"><ele>216.0</ele><time>2026-04-16T12:57:37.868Z</time></trkpt><trkpt lat="42.15942" lon="14.5531433"><ele>215.0</ele><time>2026-04-16T12:57:38.869Z</time></trkpt><trkpt lat="42.159515" lon="14.5531317"><ele>214.0</ele><time>2026-04-16T12:57:39.868Z</time></trkpt><trkpt lat="42.1596083" lon="14.55312"><ele>213.0</ele><time>2026-04-16T12:57:40.869Z</time></trkpt><trkpt lat="42.1597017" lon="14.5531217"><ele>213.0</ele><time>2026-04-16T12:57:41.868Z</time></trkpt><trkpt lat="42.1597983" lon="14.5531233"><ele>213.0</ele><time>2026-04-16T12:57:42.869Z</time></trkpt><trkpt lat="42.1598967" lon="14.5531333"><ele>213.0</ele><time>2026-04-16T12:57:43.868Z</time></trkpt><trkpt lat="42.1599917" lon="14.5531483"><ele>213.0</ele><time>2026-04-16T12:57:44.868Z</time></trkpt><trkpt lat="42.1600867" lon="14.55316"><ele>213.0</ele><time>2026-04-16T12:57:45.869Z</time></trkpt><trkpt lat="42.1601817" lon="14.553175"><ele>212.33333333333334</ele><time>2026-04-16T12:57:46.869Z</time></trkpt><trkpt lat="42.160265" lon="14.5531917"><ele>211.66666666666669</ele><time>2026-04-16T12:57:47.869Z</time></trkpt><trkpt lat="42.1603467" lon="14.553205"><ele>211.0</ele><time>2026-04-16T12:57:48.869Z</time></trkpt><trkpt lat="42.1604267" lon="14.553225"><ele>210.33333333333334</ele><time>2026-04-16T12:57:49.869Z</time></trkpt><trkpt lat="42.1605083" lon="14.5532517"><ele>209.66666666666669</ele><time>2026-04-16T12:57:50.869Z</time></trkpt><trkpt lat="42.1605883" lon="14.553265"><ele>209.0</ele><time>2026-04-16T12:57:51.869Z</time></trkpt><trkpt lat="42.160665" lon="14.5532817"><ele>208.57142857142856</ele><time>2026-04-16T12:57:52.869Z</time></trkpt><trkpt lat="42.1607367" lon="14.5533083"><ele>208.14285714285714</ele><time>2026-04-16T12:57:53.869Z</time></trkpt><trkpt lat="42.1608033" lon="14.5533283"><ele>207.71428571428572</ele><time>2026-04-16T12:57:54.869Z</time></trkpt><trkpt lat="42.1608667" lon="14.5533483"><ele>207.28571428571428</ele><time>2026-04-16T12:57:55.869Z</time></trkpt><trkpt lat="42.1609317" lon="14.55337"><ele>206.85714285714286</ele><time>2026-04-16T12:57:56.868Z</time></trkpt><trkpt lat="42.1609967" lon="14.553385"><ele>206.42857142857142</ele><time>2026-04-16T12:57:57.869Z</time></trkpt><trkpt lat="42.16106" lon="14.5533983"><ele>206.0</ele><time>2026-04-16T12:57:58.868Z</time></trkpt><trkpt lat="42.1611617" lon="14.553425"><ele>206.00000000000003</ele><time>2026-04-16T12:58:00.869Z</time></trkpt><trkpt lat="42.1612467" lon="14.55344"><ele>206.0</ele><time>2026-04-16T12:58:02.869Z</time></trkpt><trkpt lat="42.1613333" lon="14.5534467"><ele>206.0</ele><time>2026-04-16T12:58:04.869Z</time></trkpt><trkpt lat="42.1614117" lon="14.5534417"><ele>206.0</ele><time>2026-04-16T12:58:06.868Z</time></trkpt><trkpt lat="42.161485" lon="14.5534433"><ele>206.00000000000003</ele><time>2026-04-16T12:58:08.868Z</time></trkpt><trkpt lat="42.1615733" lon="14.553435"><ele>206.0</ele><time>2026-04-16T12:58:10.869Z</time></trkpt><trkpt lat="42.1616533" lon="14.5534367"><ele>206.42857142857142</ele><time>2026-04-16T12:58:12.869Z</time></trkpt><trkpt lat="42.1617267" lon="14.55342"><ele>206.85714285714286</ele><time>2026-04-16T12:58:14.869Z</time></trkpt><trkpt lat="42.1618" lon="14.553405"><ele>207.28571428571428</ele><time>2026-04-16T12:58:16.868Z</time></trkpt><trkpt lat="42.161875" lon="14.5533983"><ele>207.71428571428572</ele><time>2026-04-16T12:58:18.868Z</time></trkpt><trkpt lat="42.1619483" lon="14.5534017"><ele>208.14285714285714</ele><time>2026-04-16T12:58:20.869Z</time></trkpt><trkpt lat="42.16202" lon="14.5534083"><ele>208.57142857142856</ele><time>2026-04-16T12:58:22.869Z</time></trkpt><trkpt lat="42.1620983" lon="14.5534217"><ele>209.0</ele><time>2026-04-16T12:58:24.869Z</time></trkpt><trkpt lat="42.1621783" lon="14.5534417"><ele>209.00000000000003</ele><time>2026-04-16T12:58:26.869Z</time></trkpt><trkpt lat="42.1622533" lon="14.5534617"><ele>209.0</ele><time>2026-04-16T12:58:28.868Z</time></trkpt><trkpt lat="42.1623267" lon="14.553485"><ele>209.0</ele><time>2026-04-16T12:58:30.869Z</time></trkpt><trkpt lat="42.1624017" lon="14.5535133"><ele>209.0</ele><time>2026-04-16T12:58:32.869Z</time></trkpt><trkpt lat="42.1624767" lon="14.5535367"><ele>209.00000000000003</ele><time>2026-04-16T12:58:34.869Z</time></trkpt><trkpt lat="42.162545" lon="14.5535633"><ele>209.0</ele><time>2026-04-16T12:58:36.869Z</time></trkpt><trkpt lat="42.1626333" lon="14.553595"><ele>209.16666666666669</ele><time>2026-04-16T12:58:39.868Z</time></trkpt><trkpt lat="42.1627217" lon="14.5536383"><ele>209.33333333333334</ele><time>2026-04-16T12:58:42.869Z</time></trkpt><trkpt lat="42.16281" lon="14.5536683"><ele>209.5</ele><time>2026-04-16T12:58:45.869Z</time></trkpt><trkpt lat="42.1628917" lon="14.553695"><ele>209.66666666666669</ele><time>2026-04-16T12:58:48.869Z</time></trkpt><trkpt lat="42.1629733" lon="14.5537317"><ele>209.83333333333334</ele><time>2026-04-16T12:58:51.868Z</time></trkpt><trkpt lat="42.1630617" lon="14.5537667"><ele>210.0</ele><time>2026-04-16T12:58:54.868Z</time></trkpt><trkpt lat="42.1631217" lon="14.553795"><ele>210.28571428571428</ele><time>2026-04-16T12:58:56.869Z</time></trkpt><trkpt lat="42.1632183" lon="14.553805"><ele>210.57142857142856</ele><time>2026-04-16T12:58:59.868Z</time></trkpt><trkpt lat="42.1632817" lon="14.5538133"><ele>210.85714285714286</ele><time>2026-04-16T12:59:01.868Z</time></trkpt><trkpt lat="42.1633483" lon="14.5538233"><ele>211.14285714285714</ele><time>2026-04-16T12:59:03.869Z</time></trkpt><trkpt lat="42.163415" lon="14.5538267"><ele>211.42857142857142</ele><time>2026-04-16T12:59:05.868Z</time></trkpt><trkpt lat="42.1634817" lon="14.5538333"><ele>211.71428571428572</ele><time>2026-04-16T12:59:07.869Z</time></trkpt><trkpt lat="42.1635467" lon="14.5538367"><ele>212.0</ele><time>2026-04-16T12:59:09.868Z</time></trkpt><trkpt lat="42.1636117" lon="14.5538433"><ele>212.0</ele><time>2026-04-16T12:59:11.869Z</time></trkpt><trkpt lat="42.163675" lon="14.5538483"><ele>212.0</ele><time>2026-04-16T12:59:13.869Z</time></trkpt><trkpt lat="42.1637383" lon="14.5538517"><ele>212.0</ele><time>2026-04-16T12:59:15.868Z</time></trkpt><trkpt lat="42.1638033" lon="14.5538467"><ele>212.0</ele><time>2026-04-16T12:59:17.868Z</time></trkpt><trkpt lat="42.163875" lon="14.553845"><ele>212.0</ele><time>2026-04-16T12:59:19.868Z</time></trkpt><trkpt lat="42.163945" lon="14.5538433"><ele>212.0</ele><time>2026-04-16T12:59:21.869Z</time></trkpt><trkpt lat="42.1640167" lon="14.5538333"><ele>212.0</ele><time>2026-04-16T12:59:23.868Z</time></trkpt><trkpt lat="42.1640983" lon="14.5538283"><ele>212.00000000000003</ele><time>2026-04-16T12:59:25.869Z</time></trkpt><trkpt lat="42.1641767" lon="14.553815"><ele>212.0</ele><time>2026-04-16T12:59:27.869Z</time></trkpt><trkpt lat="42.1642483" lon="14.5537933"><ele>212.0</ele><time>2026-04-16T12:59:29.869Z</time></trkpt><trkpt lat="42.1643183" lon="14.5537767"><ele>212.0</ele><time>2026-04-16T12:59:31.868Z</time></trkpt><trkpt lat="42.1643867" lon="14.5537483"><ele>212.00000000000003</ele><time>2026-04-16T12:59:33.869Z</time></trkpt><trkpt lat="42.1644767" lon="14.5537317"><ele>212.0</ele><time>2026-04-16T12:59:35.868Z</time></trkpt><trkpt lat="42.1645567" lon="14.55372"><ele>211.66666666666669</ele><time>2026-04-16T12:59:37.868Z</time></trkpt><trkpt lat="42.164635" lon="14.5536883"><ele>211.33333333333334</ele><time>2026-04-16T12:59:39.869Z</time></trkpt><trkpt lat="42.164705" lon="14.553665"><ele>211.0</ele><time>2026-04-16T12:59:41.869Z</time></trkpt><trkpt lat="42.164775" lon="14.5536267"><ele>210.66666666666669</ele><time>2026-04-16T12:59:43.869Z</time></trkpt><trkpt lat="42.1648467" lon="14.553595"><ele>210.33333333333334</ele><time>2026-04-16T12:59:45.869Z</time></trkpt><trkpt lat="42.1649167" lon="14.5535667"><ele>210.0</ele><time>2026-04-16T12:59:47.869Z</time></trkpt><trkpt lat="42.1649917" lon="14.5535317"><ele>210.83333333333334</ele><time>2026-04-16T12:59:49.869Z</time></trkpt><trkpt lat="42.1650567" lon="14.5535067"><ele>211.66666666666669</ele><time>2026-04-16T12:59:51.868Z</time></trkpt><trkpt lat="42.1651483" lon="14.5534817"><ele>212.5</ele><time>2026-04-16T12:59:54.869Z</time></trkpt><trkpt lat="42.16522" lon="14.55347"><ele>213.33333333333334</ele><time>2026-04-16T12:59:56.869Z</time></trkpt><trkpt lat="42.1652917" lon="14.5534717"><ele>214.16666666666669</ele><time>2026-04-16T12:59:58.868Z</time></trkpt><trkpt lat="42.165355" lon="14.5534783"><ele>215.0</ele><time>2026-04-16T13:00:00.869Z</time></trkpt><trkpt lat="42.1654267" lon="14.5535583"><ele>215.0</ele><time>2026-04-16T13:00:03.869Z</time></trkpt><trkpt lat="42.1654517" lon="14.5536433"><ele>215.0</ele><time>2026-04-16T13:00:05.868Z</time></trkpt><trkpt lat="42.1655067" lon="14.5537367"><ele>215.0</ele><time>2026-04-16T13:00:07.869Z</time></trkpt><trkpt lat="42.16561" lon="14.5538033"><ele>215.0</ele><time>2026-04-16T13:00:09.869Z</time></trkpt><trkpt lat="42.1656733" lon="14.55382"><ele>215.0</ele><time>2026-04-16T13:00:10.868Z</time></trkpt><trkpt lat="42.165795" lon="14.55385"><ele>214.16666666666669</ele><time>2026-04-16T13:00:12.869Z</time></trkpt><trkpt lat="42.1659" lon="14.553875"><ele>213.33333333333334</ele><time>2026-04-16T13:00:14.869Z</time></trkpt><trkpt lat="42.1659817" lon="14.5538967"><ele>212.5</ele><time>2026-04-16T13:00:16.869Z</time></trkpt><trkpt lat="42.1660667" lon="14.553905"><ele>211.66666666666669</ele><time>2026-04-16T13:00:19.868Z</time></trkpt><trkpt lat="42.1661517" lon="14.5539267"><ele>210.83333333333334</ele><time>2026-04-16T13:00:22.868Z</time></trkpt><trkpt lat="42.16621" lon="14.5539617"><ele>210.0</ele><time>2026-04-16T13:00:24.868Z</time></trkpt><trkpt lat="42.1662783" lon="14.5540133"><ele>210.0</ele><time>2026-04-16T13:00:26.869Z</time></trkpt><trkpt lat="42.166355" lon="14.5540467"><ele>210.0</ele><time>2026-04-16T13:00:28.869Z</time></trkpt><trkpt lat="42.166445" lon="14.5540867"><ele>210.0</ele><time>2026-04-16T13:00:30.868Z</time></trkpt><trkpt lat="42.16655" lon="14.5540767"><ele>210.0</ele><time>2026-04-16T13:00:32.869Z</time></trkpt><trkpt lat="42.16665" lon="14.5540433"><ele>210.0</ele><time>2026-04-16T13:00:34.868Z</time></trkpt><trkpt lat="42.1667467" lon="14.55401"><ele>208.2</ele><time>2026-04-16T13:00:36.869Z</time></trkpt><trkpt lat="42.1668467" lon="14.55398"><ele>206.4</ele><time>2026-04-16T13:00:38.869Z</time></trkpt><trkpt lat="42.166935" lon="14.55395"><ele>204.60000000000002</ele><time>2026-04-16T13:00:40.869Z</time></trkpt><trkpt lat="42.167035" lon="14.5539533"><ele>202.8</ele><time>2026-04-16T13:00:42.868Z</time></trkpt><trkpt lat="42.1671367" lon="14.5539783"><ele>201.0</ele><time>2026-04-16T13:00:44.869Z</time></trkpt><trkpt lat="42.167255" lon="14.554005"><ele>199.25</ele><time>2026-04-16T13:00:46.869Z</time></trkpt><trkpt lat="42.1673683" lon="14.5539967"><ele>197.5</ele><time>2026-04-16T13:00:48.869Z</time></trkpt><trkpt lat="42.1674917" lon="14.553985"><ele>195.75</ele><time>2026-04-16T13:00:50.868Z</time></trkpt><trkpt lat="42.16761" lon="14.553975"><ele>194.0</ele><time>2026-04-16T13:00:52.868Z</time></trkpt><trkpt lat="42.1677133" lon="14.5539767"><ele>194.00000000000003</ele><time>2026-04-16T13:00:54.869Z</time></trkpt><trkpt lat="42.1678033" lon="14.553965"><ele>194.0</ele><time>2026-04-16T13:00:56.869Z</time></trkpt><trkpt lat="42.1678833" lon="14.5539467"><ele>194.0</ele><time>2026-04-16T13:00:58.868Z</time></trkpt><trkpt lat="42.1679533" lon="14.553935"><ele>194.0</ele><time>2026-04-16T13:01:00.869Z</time></trkpt><trkpt lat="42.168025" lon="14.55393"><ele>194.00000000000003</ele><time>2026-04-16T13:01:02.868Z</time></trkpt><trkpt lat="42.1680983" lon="14.5539083"><ele>194.0</ele><time>2026-04-16T13:01:04.868Z</time></trkpt><trkpt lat="42.16819" lon="14.5539117"><ele>192.00000000000003</ele><time>2026-04-16T13:01:06.868Z</time></trkpt><trkpt lat="42.1683083" lon="14.5539267"><ele>190.0</ele><time>2026-04-16T13:01:08.869Z</time></trkpt><trkpt lat="42.1683833" lon="14.5539317"><ele>188.0</ele><time>2026-04-16T13:01:09.868Z</time></trkpt><trkpt lat="42.1684617" lon="14.5539383"><ele>186.0</ele><time>2026-04-16T13:01:10.869Z</time></trkpt><trkpt lat="42.16855" lon="14.55394"><ele>184.0</ele><time>2026-04-16T13:01:11.869Z</time></trkpt><trkpt lat="42.168625" lon="14.5539317"><ele>182.0</ele><time>2026-04-16T13:01:12.869Z</time></trkpt><trkpt lat="42.1687" lon="14.5539167"><ele>182.0</ele><time>2026-04-16T13:01:13.869Z</time></trkpt><trkpt lat="42.1687733" lon="14.5539183"><ele>182.0</ele><time>2026-04-16T13:01:14.869Z</time></trkpt><trkpt lat="42.1688433" lon="14.5538967"><ele>182.0</ele><time>2026-04-16T13:01:15.869Z</time></trkpt><trkpt lat="42.1689683" lon="14.55387"><ele>182.0</ele><time>2026-04-16T13:01:17.868Z</time></trkpt><trkpt lat="42.1690967" lon="14.5538467"><ele>182.0</ele><time>2026-04-16T13:01:19.869Z</time></trkpt><trkpt lat="42.16917" lon="14.5538533"><ele>180.33333333333331</ele><time>2026-04-16T13:01:20.869Z</time></trkpt><trkpt lat="42.169295" lon="14.5538833"><ele>178.66666666666666</ele><time>2026-04-16T13:01:22.869Z</time></trkpt><trkpt lat="42.1693617" lon="14.5539"><ele>177.0</ele><time>2026-04-16T13:01:23.869Z</time></trkpt><trkpt lat="42.1694267" lon="14.55392"><ele>175.33333333333334</ele><time>2026-04-16T13:01:24.868Z</time></trkpt><trkpt lat="42.1694967" lon="14.5539417"><ele>173.66666666666669</ele><time>2026-04-16T13:01:25.868Z</time></trkpt><trkpt lat="42.1695683" lon="14.5539633"><ele>172.0</ele><time>2026-04-16T13:01:26.869Z</time></trkpt><trkpt lat="42.16964" lon="14.5539817"><ele>172.0</ele><time>2026-04-16T13:01:27.868Z</time></trkpt><trkpt lat="42.1697033" lon="14.55399"><ele>172.0</ele><time>2026-04-16T13:01:28.868Z</time></trkpt><trkpt lat="42.169825" lon="14.5540133"><ele>172.0</ele><time>2026-04-16T13:01:30.868Z</time></trkpt><trkpt lat="42.1699433" lon="14.5540083"><ele>172.0</ele><time>2026-04-16T13:01:32.869Z</time></trkpt><trkpt lat="42.1700633" lon="14.55398"><ele>172.0</ele><time>2026-04-16T13:01:34.868Z</time></trkpt><trkpt lat="42.1701317" lon="14.553975"><ele>171.42857142857144</ele><time>2026-04-16T13:01:35.869Z</time></trkpt><trkpt lat="42.1701983" lon="14.5539717"><ele>170.85714285714286</ele><time>2026-04-16T13:01:36.869Z</time></trkpt><trkpt lat="42.1702633" lon="14.5539617"><ele>170.28571428571428</ele><time>2026-04-16T13:01:37.868Z</time></trkpt><trkpt lat="42.1703283" lon="14.5539517"><ele>169.71428571428572</ele><time>2026-04-16T13:01:38.869Z</time></trkpt><trkpt lat="42.1703933" lon="14.5539467"><ele>169.14285714285714</ele><time>2026-04-16T13:01:39.868Z</time></trkpt><trkpt lat="42.17046" lon="14.553945"><ele>168.57142857142858</ele><time>2026-04-16T13:01:40.869Z</time></trkpt><trkpt lat="42.1705283" lon="14.5539467"><ele>168.0</ele><time>2026-04-16T13:01:41.869Z</time></trkpt><trkpt lat="42.1706017" lon="14.553955"><ele>168.0</ele><time>2026-04-16T13:01:42.868Z</time></trkpt><trkpt lat="42.170675" lon="14.5539667"><ele>168.0</ele><time>2026-04-16T13:01:43.869Z</time></trkpt><trkpt lat="42.1707517" lon="14.5539833"><ele>168.0</ele><time>2026-04-16T13:01:44.869Z</time></trkpt><trkpt lat="42.170825" lon="14.5540033"><ele>168.0</ele><time>2026-04-16T13:01:45.868Z</time></trkpt><trkpt lat="42.1708967" lon="14.5540233"><ele>168.0</ele><time>2026-04-16T13:01:46.868Z</time></trkpt><trkpt lat="42.1709767" lon="14.5540417"><ele>168.0</ele><time>2026-04-16T13:01:47.868Z</time></trkpt><trkpt lat="42.17105" lon="14.55405"><ele>166.60000000000002</ele><time>2026-04-16T13:01:48.869Z</time></trkpt><trkpt lat="42.1711283" lon="14.5540667"><ele>165.20000000000002</ele><time>2026-04-16T13:01:49.869Z</time></trkpt><trkpt lat="42.1712117" lon="14.5540933"><ele>163.8</ele><time>2026-04-16T13:01:50.868Z</time></trkpt><trkpt lat="42.1712983" lon="14.5541267"><ele>162.4</ele><time>2026-04-16T13:01:51.869Z</time></trkpt><trkpt lat="42.1713933" lon="14.5541617"><ele>161.0</ele><time>2026-04-16T13:01:52.869Z</time></trkpt><trkpt lat="42.1714917" lon="14.5542083"><ele>159.0</ele><time>2026-04-16T13:01:53.868Z</time></trkpt><trkpt lat="42.1715933" lon="14.5542517"><ele>157.0</ele><time>2026-04-16T13:01:54.868Z</time></trkpt><trkpt lat="42.1716967" lon="14.55428"><ele>155.0</ele><time>2026-04-16T13:01:55.869Z</time></trkpt><trkpt lat="42.1717967" lon="14.5543017"><ele>153.0</ele><time>2026-04-16T13:01:56.869Z</time></trkpt><trkpt lat="42.1718883" lon="14.5543217"><ele>151.0</ele><time>2026-04-16T13:01:57.869Z</time></trkpt><trkpt lat="42.1719783" lon="14.5543367"><ele>151.0</ele><time>2026-04-16T13:01:58.869Z</time></trkpt><trkpt lat="42.172065" lon="14.5543583"><ele>151.0</ele><time>2026-04-16T13:01:59.869Z</time></trkpt><trkpt lat="42.1721533" lon="14.5543883"><ele>151.0</ele><time>2026-04-16T13:02:00.869Z</time></trkpt><trkpt lat="42.172235" lon="14.55442"><ele>151.0</ele><time>2026-04-16T13:02:01.869Z</time></trkpt><trkpt lat="42.1723233" lon="14.55446"><ele>151.0</ele><time>2026-04-16T13:02:02.869Z</time></trkpt><trkpt lat="42.1724133" lon="14.554505"><ele>149.83333333333334</ele><time>2026-04-16T13:02:03.869Z</time></trkpt><trkpt lat="42.1725" lon="14.5545533"><ele>148.66666666666669</ele><time>2026-04-16T13:02:04.869Z</time></trkpt><trkpt lat="42.1725817" lon="14.5545983"><ele>147.5</ele><time>2026-04-16T13:02:05.868Z</time></trkpt><trkpt lat="42.172655" lon="14.554635"><ele>146.33333333333334</ele><time>2026-04-16T13:02:06.868Z</time></trkpt><trkpt lat="42.1727333" lon="14.554675"><ele>145.16666666666666</ele><time>2026-04-16T13:02:07.869Z</time></trkpt><trkpt lat="42.1728117" lon="14.5547"><ele>144.0</ele><time>2026-04-16T13:02:08.868Z</time></trkpt><trkpt lat="42.1728967" lon="14.5547283"><ele>144.0</ele><time>2026-04-16T13:02:09.869Z</time></trkpt><trkpt lat="42.1729833" lon="14.5547467"><ele>144.0</ele><time>2026-04-16T13:02:10.868Z</time></trkpt><trkpt lat="42.1730683" lon="14.5547533"><ele>144.0</ele><time>2026-04-16T13:02:11.868Z</time></trkpt><trkpt lat="42.173155" lon="14.55476"><ele>144.0</ele><time>2026-04-16T13:02:12.868Z</time></trkpt><trkpt lat="42.1732433" lon="14.55476"><ele>144.0</ele><time>2026-04-16T13:02:13.868Z</time></trkpt><trkpt lat="42.1733317" lon="14.5547533"><ele>144.0</ele><time>2026-04-16T13:02:14.868Z</time></trkpt><trkpt lat="42.1734167" lon="14.5547517"><ele>143.5</ele><time>2026-04-16T13:02:15.868Z</time></trkpt><trkpt lat="42.1735" lon="14.55475"><ele>143.0</ele><time>2026-04-16T13:02:16.868Z</time></trkpt><trkpt lat="42.17358" lon="14.55474"><ele>142.5</ele><time>2026-04-16T13:02:17.868Z</time></trkpt><trkpt lat="42.1736617" lon="14.5547217"><ele>142.0</ele><time>2026-04-16T13:02:18.869Z</time></trkpt><trkpt lat="42.173745" lon="14.5547"><ele>141.5</ele><time>2026-04-16T13:02:19.869Z</time></trkpt><trkpt lat="42.1738267" lon="14.55468"><ele>141.0</ele><time>2026-04-16T13:02:20.869Z</time></trkpt><trkpt lat="42.1739067" lon="14.55466"><ele>141.0</ele><time>2026-04-16T13:02:21.869Z</time></trkpt><trkpt lat="42.1739883" lon="14.5546483"><ele>141.0</ele><time>2026-04-16T13:02:22.869Z</time></trkpt><trkpt lat="42.174065" lon="14.554645"><ele>141.0</ele><time>2026-04-16T13:02:23.869Z</time></trkpt><trkpt lat="42.1741417" lon="14.55464"><ele>141.0</ele><time>2026-04-16T13:02:24.869Z</time></trkpt><trkpt lat="42.1742217" lon="14.5546383"><ele>141.0</ele><time>2026-04-16T13:02:25.869Z</time></trkpt><trkpt lat="42.1743017" lon="14.5546417"><ele>141.0</ele><time>2026-04-16T13:02:26.868Z</time></trkpt><trkpt lat="42.1743867" lon="14.554645"><ele>140.33333333333334</ele><time>2026-04-16T13:02:27.869Z</time></trkpt><trkpt lat="42.1744767" lon="14.5546533"><ele>139.66666666666666</ele><time>2026-04-16T13:02:28.869Z</time></trkpt><trkpt lat="42.1745667" lon="14.5546633"><ele>139.0</ele><time>2026-04-16T13:02:29.868Z</time></trkpt><trkpt lat="42.1746417" lon="14.5546717"><ele>138.33333333333331</ele><time>2026-04-16T13:02:30.869Z</time></trkpt><trkpt lat="42.174705" lon="14.554675"><ele>137.66666666666666</ele><time>2026-04-16T13:02:31.868Z</time></trkpt><trkpt lat="42.1748" lon="14.5546767"><ele>137.0</ele><time>2026-04-16T13:02:33.868Z</time></trkpt><trkpt lat="42.1748733" lon="14.5546717"><ele>138.42857142857144</ele><time>2026-04-16T13:02:36.869Z</time></trkpt><trkpt lat="42.1749533" lon="14.5546733"><ele>139.85714285714286</ele><time>2026-04-16T13:02:40.868Z</time></trkpt><trkpt lat="42.1750283" lon="14.554705"><ele>141.28571428571428</ele><time>2026-04-16T13:02:44.868Z</time></trkpt><trkpt lat="42.1751083" lon="14.55472"><ele>142.71428571428572</ele><time>2026-04-16T13:02:48.869Z</time></trkpt><trkpt lat="42.175185" lon="14.5547417"><ele>144.14285714285714</ele><time>2026-04-16T13:02:52.869Z</time></trkpt><trkpt lat="42.1752483" lon="14.5547633"><ele>145.57142857142858</ele><time>2026-04-16T13:02:55.868Z</time></trkpt><trkpt lat="42.1753083" lon="14.5547967"><ele>147.0</ele><time>2026-04-16T13:02:58.869Z</time></trkpt><trkpt lat="42.175395" lon="14.554825"><ele>147.0</ele><time>2026-04-16T13:03:02.868Z</time></trkpt><trkpt lat="42.1754617" lon="14.5548267"><ele>147.0</ele><time>2026-04-16T13:03:05.869Z</time></trkpt><trkpt lat="42.175535" lon="14.5548367"><ele>147.0</ele><time>2026-04-16T13:03:09.869Z</time></trkpt><trkpt lat="42.1756267" lon="14.5548633"><ele>147.0</ele><time>2026-04-16T13:03:13.869Z</time></trkpt><trkpt lat="42.1757083" lon="14.554895"><ele>147.0</ele><time>2026-04-16T13:03:16.869Z</time></trkpt><trkpt lat="42.1757817" lon="14.554935"><ele>147.0</ele><time>2026-04-16T13:03:19.869Z</time></trkpt><trkpt lat="42.1758483" lon="14.5549767"><ele>147.42857142857142</ele><time>2026-04-16T13:03:22.869Z</time></trkpt><trkpt lat="42.1759167" lon="14.5550117"><ele>147.85714285714286</ele><time>2026-04-16T13:03:25.868Z</time></trkpt><trkpt lat="42.1759767" lon="14.5550467"><ele>148.28571428571428</ele><time>2026-04-16T13:03:28.869Z</time></trkpt><trkpt lat="42.1760533" lon="14.5550717"><ele>148.71428571428572</ele><time>2026-04-16T13:03:31.869Z</time></trkpt><trkpt lat="42.1761267" lon="14.5550717"><ele>149.14285714285714</ele><time>2026-04-16T13:03:34.869Z</time></trkpt><trkpt lat="42.1762033" lon="14.5550517"><ele>149.57142857142856</ele><time>2026-04-16T13:03:37.869Z</time></trkpt><trkpt lat="42.1762783" lon="14.5550317"><ele>150.0</ele><time>2026-04-16T13:03:40.869Z</time></trkpt><trkpt lat="42.1763517" lon="14.5550017"><ele>150.0</ele><time>2026-04-16T13:03:43.869Z</time></trkpt><trkpt lat="42.176415" lon="14.5549367"><ele>150.0</ele><time>2026-04-16T13:03:46.869Z</time></trkpt><trkpt lat="42.176475" lon="14.5549083"><ele>150.0</ele><time>2026-04-16T13:03:48.869Z</time></trkpt><trkpt lat="42.1765317" lon="14.5548683"><ele>150.0</ele><time>2026-04-16T13:03:50.868Z</time></trkpt><trkpt lat="42.1766183" lon="14.554835"><ele>150.0</ele><time>2026-04-16T13:03:52.869Z</time></trkpt><trkpt lat="42.1767033" lon="14.5547733"><ele>150.0</ele><time>2026-04-16T13:03:54.869Z</time></trkpt><trkpt lat="42.1767783" lon="14.5547033"><ele>150.16666666666666</ele><time>2026-04-16T13:03:56.869Z</time></trkpt><trkpt lat="42.1768383" lon="14.554615"><ele>150.33333333333334</ele><time>2026-04-16T13:03:58.869Z</time></trkpt><trkpt lat="42.1768783" lon="14.5545317"><ele>150.5</ele><time>2026-04-16T13:04:00.869Z</time></trkpt><trkpt lat="42.1769367" lon="14.5544233"><ele>150.66666666666669</ele><time>2026-04-16T13:04:03.869Z</time></trkpt><trkpt lat="42.1769983" lon="14.5543367"><ele>150.83333333333334</ele><time>2026-04-16T13:04:05.869Z</time></trkpt><trkpt lat="42.177075" lon="14.554255"><ele>151.0</ele><time>2026-04-16T13:04:07.868Z</time></trkpt><trkpt lat="42.1771567" lon="14.5541667"><ele>151.16666666666669</ele><time>2026-04-16T13:04:09.869Z</time></trkpt><trkpt lat="42.1772317" lon="14.554095"><ele>151.33333333333334</ele><time>2026-04-16T13:04:11.869Z</time></trkpt><trkpt lat="42.1773033" lon="14.5540467"><ele>151.5</ele><time>2026-04-16T13:04:14.868Z</time></trkpt><trkpt lat="42.177365" lon="14.55402"><ele>151.66666666666666</ele><time>2026-04-16T13:04:16.868Z</time></trkpt><trkpt lat="42.1774367" lon="14.553985"><ele>151.83333333333331</ele><time>2026-04-16T13:04:18.869Z</time></trkpt><trkpt lat="42.1775117" lon="14.5539317"><ele>152.0</ele><time>2026-04-16T13:04:20.869Z</time></trkpt><trkpt lat="42.1776133" lon="14.5538533"><ele>152.0</ele><time>2026-04-16T13:04:22.869Z</time></trkpt><trkpt lat="42.1777217" lon="14.5537783"><ele>152.0</ele><time>2026-04-16T13:04:24.868Z</time></trkpt><trkpt lat="42.17784" lon="14.55371"><ele>152.0</ele><time>2026-04-16T13:04:26.869Z</time></trkpt><trkpt lat="42.1779" lon="14.5536717"><ele>152.0</ele><time>2026-04-16T13:04:27.869Z</time></trkpt><trkpt lat="42.1779717" lon="14.5536433"><ele>152.0</ele><time>2026-04-16T13:04:28.868Z</time></trkpt><trkpt lat="42.17805" lon="14.5536167"><ele>150.0</ele><time>2026-04-16T13:04:29.869Z</time></trkpt><trkpt lat="42.1781283" lon="14.5535933"><ele>148.0</ele><time>2026-04-16T13:04:30.869Z</time></trkpt><trkpt lat="42.1782083" lon="14.5535733"><ele>146.0</ele><time>2026-04-16T13:04:31.869Z</time></trkpt><trkpt lat="42.1782883" lon="14.5535533"><ele>144.0</ele><time>2026-04-16T13:04:32.868Z</time></trkpt><trkpt lat="42.1783683" lon="14.55353"><ele>142.0</ele><time>2026-04-16T13:04:33.869Z</time></trkpt><trkpt lat="42.1784483" lon="14.5535067"><ele>140.0</ele><time>2026-04-16T13:04:34.869Z</time></trkpt><trkpt lat="42.178525" lon="14.5534783"><ele>140.0</ele><time>2026-04-16T13:04:35.869Z</time></trkpt><trkpt lat="42.1785967" lon="14.553445"><ele>140.0</ele><time>2026-04-16T13:04:36.868Z</time></trkpt><trkpt lat="42.1786667" lon="14.5534033"><ele>140.0</ele><time>2026-04-16T13:04:37.869Z</time></trkpt><trkpt lat="42.1787383" lon="14.5533633"><ele>140.0</ele><time>2026-04-16T13:04:38.869Z</time></trkpt><trkpt lat="42.178825" lon="14.55332"><ele>140.0</ele><time>2026-04-16T13:04:39.869Z</time></trkpt><trkpt lat="42.17891" lon="14.55328"><ele>140.0</ele><time>2026-04-16T13:04:40.868Z</time></trkpt><trkpt lat="42.1790033" lon="14.5532383"><ele>139.6</ele><time>2026-04-16T13:04:41.869Z</time></trkpt><trkpt lat="42.1791017" lon="14.5532067"><ele>139.2</ele><time>2026-04-16T13:04:42.869Z</time></trkpt><trkpt lat="42.1791967" lon="14.5531583"><ele>138.8</ele><time>2026-04-16T13:04:43.868Z</time></trkpt><trkpt lat="42.1792817" lon="14.5531133"><ele>138.4</ele><time>2026-04-16T13:04:44.869Z</time></trkpt><trkpt lat="42.1793633" lon="14.55308"><ele>138.0</ele><time>2026-04-16T13:04:45.868Z</time></trkpt><trkpt lat="42.1794383" lon="14.5530433"><ele>138.0</ele><time>2026-04-16T13:04:46.868Z</time></trkpt><trkpt lat="42.1795067" lon="14.55301"><ele>138.0</ele><time>2026-04-16T13:04:47.869Z</time></trkpt><trkpt lat="42.1795683" lon="14.5529883"><ele>138.0</ele><time>2026-04-16T13:04:48.869Z</time></trkpt><trkpt lat="42.1796633" lon="14.5529483"><ele>138.0</ele><time>2026-04-16T13:04:50.869Z</time></trkpt><trkpt lat="42.1797417" lon="14.55289"><ele>138.0</ele><time>2026-04-16T13:04:52.869Z</time></trkpt><trkpt lat="42.1798067" lon="14.5528283"><ele>138.0</ele><time>2026-04-16T13:04:54.869Z</time></trkpt><trkpt lat="42.179875" lon="14.5527533"><ele>137.5</ele><time>2026-04-16T13:04:56.868Z</time></trkpt><trkpt lat="42.1799417" lon="14.5526783"><ele>137.0</ele><time>2026-04-16T13:04:58.869Z</time></trkpt><trkpt lat="42.1800083" lon="14.5526183"><ele>136.5</ele><time>2026-04-16T13:05:00.869Z</time></trkpt><trkpt lat="42.1800683" lon="14.5525667"><ele>136.0</ele><time>2026-04-16T13:05:02.869Z</time></trkpt><trkpt lat="42.1801283" lon="14.5525"><ele>135.5</ele><time>2026-04-16T13:05:04.868Z</time></trkpt><trkpt lat="42.1801783" lon="14.55244"><ele>135.0</ele><time>2026-04-16T13:05:06.868Z</time></trkpt><trkpt lat="42.1802317" lon="14.5523833"><ele>135.0</ele><time>2026-04-16T13:05:08.869Z</time></trkpt><trkpt lat="42.1803083" lon="14.552315"><ele>135.0</ele><time>2026-04-16T13:05:11.869Z</time></trkpt><trkpt lat="42.1803883" lon="14.5522633"><ele>135.0</ele><time>2026-04-16T13:05:14.869Z</time></trkpt><trkpt lat="42.1804583" lon="14.552215"><ele>135.0</ele><time>2026-04-16T13:05:17.869Z</time></trkpt><trkpt lat="42.1805183" lon="14.5521483"><ele>135.0</ele><time>2026-04-16T13:05:20.869Z</time></trkpt><trkpt lat="42.18058" lon="14.55212"><ele>135.0</ele><time>2026-04-16T13:05:22.868Z</time></trkpt><trkpt lat="42.180665" lon="14.55208"><ele>135.5</ele><time>2026-04-16T13:05:25.868Z</time></trkpt><trkpt lat="42.1807233" lon="14.5520417"><ele>136.0</ele><time>2026-04-16T13:05:27.869Z</time></trkpt><trkpt lat="42.1808033" lon="14.552"><ele>136.5</ele><time>2026-04-16T13:05:30.869Z</time></trkpt><trkpt lat="42.1808667" lon="14.5519883"><ele>137.0</ele><time>2026-04-16T13:05:32.869Z</time></trkpt><trkpt lat="42.1809367" lon="14.5519567"><ele>137.5</ele><time>2026-04-16T13:05:35.869Z</time></trkpt><trkpt lat="42.181015" lon="14.551895"><ele>138.0</ele><time>2026-04-16T13:05:38.869Z</time></trkpt><trkpt lat="42.1810983" lon="14.5518367"><ele>138.16666666666666</ele><time>2026-04-16T13:05:41.869Z</time></trkpt><trkpt lat="42.181175" lon="14.5517767"><ele>138.33333333333334</ele><time>2026-04-16T13:05:44.869Z</time></trkpt><trkpt lat="42.1812533" lon="14.5517183"><ele>138.5</ele><time>2026-04-16T13:05:47.869Z</time></trkpt><trkpt lat="42.181305" lon="14.5516567"><ele>138.66666666666669</ele><time>2026-04-16T13:05:49.869Z</time></trkpt><trkpt lat="42.1813767" lon="14.5515917"><ele>138.83333333333334</ele><time>2026-04-16T13:05:52.869Z</time></trkpt><trkpt lat="42.1814417" lon="14.55154"><ele>139.0</ele><time>2026-04-16T13:05:55.869Z</time></trkpt><trkpt lat="42.1815033" lon="14.5514683"><ele>139.0</ele><time>2026-04-16T13:05:59.868Z</time></trkpt><trkpt lat="42.181565" lon="14.5514183"><ele>139.0</ele><time>2026-04-16T13:06:02.868Z</time></trkpt><trkpt lat="42.18164" lon="14.55137"><ele>139.0</ele><time>2026-04-16T13:06:05.869Z</time></trkpt><trkpt lat="42.18171" lon="14.5513117"><ele>139.0</ele><time>2026-04-16T13:06:08.869Z</time></trkpt><trkpt lat="42.1817717" lon="14.5512517"><ele>139.0</ele><time>2026-04-16T13:06:11.869Z</time></trkpt><trkpt lat="42.1818317" lon="14.5511983"><ele>139.0</ele><time>2026-04-16T13:06:14.868Z</time></trkpt><trkpt lat="42.1818933" lon="14.551135"><ele>139.0</ele><time>2026-04-16T13:06:17.869Z</time></trkpt><trkpt lat="42.1819583" lon="14.551075"><ele>139.0</ele><time>2026-04-16T13:06:21.868Z</time></trkpt><trkpt lat="42.1820017" lon="14.5510083"><ele>139.0</ele><time>2026-04-16T13:06:24.868Z</time></trkpt><trkpt lat="42.1820633" lon="14.5509333"><ele>139.0</ele><time>2026-04-16T13:06:28.869Z</time></trkpt><trkpt lat="42.1821283" lon="14.55089"><ele>139.0</ele><time>2026-04-16T13:06:32.869Z</time></trkpt><trkpt lat="42.182185" lon="14.5508367"><ele>139.0</ele><time>2026-04-16T13:06:36.869Z</time></trkpt><trkpt lat="42.18224" lon="14.5507733"><ele>139.0</ele><time>2026-04-16T13:06:39.869Z</time></trkpt><trkpt lat="42.1823017" lon="14.5507017"><ele>139.16666666666669</ele><time>2026-04-16T13:06:42.868Z</time></trkpt><trkpt lat="42.1823633" lon="14.5506417"><ele>139.33333333333334</ele><time>2026-04-16T13:06:45.868Z</time></trkpt><trkpt lat="42.1824267" lon="14.55056"><ele>139.5</ele><time>2026-04-16T13:06:48.868Z</time></trkpt><trkpt lat="42.1824833" lon="14.5505117"><ele>139.66666666666666</ele><time>2026-04-16T13:06:51.869Z</time></trkpt><trkpt lat="42.1825467" lon="14.5504483"><ele>139.83333333333331</ele><time>2026-04-16T13:06:54.869Z</time></trkpt><trkpt lat="42.1826167" lon="14.5503717"><ele>140.0</ele><time>2026-04-16T13:06:57.868Z</time></trkpt><trkpt lat="42.18265" lon="14.55029"><ele>140.0</ele><time>2026-04-16T13:07:00.869Z</time></trkpt><trkpt lat="42.18272" lon="14.5502433"><ele>140.0</ele><time>2026-04-16T13:07:03.868Z</time></trkpt><trkpt lat="42.182775" lon="14.55019"><ele>140.0</ele><time>2026-04-16T13:07:05.868Z</time></trkpt><trkpt lat="42.1828283" lon="14.5501433"><ele>140.0</ele><time>2026-04-16T13:07:07.869Z</time></trkpt><trkpt lat="42.18288" lon="14.5500933"><ele>140.0</ele><time>2026-04-16T13:07:09.869Z</time></trkpt><trkpt lat="42.18295" lon="14.5500283"><ele>140.0</ele><time>2026-04-16T13:07:12.868Z</time></trkpt><trkpt lat="42.1830167" lon="14.5499717"><ele>140.0</ele><time>2026-04-16T13:07:15.869Z</time></trkpt><trkpt lat="42.183095" lon="14.5499217"><ele>140.0</ele><time>2026-04-16T13:07:18.869Z</time></trkpt><trkpt lat="42.183165" lon="14.549885"><ele>140.0</ele><time>2026-04-16T13:07:21.869Z</time></trkpt><trkpt lat="42.183245" lon="14.54985"><ele>140.0</ele><time>2026-04-16T13:07:24.869Z</time></trkpt><trkpt lat="42.18332" lon="14.5498167"><ele>140.0</ele><time>2026-04-16T13:07:27.868Z</time></trkpt><trkpt lat="42.1833983" lon="14.54977"><ele>140.0</ele><time>2026-04-16T13:07:30.868Z</time></trkpt><trkpt lat="42.18346" lon="14.54975"><ele>140.0</ele><time>2026-04-16T13:07:32.869Z</time></trkpt><trkpt lat="42.1835183" lon="14.5497117"><ele>139.0</ele><time>2026-04-16T13:07:34.868Z</time></trkpt><trkpt lat="42.1835933" lon="14.5496633"><ele>138.0</ele><time>2026-04-16T13:07:37.868Z</time></trkpt><trkpt lat="42.183675" lon="14.5496133"><ele>137.0</ele><time>2026-04-16T13:07:40.869Z</time></trkpt><trkpt lat="42.18374" lon="14.5495817"><ele>136.0</ele><time>2026-04-16T13:07:42.869Z</time></trkpt><trkpt lat="42.18382" lon="14.54956"><ele>135.0</ele><time>2026-04-16T13:07:44.868Z</time></trkpt><trkpt lat="42.1839017" lon="14.5495417"><ele>134.0</ele><time>2026-04-16T13:07:46.868Z</time></trkpt><trkpt lat="42.1839767" lon="14.5495467"><ele>134.42857142857144</ele><time>2026-04-16T13:07:48.868Z</time></trkpt><trkpt lat="42.1840533" lon="14.5495417"><ele>134.85714285714286</ele><time>2026-04-16T13:07:50.868Z</time></trkpt><trkpt lat="42.18413" lon="14.549525"><ele>135.28571428571428</ele><time>2026-04-16T13:07:52.869Z</time></trkpt><trkpt lat="42.1842" lon="14.5495167"><ele>135.71428571428572</ele><time>2026-04-16T13:07:54.869Z</time></trkpt><trkpt lat="42.184265" lon="14.5495133"><ele>136.14285714285714</ele><time>2026-04-16T13:07:56.868Z</time></trkpt><trkpt lat="42.1843367" lon="14.5495167"><ele>136.57142857142858</ele><time>2026-04-16T13:07:58.869Z</time></trkpt><trkpt lat="42.1844" lon="14.54952"><ele>137.0</ele><time>2026-04-16T13:08:00.869Z</time></trkpt><trkpt lat="42.184495" lon="14.549525"><ele>137.00000000000003</ele><time>2026-04-16T13:08:03.869Z</time></trkpt><trkpt lat="42.1845633" lon="14.5495333"><ele>137.0</ele><time>2026-04-16T13:08:05.869Z</time></trkpt><trkpt lat="42.1846283" lon="14.5495333"><ele>137.0</ele><time>2026-04-16T13:08:07.869Z</time></trkpt><trkpt lat="42.1846933" lon="14.5495467"><ele>137.0</ele><time>2026-04-16T13:08:09.869Z</time></trkpt><trkpt lat="42.1847667" lon="14.5495517"><ele>137.0</ele><time>2026-04-16T13:08:11.869Z</time></trkpt><trkpt lat="42.184835" lon="14.5495617"><ele>137.00000000000003</ele><time>2026-04-16T13:08:13.868Z</time></trkpt><trkpt lat="42.1849083" lon="14.54957"><ele>137.0</ele><time>2026-04-16T13:08:15.868Z</time></trkpt><trkpt lat="42.1849883" lon="14.5495783"><ele>138.5</ele><time>2026-04-16T13:08:17.869Z</time></trkpt><trkpt lat="42.1850767" lon="14.549595"><ele>140.0</ele><time>2026-04-16T13:08:19.869Z</time></trkpt><trkpt lat="42.1851783" lon="14.5496017"><ele>141.5</ele><time>2026-04-16T13:08:21.869Z</time></trkpt><trkpt lat="42.1852567" lon="14.549605"><ele>143.0</ele><time>2026-04-16T13:08:23.868Z</time></trkpt><trkpt lat="42.185345" lon="14.549605"><ele>144.5</ele><time>2026-04-16T13:08:25.869Z</time></trkpt><trkpt lat="42.1854083" lon="14.5495967"><ele>146.0</ele><time>2026-04-16T13:08:27.869Z</time></trkpt><trkpt lat="42.1854917" lon="14.5496017"><ele>146.0</ele><time>2026-04-16T13:08:31.869Z</time></trkpt><trkpt lat="42.18557" lon="14.5496083"><ele>146.0</ele><time>2026-04-16T13:08:35.869Z</time></trkpt><trkpt lat="42.1856333" lon="14.54962"><ele>146.0</ele><time>2026-04-16T13:08:38.868Z</time></trkpt><trkpt lat="42.1857167" lon="14.5496433"><ele>146.0</ele><time>2026-04-16T13:08:42.869Z</time></trkpt><trkpt lat="42.18581" lon="14.5496783"><ele>146.0</ele><time>2026-04-16T13:08:45.869Z</time></trkpt><trkpt lat="42.1858717" lon="14.549705"><ele>146.0</ele><time>2026-04-16T13:08:47.869Z</time></trkpt><trkpt lat="42.1859267" lon="14.5497617"><ele>144.66666666666666</ele><time>2026-04-16T13:08:49.868Z</time></trkpt><trkpt lat="42.1860067" lon="14.549835"><ele>143.33333333333331</ele><time>2026-04-16T13:08:51.869Z</time></trkpt><trkpt lat="42.1860633" lon="14.549875"><ele>142.0</ele><time>2026-04-16T13:08:52.869Z</time></trkpt><trkpt lat="42.1861267" lon="14.5499233"><ele>140.66666666666666</ele><time>2026-04-16T13:08:53.868Z</time></trkpt><trkpt lat="42.186195" lon="14.5499733"><ele>139.33333333333334</ele><time>2026-04-16T13:08:54.869Z</time></trkpt><trkpt lat="42.1863033" lon="14.550035"><ele>138.0</ele><time>2026-04-16T13:08:56.868Z</time></trkpt><trkpt lat="42.186405" lon="14.5500917"><ele>135.66666666666666</ele><time>2026-04-16T13:08:58.868Z</time></trkpt><trkpt lat="42.18652" lon="14.5501283"><ele>133.33333333333334</ele><time>2026-04-16T13:09:00.869Z</time></trkpt><trkpt lat="42.186585" lon="14.55015"><ele>131.0</ele><time>2026-04-16T13:09:01.868Z</time></trkpt><trkpt lat="42.1866517" lon="14.5501733"><ele>128.66666666666669</ele><time>2026-04-16T13:09:02.869Z</time></trkpt><trkpt lat="42.18674" lon="14.5502033"><ele>126.33333333333334</ele><time>2026-04-16T13:09:03.869Z</time></trkpt><trkpt lat="42.1868167" lon="14.5502433"><ele>124.0</ele><time>2026-04-16T13:09:04.869Z</time></trkpt><trkpt lat="42.1868967" lon="14.5502867"><ele>124.00000000000001</ele><time>2026-04-16T13:09:05.869Z</time></trkpt><trkpt lat="42.1869767" lon="14.5503267"><ele>124.0</ele><time>2026-04-16T13:09:06.868Z</time></trkpt><trkpt lat="42.1870717" lon="14.5503633"><ele>124.0</ele><time>2026-04-16T13:09:07.869Z</time></trkpt><trkpt lat="42.1871583" lon="14.5503983"><ele>124.0</ele><time>2026-04-16T13:09:08.868Z</time></trkpt><trkpt lat="42.18724" lon="14.550435"><ele>124.00000000000001</ele><time>2026-04-16T13:09:09.869Z</time></trkpt><trkpt lat="42.1873117" lon="14.55047"><ele>124.0</ele><time>2026-04-16T13:09:10.869Z</time></trkpt><trkpt lat="42.18742" lon="14.550535"><ele>123.16666666666667</ele><time>2026-04-16T13:09:12.869Z</time></trkpt><trkpt lat="42.1875" lon="14.5505833"><ele>122.33333333333334</ele><time>2026-04-16T13:09:14.869Z</time></trkpt><trkpt lat="42.187565" lon="14.5506167"><ele>121.5</ele><time>2026-04-16T13:09:16.868Z</time></trkpt><trkpt lat="42.18763" lon="14.5506783"><ele>120.66666666666666</ele><time>2026-04-16T13:09:18.868Z</time></trkpt><trkpt lat="42.1877033" lon="14.5507483"><ele>119.83333333333333</ele><time>2026-04-16T13:09:20.869Z</time></trkpt><trkpt lat="42.18779" lon="14.5508333"><ele>119.0</ele><time>2026-04-16T13:09:22.868Z</time></trkpt><trkpt lat="42.1878833" lon="14.5509433"><ele>119.0</ele><time>2026-04-16T13:09:24.868Z</time></trkpt><trkpt lat="42.18793" lon="14.5510167"><ele>119.0</ele><time>2026-04-16T13:09:25.869Z</time></trkpt><trkpt lat="42.18798" lon="14.5510767"><ele>119.0</ele><time>2026-04-16T13:09:26.869Z</time></trkpt><trkpt lat="42.18803" lon="14.5511317"><ele>119.0</ele><time>2026-04-16T13:09:27.869Z</time></trkpt><trkpt lat="42.1880867" lon="14.5511817"><ele>119.0</ele><time>2026-04-16T13:09:28.868Z</time></trkpt><trkpt lat="42.1881583" lon="14.551225"><ele>119.0</ele><time>2026-04-16T13:09:29.869Z</time></trkpt><trkpt lat="42.1882383" lon="14.5512617"><ele>119.0</ele><time>2026-04-16T13:09:30.868Z</time></trkpt><trkpt lat="42.1883267" lon="14.5512917"><ele>116.6</ele><time>2026-04-16T13:09:31.868Z</time></trkpt><trkpt lat="42.188415" lon="14.5513133"><ele>114.2</ele><time>2026-04-16T13:09:32.868Z</time></trkpt><trkpt lat="42.1885067" lon="14.5513367"><ele>111.79999999999998</ele><time>2026-04-16T13:09:33.869Z</time></trkpt><trkpt lat="42.1885983" lon="14.5513633"><ele>109.39999999999999</ele><time>2026-04-16T13:09:34.869Z</time></trkpt><trkpt lat="42.1886933" lon="14.5513917"><ele>107.0</ele><time>2026-04-16T13:09:35.869Z</time></trkpt><trkpt lat="42.18879" lon="14.5514133"><ele>107.0</ele><time>2026-04-16T13:09:36.868Z</time></trkpt><trkpt lat="42.188885" lon="14.5514333"><ele>106.99999999999999</ele><time>2026-04-16T13:09:37.869Z</time></trkpt><trkpt lat="42.1889783" lon="14.5514367"><ele>106.99999999999999</ele><time>2026-04-16T13:09:38.868Z</time></trkpt><trkpt lat="42.189075" lon="14.5514517"><ele>107.0</ele><time>2026-04-16T13:09:39.868Z</time></trkpt><trkpt lat="42.1891633" lon="14.5514733"><ele>107.0</ele><time>2026-04-16T13:09:40.869Z</time></trkpt><trkpt lat="42.1892467" lon="14.5514967"><ele>106.42857142857143</ele><time>2026-04-16T13:09:41.868Z</time></trkpt><trkpt lat="42.1893267" lon="14.551525"><ele>105.85714285714286</ele><time>2026-04-16T13:09:42.869Z</time></trkpt><trkpt lat="42.1893933" lon="14.5515517"><ele>105.28571428571428</ele><time>2026-04-16T13:09:43.868Z</time></trkpt><trkpt lat="42.1894533" lon="14.5515833"><ele>104.71428571428572</ele><time>2026-04-16T13:09:44.868Z</time></trkpt><trkpt lat="42.1895133" lon="14.5516217"><ele>104.14285714285714</ele><time>2026-04-16T13:09:45.869Z</time></trkpt><trkpt lat="42.18958" lon="14.5516567"><ele>103.57142857142857</ele><time>2026-04-16T13:09:46.869Z</time></trkpt><trkpt lat="42.18964" lon="14.5516867"><ele>103.0</ele><time>2026-04-16T13:09:47.868Z</time></trkpt><trkpt lat="42.1897617" lon="14.55177"><ele>103.0</ele><time>2026-04-16T13:09:49.868Z</time></trkpt><trkpt lat="42.189835" lon="14.5518267"><ele>103.0</ele><time>2026-04-16T13:09:50.869Z</time></trkpt><trkpt lat="42.1899083" lon="14.5518933"><ele>103.0</ele><time>2026-04-16T13:09:51.869Z</time></trkpt><trkpt lat="42.18998" lon="14.5519583"><ele>103.0</ele><time>2026-04-16T13:09:52.869Z</time></trkpt><trkpt lat="42.1900567" lon="14.5520417"><ele>103.0</ele><time>2026-04-16T13:09:53.869Z</time></trkpt><trkpt lat="42.1901367" lon="14.55213"><ele>98.5</ele><time>2026-04-16T13:09:54.869Z</time></trkpt><trkpt lat="42.19023" lon="14.5522033"><ele>94.0</ele><time>2026-04-16T13:09:55.869Z</time></trkpt><trkpt lat="42.1903333" lon="14.5522833"><ele>89.5</ele><time>2026-04-16T13:09:56.868Z</time></trkpt><trkpt lat="42.19044" lon="14.55236"><ele>85.0</ele><time>2026-04-16T13:09:57.868Z</time></trkpt><trkpt lat="42.1905467" lon="14.552455"><ele>85.0</ele><time>2026-04-16T13:09:58.869Z</time></trkpt><trkpt lat="42.1906483" lon="14.5525433"><ele>85.0</ele><time>2026-04-16T13:09:59.869Z</time></trkpt><trkpt lat="42.1907567" lon="14.5526333"><ele>85.0</ele><time>2026-04-16T13:10:00.869Z</time></trkpt><trkpt lat="42.190855" lon="14.5527083"><ele>85.0</ele><time>2026-04-16T13:10:01.868Z</time></trkpt><trkpt lat="42.1909533" lon="14.5527867"><ele>84.2</ele><time>2026-04-16T13:10:02.868Z</time></trkpt><trkpt lat="42.1910533" lon="14.552855"><ele>83.4</ele><time>2026-04-16T13:10:03.868Z</time></trkpt><trkpt lat="42.1911517" lon="14.5529133"><ele>82.6</ele><time>2026-04-16T13:10:04.868Z</time></trkpt><trkpt lat="42.1912567" lon="14.5529733"><ele>81.8</ele><time>2026-04-16T13:10:05.868Z</time></trkpt><trkpt lat="42.1913617" lon="14.553035"><ele>81.0</ele><time>2026-04-16T13:10:06.869Z</time></trkpt><trkpt lat="42.1914667" lon="14.5531133"><ele>77.5</ele><time>2026-04-16T13:10:07.868Z</time></trkpt><trkpt lat="42.1915817" lon="14.5532"><ele>74.0</ele><time>2026-04-16T13:10:08.868Z</time></trkpt><trkpt lat="42.1917067" lon="14.553275"><ele>70.5</ele><time>2026-04-16T13:10:09.869Z</time></trkpt><trkpt lat="42.1918283" lon="14.55334"><ele>67.0</ele><time>2026-04-16T13:10:10.869Z</time></trkpt><trkpt lat="42.1919417" lon="14.5534083"><ele>67.0</ele><time>2026-04-16T13:10:11.869Z</time></trkpt><trkpt lat="42.1920583" lon="14.5534683"><ele>67.0</ele><time>2026-04-16T13:10:12.869Z</time></trkpt><trkpt lat="42.1921683" lon="14.5535317"><ele>67.0</ele><time>2026-04-16T13:10:13.868Z</time></trkpt><trkpt lat="42.19227" lon="14.5535917"><ele>67.0</ele><time>2026-04-16T13:10:14.868Z</time></trkpt><trkpt lat="42.192365" lon="14.5536433"><ele>67.5</ele><time>2026-04-16T13:10:15.869Z</time></trkpt><trkpt lat="42.1924533" lon="14.5536667"><ele>68.0</ele><time>2026-04-16T13:10:16.868Z</time></trkpt><trkpt lat="42.1925433" lon="14.5536833"><ele>68.5</ele><time>2026-04-16T13:10:17.869Z</time></trkpt><trkpt lat="42.1926167" lon="14.5536817"><ele>69.0</ele><time>2026-04-16T13:10:18.869Z</time></trkpt><trkpt lat="42.19269" lon="14.5536817"><ele>69.5</ele><time>2026-04-16T13:10:19.869Z</time></trkpt><trkpt lat="42.19281" lon="14.5536817"><ele>70.0</ele><time>2026-04-16T13:10:21.869Z</time></trkpt><trkpt lat="42.1928733" lon="14.5536883"><ele>70.0</ele><time>2026-04-16T13:10:22.868Z</time></trkpt><trkpt lat="42.1929833" lon="14.553695"><ele>70.0</ele><time>2026-04-16T13:10:24.869Z</time></trkpt><trkpt lat="42.193105" lon="14.55369"><ele>70.0</ele><time>2026-04-16T13:10:26.869Z</time></trkpt><trkpt lat="42.1931717" lon="14.5536933"><ele>70.0</ele><time>2026-04-16T13:10:27.868Z</time></trkpt><trkpt lat="42.1932367" lon="14.5536933"><ele>70.0</ele><time>2026-04-16T13:10:28.868Z</time></trkpt><trkpt lat="42.1933" lon="14.5536933"><ele>70.0</ele><time>2026-04-16T13:10:29.869Z</time></trkpt><trkpt lat="42.1933667" lon="14.5536917"><ele>68.83333333333333</ele><time>2026-04-16T13:10:30.869Z</time></trkpt><trkpt lat="42.1934333" lon="14.5537"><ele>67.66666666666666</ele><time>2026-04-16T13:10:31.868Z</time></trkpt><trkpt lat="42.1935067" lon="14.5537117"><ele>66.5</ele><time>2026-04-16T13:10:32.869Z</time></trkpt><trkpt lat="42.1935833" lon="14.553745"><ele>65.33333333333333</ele><time>2026-04-16T13:10:33.869Z</time></trkpt><trkpt lat="42.1936583" lon="14.5537883"><ele>64.16666666666667</ele><time>2026-04-16T13:10:34.869Z</time></trkpt><trkpt lat="42.1937383" lon="14.553845"><ele>63.0</ele><time>2026-04-16T13:10:35.868Z</time></trkpt><trkpt lat="42.1938167" lon="14.5539033"><ele>61.8</ele><time>2026-04-16T13:10:36.868Z</time></trkpt><trkpt lat="42.1938983" lon="14.55397"><ele>60.599999999999994</ele><time>2026-04-16T13:10:37.869Z</time></trkpt><trkpt lat="42.1939883" lon="14.5540317"><ele>59.400000000000006</ele><time>2026-04-16T13:10:38.868Z</time></trkpt><trkpt lat="42.194075" lon="14.55409"><ele>58.2</ele><time>2026-04-16T13:10:39.868Z</time></trkpt><trkpt lat="42.1941683" lon="14.554145"><ele>57.0</ele><time>2026-04-16T13:10:40.869Z</time></trkpt><trkpt lat="42.1942617" lon="14.5542"><ele>56.400000000000006</ele><time>2026-04-16T13:10:41.868Z</time></trkpt><trkpt lat="42.194355" lon="14.5542583"><ele>55.800000000000004</ele><time>2026-04-16T13:10:42.869Z</time></trkpt><trkpt lat="42.194445" lon="14.5543133"><ele>55.2</ele><time>2026-04-16T13:10:43.869Z</time></trkpt><trkpt lat="42.1945317" lon="14.5543633"><ele>54.6</ele><time>2026-04-16T13:10:44.868Z</time></trkpt><trkpt lat="42.1946133" lon="14.5544067"><ele>54.0</ele><time>2026-04-16T13:10:45.868Z</time></trkpt><trkpt lat="42.1946967" lon="14.5544533"><ele>54.0</ele><time>2026-04-16T13:10:46.868Z</time></trkpt><trkpt lat="42.1947783" lon="14.554495"><ele>54.00000000000001</ele><time>2026-04-16T13:10:47.869Z</time></trkpt><trkpt lat="42.1948567" lon="14.5545317"><ele>54.00000000000001</ele><time>2026-04-16T13:10:48.869Z</time></trkpt><trkpt lat="42.1949233" lon="14.5545567"><ele>54.0</ele><time>2026-04-16T13:10:49.869Z</time></trkpt><trkpt lat="42.1950383" lon="14.5545817"><ele>54.0</ele><time>2026-04-16T13:10:51.869Z</time></trkpt><trkpt lat="42.1951467" lon="14.554605"><ele>52.2</ele><time>2026-04-16T13:10:53.869Z</time></trkpt><trkpt lat="42.19525" lon="14.5546183"><ele>50.400000000000006</ele><time>2026-04-16T13:10:55.868Z</time></trkpt><trkpt lat="42.1953433" lon="14.55464"><ele>48.6</ele><time>2026-04-16T13:10:57.869Z</time></trkpt><trkpt lat="42.1954333" lon="14.55465"><ele>46.8</ele><time>2026-04-16T13:10:59.869Z</time></trkpt><trkpt lat="42.1955167" lon="14.5546583"><ele>45.0</ele><time>2026-04-16T13:11:01.869Z</time></trkpt><trkpt lat="42.1956" lon="14.554665"><ele>46.0</ele><time>2026-04-16T13:11:03.868Z</time></trkpt><trkpt lat="42.19568" lon="14.55467"><ele>47.0</ele><time>2026-04-16T13:11:05.869Z</time></trkpt><trkpt lat="42.1957633" lon="14.5546917"><ele>48.0</ele><time>2026-04-16T13:11:07.869Z</time></trkpt><trkpt lat="42.1958483" lon="14.5547517"><ele>49.0</ele><time>2026-04-16T13:11:09.868Z</time></trkpt><trkpt lat="42.195935" lon="14.5548233"><ele>50.0</ele><time>2026-04-16T13:11:11.869Z</time></trkpt><trkpt lat="42.19601" lon="14.5549067"><ele>50.0</ele><time>2026-04-16T13:11:13.869Z</time></trkpt><trkpt lat="42.1960917" lon="14.5549933"><ele>50.0</ele><time>2026-04-16T13:11:15.869Z</time></trkpt><trkpt lat="42.196165" lon="14.5550883"><ele>50.0</ele><time>2026-04-16T13:11:17.869Z</time></trkpt><trkpt lat="42.196235" lon="14.5552"><ele>50.0</ele><time>2026-04-16T13:11:19.869Z</time></trkpt><trkpt lat="42.1963183" lon="14.555315"><ele>50.0</ele><time>2026-04-16T13:11:21.868Z</time></trkpt><trkpt lat="42.1964033" lon="14.5554233"><ele>49.333333333333336</ele><time>2026-04-16T13:11:23.869Z</time></trkpt><trkpt lat="42.19649" lon="14.5555267"><ele>48.66666666666667</ele><time>2026-04-16T13:11:25.868Z</time></trkpt><trkpt lat="42.1965917" lon="14.5556267"><ele>48.0</ele><time>2026-04-16T13:11:27.869Z</time></trkpt><trkpt lat="42.196645" lon="14.55568"><ele>47.333333333333336</ele><time>2026-04-16T13:11:28.868Z</time></trkpt><trkpt lat="42.1966967" lon="14.5557417"><ele>46.66666666666667</ele><time>2026-04-16T13:11:29.869Z</time></trkpt><trkpt lat="42.1967517" lon="14.5557967"><ele>46.0</ele><time>2026-04-16T13:11:30.869Z</time></trkpt><trkpt lat="42.1968033" lon="14.555855"><ele>46.0</ele><time>2026-04-16T13:11:31.869Z</time></trkpt><trkpt lat="42.19686" lon="14.5559183"><ele>46.0</ele><time>2026-04-16T13:11:32.868Z</time></trkpt><trkpt lat="42.1969117" lon="14.5559967"><ele>46.0</ele><time>2026-04-16T13:11:33.869Z</time></trkpt><trkpt lat="42.196965" lon="14.556065"><ele>46.0</ele><time>2026-04-16T13:11:34.869Z</time></trkpt><trkpt lat="42.1970167" lon="14.556135"><ele>46.0</ele><time>2026-04-16T13:11:35.868Z</time></trkpt><trkpt lat="42.1970683" lon="14.5562067"><ele>46.0</ele><time>2026-04-16T13:11:36.869Z</time></trkpt><trkpt lat="42.1971217" lon="14.5562883"><ele>44.199999999999996</ele><time>2026-04-16T13:11:37.869Z</time></trkpt><trkpt lat="42.1971767" lon="14.5563783"><ele>42.4</ele><time>2026-04-16T13:11:38.868Z</time></trkpt><trkpt lat="42.1972383" lon="14.55647"><ele>40.6</ele><time>2026-04-16T13:11:39.869Z</time></trkpt><trkpt lat="42.1973117" lon="14.5565717"><ele>38.8</ele><time>2026-04-16T13:11:40.868Z</time></trkpt><trkpt lat="42.1973883" lon="14.5566667"><ele>37.0</ele><time>2026-04-16T13:11:41.869Z</time></trkpt><trkpt lat="42.1974617" lon="14.5567483"><ele>36.4</ele><time>2026-04-16T13:11:42.869Z</time></trkpt><trkpt lat="42.19752" lon="14.55681"><ele>35.800000000000004</ele><time>2026-04-16T13:11:43.868Z</time></trkpt><trkpt lat="42.1976117" lon="14.5568917"><ele>35.2</ele><time>2026-04-16T13:11:45.869Z</time></trkpt><trkpt lat="42.1977" lon="14.55693"><ele>34.6</ele><time>2026-04-16T13:11:47.869Z</time></trkpt><trkpt lat="42.1977933" lon="14.556955"><ele>34.0</ele><time>2026-04-16T13:11:49.869Z</time></trkpt><trkpt lat="42.1979033" lon="14.5569367"><ele>34.0</ele><time>2026-04-16T13:11:51.868Z</time></trkpt><trkpt lat="42.1979983" lon="14.5568883"><ele>34.0</ele><time>2026-04-16T13:11:53.869Z</time></trkpt><trkpt lat="42.1980867" lon="14.5568167"><ele>34.0</ele><time>2026-04-16T13:11:55.869Z</time></trkpt><trkpt lat="42.1981667" lon="14.5567417"><ele>34.0</ele><time>2026-04-16T13:11:57.868Z</time></trkpt><trkpt lat="42.1982483" lon="14.5566533"><ele>34.0</ele><time>2026-04-16T13:11:59.869Z</time></trkpt><trkpt lat="42.198345" lon="14.5565667"><ele>33.4</ele><time>2026-04-16T13:12:01.869Z</time></trkpt><trkpt lat="42.198445" lon="14.5564717"><ele>32.8</ele><time>2026-04-16T13:12:03.868Z</time></trkpt><trkpt lat="42.198495" lon="14.55642"><ele>32.2</ele><time>2026-04-16T13:12:04.868Z</time></trkpt><trkpt lat="42.1986017" lon="14.5563317"><ele>31.6</ele><time>2026-04-16T13:12:06.869Z</time></trkpt><trkpt lat="42.1986983" lon="14.5562733"><ele>31.0</ele><time>2026-04-16T13:12:08.868Z</time></trkpt><trkpt lat="42.1987783" lon="14.5562083"><ele>31.42857142857143</ele><time>2026-04-16T13:12:10.868Z</time></trkpt><trkpt lat="42.1988383" lon="14.55613"><ele>31.85714285714286</ele><time>2026-04-16T13:12:12.869Z</time></trkpt><trkpt lat="42.1988783" lon="14.5560517"><ele>32.285714285714285</ele><time>2026-04-16T13:12:15.868Z</time></trkpt><trkpt lat="42.198945" lon="14.5560533"><ele>32.714285714285715</ele><time>2026-04-16T13:12:20.869Z</time></trkpt><trkpt lat="42.1989983" lon="14.55612"><ele>33.14285714285714</ele><time>2026-04-16T13:12:25.869Z</time></trkpt><trkpt lat="42.19905" lon="14.5561967"><ele>33.57142857142857</ele><time>2026-04-16T13:12:29.868Z</time></trkpt><trkpt lat="42.1990867" lon="14.5562683"><ele>34.0</ele><time>2026-04-16T13:12:33.869Z</time></trkpt><trkpt lat="42.1991317" lon="14.5563367"><ele>34.333333333333336</ele><time>2026-04-16T13:12:37.869Z</time></trkpt><trkpt lat="42.1991867" lon="14.5564"><ele>34.66666666666667</ele><time>2026-04-16T13:12:40.868Z</time></trkpt><trkpt lat="42.19922" lon="14.5564783"><ele>35.0</ele><time>2026-04-16T13:12:42.868Z</time></trkpt><trkpt lat="42.1992617" lon="14.5565817"><ele>35.333333333333336</ele><time>2026-04-16T13:12:45.869Z</time></trkpt><trkpt lat="42.1993017" lon="14.55669"><ele>35.666666666666664</ele><time>2026-04-16T13:12:48.868Z</time></trkpt><trkpt lat="42.199335" lon="14.556775"><ele>36.0</ele><time>2026-04-16T13:12:50.869Z</time></trkpt><trkpt lat="42.19937" lon="14.55685"><ele>36.0</ele><time>2026-04-16T13:12:52.869Z</time></trkpt><trkpt lat="42.1994117" lon="14.5569517"><ele>36.0</ele><time>2026-04-16T13:12:55.869Z</time></trkpt><trkpt lat="42.1994633" lon="14.55705"><ele>36.0</ele><time>2026-04-16T13:12:58.869Z</time></trkpt><trkpt lat="42.199505" lon="14.557155"><ele>36.0</ele><time>2026-04-16T13:13:01.869Z</time></trkpt><trkpt lat="42.19954" lon="14.557235"><ele>36.0</ele><time>2026-04-16T13:13:03.869Z</time></trkpt><trkpt lat="42.1995783" lon="14.55733"><ele>36.0</ele><time>2026-04-16T13:13:06.869Z</time></trkpt><trkpt lat="42.199615" lon="14.5574233"><ele>36.0</ele><time>2026-04-16T13:13:09.868Z</time></trkpt><trkpt lat="42.19965" lon="14.557515"><ele>36.0</ele><time>2026-04-16T13:13:12.869Z</time></trkpt><trkpt lat="42.19969" lon="14.5576"><ele>36.0</ele><time>2026-04-16T13:13:15.869Z</time></trkpt><trkpt lat="42.1997317" lon="14.5577"><ele>36.0</ele><time>2026-04-16T13:13:18.869Z</time></trkpt><trkpt lat="42.199765" lon="14.5577967"><ele>36.0</ele><time>2026-04-16T13:13:21.868Z</time></trkpt><trkpt lat="42.1998117" lon="14.5578967"><ele>36.0</ele><time>2026-04-16T13:13:24.868Z</time></trkpt><trkpt lat="42.19985" lon="14.5579967"><ele>36.0</ele><time>2026-04-16T13:13:27.868Z</time></trkpt><trkpt lat="42.19988" lon="14.5580833"><ele>36.0</ele><time>2026-04-16T13:13:30.868Z</time></trkpt><trkpt lat="42.19992" lon="14.5581783"><ele>36.0</ele><time>2026-04-16T13:13:33.869Z</time></trkpt><trkpt lat="42.19996" lon="14.5582667"><ele>36.0</ele><time>2026-04-16T13:13:35.869Z</time></trkpt><trkpt lat="42.200005" lon="14.5583833"><ele>36.0</ele><time>2026-04-16T13:13:37.868Z</time></trkpt><trkpt lat="42.2000633" lon="14.5584867"><ele>36.0</ele><time>2026-04-16T13:13:39.869Z</time></trkpt><trkpt lat="42.200125" lon="14.5585917"><ele>35.166666666666664</ele><time>2026-04-16T13:13:41.868Z</time></trkpt><trkpt lat="42.2001933" lon="14.5587067"><ele>34.333333333333336</ele><time>2026-04-16T13:13:43.869Z</time></trkpt><trkpt lat="42.2002517" lon="14.5588183"><ele>33.5</ele><time>2026-04-16T13:13:45.869Z</time></trkpt><trkpt lat="42.20031" lon="14.55891"><ele>32.66666666666667</ele><time>2026-04-16T13:13:47.868Z</time></trkpt><trkpt lat="42.2003633" lon="14.55896"><ele>31.833333333333336</ele><time>2026-04-16T13:13:51.869Z</time></trkpt><trkpt lat="42.20042" lon="14.5590067"><ele>31.0</ele><time>2026-04-16T13:13:56.869Z</time></trkpt><trkpt lat="42.2004983" lon="14.5590317"><ele>31.000000000000004</ele><time>2026-04-16T13:14:02.869Z</time></trkpt><trkpt lat="42.2005633" lon="14.559065"><ele>31.0</ele><time>2026-04-16T13:14:05.868Z</time></trkpt><trkpt lat="42.20064" lon="14.559105"><ele>31.0</ele><time>2026-04-16T13:14:08.869Z</time></trkpt><trkpt lat="42.20072" lon="14.5591367"><ele>31.0</ele><time>2026-04-16T13:14:11.869Z</time></trkpt><trkpt lat="42.20079" lon="14.5591583"><ele>31.000000000000004</ele><time>2026-04-16T13:14:14.869Z</time></trkpt><trkpt lat="42.2008633" lon="14.5591933"><ele>31.0</ele><time>2026-04-16T13:14:18.869Z</time></trkpt><trkpt lat="42.2009267" lon="14.5592633"><ele>30.857142857142858</ele><time>2026-04-16T13:14:22.869Z</time></trkpt><trkpt lat="42.2009567" lon="14.5593583"><ele>30.714285714285715</ele><time>2026-04-16T13:14:25.868Z</time></trkpt><trkpt lat="42.2009733" lon="14.5594433"><ele>30.571428571428573</ele><time>2026-04-16T13:14:27.868Z</time></trkpt><trkpt lat="42.200995" lon="14.5595517"><ele>30.42857142857143</ele><time>2026-04-16T13:14:29.868Z</time></trkpt><trkpt lat="42.2010233" lon="14.5596433"><ele>30.285714285714285</ele><time>2026-04-16T13:14:31.868Z</time></trkpt><trkpt lat="42.2010667" lon="14.5597233"><ele>30.142857142857146</ele><time>2026-04-16T13:14:33.868Z</time></trkpt><trkpt lat="42.2011183" lon="14.5597883"><ele>30.0</ele><time>2026-04-16T13:14:36.869Z</time></trkpt><trkpt lat="42.20123" lon="14.5598433"><ele>30.0</ele><time>2026-04-16T13:14:41.869Z</time></trkpt><trkpt lat="42.201275" lon="14.559915"><ele>30.0</ele><time>2026-04-16T13:14:42.869Z</time></trkpt><trkpt lat="42.201345" lon="14.55999"><ele>30.0</ele><time>2026-04-16T13:14:44.869Z</time></trkpt><trkpt lat="42.2014183" lon="14.5600833"><ele>30.0</ele><time>2026-04-16T13:14:51.868Z</time></trkpt><trkpt lat="42.2014983" lon="14.56007"><ele>30.0</ele><time>2026-04-16T13:14:55.869Z</time></trkpt><trkpt lat="42.2015633" lon="14.5600167"><ele>30.0</ele><time>2026-04-16T13:14:58.869Z</time></trkpt><trkpt lat="42.2016033" lon="14.5599333"><ele>29.666666666666668</ele><time>2026-04-16T13:15:01.868Z</time></trkpt><trkpt lat="42.2016433" lon="14.5598333"><ele>29.333333333333336</ele><time>2026-04-16T13:15:04.869Z</time></trkpt><trkpt lat="42.2016833" lon="14.5597167"><ele>29.0</ele><time>2026-04-16T13:15:07.869Z</time></trkpt><trkpt lat="42.201715" lon="14.5596383"><ele>28.666666666666668</ele><time>2026-04-16T13:15:09.868Z</time></trkpt><trkpt lat="42.2017467" lon="14.5595533"><ele>28.333333333333336</ele><time>2026-04-16T13:15:11.868Z</time></trkpt><trkpt lat="42.2017783" lon="14.5594733"><ele>28.0</ele><time>2026-04-16T13:15:13.869Z</time></trkpt><trkpt lat="42.2018083" lon="14.5593817"><ele>28.57142857142857</ele><time>2026-04-16T13:15:15.868Z</time></trkpt><trkpt lat="42.2018417" lon="14.559285"><ele>29.142857142857142</ele><time>2026-04-16T13:15:17.869Z</time></trkpt><trkpt lat="42.2018717" lon="14.55919"><ele>29.714285714285715</ele><time>2026-04-16T13:15:19.869Z</time></trkpt><trkpt lat="42.2018983" lon="14.5590967"><ele>30.285714285714285</ele><time>2026-04-16T13:15:21.868Z</time></trkpt><trkpt lat="42.2019333" lon="14.5590133"><ele>30.857142857142854</ele><time>2026-04-16T13:15:23.869Z</time></trkpt><trkpt lat="42.201965" lon="14.558925"><ele>31.428571428571427</ele><time>2026-04-16T13:15:25.868Z</time></trkpt><trkpt lat="42.2019967" lon="14.55885"><ele>32.0</ele><time>2026-04-16T13:15:27.868Z</time></trkpt><trkpt lat="42.2020367" lon="14.5587433"><ele>32.857142857142854</ele><time>2026-04-16T13:15:30.869Z</time></trkpt><trkpt lat="42.2020717" lon="14.5586683"><ele>33.71428571428571</ele><time>2026-04-16T13:15:32.869Z</time></trkpt><trkpt lat="42.2021083" lon="14.5585933"><ele>34.57142857142857</ele><time>2026-04-16T13:15:34.868Z</time></trkpt><trkpt lat="42.2021417" lon="14.5585117"><ele>35.42857142857143</ele><time>2026-04-16T13:15:36.869Z</time></trkpt><trkpt lat="42.2021733" lon="14.5584283"><ele>36.28571428571429</ele><time>2026-04-16T13:15:38.869Z</time></trkpt><trkpt lat="42.202205" lon="14.5583483"><ele>37.14285714285714</ele><time>2026-04-16T13:15:40.869Z</time></trkpt><trkpt lat="42.2022367" lon="14.5582717"><ele>38.0</ele><time>2026-04-16T13:15:42.868Z</time></trkpt><trkpt lat="42.2022817" lon="14.5581583"><ele>38.0</ele><time>2026-04-16T13:15:45.869Z</time></trkpt><trkpt lat="42.20232" lon="14.5580733"><ele>38.0</ele><time>2026-04-16T13:15:47.869Z</time></trkpt><trkpt lat="42.202355" lon="14.5579983"><ele>38.0</ele><time>2026-04-16T13:15:49.869Z</time></trkpt><trkpt lat="42.2023933" lon="14.557915"><ele>38.0</ele><time>2026-04-16T13:15:51.869Z</time></trkpt><trkpt lat="42.2024283" lon="14.5578383"><ele>38.0</ele><time>2026-04-16T13:15:53.869Z</time></trkpt><trkpt lat="42.2024633" lon="14.5577533"><ele>38.0</ele><time>2026-04-16T13:15:55.868Z</time></trkpt><trkpt lat="42.2025" lon="14.5576683"><ele>38.0</ele><time>2026-04-16T13:15:57.869Z</time></trkpt><trkpt lat="42.202535" lon="14.5575783"><ele>37.166666666666664</ele><time>2026-04-16T13:15:59.869Z</time></trkpt><trkpt lat="42.20257" lon="14.5574967"><ele>36.33333333333333</ele><time>2026-04-16T13:16:01.868Z</time></trkpt><trkpt lat="42.202605" lon="14.5573983"><ele>35.5</ele><time>2026-04-16T13:16:03.868Z</time></trkpt><trkpt lat="42.2026383" lon="14.557305"><ele>34.666666666666664</ele><time>2026-04-16T13:16:05.869Z</time></trkpt><trkpt lat="42.202675" lon="14.5572133"><ele>33.833333333333336</ele><time>2026-04-16T13:16:07.869Z</time></trkpt><trkpt lat="42.2027083" lon="14.5571233"><ele>33.0</ele><time>2026-04-16T13:16:09.869Z</time></trkpt><trkpt lat="42.2027433" lon="14.55703"><ele>33.0</ele><time>2026-04-16T13:16:11.868Z</time></trkpt><trkpt lat="42.2027783" lon="14.556935"><ele>33.0</ele><time>2026-04-16T13:16:13.869Z</time></trkpt><trkpt lat="42.2028183" lon="14.556845"><ele>33.0</ele><time>2026-04-16T13:16:15.868Z</time></trkpt><trkpt lat="42.2028517" lon="14.5567583"><ele>33.0</ele><time>2026-04-16T13:16:17.868Z</time></trkpt><trkpt lat="42.2028917" lon="14.5566733"><ele>33.0</ele><time>2026-04-16T13:16:19.869Z</time></trkpt><trkpt lat="42.202925" lon="14.5565883"><ele>33.0</ele><time>2026-04-16T13:16:21.868Z</time></trkpt><trkpt lat="42.202955" lon="14.5565033"><ele>33.0</ele><time>2026-04-16T13:16:23.869Z</time></trkpt><trkpt lat="42.202995" lon="14.5564167"><ele>33.0</ele><time>2026-04-16T13:16:25.869Z</time></trkpt><trkpt lat="42.2030333" lon="14.5563267"><ele>33.0</ele><time>2026-04-16T13:16:27.869Z</time></trkpt><trkpt lat="42.20308" lon="14.5562417"><ele>33.0</ele><time>2026-04-16T13:16:29.869Z</time></trkpt><trkpt lat="42.2031283" lon="14.5561633"><ele>33.0</ele><time>2026-04-16T13:16:31.869Z</time></trkpt><trkpt lat="42.2031667" lon="14.5560817"><ele>33.0</ele><time>2026-04-16T13:16:33.869Z</time></trkpt><trkpt lat="42.2031983" lon="14.555995"><ele>33.0</ele><time>2026-04-16T13:16:35.869Z</time></trkpt><trkpt lat="42.2032283" lon="14.5558967"><ele>32.666666666666664</ele><time>2026-04-16T13:16:37.868Z</time></trkpt><trkpt lat="42.203265" lon="14.5557983"><ele>32.333333333333336</ele><time>2026-04-16T13:16:39.869Z</time></trkpt><trkpt lat="42.203305" lon="14.55571"><ele>32.0</ele><time>2026-04-16T13:16:41.869Z</time></trkpt><trkpt lat="42.2033483" lon="14.5556183"><ele>31.666666666666668</ele><time>2026-04-16T13:16:43.868Z</time></trkpt><trkpt lat="42.2033833" lon="14.5555233"><ele>31.333333333333336</ele><time>2026-04-16T13:16:45.869Z</time></trkpt><trkpt lat="42.2034117" lon="14.5554267"><ele>31.0</ele><time>2026-04-16T13:16:47.869Z</time></trkpt><trkpt lat="42.2034483" lon="14.555335"><ele>31.833333333333336</ele><time>2026-04-16T13:16:49.868Z</time></trkpt><trkpt lat="42.203485" lon="14.5552417"><ele>32.66666666666667</ele><time>2026-04-16T13:16:51.869Z</time></trkpt><trkpt lat="42.2035133" lon="14.5551517"><ele>33.5</ele><time>2026-04-16T13:16:53.868Z</time></trkpt><trkpt lat="42.203555" lon="14.555065"><ele>34.333333333333336</ele><time>2026-04-16T13:16:55.868Z</time></trkpt><trkpt lat="42.2036017" lon="14.5549967"><ele>35.166666666666664</ele><time>2026-04-16T13:16:57.868Z</time></trkpt><trkpt lat="42.20366" lon="14.554935"><ele>36.0</ele><time>2026-04-16T13:16:59.869Z</time></trkpt><trkpt lat="42.2037233" lon="14.55487"><ele>36.00000000000001</ele><time>2026-04-16T13:17:01.868Z</time></trkpt><trkpt lat="42.2037733" lon="14.5548067"><ele>36.0</ele><time>2026-04-16T13:17:03.868Z</time></trkpt><trkpt lat="42.2038167" lon="14.5547417"><ele>36.0</ele><time>2026-04-16T13:17:05.869Z</time></trkpt><trkpt lat="42.2038567" lon="14.5546667"><ele>36.0</ele><time>2026-04-16T13:17:07.868Z</time></trkpt><trkpt lat="42.2039017" lon="14.5545717"><ele>36.0</ele><time>2026-04-16T13:17:10.869Z</time></trkpt><trkpt lat="42.2039483" lon="14.5544617"><ele>36.00000000000001</ele><time>2026-04-16T13:17:13.869Z</time></trkpt><trkpt lat="42.2039817" lon="14.5543867"><ele>36.0</ele><time>2026-04-16T13:17:15.868Z</time></trkpt><trkpt lat="42.2040517" lon="14.554315"><ele>35.42857142857143</ele><time>2026-04-16T13:17:18.868Z</time></trkpt><trkpt lat="42.2041317" lon="14.5543183"><ele>34.85714285714286</ele><time>2026-04-16T13:17:21.868Z</time></trkpt><trkpt lat="42.20418" lon="14.5543733"><ele>34.285714285714285</ele><time>2026-04-16T13:17:23.869Z</time></trkpt><trkpt lat="42.2042383" lon="14.5544317"><ele>33.714285714285715</ele><time>2026-04-16T13:17:25.869Z</time></trkpt><trkpt lat="42.2043067" lon="14.5544967"><ele>33.14285714285714</ele><time>2026-04-16T13:17:27.869Z</time></trkpt><trkpt lat="42.20437" lon="14.5545533"><ele>32.57142857142857</ele><time>2026-04-16T13:17:29.868Z</time></trkpt><trkpt lat="42.20443" lon="14.5546083"><ele>32.0</ele><time>2026-04-16T13:17:31.869Z</time></trkpt><trkpt lat="42.2045" lon="14.55468"><ele>31.499999999999996</ele><time>2026-04-16T13:17:33.868Z</time></trkpt><trkpt lat="42.2045783" lon="14.5547483"><ele>31.0</ele><time>2026-04-16T13:17:35.869Z</time></trkpt><trkpt lat="42.20465" lon="14.5548183"><ele>30.5</ele><time>2026-04-16T13:17:37.868Z</time></trkpt><trkpt lat="42.2047067" lon="14.5548917"><ele>30.0</ele><time>2026-04-16T13:17:39.869Z</time></trkpt><trkpt lat="42.2047467" lon="14.5549767"><ele>29.499999999999996</ele><time>2026-04-16T13:17:41.869Z</time></trkpt><trkpt lat="42.20478" lon="14.5550717"><ele>29.0</ele><time>2026-04-16T13:17:43.868Z</time></trkpt><trkpt lat="42.2048033" lon="14.5551717"><ele>29.000000000000004</ele><time>2026-04-16T13:17:45.869Z</time></trkpt><trkpt lat="42.2048267" lon="14.5552667"><ele>29.0</ele><time>2026-04-16T13:17:47.868Z</time></trkpt><trkpt lat="42.2048433" lon="14.55536"><ele>29.000000000000004</ele><time>2026-04-16T13:17:49.868Z</time></trkpt><trkpt lat="42.2048483" lon="14.5554567"><ele>29.000000000000004</ele><time>2026-04-16T13:17:51.869Z</time></trkpt><trkpt lat="42.20485" lon="14.5555483"><ele>29.0</ele><time>2026-04-16T13:17:53.868Z</time></trkpt><trkpt lat="42.2048183" lon="14.5556583"><ele>29.000000000000004</ele><time>2026-04-16T13:17:56.868Z</time></trkpt><trkpt lat="42.204815" lon="14.5557483"><ele>29.000000000000004</ele><time>2026-04-16T13:17:58.869Z</time></trkpt><trkpt lat="42.2048117" lon="14.55584"><ele>28.999999999999996</ele><time>2026-04-16T13:18:00.869Z</time></trkpt><trkpt lat="42.2048067" lon="14.5559617"><ele>29.0</ele><time>2026-04-16T13:18:03.869Z</time></trkpt><trkpt lat="42.2048217" lon="14.556055"><ele>29.0</ele><time>2026-04-16T13:18:07.868Z</time></trkpt><trkpt lat="42.2048817" lon="14.5561133"><ele>29.0</ele><time>2026-04-16T13:18:11.868Z</time></trkpt><trkpt lat="42.20494" lon="14.556165"><ele>28.999999999999996</ele><time>2026-04-16T13:18:14.869Z</time></trkpt><trkpt lat="42.2050067" lon="14.5562083"><ele>29.0</ele><time>2026-04-16T13:18:17.869Z</time></trkpt><trkpt lat="42.2050833" lon="14.5562483"><ele>29.000000000000004</ele><time>2026-04-16T13:18:21.869Z</time></trkpt><trkpt lat="42.2051467" lon="14.5562317"><ele>29.0</ele><time>2026-04-16T13:18:25.868Z</time></trkpt><trkpt lat="42.205195" lon="14.55617"><ele>29.000000000000004</ele><time>2026-04-16T13:18:29.869Z</time></trkpt><trkpt lat="42.2052367" lon="14.5561"><ele>29.000000000000004</ele><time>2026-04-16T13:18:32.869Z</time></trkpt><trkpt lat="42.205275" lon="14.5560283"><ele>29.0</ele><time>2026-04-16T13:18:35.868Z</time></trkpt><trkpt lat="42.2053117" lon="14.5559583"><ele>29.000000000000004</ele><time>2026-04-16T13:18:38.868Z</time></trkpt><trkpt lat="42.2053483" lon="14.5558667"><ele>29.000000000000004</ele><time>2026-04-16T13:18:42.868Z</time></trkpt><trkpt lat="42.2053733" lon="14.5557717"><ele>28.999999999999996</ele><time>2026-04-16T13:18:45.869Z</time></trkpt><trkpt lat="42.205405" lon="14.5556733"><ele>29.0</ele><time>2026-04-16T13:18:48.868Z</time></trkpt><trkpt lat="42.2054433" lon="14.5555717"><ele>29.0</ele><time>2026-04-16T13:18:51.869Z</time></trkpt><trkpt lat="42.2054817" lon="14.555495"><ele>29.0</ele><time>2026-04-16T13:18:54.868Z</time></trkpt><trkpt lat="42.2055133" lon="14.5554117"><ele>28.999999999999996</ele><time>2026-04-16T13:18:57.869Z</time></trkpt><trkpt lat="42.2055467" lon="14.5553067"><ele>29.0</ele><time>2026-04-16T13:19:00.868Z</time></trkpt><trkpt lat="42.2055867" lon="14.5552167"><ele>28.999999999999996</ele><time>2026-04-16T13:19:03.868Z</time></trkpt><trkpt lat="42.2056367" lon="14.5551183"><ele>29.0</ele><time>2026-04-16T13:19:06.869Z</time></trkpt><trkpt lat="42.2056883" lon="14.555015"><ele>29.0</ele><time>2026-04-16T13:19:09.869Z</time></trkpt><trkpt lat="42.2057517" lon="14.5549317"><ele>29.0</ele><time>2026-04-16T13:19:12.869Z</time></trkpt><trkpt lat="42.2058067" lon="14.5548417"><ele>28.999999999999996</ele><time>2026-04-16T13:19:15.869Z</time></trkpt><trkpt lat="42.2058417" lon="14.5547667"><ele>29.0</ele><time>2026-04-16T13:19:17.869Z</time></trkpt><trkpt lat="42.2058967" lon="14.5546683"><ele>29.000000000000004</ele><time>2026-04-16T13:19:20.868Z</time></trkpt><trkpt lat="42.2059417" lon="14.5546"><ele>29.0</ele><time>2026-04-16T13:19:22.869Z</time></trkpt><trkpt lat="42.2059883" lon="14.554535"><ele>29.000000000000004</ele><time>2026-04-16T13:19:24.869Z</time></trkpt><trkpt lat="42.2060367" lon="14.554475"><ele>29.000000000000004</ele><time>2026-04-16T13:19:26.869Z</time></trkpt><trkpt lat="42.206085" lon="14.5544117"><ele>29.0</ele><time>2026-04-16T13:19:28.868Z</time></trkpt><trkpt lat="42.2061383" lon="14.5543467"><ele>29.000000000000004</ele><time>2026-04-16T13:19:30.869Z</time></trkpt><trkpt lat="42.2061817" lon="14.554275"><ele>29.000000000000004</ele><time>2026-04-16T13:19:32.868Z</time></trkpt><trkpt lat="42.2062317" lon="14.5542"><ele>29.142857142857146</ele><time>2026-04-16T13:19:34.868Z</time></trkpt><trkpt lat="42.206285" lon="14.5541233"><ele>29.285714285714285</ele><time>2026-04-16T13:19:36.868Z</time></trkpt><trkpt lat="42.20634" lon="14.5540533"><ele>29.42857142857143</ele><time>2026-04-16T13:19:38.869Z</time></trkpt><trkpt lat="42.2063967" lon="14.5539883"><ele>29.571428571428573</ele><time>2026-04-16T13:19:40.868Z</time></trkpt><trkpt lat="42.206455" lon="14.5539317"><ele>29.714285714285715</ele><time>2026-04-16T13:19:42.868Z</time></trkpt><trkpt lat="42.2065083" lon="14.5538733"><ele>29.857142857142858</ele><time>2026-04-16T13:19:44.869Z</time></trkpt><trkpt lat="42.2065617" lon="14.5538067"><ele>30.0</ele><time>2026-04-16T13:19:46.868Z</time></trkpt><trkpt lat="42.206615" lon="14.5537367"><ele>30.142857142857146</ele><time>2026-04-16T13:19:48.869Z</time></trkpt><trkpt lat="42.206665" lon="14.5536533"><ele>30.285714285714285</ele><time>2026-04-16T13:19:50.869Z</time></trkpt><trkpt lat="42.2067167" lon="14.5535733"><ele>30.42857142857143</ele><time>2026-04-16T13:19:52.869Z</time></trkpt><trkpt lat="42.2067683" lon="14.5535083"><ele>30.571428571428573</ele><time>2026-04-16T13:19:54.868Z</time></trkpt><trkpt lat="42.2068217" lon="14.55344"><ele>30.714285714285715</ele><time>2026-04-16T13:19:56.869Z</time></trkpt><trkpt lat="42.2068717" lon="14.55337"><ele>30.857142857142858</ele><time>2026-04-16T13:19:58.869Z</time></trkpt><trkpt lat="42.20692" lon="14.553295"><ele>31.0</ele><time>2026-04-16T13:20:00.869Z</time></trkpt><trkpt lat="42.20697" lon="14.5532267"><ele>31.000000000000004</ele><time>2026-04-16T13:20:02.869Z</time></trkpt><trkpt lat="42.2070317" lon="14.55317"><ele>31.0</ele><time>2026-04-16T13:20:04.869Z</time></trkpt><trkpt lat="42.20709" lon="14.5531033"><ele>31.0</ele><time>2026-04-16T13:20:06.869Z</time></trkpt><trkpt lat="42.20714" lon="14.553035"><ele>31.0</ele><time>2026-04-16T13:20:08.869Z</time></trkpt><trkpt lat="42.2071883" lon="14.5529617"><ele>31.000000000000004</ele><time>2026-04-16T13:20:10.868Z</time></trkpt><trkpt lat="42.2072383" lon="14.5528917"><ele>31.0</ele><time>2026-04-16T13:20:12.868Z</time></trkpt><trkpt lat="42.2073117" lon="14.5528217"><ele>31.000000000000004</ele><time>2026-04-16T13:20:15.868Z</time></trkpt><trkpt lat="42.2073717" lon="14.5527717"><ele>31.0</ele><time>2026-04-16T13:20:20.868Z</time></trkpt><trkpt lat="42.2074283" lon="14.552715"><ele>31.0</ele><time>2026-04-16T13:20:24.869Z</time></trkpt><trkpt lat="42.20749" lon="14.55266"><ele>31.0</ele><time>2026-04-16T13:20:27.869Z</time></trkpt><trkpt lat="42.2075533" lon="14.5525833"><ele>31.000000000000004</ele><time>2026-04-16T13:20:30.869Z</time></trkpt><trkpt lat="42.2075983" lon="14.552515"><ele>31.0</ele><time>2026-04-16T13:20:32.868Z</time></trkpt><trkpt lat="42.20765" lon="14.5524133"><ele>31.000000000000004</ele><time>2026-04-16T13:20:35.869Z</time></trkpt><trkpt lat="42.207705" lon="14.5523333"><ele>31.0</ele><time>2026-04-16T13:20:38.868Z</time></trkpt><trkpt lat="42.20778" lon="14.5522433"><ele>31.0</ele><time>2026-04-16T13:20:41.869Z</time></trkpt><trkpt lat="42.2078317" lon="14.5521717"><ele>31.0</ele><time>2026-04-16T13:20:43.869Z</time></trkpt><trkpt lat="42.2078833" lon="14.5521067"><ele>31.000000000000004</ele><time>2026-04-16T13:20:45.869Z</time></trkpt><trkpt lat="42.2079383" lon="14.55204"><ele>31.0</ele><time>2026-04-16T13:20:47.868Z</time></trkpt><trkpt lat="42.207985" lon="14.5519783"><ele>31.000000000000004</ele><time>2026-04-16T13:20:49.868Z</time></trkpt><trkpt lat="42.20803" lon="14.5519167"><ele>31.0</ele><time>2026-04-16T13:20:51.868Z</time></trkpt><trkpt lat="42.2080717" lon="14.55184"><ele>31.0</ele><time>2026-04-16T13:20:53.868Z</time></trkpt><trkpt lat="42.2081217" lon="14.5517617"><ele>31.0</ele><time>2026-04-16T13:20:55.868Z</time></trkpt><trkpt lat="42.2081683" lon="14.5516833"><ele>31.000000000000004</ele><time>2026-04-16T13:20:57.868Z</time></trkpt><trkpt lat="42.2082217" lon="14.55159"><ele>31.0</ele><time>2026-04-16T13:20:59.869Z</time></trkpt><trkpt lat="42.2082717" lon="14.5515"><ele>31.000000000000004</ele><time>2026-04-16T13:21:01.869Z</time></trkpt><trkpt lat="42.2083283" lon="14.5514117"><ele>31.0</ele><time>2026-04-16T13:21:03.868Z</time></trkpt><trkpt lat="42.2083833" lon="14.5513283"><ele>31.0</ele><time>2026-04-16T13:21:05.869Z</time></trkpt><trkpt lat="42.208435" lon="14.5512483"><ele>31.0</ele><time>2026-04-16T13:21:07.868Z</time></trkpt><trkpt lat="42.208485" lon="14.5511683"><ele>31.000000000000004</ele><time>2026-04-16T13:21:09.869Z</time></trkpt><trkpt lat="42.20854" lon="14.5510917"><ele>31.0</ele><time>2026-04-16T13:21:11.868Z</time></trkpt><trkpt lat="42.20859" lon="14.5510217"><ele>31.0</ele><time>2026-04-16T13:21:13.869Z</time></trkpt><trkpt lat="42.208645" lon="14.5509483"><ele>31.000000000000004</ele><time>2026-04-16T13:21:15.868Z</time></trkpt><trkpt lat="42.2087" lon="14.55088"><ele>31.0</ele><time>2026-04-16T13:21:17.869Z</time></trkpt><trkpt lat="42.20875" lon="14.5508083"><ele>31.0</ele><time>2026-04-16T13:21:19.869Z</time></trkpt><trkpt lat="42.208795" lon="14.5507283"><ele>31.000000000000004</ele><time>2026-04-16T13:21:21.868Z</time></trkpt><trkpt lat="42.2088483" lon="14.5506633"><ele>31.0</ele><time>2026-04-16T13:21:23.869Z</time></trkpt><trkpt lat="42.2089" lon="14.55059"><ele>31.0</ele><time>2026-04-16T13:21:25.868Z</time></trkpt><trkpt lat="42.20895" lon="14.55052"><ele>31.42857142857143</ele><time>2026-04-16T13:21:27.869Z</time></trkpt><trkpt lat="42.2089983" lon="14.5504417"><ele>31.85714285714286</ele><time>2026-04-16T13:21:29.869Z</time></trkpt><trkpt lat="42.2090433" lon="14.5503683"><ele>32.285714285714285</ele><time>2026-04-16T13:21:31.869Z</time></trkpt><trkpt lat="42.2090883" lon="14.5503"><ele>32.714285714285715</ele><time>2026-04-16T13:21:33.869Z</time></trkpt><trkpt lat="42.20913" lon="14.55023"><ele>33.14285714285714</ele><time>2026-04-16T13:21:35.868Z</time></trkpt><trkpt lat="42.2091767" lon="14.550165"><ele>33.57142857142857</ele><time>2026-04-16T13:21:37.868Z</time></trkpt><trkpt lat="42.2092233" lon="14.5501067"><ele>34.0</ele><time>2026-04-16T13:21:39.869Z</time></trkpt><trkpt lat="42.2092817" lon="14.5500317"><ele>33.99999999999999</ele><time>2026-04-16T13:21:42.869Z</time></trkpt><trkpt lat="42.2093367" lon="14.5499433"><ele>34.0</ele><time>2026-04-16T13:21:45.869Z</time></trkpt><trkpt lat="42.209395" lon="14.549895"><ele>34.0</ele><time>2026-04-16T13:21:47.869Z</time></trkpt><trkpt lat="42.2094583" lon="14.5498933"><ele>34.0</ele><time>2026-04-16T13:21:49.869Z</time></trkpt><trkpt lat="42.2095433" lon="14.5499067"><ele>34.0</ele><time>2026-04-16T13:21:52.868Z</time></trkpt><trkpt lat="42.2096183" lon="14.5499067"><ele>33.99999999999999</ele><time>2026-04-16T13:21:54.869Z</time></trkpt><trkpt lat="42.2096817" lon="14.5499233"><ele>34.0</ele><time>2026-04-16T13:21:56.869Z</time></trkpt><trkpt lat="42.209745" lon="14.5499283"><ele>34.0</ele><time>2026-04-16T13:21:58.868Z</time></trkpt><trkpt lat="42.2098117" lon="14.549935"><ele>34.0</ele><time>2026-04-16T13:22:00.869Z</time></trkpt><trkpt lat="42.2098933" lon="14.5499433"><ele>34.0</ele><time>2026-04-16T13:22:03.869Z</time></trkpt><trkpt lat="42.209965" lon="14.5499517"><ele>34.0</ele><time>2026-04-16T13:22:06.868Z</time></trkpt><trkpt lat="42.2100483" lon="14.5499417"><ele>34.0</ele><time>2026-04-16T13:22:11.868Z</time></trkpt><trkpt lat="42.2101283" lon="14.54998"><ele>34.0</ele><time>2026-04-16T13:22:14.869Z</time></trkpt><trkpt lat="42.2102017" lon="14.55002"><ele>35.16666666666667</ele><time>2026-04-16T13:22:17.868Z</time></trkpt><trkpt lat="42.210275" lon="14.550055"><ele>36.333333333333336</ele><time>2026-04-16T13:22:20.869Z</time></trkpt><trkpt lat="42.210355" lon="14.5500817"><ele>37.5</ele><time>2026-04-16T13:22:23.869Z</time></trkpt><trkpt lat="42.2104317" lon="14.5500967"><ele>38.666666666666664</ele><time>2026-04-16T13:22:26.869Z</time></trkpt><trkpt lat="42.2105" lon="14.5501167"><ele>39.83333333333333</ele><time>2026-04-16T13:22:29.869Z</time></trkpt><trkpt lat="42.2105767" lon="14.5501367"><ele>41.0</ele><time>2026-04-16T13:22:32.869Z</time></trkpt><trkpt lat="42.2106617" lon="14.550165"><ele>41.83333333333333</ele><time>2026-04-16T13:22:35.868Z</time></trkpt><trkpt lat="42.2107333" lon="14.550185"><ele>42.666666666666664</ele><time>2026-04-16T13:22:38.869Z</time></trkpt><trkpt lat="42.2108117" lon="14.550205"><ele>43.5</ele><time>2026-04-16T13:22:41.869Z</time></trkpt><trkpt lat="42.2108817" lon="14.5502233"><ele>44.333333333333336</ele><time>2026-04-16T13:22:44.869Z</time></trkpt><trkpt lat="42.210975" lon="14.5502267"><ele>45.16666666666667</ele><time>2026-04-16T13:22:47.869Z</time></trkpt><trkpt lat="42.211045" lon="14.5502317"><ele>46.0</ele><time>2026-04-16T13:22:50.869Z</time></trkpt><trkpt lat="42.2111217" lon="14.55025"><ele>46.0</ele><time>2026-04-16T13:22:53.868Z</time></trkpt><trkpt lat="42.2111967" lon="14.5502533"><ele>46.0</ele><time>2026-04-16T13:22:56.868Z</time></trkpt><trkpt lat="42.2112683" lon="14.5502567"><ele>46.0</ele><time>2026-04-16T13:22:59.868Z</time></trkpt><trkpt lat="42.2113417" lon="14.5502617"><ele>46.0</ele><time>2026-04-16T13:23:02.869Z</time></trkpt><trkpt lat="42.21142" lon="14.5502667"><ele>46.0</ele><time>2026-04-16T13:23:05.869Z</time></trkpt><trkpt lat="42.2114933" lon="14.5502783"><ele>46.0</ele><time>2026-04-16T13:23:08.869Z</time></trkpt><trkpt lat="42.2115667" lon="14.5502933"><ele>46.0</ele><time>2026-04-16T13:23:11.869Z</time></trkpt><trkpt lat="42.2116383" lon="14.5502983"><ele>47.285714285714285</ele><time>2026-04-16T13:23:14.869Z</time></trkpt><trkpt lat="42.2117067" lon="14.5503017"><ele>48.57142857142857</ele><time>2026-04-16T13:23:17.869Z</time></trkpt><trkpt lat="42.2117833" lon="14.550315"><ele>49.857142857142854</ele><time>2026-04-16T13:23:21.869Z</time></trkpt><trkpt lat="42.2118733" lon="14.550305"><ele>51.14285714285714</ele><time>2026-04-16T13:23:25.869Z</time></trkpt><trkpt lat="42.2119483" lon="14.550315"><ele>52.42857142857143</ele><time>2026-04-16T13:23:28.868Z</time></trkpt><trkpt lat="42.2120117" lon="14.5503167"><ele>53.71428571428571</ele><time>2026-04-16T13:23:31.869Z</time></trkpt><trkpt lat="42.2120717" lon="14.5503467"><ele>55.0</ele><time>2026-04-16T13:23:34.868Z</time></trkpt><trkpt lat="42.2121333" lon="14.5504067"><ele>55.71428571428571</ele><time>2026-04-16T13:23:38.869Z</time></trkpt><trkpt lat="42.2121683" lon="14.5504933"><ele>56.42857142857143</ele><time>2026-04-16T13:23:43.868Z</time></trkpt><trkpt lat="42.2121833" lon="14.5505783"><ele>57.14285714285714</ele><time>2026-04-16T13:23:47.868Z</time></trkpt><trkpt lat="42.2121917" lon="14.5506633"><ele>57.857142857142854</ele><time>2026-04-16T13:23:50.869Z</time></trkpt><trkpt lat="42.2122067" lon="14.5507517"><ele>58.57142857142857</ele><time>2026-04-16T13:23:53.869Z</time></trkpt><trkpt lat="42.21222" lon="14.550835"><ele>59.285714285714285</ele><time>2026-04-16T13:23:56.869Z</time></trkpt><trkpt lat="42.2122367" lon="14.5509367"><ele>60.0</ele><time>2026-04-16T13:24:00.869Z</time></trkpt><trkpt lat="42.2122483" lon="14.5510483"><ele>60.0</ele><time>2026-04-16T13:24:04.869Z</time></trkpt><trkpt lat="42.2122733" lon="14.5511517"><ele>60.0</ele><time>2026-04-16T13:24:08.869Z</time></trkpt><trkpt lat="42.2123" lon="14.55125"><ele>60.0</ele><time>2026-04-16T13:24:13.869Z</time></trkpt><trkpt lat="42.2123233" lon="14.551355"><ele>60.0</ele><time>2026-04-16T13:24:17.869Z</time></trkpt><trkpt lat="42.2123567" lon="14.5514467"><ele>60.0</ele><time>2026-04-16T13:24:20.868Z</time></trkpt><trkpt lat="42.2123967" lon="14.55153"><ele>60.0</ele><time>2026-04-16T13:24:23.869Z</time></trkpt><trkpt lat="42.21243" lon="14.551605"><ele>62.666666666666664</ele><time>2026-04-16T13:24:26.869Z</time></trkpt><trkpt lat="42.2124683" lon="14.5516983"><ele>65.33333333333333</ele><time>2026-04-16T13:24:30.869Z</time></trkpt><trkpt lat="42.2124833" lon="14.5517817"><ele>68.0</ele><time>2026-04-16T13:24:33.869Z</time></trkpt><trkpt lat="42.2124933" lon="14.551875"><ele>70.66666666666666</ele><time>2026-04-16T13:24:36.868Z</time></trkpt><trkpt lat="42.212505" lon="14.5519833"><ele>73.33333333333333</ele><time>2026-04-16T13:24:40.869Z</time></trkpt><trkpt lat="42.212505" lon="14.55209"><ele>76.0</ele><time>2026-04-16T13:24:45.869Z</time></trkpt><trkpt lat="42.2125067" lon="14.5522"><ele>76.5</ele><time>2026-04-16T13:24:49.868Z</time></trkpt><trkpt lat="42.2124967" lon="14.5523067"><ele>77.0</ele><time>2026-04-16T13:24:52.868Z</time></trkpt><trkpt lat="42.2124783" lon="14.5524"><ele>77.5</ele><time>2026-04-16T13:24:55.868Z</time></trkpt><trkpt lat="42.2124633" lon="14.5524967"><ele>78.0</ele><time>2026-04-16T13:24:58.868Z</time></trkpt><trkpt lat="42.212455" lon="14.5526017"><ele>78.5</ele><time>2026-04-16T13:25:01.869Z</time></trkpt><trkpt lat="42.212425" lon="14.5527"><ele>79.0</ele><time>2026-04-16T13:25:04.868Z</time></trkpt><trkpt lat="42.21239" lon="14.5527883"><ele>80.0</ele><time>2026-04-16T13:25:07.869Z</time></trkpt><trkpt lat="42.21237" lon="14.5528967"><ele>81.0</ele><time>2026-04-16T13:25:11.869Z</time></trkpt><trkpt lat="42.21233" lon="14.55298"><ele>82.0</ele><time>2026-04-16T13:25:14.868Z</time></trkpt><trkpt lat="42.21231" lon="14.5530917"><ele>83.0</ele><time>2026-04-16T13:25:17.869Z</time></trkpt><trkpt lat="42.2122783" lon="14.5531867"><ele>84.0</ele><time>2026-04-16T13:25:20.869Z</time></trkpt><trkpt lat="42.212255" lon="14.5533317"><ele>85.0</ele><time>2026-04-16T13:25:48.869Z</time></trkpt><trkpt lat="42.2123117" lon="14.55339"><ele>85.0</ele><time>2026-04-16T13:25:52.868Z</time></trkpt><trkpt lat="42.2123817" lon="14.553425"><ele>85.0</ele><time>2026-04-16T13:25:56.868Z</time></trkpt><trkpt lat="42.2124517" lon="14.5534667"><ele>85.0</ele><time>2026-04-16T13:25:59.868Z</time></trkpt><trkpt lat="42.2125283" lon="14.5535033"><ele>85.0</ele><time>2026-04-16T13:26:02.868Z</time></trkpt><trkpt lat="42.212595" lon="14.5535183"><ele>85.0</ele><time>2026-04-16T13:26:05.868Z</time></trkpt><trkpt lat="42.21266" lon="14.5535417"><ele>85.0</ele><time>2026-04-16T13:26:08.869Z</time></trkpt><trkpt lat="42.21274" lon="14.55358"><ele>85.0</ele><time>2026-04-16T13:26:12.869Z</time></trkpt><trkpt lat="42.2128167" lon="14.553625"><ele>85.0</ele><time>2026-04-16T13:26:16.869Z</time></trkpt><trkpt lat="42.2128783" lon="14.5536533"><ele>85.0</ele><time>2026-04-16T13:26:19.869Z</time></trkpt><trkpt lat="42.2129417" lon="14.5536917"><ele>85.0</ele><time>2026-04-16T13:26:22.868Z</time></trkpt><trkpt lat="42.21301" lon="14.55373"><ele>85.0</ele><time>2026-04-16T13:26:25.868Z</time></trkpt><trkpt lat="42.2130883" lon="14.55377"><ele>85.0</ele><time>2026-04-16T13:26:28.869Z</time></trkpt><trkpt lat="42.2131583" lon="14.5538133"><ele>86.66666666666666</ele><time>2026-04-16T13:26:31.868Z</time></trkpt><trkpt lat="42.2132167" lon="14.5538633"><ele>88.33333333333333</ele><time>2026-04-16T13:26:34.868Z</time></trkpt><trkpt lat="42.2132983" lon="14.55392"><ele>90.0</ele><time>2026-04-16T13:26:37.869Z</time></trkpt><trkpt lat="42.2133717" lon="14.5539783"><ele>91.66666666666667</ele><time>2026-04-16T13:26:40.868Z</time></trkpt><trkpt lat="42.2134267" lon="14.5540217"><ele>93.33333333333334</ele><time>2026-04-16T13:26:42.869Z</time></trkpt><trkpt lat="42.213485" lon="14.55406"><ele>95.0</ele><time>2026-04-16T13:26:44.868Z</time></trkpt><trkpt lat="42.2135633" lon="14.5541183"><ele>95.0</ele><time>2026-04-16T13:26:47.868Z</time></trkpt><trkpt lat="42.2136217" lon="14.554165"><ele>95.0</ele><time>2026-04-16T13:26:49.869Z</time></trkpt><trkpt lat="42.2136833" lon="14.5542183"><ele>95.0</ele><time>2026-04-16T13:26:51.869Z</time></trkpt><trkpt lat="42.2137567" lon="14.5542733"><ele>95.0</ele><time>2026-04-16T13:26:53.868Z</time></trkpt><trkpt lat="42.21384" lon="14.554325"><ele>95.0</ele><time>2026-04-16T13:26:55.869Z</time></trkpt><trkpt lat="42.2139217" lon="14.5543817"><ele>95.0</ele><time>2026-04-16T13:26:57.869Z</time></trkpt><trkpt lat="42.2140017" lon="14.5544383"><ele>94.8</ele><time>2026-04-16T13:26:59.868Z</time></trkpt><trkpt lat="42.2140817" lon="14.554515"><ele>94.6</ele><time>2026-04-16T13:27:01.869Z</time></trkpt><trkpt lat="42.2141617" lon="14.5545883"><ele>94.4</ele><time>2026-04-16T13:27:03.869Z</time></trkpt><trkpt lat="42.2142467" lon="14.5546617"><ele>94.2</ele><time>2026-04-16T13:27:05.869Z</time></trkpt><trkpt lat="42.21434" lon="14.5547367"><ele>94.0</ele><time>2026-04-16T13:27:07.869Z</time></trkpt><trkpt lat="42.2144317" lon="14.5548017"><ele>93.16666666666666</ele><time>2026-04-16T13:27:09.868Z</time></trkpt><trkpt lat="42.2145167" lon="14.55486"><ele>92.33333333333333</ele><time>2026-04-16T13:27:11.869Z</time></trkpt><trkpt lat="42.2145883" lon="14.5549167"><ele>91.5</ele><time>2026-04-16T13:27:13.869Z</time></trkpt><trkpt lat="42.2146533" lon="14.5549783"><ele>90.66666666666667</ele><time>2026-04-16T13:27:15.869Z</time></trkpt><trkpt lat="42.2146967" lon="14.55504"><ele>89.83333333333334</ele><time>2026-04-16T13:27:17.868Z</time></trkpt><trkpt lat="42.2147467" lon="14.5550967"><ele>89.0</ele><time>2026-04-16T13:27:19.869Z</time></trkpt><trkpt lat="42.2148033" lon="14.5551567"><ele>89.66666666666667</ele><time>2026-04-16T13:27:21.869Z</time></trkpt><trkpt lat="42.21487" lon="14.5552117"><ele>90.33333333333334</ele><time>2026-04-16T13:27:23.868Z</time></trkpt><trkpt lat="42.2149433" lon="14.55527"><ele>91.0</ele><time>2026-04-16T13:27:26.869Z</time></trkpt><trkpt lat="42.215015" lon="14.5553317"><ele>91.66666666666667</ele><time>2026-04-16T13:27:29.869Z</time></trkpt><trkpt lat="42.215085" lon="14.5553883"><ele>92.33333333333333</ele><time>2026-04-16T13:27:32.869Z</time></trkpt><trkpt lat="42.2151417" lon="14.5554367"><ele>93.0</ele><time>2026-04-16T13:27:35.868Z</time></trkpt><trkpt lat="42.2151917" lon="14.555495"><ele>93.28571428571429</ele><time>2026-04-16T13:27:38.868Z</time></trkpt><trkpt lat="42.21526" lon="14.5555533"><ele>93.57142857142857</ele><time>2026-04-16T13:27:41.868Z</time></trkpt><trkpt lat="42.215325" lon="14.5556033"><ele>93.85714285714286</ele><time>2026-04-16T13:27:44.869Z</time></trkpt><trkpt lat="42.2153833" lon="14.5556633"><ele>94.14285714285714</ele><time>2026-04-16T13:27:47.868Z</time></trkpt><trkpt lat="42.2154467" lon="14.5557017"><ele>94.42857142857143</ele><time>2026-04-16T13:27:50.869Z</time></trkpt><trkpt lat="42.2155083" lon="14.5557567"><ele>94.71428571428572</ele><time>2026-04-16T13:27:53.868Z</time></trkpt><trkpt lat="42.2155667" lon="14.5558033"><ele>95.0</ele><time>2026-04-16T13:27:56.869Z</time></trkpt><trkpt lat="42.2156283" lon="14.5558517"><ele>95.5</ele><time>2026-04-16T13:27:59.869Z</time></trkpt><trkpt lat="42.2156967" lon="14.555905"><ele>96.0</ele><time>2026-04-16T13:28:02.868Z</time></trkpt><trkpt lat="42.2157633" lon="14.555965"><ele>96.5</ele><time>2026-04-16T13:28:05.868Z</time></trkpt><trkpt lat="42.2158283" lon="14.556025"><ele>97.0</ele><time>2026-04-16T13:28:08.869Z</time></trkpt><trkpt lat="42.215895" lon="14.5560767"><ele>97.49999999999999</ele><time>2026-04-16T13:28:11.869Z</time></trkpt><trkpt lat="42.21596" lon="14.55612"><ele>98.0</ele><time>2026-04-16T13:28:14.869Z</time></trkpt><trkpt lat="42.2160167" lon="14.55617"><ele>97.99999999999999</ele><time>2026-04-16T13:28:17.868Z</time></trkpt><trkpt lat="42.2160817" lon="14.5562433"><ele>98.0</ele><time>2026-04-16T13:28:20.868Z</time></trkpt><trkpt lat="42.2161533" lon="14.5563183"><ele>98.0</ele><time>2026-04-16T13:28:23.869Z</time></trkpt><trkpt lat="42.2162067" lon="14.556365"><ele>98.0</ele><time>2026-04-16T13:28:25.869Z</time></trkpt><trkpt lat="42.21628" lon="14.5564333"><ele>97.99999999999999</ele><time>2026-04-16T13:28:28.869Z</time></trkpt><trkpt lat="42.216335" lon="14.5565"><ele>98.0</ele><time>2026-04-16T13:28:31.869Z</time></trkpt><trkpt lat="42.2164067" lon="14.5565533"><ele>98.0</ele><time>2026-04-16T13:28:34.869Z</time></trkpt><trkpt lat="42.2164717" lon="14.556585"><ele>98.0</ele><time>2026-04-16T13:28:36.869Z</time></trkpt><trkpt lat="42.21653" lon="14.5566433"><ele>98.0</ele><time>2026-04-16T13:28:38.869Z</time></trkpt><trkpt lat="42.2165967" lon="14.556705"><ele>98.0</ele><time>2026-04-16T13:28:40.868Z</time></trkpt><trkpt lat="42.2166567" lon="14.5567633"><ele>98.0</ele><time>2026-04-16T13:28:42.869Z</time></trkpt><trkpt lat="42.2167133" lon="14.5568133"><ele>98.0</ele><time>2026-04-16T13:28:44.869Z</time></trkpt><trkpt lat="42.2167667" lon="14.5568633"><ele>98.0</ele><time>2026-04-16T13:28:46.869Z</time></trkpt><trkpt lat="42.2168383" lon="14.5569267"><ele>97.99999999999999</ele><time>2026-04-16T13:28:49.869Z</time></trkpt><trkpt lat="42.2169133" lon="14.5569783"><ele>98.0</ele><time>2026-04-16T13:28:52.869Z</time></trkpt><trkpt lat="42.2169783" lon="14.5570317"><ele>98.0</ele><time>2026-04-16T13:28:55.868Z</time></trkpt><trkpt lat="42.2170533" lon="14.5570933"><ele>98.0</ele><time>2026-04-16T13:28:58.868Z</time></trkpt><trkpt lat="42.2171217" lon="14.5571467"><ele>97.99999999999999</ele><time>2026-04-16T13:29:01.869Z</time></trkpt><trkpt lat="42.2171867" lon="14.557225"><ele>98.0</ele><time>2026-04-16T13:29:04.869Z</time></trkpt><trkpt lat="42.2172517" lon="14.5572817"><ele>97.85714285714286</ele><time>2026-04-16T13:29:07.869Z</time></trkpt><trkpt lat="42.217315" lon="14.5573167"><ele>97.71428571428572</ele><time>2026-04-16T13:29:10.869Z</time></trkpt><trkpt lat="42.2173767" lon="14.5573817"><ele>97.57142857142857</ele><time>2026-04-16T13:29:13.869Z</time></trkpt><trkpt lat="42.2174383" lon="14.5574467"><ele>97.42857142857143</ele><time>2026-04-16T13:29:16.869Z</time></trkpt><trkpt lat="42.2174867" lon="14.5575033"><ele>97.28571428571429</ele><time>2026-04-16T13:29:19.869Z</time></trkpt><trkpt lat="42.2175467" lon="14.5575533"><ele>97.14285714285714</ele><time>2026-04-16T13:29:23.868Z</time></trkpt><trkpt lat="42.21761" lon="14.5575967"><ele>97.0</ele><time>2026-04-16T13:29:26.868Z</time></trkpt><trkpt lat="42.217675" lon="14.5576383"><ele>96.66666666666667</ele><time>2026-04-16T13:29:30.869Z</time></trkpt><trkpt lat="42.217815" lon="14.5576983"><ele>96.33333333333334</ele><time>2026-04-16T13:30:06.869Z</time></trkpt><trkpt lat="42.21766" lon="14.5578433"><ele>96.0</ele><time>2026-04-16T13:31:30.871Z</time></trkpt><trkpt lat="42.2178183" lon="14.5576383"><ele>96.0</ele><time>2026-04-16T13:31:31.871Z</time></trkpt><trkpt lat="42.2178317" lon="14.55773"><ele>96.0</ele><time>2026-04-16T13:31:40.87Z</time></trkpt><trkpt lat="42.217885" lon="14.5577883"><ele>96.0</ele><time>2026-04-16T13:31:43.871Z</time></trkpt><trkpt lat="42.2179517" lon="14.5578617"><ele>96.0</ele><time>2026-04-16T13:31:46.87Z</time></trkpt><trkpt lat="42.2179933" lon="14.55793"><ele>96.0</ele><time>2026-04-16T13:31:49.871Z</time></trkpt><trkpt lat="42.2180533" lon="14.5579983"><ele>96.0</ele><time>2026-04-16T13:31:52.871Z</time></trkpt><trkpt lat="42.218125" lon="14.55806"><ele>95.66666666666667</ele><time>2026-04-16T13:31:55.871Z</time></trkpt><trkpt lat="42.2181883" lon="14.55811"><ele>95.33333333333333</ele><time>2026-04-16T13:31:58.871Z</time></trkpt><trkpt lat="42.2182567" lon="14.5581683"><ele>95.0</ele><time>2026-04-16T13:32:02.871Z</time></trkpt><trkpt lat="42.2183333" lon="14.558225"><ele>94.66666666666666</ele><time>2026-04-16T13:32:05.871Z</time></trkpt><trkpt lat="42.2184" lon="14.5582683"><ele>94.33333333333333</ele><time>2026-04-16T13:32:08.87Z</time></trkpt><trkpt lat="42.21846" lon="14.5583167"><ele>94.0</ele><time>2026-04-16T13:32:11.871Z</time></trkpt><trkpt lat="42.2185167" lon="14.558365"><ele>94.0</ele><time>2026-04-16T13:32:14.87Z</time></trkpt><trkpt lat="42.2185767" lon="14.55842"><ele>94.0</ele><time>2026-04-16T13:32:17.871Z</time></trkpt><trkpt lat="42.21864" lon="14.5584733"><ele>94.0</ele><time>2026-04-16T13:32:20.87Z</time></trkpt><trkpt lat="42.2187033" lon="14.55853"><ele>94.0</ele><time>2026-04-16T13:32:23.87Z</time></trkpt><trkpt lat="42.218775" lon="14.558585"><ele>94.0</ele><time>2026-04-16T13:32:26.87Z</time></trkpt><trkpt lat="42.2188467" lon="14.5586417"><ele>94.0</ele><time>2026-04-16T13:32:29.871Z</time></trkpt><trkpt lat="42.2189117" lon="14.5587033"><ele>94.0</ele><time>2026-04-16T13:32:32.871Z</time></trkpt><trkpt lat="42.2189717" lon="14.5587517"><ele>94.0</ele><time>2026-04-16T13:32:35.87Z</time></trkpt><trkpt lat="42.2190317" lon="14.5588033"><ele>94.0</ele><time>2026-04-16T13:32:38.871Z</time></trkpt><trkpt lat="42.21908" lon="14.5588633"><ele>94.0</ele><time>2026-04-16T13:32:41.871Z</time></trkpt><trkpt lat="42.2191483" lon="14.5589283"><ele>94.0</ele><time>2026-04-16T13:32:44.87Z</time></trkpt><trkpt lat="42.2192233" lon="14.5589817"><ele>94.0</ele><time>2026-04-16T13:32:47.87Z</time></trkpt><trkpt lat="42.2192817" lon="14.5590233"><ele>94.0</ele><time>2026-04-16T13:32:49.87Z</time></trkpt><trkpt lat="42.2193583" lon="14.55909"><ele>94.16666666666666</ele><time>2026-04-16T13:32:52.871Z</time></trkpt><trkpt lat="42.2194283" lon="14.5591467"><ele>94.33333333333333</ele><time>2026-04-16T13:32:55.871Z</time></trkpt><trkpt lat="42.2195033" lon="14.5592017"><ele>94.5</ele><time>2026-04-16T13:32:58.871Z</time></trkpt><trkpt lat="42.219575" lon="14.5592617"><ele>94.66666666666667</ele><time>2026-04-16T13:33:01.871Z</time></trkpt><trkpt lat="42.21964" lon="14.5593367"><ele>94.83333333333334</ele><time>2026-04-16T13:33:04.87Z</time></trkpt><trkpt lat="42.2196533" lon="14.5594417"><ele>95.0</ele><time>2026-04-16T13:33:07.871Z</time></trkpt><trkpt lat="42.2195933" lon="14.5595483"><ele>95.0</ele><time>2026-04-16T13:33:10.87Z</time></trkpt><trkpt lat="42.2195417" lon="14.55961"><ele>95.0</ele><time>2026-04-16T13:33:12.871Z</time></trkpt><trkpt lat="42.2194967" lon="14.559675"><ele>95.0</ele><time>2026-04-16T13:33:14.87Z</time></trkpt><trkpt lat="42.2194483" lon="14.5597367"><ele>95.0</ele><time>2026-04-16T13:33:16.87Z</time></trkpt><trkpt lat="42.219405" lon="14.5598033"><ele>95.0</ele><time>2026-04-16T13:33:18.871Z</time></trkpt><trkpt lat="42.2193617" lon="14.55988"><ele>95.0</ele><time>2026-04-16T13:33:20.871Z</time></trkpt><trkpt lat="42.2193167" lon="14.5599567"><ele>95.0</ele><time>2026-04-16T13:33:22.871Z</time></trkpt><trkpt lat="42.21928" lon="14.5600417"><ele>95.0</ele><time>2026-04-16T13:33:24.87Z</time></trkpt><trkpt lat="42.2192467" lon="14.5601367"><ele>95.0</ele><time>2026-04-16T13:33:26.871Z</time></trkpt><trkpt lat="42.2192133" lon="14.5602317"><ele>95.0</ele><time>2026-04-16T13:33:28.871Z</time></trkpt><trkpt lat="42.2191867" lon="14.5603333"><ele>95.0</ele><time>2026-04-16T13:33:30.871Z</time></trkpt><trkpt lat="42.21916" lon="14.56044"><ele>95.0</ele><time>2026-04-16T13:33:32.87Z</time></trkpt><trkpt lat="42.2191267" lon="14.5605533"><ele>95.0</ele><time>2026-04-16T13:33:34.871Z</time></trkpt><trkpt lat="42.2190933" lon="14.5606667"><ele>93.66666666666667</ele><time>2026-04-16T13:33:36.871Z</time></trkpt><trkpt lat="42.21908" lon="14.560785"><ele>92.33333333333334</ele><time>2026-04-16T13:33:38.871Z</time></trkpt><trkpt lat="42.219065" lon="14.5608883"><ele>91.0</ele><time>2026-04-16T13:33:40.871Z</time></trkpt><trkpt lat="42.2190567" lon="14.5609833"><ele>89.66666666666667</ele><time>2026-04-16T13:33:42.87Z</time></trkpt><trkpt lat="42.2190467" lon="14.5610933"><ele>88.33333333333333</ele><time>2026-04-16T13:33:44.871Z</time></trkpt><trkpt lat="42.2190383" lon="14.5611933"><ele>87.0</ele><time>2026-04-16T13:33:46.87Z</time></trkpt><trkpt lat="42.21902" lon="14.5612783"><ele>87.14285714285714</ele><time>2026-04-16T13:33:48.871Z</time></trkpt><trkpt lat="42.219005" lon="14.561365"><ele>87.28571428571429</ele><time>2026-04-16T13:33:50.87Z</time></trkpt><trkpt lat="42.218995" lon="14.56146"><ele>87.42857142857143</ele><time>2026-04-16T13:33:52.87Z</time></trkpt><trkpt lat="42.2189767" lon="14.561545"><ele>87.57142857142857</ele><time>2026-04-16T13:33:54.871Z</time></trkpt><trkpt lat="42.21898" lon="14.5616433"><ele>87.71428571428571</ele><time>2026-04-16T13:33:56.87Z</time></trkpt><trkpt lat="42.2189733" lon="14.5617283"><ele>87.85714285714286</ele><time>2026-04-16T13:33:58.871Z</time></trkpt><trkpt lat="42.2189617" lon="14.5618533"><ele>88.0</ele><time>2026-04-16T13:34:01.871Z</time></trkpt><trkpt lat="42.2189517" lon="14.56194"><ele>88.16666666666666</ele><time>2026-04-16T13:34:03.871Z</time></trkpt><trkpt lat="42.2189933" lon="14.56206"><ele>88.33333333333333</ele><time>2026-04-16T13:34:06.871Z</time></trkpt><trkpt lat="42.2190633" lon="14.5620817"><ele>88.5</ele><time>2026-04-16T13:34:10.871Z</time></trkpt><trkpt lat="42.2190917" lon="14.5621633"><ele>88.66666666666667</ele><time>2026-04-16T13:34:20.871Z</time></trkpt><trkpt lat="42.2190467" lon="14.5622667"><ele>88.83333333333334</ele><time>2026-04-16T13:34:23.871Z</time></trkpt><trkpt lat="42.219005" lon="14.5623583"><ele>89.0</ele><time>2026-04-16T13:34:26.871Z</time></trkpt><trkpt lat="42.2189783" lon="14.562555"><ele>88.99999999999999</ele><time>2026-04-16T13:34:53.871Z</time></trkpt><trkpt lat="42.218935" lon="14.5626217"><ele>89.0</ele><time>2026-04-16T13:34:58.871Z</time></trkpt><trkpt lat="42.2188883" lon="14.5626867"><ele>89.0</ele><time>2026-04-16T13:35:03.87Z</time></trkpt><trkpt lat="42.21884" lon="14.56277"><ele>89.0</ele><time>2026-04-16T13:35:07.87Z</time></trkpt><trkpt lat="42.2188183" lon="14.5628633"><ele>89.0</ele><time>2026-04-16T13:35:12.87Z</time></trkpt><trkpt lat="42.2188067" lon="14.5629517"><ele>88.99999999999999</ele><time>2026-04-16T13:35:16.87Z</time></trkpt><trkpt lat="42.21877" lon="14.5630367"><ele>89.0</ele><time>2026-04-16T13:35:19.871Z</time></trkpt><trkpt lat="42.2187417" lon="14.563115"><ele>88.57142857142857</ele><time>2026-04-16T13:35:21.871Z</time></trkpt><trkpt lat="42.21872" lon="14.56321"><ele>88.14285714285714</ele><time>2026-04-16T13:35:24.869Z</time></trkpt><trkpt lat="42.218715" lon="14.56331"><ele>87.71428571428572</ele><time>2026-04-16T13:35:27.87Z</time></trkpt><trkpt lat="42.2186983" lon="14.5634167"><ele>87.28571428571428</ele><time>2026-04-16T13:35:31.87Z</time></trkpt><trkpt lat="42.2186917" lon="14.563525"><ele>86.85714285714286</ele><time>2026-04-16T13:35:35.87Z</time></trkpt><trkpt lat="42.2187" lon="14.5636117"><ele>86.42857142857143</ele><time>2026-04-16T13:35:38.87Z</time></trkpt><trkpt lat="42.2187033" lon="14.56371"><ele>86.0</ele><time>2026-04-16T13:35:41.869Z</time></trkpt><trkpt lat="42.2186983" lon="14.56381"><ele>86.00000000000001</ele><time>2026-04-16T13:35:45.87Z</time></trkpt><trkpt lat="42.2186667" lon="14.5639067"><ele>86.0</ele><time>2026-04-16T13:35:49.87Z</time></trkpt><trkpt lat="42.2186733" lon="14.5639933"><ele>86.0</ele><time>2026-04-16T13:35:51.87Z</time></trkpt><trkpt lat="42.218685" lon="14.5640883"><ele>86.0</ele><time>2026-04-16T13:35:53.869Z</time></trkpt><trkpt lat="42.2186667" lon="14.5641817"><ele>86.0</ele><time>2026-04-16T13:35:56.87Z</time></trkpt><trkpt lat="42.2186483" lon="14.5642733"><ele>86.00000000000001</ele><time>2026-04-16T13:35:58.869Z</time></trkpt><trkpt lat="42.2186367" lon="14.56438"><ele>86.0</ele><time>2026-04-16T13:36:00.87Z</time></trkpt><trkpt lat="42.218645" lon="14.5644883"><ele>85.16666666666667</ele><time>2026-04-16T13:36:02.869Z</time></trkpt><trkpt lat="42.2185983" lon="14.56457"><ele>84.33333333333334</ele><time>2026-04-16T13:36:05.87Z</time></trkpt><trkpt lat="42.2185533" lon="14.5646767"><ele>83.5</ele><time>2026-04-16T13:36:07.869Z</time></trkpt><trkpt lat="42.2185267" lon="14.56476"><ele>82.66666666666667</ele><time>2026-04-16T13:36:09.869Z</time></trkpt><trkpt lat="42.2185133" lon="14.564885"><ele>81.83333333333333</ele><time>2026-04-16T13:36:12.87Z</time></trkpt><trkpt lat="42.21852" lon="14.5650383"><ele>81.0</ele><time>2026-04-16T13:36:14.869Z</time></trkpt><trkpt lat="42.2184883" lon="14.5651383"><ele>81.0</ele><time>2026-04-16T13:36:16.869Z</time></trkpt><trkpt lat="42.2184583" lon="14.5652417"><ele>81.0</ele><time>2026-04-16T13:36:20.87Z</time></trkpt><trkpt lat="42.218445" lon="14.56533"><ele>81.0</ele><time>2026-04-16T13:36:23.869Z</time></trkpt><trkpt lat="42.2184333" lon="14.5654883"><ele>81.0</ele><time>2026-04-16T13:36:26.87Z</time></trkpt><trkpt lat="42.2184183" lon="14.565575"><ele>81.0</ele><time>2026-04-16T13:36:29.87Z</time></trkpt><trkpt lat="42.2183783" lon="14.5656583"><ele>81.0</ele><time>2026-04-16T13:36:32.869Z</time></trkpt><trkpt lat="42.2183783" lon="14.5657483"><ele>80.14285714285714</ele><time>2026-04-16T13:36:34.87Z</time></trkpt><trkpt lat="42.2183717" lon="14.5658567"><ele>79.28571428571428</ele><time>2026-04-16T13:36:39.869Z</time></trkpt><trkpt lat="42.2183783" lon="14.5659583"><ele>78.42857142857142</ele><time>2026-04-16T13:36:42.87Z</time></trkpt><trkpt lat="42.218365" lon="14.5660417"><ele>77.57142857142857</ele><time>2026-04-16T13:36:45.87Z</time></trkpt><trkpt lat="42.2183483" lon="14.566145"><ele>76.71428571428571</ele><time>2026-04-16T13:36:48.869Z</time></trkpt><trkpt lat="42.218325" lon="14.5662333"><ele>75.85714285714285</ele><time>2026-04-16T13:36:51.869Z</time></trkpt><trkpt lat="42.2182867" lon="14.5663267"><ele>75.0</ele><time>2026-04-16T13:36:54.87Z</time></trkpt><trkpt lat="42.2183" lon="14.5664233"><ele>74.0</ele><time>2026-04-16T13:36:55.869Z</time></trkpt><trkpt lat="42.2182667" lon="14.5665133"><ele>73.0</ele><time>2026-04-16T13:36:57.869Z</time></trkpt><trkpt lat="42.21823" lon="14.5666083"><ele>72.0</ele><time>2026-04-16T13:36:59.87Z</time></trkpt><trkpt lat="42.2181983" lon="14.5667417"><ele>71.0</ele><time>2026-04-16T13:37:01.869Z</time></trkpt><trkpt lat="42.2181783" lon="14.566825"><ele>70.0</ele><time>2026-04-16T13:37:02.87Z</time></trkpt><trkpt lat="42.218165" lon="14.566915"><ele>69.0</ele><time>2026-04-16T13:37:03.869Z</time></trkpt><trkpt lat="42.2181333" lon="14.567045"><ele>72.4</ele><time>2026-04-16T13:37:05.87Z</time></trkpt><trkpt lat="42.21812" lon="14.56718"><ele>75.80000000000001</ele><time>2026-04-16T13:37:07.87Z</time></trkpt><trkpt lat="42.2181283" lon="14.5673317"><ele>79.19999999999999</ele><time>2026-04-16T13:37:09.87Z</time></trkpt><trkpt lat="42.2181433" lon="14.5674733"><ele>82.6</ele><time>2026-04-16T13:37:11.869Z</time></trkpt><trkpt lat="42.2181467" lon="14.5676083"><ele>86.0</ele><time>2026-04-16T13:37:13.87Z</time></trkpt><trkpt lat="42.2181467" lon="14.5677317"><ele>86.00000000000001</ele><time>2026-04-16T13:37:15.87Z</time></trkpt><trkpt lat="42.21815" lon="14.5678283"><ele>86.0</ele><time>2026-04-16T13:37:17.869Z</time></trkpt><trkpt lat="42.21814" lon="14.5679517"><ele>86.0</ele><time>2026-04-16T13:37:20.87Z</time></trkpt><trkpt lat="42.218125" lon="14.568035"><ele>86.0</ele><time>2026-04-16T13:37:22.869Z</time></trkpt><trkpt lat="42.2180967" lon="14.5681217"><ele>86.0</ele><time>2026-04-16T13:37:24.87Z</time></trkpt><trkpt lat="42.2180483" lon="14.5681767"><ele>86.00000000000001</ele><time>2026-04-16T13:37:25.87Z</time></trkpt><trkpt lat="42.21802" lon="14.5682717"><ele>86.0</ele><time>2026-04-16T13:37:27.869Z</time></trkpt><trkpt lat="42.217985" lon="14.568365"><ele>84.57142857142858</ele><time>2026-04-16T13:37:29.87Z</time></trkpt><trkpt lat="42.2179567" lon="14.5684533"><ele>83.14285714285714</ele><time>2026-04-16T13:37:31.87Z</time></trkpt><trkpt lat="42.2179267" lon="14.568555"><ele>81.71428571428572</ele><time>2026-04-16T13:37:33.87Z</time></trkpt><trkpt lat="42.2178833" lon="14.568645"><ele>80.28571428571429</ele><time>2026-04-16T13:37:35.87Z</time></trkpt><trkpt lat="42.2178467" lon="14.5687183"><ele>78.85714285714286</ele><time>2026-04-16T13:37:38.869Z</time></trkpt><trkpt lat="42.21784" lon="14.5688067"><ele>77.42857142857143</ele><time>2026-04-16T13:37:42.869Z</time></trkpt><trkpt lat="42.217825" lon="14.5689033"><ele>76.0</ele><time>2026-04-16T13:37:46.869Z</time></trkpt><trkpt lat="42.2178117" lon="14.56899"><ele>73.85714285714285</ele><time>2026-04-16T13:37:48.87Z</time></trkpt><trkpt lat="42.2177917" lon="14.5690733"><ele>71.71428571428572</ele><time>2026-04-16T13:37:51.87Z</time></trkpt><trkpt lat="42.217745" lon="14.569155"><ele>69.57142857142857</ele><time>2026-04-16T13:37:55.87Z</time></trkpt><trkpt lat="42.2177" lon="14.5692267"><ele>67.42857142857142</ele><time>2026-04-16T13:37:58.869Z</time></trkpt><trkpt lat="42.217655" lon="14.569295"><ele>65.28571428571428</ele><time>2026-04-16T13:38:01.87Z</time></trkpt><trkpt lat="42.2176117" lon="14.5693817"><ele>63.14285714285714</ele><time>2026-04-16T13:38:04.87Z</time></trkpt><trkpt lat="42.217585" lon="14.5694833"><ele>60.99999999999999</ele><time>2026-04-16T13:38:07.87Z</time></trkpt><trkpt lat="42.2175167" lon="14.5695517"><ele>59.4</ele><time>2026-04-16T13:38:09.87Z</time></trkpt><trkpt lat="42.2174467" lon="14.5696167"><ele>57.8</ele><time>2026-04-16T13:38:11.869Z</time></trkpt><trkpt lat="42.217385" lon="14.5696767"><ele>56.199999999999996</ele><time>2026-04-16T13:38:13.87Z</time></trkpt><trkpt lat="42.2172933" lon="14.5697683"><ele>54.599999999999994</ele><time>2026-04-16T13:38:15.87Z</time></trkpt><trkpt lat="42.2171983" lon="14.5698833"><ele>53.0</ele><time>2026-04-16T13:38:17.869Z</time></trkpt><trkpt lat="42.217135" lon="14.5699683"><ele>55.2</ele><time>2026-04-16T13:38:19.87Z</time></trkpt><trkpt lat="42.2170767" lon="14.57003"><ele>57.4</ele><time>2026-04-16T13:38:21.87Z</time></trkpt><trkpt lat="42.217025" lon="14.5701017"><ele>59.60000000000001</ele><time>2026-04-16T13:38:23.87Z</time></trkpt><trkpt lat="42.21695" lon="14.5701833"><ele>61.800000000000004</ele><time>2026-04-16T13:38:25.869Z</time></trkpt><trkpt lat="42.2168783" lon="14.5702733"><ele>64.0</ele><time>2026-04-16T13:38:27.869Z</time></trkpt><trkpt lat="42.2168167" lon="14.5704017"><ele>63.99999999999999</ele><time>2026-04-16T13:38:29.869Z</time></trkpt><trkpt lat="42.2167833" lon="14.5704783"><ele>64.0</ele><time>2026-04-16T13:38:31.87Z</time></trkpt><trkpt lat="42.2167533" lon="14.57059"><ele>64.0</ele><time>2026-04-16T13:38:34.87Z</time></trkpt><trkpt lat="42.2167333" lon="14.5706883"><ele>64.0</ele><time>2026-04-16T13:38:36.87Z</time></trkpt><trkpt lat="42.216725" lon="14.5707933"><ele>63.99999999999999</ele><time>2026-04-16T13:38:38.869Z</time></trkpt><trkpt lat="42.2167267" lon="14.5709067"><ele>64.0</ele><time>2026-04-16T13:38:40.87Z</time></trkpt><trkpt lat="42.2167283" lon="14.571035"><ele>63.99999999999999</ele><time>2026-04-16T13:38:43.87Z</time></trkpt><trkpt lat="42.216725" lon="14.5711267"><ele>64.0</ele><time>2026-04-16T13:38:45.87Z</time></trkpt><trkpt lat="42.2167117" lon="14.5712167"><ele>64.0</ele><time>2026-04-16T13:38:46.87Z</time></trkpt><trkpt lat="42.216695" lon="14.571305"><ele>64.0</ele><time>2026-04-16T13:38:48.87Z</time></trkpt><trkpt lat="42.216685" lon="14.5714217"><ele>63.99999999999999</ele><time>2026-04-16T13:38:51.87Z</time></trkpt><trkpt lat="42.2166717" lon="14.5715533"><ele>64.0</ele><time>2026-04-16T13:38:54.87Z</time></trkpt><trkpt lat="42.2166733" lon="14.5716483"><ele>63.42857142857142</ele><time>2026-04-16T13:38:56.87Z</time></trkpt><trkpt lat="42.2166733" lon="14.5717383"><ele>62.85714285714285</ele><time>2026-04-16T13:38:58.869Z</time></trkpt><trkpt lat="42.2166817" lon="14.5718567"><ele>62.285714285714285</ele><time>2026-04-16T13:39:01.87Z</time></trkpt><trkpt lat="42.2166867" lon="14.5719417"><ele>61.71428571428571</ele><time>2026-04-16T13:39:03.87Z</time></trkpt><trkpt lat="42.2166717" lon="14.57203"><ele>61.14285714285714</ele><time>2026-04-16T13:39:05.87Z</time></trkpt><trkpt lat="42.2166517" lon="14.57214"><ele>60.57142857142857</ele><time>2026-04-16T13:39:08.87Z</time></trkpt><trkpt lat="42.2166333" lon="14.572225"><ele>60.0</ele><time>2026-04-16T13:39:11.869Z</time></trkpt><trkpt lat="42.2166267" lon="14.57233"><ele>58.833333333333336</ele><time>2026-04-16T13:39:14.869Z</time></trkpt><trkpt lat="42.2166267" lon="14.5724433"><ele>57.66666666666667</ele><time>2026-04-16T13:39:17.87Z</time></trkpt><trkpt lat="42.2166117" lon="14.5725383"><ele>56.5</ele><time>2026-04-16T13:39:20.869Z</time></trkpt><trkpt lat="42.2165867" lon="14.5726517"><ele>55.333333333333336</ele><time>2026-04-16T13:39:24.87Z</time></trkpt><trkpt lat="42.2165433" lon="14.5727267"><ele>54.16666666666667</ele><time>2026-04-16T13:39:27.87Z</time></trkpt><trkpt lat="42.216505" lon="14.5728117"><ele>53.0</ele><time>2026-04-16T13:39:30.87Z</time></trkpt><trkpt lat="42.2164633" lon="14.5728917"><ele>56.333333333333336</ele><time>2026-04-16T13:39:33.87Z</time></trkpt><trkpt lat="42.2164033" lon="14.57296"><ele>59.66666666666667</ele><time>2026-04-16T13:39:36.869Z</time></trkpt><trkpt lat="42.21633" lon="14.5730233"><ele>63.0</ele><time>2026-04-16T13:39:39.87Z</time></trkpt><trkpt lat="42.2162567" lon="14.573075"><ele>66.33333333333333</ele><time>2026-04-16T13:39:42.869Z</time></trkpt><trkpt lat="42.2162083" lon="14.5731317"><ele>69.66666666666666</ele><time>2026-04-16T13:39:44.87Z</time></trkpt><trkpt lat="42.2161517" lon="14.5732333"><ele>73.0</ele><time>2026-04-16T13:39:47.87Z</time></trkpt><trkpt lat="42.2160983" lon="14.573345"><ele>73.0</ele><time>2026-04-16T13:39:50.869Z</time></trkpt><trkpt lat="42.2160467" lon="14.5734467"><ele>73.0</ele><time>2026-04-16T13:39:52.87Z</time></trkpt><trkpt lat="42.2159733" lon="14.5735367"><ele>73.0</ele><time>2026-04-16T13:39:54.87Z</time></trkpt><trkpt lat="42.2159367" lon="14.573625"><ele>73.0</ele><time>2026-04-16T13:39:56.87Z</time></trkpt><trkpt lat="42.2159067" lon="14.57373"><ele>73.0</ele><time>2026-04-16T13:39:58.87Z</time></trkpt><trkpt lat="42.215875" lon="14.573835"><ele>73.0</ele><time>2026-04-16T13:40:01.869Z</time></trkpt><trkpt lat="42.2158617" lon="14.5739317"><ele>70.83333333333333</ele><time>2026-04-16T13:40:04.869Z</time></trkpt><trkpt lat="42.2158533" lon="14.5740367"><ele>68.66666666666666</ele><time>2026-04-16T13:40:08.87Z</time></trkpt><trkpt lat="42.21585" lon="14.5741317"><ele>66.5</ele><time>2026-04-16T13:40:11.87Z</time></trkpt><trkpt lat="42.2158333" lon="14.5742533"><ele>64.33333333333333</ele><time>2026-04-16T13:40:14.87Z</time></trkpt><trkpt lat="42.2158117" lon="14.57435"><ele>62.166666666666664</ele><time>2026-04-16T13:40:16.87Z</time></trkpt><trkpt lat="42.21579" lon="14.5744417"><ele>60.0</ele><time>2026-04-16T13:40:18.87Z</time></trkpt><trkpt lat="42.21577" lon="14.5745267"><ele>58.166666666666664</ele><time>2026-04-16T13:40:20.869Z</time></trkpt><trkpt lat="42.2157433" lon="14.5746133"><ele>56.33333333333333</ele><time>2026-04-16T13:40:22.87Z</time></trkpt><trkpt lat="42.2157133" lon="14.5747167"><ele>54.5</ele><time>2026-04-16T13:40:25.87Z</time></trkpt><trkpt lat="42.2156867" lon="14.57482"><ele>52.666666666666664</ele><time>2026-04-16T13:40:28.87Z</time></trkpt><trkpt lat="42.215645" lon="14.5749233"><ele>50.83333333333333</ele><time>2026-04-16T13:40:31.869Z</time></trkpt><trkpt lat="42.2155917" lon="14.575005"><ele>49.0</ele><time>2026-04-16T13:40:33.869Z</time></trkpt><trkpt lat="42.2155333" lon="14.5750917"><ele>50.666666666666664</ele><time>2026-04-16T13:40:35.87Z</time></trkpt><trkpt lat="42.2154767" lon="14.5751767"><ele>52.33333333333333</ele><time>2026-04-16T13:40:37.87Z</time></trkpt><trkpt lat="42.2154183" lon="14.575265"><ele>54.0</ele><time>2026-04-16T13:40:39.87Z</time></trkpt><trkpt lat="42.215365" lon="14.57533"><ele>55.66666666666667</ele><time>2026-04-16T13:40:41.869Z</time></trkpt><trkpt lat="42.2152917" lon="14.5754017"><ele>57.333333333333336</ele><time>2026-04-16T13:40:44.87Z</time></trkpt><trkpt lat="42.2152433" lon="14.5754633"><ele>59.0</ele><time>2026-04-16T13:40:46.87Z</time></trkpt><trkpt lat="42.215195" lon="14.575565"><ele>59.00000000000001</ele><time>2026-04-16T13:40:49.87Z</time></trkpt><trkpt lat="42.2151567" lon="14.5756483"><ele>59.0</ele><time>2026-04-16T13:40:51.87Z</time></trkpt><trkpt lat="42.2151167" lon="14.5757467"><ele>59.0</ele><time>2026-04-16T13:40:53.869Z</time></trkpt><trkpt lat="42.2150867" lon="14.5758517"><ele>59.0</ele><time>2026-04-16T13:40:55.87Z</time></trkpt><trkpt lat="42.2150617" lon="14.575955"><ele>59.00000000000001</ele><time>2026-04-16T13:40:57.87Z</time></trkpt><trkpt lat="42.215055" lon="14.5760667"><ele>59.0</ele><time>2026-04-16T13:40:59.87Z</time></trkpt><trkpt lat="42.2150383" lon="14.5761717"><ele>57.42857142857142</ele><time>2026-04-16T13:41:01.87Z</time></trkpt><trkpt lat="42.215015" lon="14.57627"><ele>55.85714285714286</ele><time>2026-04-16T13:41:03.869Z</time></trkpt><trkpt lat="42.214975" lon="14.5763667"><ele>54.285714285714285</ele><time>2026-04-16T13:41:05.869Z</time></trkpt><trkpt lat="42.2149367" lon="14.57644"><ele>52.71428571428571</ele><time>2026-04-16T13:41:11.87Z</time></trkpt><trkpt lat="42.2149133" lon="14.57652"><ele>51.14285714285714</ele><time>2026-04-16T13:41:15.87Z</time></trkpt><trkpt lat="42.2148817" lon="14.57662"><ele>49.57142857142857</ele><time>2026-04-16T13:41:18.87Z</time></trkpt><trkpt lat="42.2148667" lon="14.5767183"><ele>48.0</ele><time>2026-04-16T13:41:20.87Z</time></trkpt><trkpt lat="42.214855" lon="14.5768217"><ele>48.0</ele><time>2026-04-16T13:41:22.869Z</time></trkpt><trkpt lat="42.21484" lon="14.5769167"><ele>48.0</ele><time>2026-04-16T13:41:24.87Z</time></trkpt><trkpt lat="42.214815" lon="14.57701"><ele>48.0</ele><time>2026-04-16T13:41:26.87Z</time></trkpt><trkpt lat="42.2147883" lon="14.5770933"><ele>48.0</ele><time>2026-04-16T13:41:28.869Z</time></trkpt><trkpt lat="42.2147733" lon="14.5772"><ele>48.0</ele><time>2026-04-16T13:41:30.87Z</time></trkpt><trkpt lat="42.2147683" lon="14.5773367"><ele>48.0</ele><time>2026-04-16T13:41:32.87Z</time></trkpt><trkpt lat="42.21476" lon="14.577485"><ele>50.0</ele><time>2026-04-16T13:41:34.869Z</time></trkpt><trkpt lat="42.2147483" lon="14.5776417"><ele>52.0</ele><time>2026-04-16T13:41:36.87Z</time></trkpt><trkpt lat="42.2147283" lon="14.57777"><ele>54.0</ele><time>2026-04-16T13:41:38.87Z</time></trkpt><trkpt lat="42.2147033" lon="14.5778917"><ele>56.0</ele><time>2026-04-16T13:41:40.87Z</time></trkpt><trkpt lat="42.214665" lon="14.5779983"><ele>58.0</ele><time>2026-04-16T13:41:42.87Z</time></trkpt><trkpt lat="42.2146267" lon="14.5781"><ele>57.99999999999999</ele><time>2026-04-16T13:41:44.87Z</time></trkpt><trkpt lat="42.2145883" lon="14.57817"><ele>58.0</ele><time>2026-04-16T13:41:46.869Z</time></trkpt><trkpt lat="42.2145383" lon="14.5782517"><ele>58.0</ele><time>2026-04-16T13:41:49.87Z</time></trkpt><trkpt lat="42.214435" lon="14.5783533"><ele>58.0</ele><time>2026-04-16T13:41:52.87Z</time></trkpt><trkpt lat="42.2144" lon="14.578435"><ele>57.99999999999999</ele><time>2026-04-16T13:41:54.87Z</time></trkpt><trkpt lat="42.2143733" lon="14.5785367"><ele>58.0</ele><time>2026-04-16T13:41:56.869Z</time></trkpt><trkpt lat="42.214335" lon="14.57866"><ele>56.71428571428572</ele><time>2026-04-16T13:41:58.869Z</time></trkpt><trkpt lat="42.2143017" lon="14.5787733"><ele>55.42857142857143</ele><time>2026-04-16T13:42:00.87Z</time></trkpt><trkpt lat="42.2142783" lon="14.5788683"><ele>54.142857142857146</ele><time>2026-04-16T13:42:02.869Z</time></trkpt><trkpt lat="42.2142533" lon="14.5789667"><ele>52.85714285714286</ele><time>2026-04-16T13:42:05.869Z</time></trkpt><trkpt lat="42.2142217" lon="14.5790583"><ele>51.57142857142857</ele><time>2026-04-16T13:42:08.87Z</time></trkpt><trkpt lat="42.21419" lon="14.5791383"><ele>50.285714285714285</ele><time>2026-04-16T13:42:11.87Z</time></trkpt><trkpt lat="42.2141767" lon="14.579225"><ele>49.0</ele><time>2026-04-16T13:42:14.87Z</time></trkpt><trkpt lat="42.2141783" lon="14.57933"><ele>48.99999999999999</ele><time>2026-04-16T13:42:18.869Z</time></trkpt><trkpt lat="42.214165" lon="14.57942"><ele>49.0</ele><time>2026-04-16T13:42:21.869Z</time></trkpt><trkpt lat="42.2141483" lon="14.5795067"><ele>49.0</ele><time>2026-04-16T13:42:24.87Z</time></trkpt><trkpt lat="42.2141317" lon="14.5796"><ele>49.0</ele><time>2026-04-16T13:42:27.87Z</time></trkpt><trkpt lat="42.21409" lon="14.5797233"><ele>48.99999999999999</ele><time>2026-04-16T13:42:30.87Z</time></trkpt><trkpt lat="42.2140683" lon="14.5798517"><ele>49.0</ele><time>2026-04-16T13:42:32.87Z</time></trkpt><trkpt lat="42.21405" lon="14.5799983"><ele>49.0</ele><time>2026-04-16T13:42:34.87Z</time></trkpt><trkpt lat="42.21402" lon="14.5801267"><ele>49.0</ele><time>2026-04-16T13:42:36.869Z</time></trkpt><trkpt lat="42.2139717" lon="14.5802583"><ele>49.0</ele><time>2026-04-16T13:42:38.869Z</time></trkpt><trkpt lat="42.213925" lon="14.580435"><ele>49.0</ele><time>2026-04-16T13:42:40.87Z</time></trkpt><trkpt lat="42.213905" lon="14.5805167"><ele>49.0</ele><time>2026-04-16T13:42:41.87Z</time></trkpt><trkpt lat="42.213885" lon="14.580635"><ele>49.0</ele><time>2026-04-16T13:42:43.87Z</time></trkpt><trkpt lat="42.213875" lon="14.5807483"><ele>49.0</ele><time>2026-04-16T13:42:45.87Z</time></trkpt><trkpt lat="42.21382" lon="14.58089"><ele>49.0</ele><time>2026-04-16T13:42:47.87Z</time></trkpt><trkpt lat="42.2137867" lon="14.58102"><ele>49.0</ele><time>2026-04-16T13:42:49.87Z</time></trkpt><trkpt lat="42.2137717" lon="14.581115"><ele>49.0</ele><time>2026-04-16T13:42:51.869Z</time></trkpt><trkpt lat="42.2137567" lon="14.5812167"><ele>47.42857142857143</ele><time>2026-04-16T13:42:54.87Z</time></trkpt><trkpt lat="42.21376" lon="14.5813433"><ele>45.85714285714286</ele><time>2026-04-16T13:42:57.869Z</time></trkpt><trkpt lat="42.2137467" lon="14.5814267"><ele>44.285714285714285</ele><time>2026-04-16T13:42:59.87Z</time></trkpt><trkpt lat="42.2137383" lon="14.5815283"><ele>42.714285714285715</ele><time>2026-04-16T13:43:02.87Z</time></trkpt><trkpt lat="42.2137633" lon="14.5816267"><ele>41.142857142857146</ele><time>2026-04-16T13:43:06.87Z</time></trkpt><trkpt lat="42.2137767" lon="14.5815433"><ele>39.57142857142857</ele><time>2026-04-16T13:43:12.869Z</time></trkpt><trkpt lat="42.21379" lon="14.5814567"><ele>38.0</ele><time>2026-04-16T13:43:15.869Z</time></trkpt><trkpt lat="42.2137917" lon="14.5813583"><ele>38.0</ele><time>2026-04-16T13:43:18.87Z</time></trkpt><trkpt lat="42.2137983" lon="14.5812683"><ele>38.0</ele><time>2026-04-16T13:43:22.87Z</time></trkpt><trkpt lat="42.2137883" lon="14.58118"><ele>38.0</ele><time>2026-04-16T13:43:24.87Z</time></trkpt><trkpt lat="42.2137533" lon="14.5810817"><ele>38.0</ele><time>2026-04-16T13:43:27.869Z</time></trkpt><trkpt lat="42.213685" lon="14.5810883"><ele>38.0</ele><time>2026-04-16T13:43:32.869Z</time></trkpt><trkpt lat="42.2136217" lon="14.5810933"><ele>38.0</ele><time>2026-04-16T13:43:35.87Z</time></trkpt><trkpt lat="42.213565" lon="14.58104"><ele>38.0</ele><time>2026-04-16T13:43:40.87Z</time></trkpt><trkpt lat="42.21356" lon="14.5809517"><ele>39.57142857142857</ele><time>2026-04-16T13:43:44.869Z</time></trkpt><trkpt lat="42.2135533" lon="14.5808567"><ele>41.142857142857146</ele><time>2026-04-16T13:43:48.87Z</time></trkpt><trkpt lat="42.21353" lon="14.5807633"><ele>42.714285714285715</ele><time>2026-04-16T13:43:53.87Z</time></trkpt><trkpt lat="42.21354" lon="14.5806783"><ele>44.285714285714285</ele><time>2026-04-16T13:43:57.87Z</time></trkpt><trkpt lat="42.2135483" lon="14.58058"><ele>45.85714285714286</ele><time>2026-04-16T13:44:01.87Z</time></trkpt><trkpt lat="42.2135467" lon="14.580495"><ele>47.42857142857143</ele><time>2026-04-16T13:44:05.869Z</time></trkpt><trkpt lat="42.21355" lon="14.5804"><ele>49.0</ele><time>2026-04-16T13:44:08.87Z</time></trkpt><trkpt lat="42.21355" lon="14.5802733"><ele>50.0</ele><time>2026-04-16T13:44:11.87Z</time></trkpt><trkpt lat="42.2135483" lon="14.5801683"><ele>51.0</ele><time>2026-04-16T13:44:13.87Z</time></trkpt><trkpt lat="42.2135383" lon="14.5800617"><ele>52.0</ele><time>2026-04-16T13:44:15.87Z</time></trkpt><trkpt lat="42.2135117" lon="14.5799667"><ele>53.0</ele><time>2026-04-16T13:44:17.869Z</time></trkpt><trkpt lat="42.2134767" lon="14.5798817"><ele>54.0</ele><time>2026-04-16T13:44:19.87Z</time></trkpt><trkpt lat="42.21344" lon="14.5798017"><ele>55.0</ele><time>2026-04-16T13:44:21.869Z</time></trkpt><trkpt lat="42.2134033" lon="14.5797283"><ele>56.0</ele><time>2026-04-16T13:44:23.87Z</time></trkpt><trkpt lat="42.2133667" lon="14.5796417"><ele>56.0</ele><time>2026-04-16T13:44:25.87Z</time></trkpt><trkpt lat="42.213335" lon="14.5795667"><ele>56.0</ele><time>2026-04-16T13:44:27.869Z</time></trkpt><trkpt lat="42.2132983" lon="14.57947"><ele>56.0</ele><time>2026-04-16T13:44:30.869Z</time></trkpt><trkpt lat="42.2132717" lon="14.5793917"><ele>56.0</ele><time>2026-04-16T13:44:33.87Z</time></trkpt><trkpt lat="42.2132667" lon="14.5792917"><ele>56.0</ele><time>2026-04-16T13:44:36.87Z</time></trkpt><trkpt lat="42.213265" lon="14.5791967"><ele>56.0</ele><time>2026-04-16T13:44:39.869Z</time></trkpt><trkpt lat="42.2132567" lon="14.5790867"><ele>56.0</ele><time>2026-04-16T13:44:42.87Z</time></trkpt><trkpt lat="42.2132633" lon="14.5789917"><ele>56.85714285714286</ele><time>2026-04-16T13:44:45.87Z</time></trkpt><trkpt lat="42.2132617" lon="14.5789"><ele>57.714285714285715</ele><time>2026-04-16T13:44:48.87Z</time></trkpt><trkpt lat="42.2132517" lon="14.578815"><ele>58.57142857142857</ele><time>2026-04-16T13:44:51.87Z</time></trkpt><trkpt lat="42.2132433" lon="14.5787283"><ele>59.42857142857143</ele><time>2026-04-16T13:44:54.87Z</time></trkpt><trkpt lat="42.2132283" lon="14.578635"><ele>60.28571428571429</ele><time>2026-04-16T13:44:59.87Z</time></trkpt><trkpt lat="42.21323" lon="14.5785217"><ele>61.142857142857146</ele><time>2026-04-16T13:45:03.869Z</time></trkpt><trkpt lat="42.21323" lon="14.578425"><ele>62.0</ele><time>2026-04-16T13:45:07.869Z</time></trkpt><trkpt lat="42.2132533" lon="14.5783333"><ele>62.333333333333336</ele><time>2026-04-16T13:45:12.87Z</time></trkpt><trkpt lat="42.2132567" lon="14.578225"><ele>62.66666666666667</ele><time>2026-04-16T13:45:19.87Z</time></trkpt><trkpt lat="42.2132483" lon="14.57805"><ele>63.0</ele><time>2026-04-16T13:45:32.869Z</time></trkpt><trkpt lat="42.21319" lon="14.5780833"><ele>63.33333333333333</ele><time>2026-04-16T13:47:42.872Z</time></trkpt><trkpt lat="42.2131317" lon="14.5781617"><ele>63.666666666666664</ele><time>2026-04-16T13:47:46.872Z</time></trkpt><trkpt lat="42.2131167" lon="14.5782467"><ele>64.0</ele><time>2026-04-16T13:47:50.871Z</time></trkpt><trkpt lat="42.2131117" lon="14.5783383"><ele>64.5</ele><time>2026-04-16T13:47:52.872Z</time></trkpt><trkpt lat="42.2131033" lon="14.5784467"><ele>65.0</ele><time>2026-04-16T13:47:54.871Z</time></trkpt><trkpt lat="42.2131033" lon="14.57854"><ele>65.5</ele><time>2026-04-16T13:47:56.872Z</time></trkpt><trkpt lat="42.21311" lon="14.5786467"><ele>66.0</ele><time>2026-04-16T13:47:58.872Z</time></trkpt><trkpt lat="42.2131183" lon="14.5787833"><ele>66.5</ele><time>2026-04-16T13:48:00.872Z</time></trkpt><trkpt lat="42.2131283" lon="14.5789283"><ele>67.0</ele><time>2026-04-16T13:48:02.871Z</time></trkpt><trkpt lat="42.2131333" lon="14.5790483"><ele>65.75</ele><time>2026-04-16T13:48:04.872Z</time></trkpt><trkpt lat="42.2131567" lon="14.5791967"><ele>64.5</ele><time>2026-04-16T13:48:06.872Z</time></trkpt><trkpt lat="42.213185" lon="14.5793433"><ele>63.25</ele><time>2026-04-16T13:48:08.872Z</time></trkpt><trkpt lat="42.2132233" lon="14.5794733"><ele>62.0</ele><time>2026-04-16T13:48:10.872Z</time></trkpt><trkpt lat="42.21329" lon="14.5796333"><ele>60.8</ele><time>2026-04-16T13:48:12.872Z</time></trkpt><trkpt lat="42.2133567" lon="14.5797567"><ele>59.6</ele><time>2026-04-16T13:48:14.872Z</time></trkpt><trkpt lat="42.2134033" lon="14.579875"><ele>58.39999999999999</ele><time>2026-04-16T13:48:16.871Z</time></trkpt><trkpt lat="42.2134383" lon="14.5799933"><ele>57.199999999999996</ele><time>2026-04-16T13:48:18.872Z</time></trkpt><trkpt lat="42.2134617" lon="14.580125"><ele>56.0</ele><time>2026-04-16T13:48:20.871Z</time></trkpt><trkpt lat="42.2134617" lon="14.58026"><ele>54.599999999999994</ele><time>2026-04-16T13:48:22.872Z</time></trkpt><trkpt lat="42.213445" lon="14.5803783"><ele>53.199999999999996</ele><time>2026-04-16T13:48:24.872Z</time></trkpt><trkpt lat="42.2134133" lon="14.5804933"><ele>51.8</ele><time>2026-04-16T13:48:26.871Z</time></trkpt><trkpt lat="42.2133933" lon="14.58059"><ele>50.400000000000006</ele><time>2026-04-16T13:48:28.872Z</time></trkpt><trkpt lat="42.21341" lon="14.5807833"><ele>49.0</ele><time>2026-04-16T13:48:30.872Z</time></trkpt><trkpt lat="42.21345" lon="14.5808983"><ele>49.0</ele><time>2026-04-16T13:48:32.872Z</time></trkpt><trkpt lat="42.2135" lon="14.580965"><ele>49.0</ele><time>2026-04-16T13:48:33.872Z</time></trkpt><trkpt lat="42.2135983" lon="14.581065"><ele>49.0</ele><time>2026-04-16T13:48:35.872Z</time></trkpt><trkpt lat="42.21367" lon="14.5811117"><ele>49.0</ele><time>2026-04-16T13:48:37.872Z</time></trkpt><trkpt lat="42.2137067" lon="14.5812167"><ele>49.0</ele><time>2026-04-16T13:48:40.871Z</time></trkpt><trkpt lat="42.213715" lon="14.5813733"><ele>46.800000000000004</ele><time>2026-04-16T13:48:42.872Z</time></trkpt><trkpt lat="42.213725" lon="14.5815183"><ele>44.6</ele><time>2026-04-16T13:48:44.872Z</time></trkpt><trkpt lat="42.2137417" lon="14.5816417"><ele>42.4</ele><time>2026-04-16T13:48:46.872Z</time></trkpt><trkpt lat="42.2138" lon="14.58174"><ele>40.2</ele><time>2026-04-16T13:48:48.872Z</time></trkpt><trkpt lat="42.2138867" lon="14.5818167"><ele>38.0</ele><time>2026-04-16T13:48:50.871Z</time></trkpt><trkpt lat="42.21398" lon="14.58189"><ele>35.83333333333333</ele><time>2026-04-16T13:48:52.872Z</time></trkpt><trkpt lat="42.2140383" lon="14.58196"><ele>33.666666666666664</ele><time>2026-04-16T13:48:53.872Z</time></trkpt><trkpt lat="42.2141117" lon="14.5820417"><ele>31.5</ele><time>2026-04-16T13:48:55.872Z</time></trkpt><trkpt lat="42.2141683" lon="14.5820933"><ele>29.333333333333336</ele><time>2026-04-16T13:48:58.872Z</time></trkpt><trkpt lat="42.2141367" lon="14.5821967"><ele>27.166666666666668</ele><time>2026-04-16T13:49:03.872Z</time></trkpt><trkpt lat="42.2140983" lon="14.5822833"><ele>25.0</ele><time>2026-04-16T13:49:06.871Z</time></trkpt><trkpt lat="42.2140717" lon="14.5823767"><ele>24.000000000000004</ele><time>2026-04-16T13:49:10.872Z</time></trkpt><trkpt lat="42.2140683" lon="14.5824767"><ele>23.0</ele><time>2026-04-16T13:49:19.871Z</time></trkpt><trkpt lat="42.2141417" lon="14.5825033"><ele>22.0</ele><time>2026-04-16T13:49:22.872Z</time></trkpt><trkpt lat="42.2142283" lon="14.5824317"><ele>21.0</ele><time>2026-04-16T13:49:25.872Z</time></trkpt><trkpt lat="42.2143" lon="14.5823633"><ele>20.0</ele><time>2026-04-16T13:49:27.872Z</time></trkpt><trkpt lat="42.2143833" lon="14.582355"><ele>19.0</ele><time>2026-04-16T13:49:29.871Z</time></trkpt><trkpt lat="42.2144683" lon="14.5824167"><ele>19.0</ele><time>2026-04-16T13:49:31.871Z</time></trkpt><trkpt lat="42.2145583" lon="14.5824933"><ele>19.0</ele><time>2026-04-16T13:49:33.872Z</time></trkpt><trkpt lat="42.2146383" lon="14.5825517"><ele>19.0</ele><time>2026-04-16T13:49:35.872Z</time></trkpt><trkpt lat="42.2147183" lon="14.5825617"><ele>19.0</ele><time>2026-04-16T13:49:37.872Z</time></trkpt><trkpt lat="42.2147867" lon="14.58254"><ele>19.0</ele><time>2026-04-16T13:49:39.872Z</time></trkpt><trkpt lat="42.2148567" lon="14.582495"><ele>19.0</ele><time>2026-04-16T13:49:42.872Z</time></trkpt><trkpt lat="42.2148117" lon="14.582575"><ele>19.0</ele><time>2026-04-16T13:49:49.871Z</time></trkpt><trkpt lat="42.21476" lon="14.5826267"><ele>19.0</ele><time>2026-04-16T13:49:51.872Z</time></trkpt><trkpt lat="42.2147067" lon="14.582705"><ele>19.0</ele><time>2026-04-16T13:49:53.871Z</time></trkpt><trkpt lat="42.2146533" lon="14.5828"><ele>19.0</ele><time>2026-04-16T13:49:55.872Z</time></trkpt><trkpt lat="42.2145967" lon="14.5829017"><ele>19.0</ele><time>2026-04-16T13:49:57.871Z</time></trkpt><trkpt lat="42.2145333" lon="14.5830033"><ele>19.0</ele><time>2026-04-16T13:49:59.871Z</time></trkpt><trkpt lat="42.2144667" lon="14.5831183"><ele>18.2</ele><time>2026-04-16T13:50:01.871Z</time></trkpt><trkpt lat="42.214405" lon="14.5832233"><ele>17.4</ele><time>2026-04-16T13:50:03.872Z</time></trkpt><trkpt lat="42.2143283" lon="14.5833317"><ele>16.6</ele><time>2026-04-16T13:50:05.872Z</time></trkpt><trkpt lat="42.2142617" lon="14.5834483"><ele>15.8</ele><time>2026-04-16T13:50:07.872Z</time></trkpt><trkpt lat="42.2141867" lon="14.5835633"><ele>15.0</ele><time>2026-04-16T13:50:09.872Z</time></trkpt><trkpt lat="42.21411" lon="14.583675"><ele>16.166666666666668</ele><time>2026-04-16T13:50:11.871Z</time></trkpt><trkpt lat="42.2140683" lon="14.5837533"><ele>17.333333333333332</ele><time>2026-04-16T13:50:12.872Z</time></trkpt><trkpt lat="42.2140317" lon="14.5838233"><ele>18.5</ele><time>2026-04-16T13:50:13.872Z</time></trkpt><trkpt lat="42.2139617" lon="14.5839667"><ele>19.666666666666664</ele><time>2026-04-16T13:50:15.872Z</time></trkpt><trkpt lat="42.2139267" lon="14.58404"><ele>20.833333333333332</ele><time>2026-04-16T13:50:16.872Z</time></trkpt><trkpt lat="42.213885" lon="14.5841067"><ele>22.0</ele><time>2026-04-16T13:50:17.872Z</time></trkpt><trkpt lat="42.2138117" lon="14.5842383"><ele>22.0</ele><time>2026-04-16T13:50:19.871Z</time></trkpt><trkpt lat="42.2137383" lon="14.5843733"><ele>22.0</ele><time>2026-04-16T13:50:21.871Z</time></trkpt><trkpt lat="42.2136683" lon="14.5845"><ele>22.0</ele><time>2026-04-16T13:50:23.872Z</time></trkpt><trkpt lat="42.2135983" lon="14.5846267"><ele>22.0</ele><time>2026-04-16T13:50:25.872Z</time></trkpt><trkpt lat="42.2135233" lon="14.5847483"><ele>19.5</ele><time>2026-04-16T13:50:27.872Z</time></trkpt><trkpt lat="42.21345" lon="14.5848617"><ele>17.0</ele><time>2026-04-16T13:50:29.872Z</time></trkpt><trkpt lat="42.2133783" lon="14.5849817"><ele>14.5</ele><time>2026-04-16T13:50:31.871Z</time></trkpt><trkpt lat="42.2133117" lon="14.5851033"><ele>12.0</ele><time>2026-04-16T13:50:33.872Z</time></trkpt><trkpt lat="42.2132417" lon="14.5852367"><ele>12.8</ele><time>2026-04-16T13:50:35.872Z</time></trkpt><trkpt lat="42.2131767" lon="14.585365"><ele>13.6</ele><time>2026-04-16T13:50:37.872Z</time></trkpt><trkpt lat="42.2131117" lon="14.585495"><ele>14.400000000000002</ele><time>2026-04-16T13:50:39.872Z</time></trkpt><trkpt lat="42.21308" lon="14.585575"><ele>15.200000000000001</ele><time>2026-04-16T13:50:40.872Z</time></trkpt><trkpt lat="42.2130417" lon="14.5856467"><ele>16.0</ele><time>2026-04-16T13:50:41.871Z</time></trkpt><trkpt lat="42.21298" lon="14.585775"><ele>16.0</ele><time>2026-04-16T13:50:43.871Z</time></trkpt><trkpt lat="42.2129183" lon="14.5859067"><ele>16.0</ele><time>2026-04-16T13:50:45.872Z</time></trkpt><trkpt lat="42.2128583" lon="14.58604"><ele>16.0</ele><time>2026-04-16T13:50:47.872Z</time></trkpt><trkpt lat="42.2127883" lon="14.5861633"><ele>16.0</ele><time>2026-04-16T13:50:49.871Z</time></trkpt><trkpt lat="42.21272" lon="14.5862933"><ele>14.25</ele><time>2026-04-16T13:50:51.872Z</time></trkpt><trkpt lat="42.21265" lon="14.5864233"><ele>12.5</ele><time>2026-04-16T13:50:53.872Z</time></trkpt><trkpt lat="42.212585" lon="14.5865567"><ele>10.75</ele><time>2026-04-16T13:50:55.871Z</time></trkpt><trkpt lat="42.21252" lon="14.5866933"><ele>9.0</ele><time>2026-04-16T13:50:57.872Z</time></trkpt><trkpt lat="42.212455" lon="14.5868283"><ele>9.0</ele><time>2026-04-16T13:50:59.872Z</time></trkpt><trkpt lat="42.2123867" lon="14.5869617"><ele>9.0</ele><time>2026-04-16T13:51:01.872Z</time></trkpt><trkpt lat="42.212325" lon="14.5871017"><ele>9.0</ele><time>2026-04-16T13:51:03.873Z</time></trkpt><trkpt lat="42.212255" lon="14.5872317"><ele>9.0</ele><time>2026-04-16T13:51:05.872Z</time></trkpt><trkpt lat="42.2121883" lon="14.58736"><ele>10.5</ele><time>2026-04-16T13:51:07.872Z</time></trkpt><trkpt lat="42.2121267" lon="14.587505"><ele>12.0</ele><time>2026-04-16T13:51:09.873Z</time></trkpt><trkpt lat="42.2120633" lon="14.587635"><ele>13.5</ele><time>2026-04-16T13:51:11.872Z</time></trkpt><trkpt lat="42.212" lon="14.5877583"><ele>15.0</ele><time>2026-04-16T13:51:13.872Z</time></trkpt><trkpt lat="42.21194" lon="14.5878833"><ele>15.0</ele><time>2026-04-16T13:51:15.873Z</time></trkpt><trkpt lat="42.211875" lon="14.5880133"><ele>15.0</ele><time>2026-04-16T13:51:17.872Z</time></trkpt><trkpt lat="42.21181" lon="14.5881417"><ele>15.0</ele><time>2026-04-16T13:51:19.873Z</time></trkpt><trkpt lat="42.2117417" lon="14.5882683"><ele>15.0</ele><time>2026-04-16T13:51:21.873Z</time></trkpt><trkpt lat="42.21167" lon="14.5883967"><ele>15.0</ele><time>2026-04-16T13:51:23.872Z</time></trkpt><trkpt lat="42.2116367" lon="14.588475"><ele>15.0</ele><time>2026-04-16T13:51:24.872Z</time></trkpt><trkpt lat="42.2115767" lon="14.588615"><ele>15.0</ele><time>2026-04-16T13:51:26.873Z</time></trkpt><trkpt lat="42.211515" lon="14.5887517"><ele>15.0</ele><time>2026-04-16T13:51:28.873Z</time></trkpt><trkpt lat="42.2114533" lon="14.5888933"><ele>15.0</ele><time>2026-04-16T13:51:30.873Z</time></trkpt><trkpt lat="42.2113867" lon="14.589035"><ele>14.75</ele><time>2026-04-16T13:51:32.873Z</time></trkpt><trkpt lat="42.211325" lon="14.5891767"><ele>14.5</ele><time>2026-04-16T13:51:34.873Z</time></trkpt><trkpt lat="42.2112683" lon="14.5893217"><ele>14.25</ele><time>2026-04-16T13:51:36.873Z</time></trkpt><trkpt lat="42.2112167" lon="14.5894683"><ele>14.0</ele><time>2026-04-16T13:51:38.873Z</time></trkpt><trkpt lat="42.21116" lon="14.5896117"><ele>14.0</ele><time>2026-04-16T13:51:40.872Z</time></trkpt><trkpt lat="42.2111067" lon="14.58976"><ele>13.999999999999998</ele><time>2026-04-16T13:51:42.872Z</time></trkpt><trkpt lat="42.2110617" lon="14.5899133"><ele>13.999999999999998</ele><time>2026-04-16T13:51:44.872Z</time></trkpt><trkpt lat="42.211005" lon="14.5900617"><ele>14.0</ele><time>2026-04-16T13:51:46.873Z</time></trkpt><trkpt lat="42.2109717" lon="14.5901367"><ele>14.0</ele><time>2026-04-16T13:51:47.873Z</time></trkpt><trkpt lat="42.210915" lon="14.5902833"><ele>12.500000000000002</ele><time>2026-04-16T13:51:49.873Z</time></trkpt><trkpt lat="42.2108867" lon="14.59036"><ele>11.0</ele><time>2026-04-16T13:51:50.872Z</time></trkpt><trkpt lat="42.21083" lon="14.5905083"><ele>9.5</ele><time>2026-04-16T13:51:52.872Z</time></trkpt><trkpt lat="42.2107633" lon="14.590655"><ele>8.0</ele><time>2026-04-16T13:51:54.872Z</time></trkpt><trkpt lat="42.2107283" lon="14.59073"><ele>6.5</ele><time>2026-04-16T13:51:55.873Z</time></trkpt><trkpt lat="42.210695" lon="14.5908033"><ele>5.0</ele><time>2026-04-16T13:51:56.873Z</time></trkpt><trkpt lat="42.21064" lon="14.590945"><ele>7.5</ele><time>2026-04-16T13:51:58.873Z</time></trkpt><trkpt lat="42.2105817" lon="14.5910883"><ele>10.0</ele><time>2026-04-16T13:52:00.873Z</time></trkpt><trkpt lat="42.210525" lon="14.5912283"><ele>12.5</ele><time>2026-04-16T13:52:02.873Z</time></trkpt><trkpt lat="42.2104667" lon="14.5913733"><ele>15.0</ele><time>2026-04-16T13:52:04.872Z</time></trkpt><trkpt lat="42.210405" lon="14.5915117"><ele>15.0</ele><time>2026-04-16T13:52:06.872Z</time></trkpt><trkpt lat="42.2103417" lon="14.591645"><ele>15.0</ele><time>2026-04-16T13:52:08.872Z</time></trkpt><trkpt lat="42.2102833" lon="14.5917833"><ele>15.0</ele><time>2026-04-16T13:52:10.873Z</time></trkpt><trkpt lat="42.21021" lon="14.59192"><ele>15.0</ele><time>2026-04-16T13:52:12.873Z</time></trkpt><trkpt lat="42.2101433" lon="14.5920617"><ele>13.0</ele><time>2026-04-16T13:52:14.873Z</time></trkpt><trkpt lat="42.21008" lon="14.5922017"><ele>11.0</ele><time>2026-04-16T13:52:16.873Z</time></trkpt><trkpt lat="42.210015" lon="14.59234"><ele>9.0</ele><time>2026-04-16T13:52:18.872Z</time></trkpt><trkpt lat="42.20995" lon="14.5924783"><ele>7.0</ele><time>2026-04-16T13:52:20.873Z</time></trkpt><trkpt lat="42.209875" lon="14.5926083"><ele>8.5</ele><time>2026-04-16T13:52:22.873Z</time></trkpt><trkpt lat="42.2097983" lon="14.592735"><ele>10.0</ele><time>2026-04-16T13:52:24.872Z</time></trkpt><trkpt lat="42.209725" lon="14.5928567"><ele>11.5</ele><time>2026-04-16T13:52:26.873Z</time></trkpt><trkpt lat="42.209645" lon="14.592985"><ele>13.0</ele><time>2026-04-16T13:52:28.873Z</time></trkpt><trkpt lat="42.209575" lon="14.5931133"><ele>13.0</ele><time>2026-04-16T13:52:30.872Z</time></trkpt><trkpt lat="42.2094983" lon="14.5932383"><ele>13.0</ele><time>2026-04-16T13:52:32.872Z</time></trkpt><trkpt lat="42.20942" lon="14.5933633"><ele>13.0</ele><time>2026-04-16T13:52:34.873Z</time></trkpt><trkpt lat="42.209345" lon="14.5934883"><ele>13.0</ele><time>2026-04-16T13:52:36.873Z</time></trkpt><trkpt lat="42.2093083" lon="14.5935583"><ele>13.0</ele><time>2026-04-16T13:52:37.873Z</time></trkpt><trkpt lat="42.209275" lon="14.5936433"><ele>14.0</ele><time>2026-04-16T13:52:38.873Z</time></trkpt><trkpt lat="42.2092067" lon="14.593775"><ele>15.0</ele><time>2026-04-16T13:52:40.873Z</time></trkpt><trkpt lat="42.209135" lon="14.5939017"><ele>16.0</ele><time>2026-04-16T13:52:42.872Z</time></trkpt><trkpt lat="42.2090967" lon="14.593975"><ele>17.0</ele><time>2026-04-16T13:52:43.873Z</time></trkpt><trkpt lat="42.2090233" lon="14.594105"><ele>18.0</ele><time>2026-04-16T13:52:45.873Z</time></trkpt><trkpt lat="42.2089417" lon="14.5942333"><ele>18.0</ele><time>2026-04-16T13:52:47.873Z</time></trkpt><trkpt lat="42.208865" lon="14.5943567"><ele>18.0</ele><time>2026-04-16T13:52:49.873Z</time></trkpt><trkpt lat="42.2087917" lon="14.5944833"><ele>18.0</ele><time>2026-04-16T13:52:51.873Z</time></trkpt><trkpt lat="42.208715" lon="14.5946083"><ele>18.0</ele><time>2026-04-16T13:52:53.873Z</time></trkpt><trkpt lat="42.2086467" lon="14.5947417"><ele>17.0</ele><time>2026-04-16T13:52:55.872Z</time></trkpt><trkpt lat="42.208575" lon="14.59487"><ele>16.0</ele><time>2026-04-16T13:52:57.873Z</time></trkpt><trkpt lat="42.2085033" lon="14.595"><ele>15.0</ele><time>2026-04-16T13:52:59.873Z</time></trkpt><trkpt lat="42.2084233" lon="14.59513"><ele>14.0</ele><time>2026-04-16T13:53:01.873Z</time></trkpt><trkpt lat="42.2083483" lon="14.595255"><ele>14.799999999999999</ele><time>2026-04-16T13:53:03.873Z</time></trkpt><trkpt lat="42.2082733" lon="14.5953867"><ele>15.599999999999998</ele><time>2026-04-16T13:53:05.873Z</time></trkpt><trkpt lat="42.2082367" lon="14.5954583"><ele>16.4</ele><time>2026-04-16T13:53:06.873Z</time></trkpt><trkpt lat="42.2081683" lon="14.5955883"><ele>17.2</ele><time>2026-04-16T13:53:08.873Z</time></trkpt><trkpt lat="42.2081033" lon="14.5957167"><ele>18.0</ele><time>2026-04-16T13:53:10.872Z</time></trkpt><trkpt lat="42.2080417" lon="14.5958483"><ele>18.0</ele><time>2026-04-16T13:53:12.873Z</time></trkpt><trkpt lat="42.20798" lon="14.5959817"><ele>18.0</ele><time>2026-04-16T13:53:14.872Z</time></trkpt><trkpt lat="42.20791" lon="14.596115"><ele>18.0</ele><time>2026-04-16T13:53:16.873Z</time></trkpt><trkpt lat="42.207845" lon="14.5962533"><ele>18.0</ele><time>2026-04-16T13:53:18.872Z</time></trkpt><trkpt lat="42.2077817" lon="14.5963917"><ele>17.0</ele><time>2026-04-16T13:53:20.873Z</time></trkpt><trkpt lat="42.2077233" lon="14.59653"><ele>16.0</ele><time>2026-04-16T13:53:22.873Z</time></trkpt><trkpt lat="42.2076683" lon="14.5966733"><ele>15.0</ele><time>2026-04-16T13:53:24.872Z</time></trkpt><trkpt lat="42.2076183" lon="14.59682"><ele>14.0</ele><time>2026-04-16T13:53:26.872Z</time></trkpt><trkpt lat="42.207575" lon="14.5969717"><ele>15.0</ele><time>2026-04-16T13:53:28.872Z</time></trkpt><trkpt lat="42.207525" lon="14.5971133"><ele>15.999999999999998</ele><time>2026-04-16T13:53:30.872Z</time></trkpt><trkpt lat="42.2074683" lon="14.597245"><ele>17.0</ele><time>2026-04-16T13:53:32.872Z</time></trkpt><trkpt lat="42.2074167" lon="14.5973767"><ele>18.0</ele><time>2026-04-16T13:53:34.872Z</time></trkpt><trkpt lat="42.2073583" lon="14.5975017"><ele>19.0</ele><time>2026-04-16T13:53:36.872Z</time></trkpt><trkpt lat="42.207295" lon="14.5976333"><ele>19.0</ele><time>2026-04-16T13:53:38.873Z</time></trkpt><trkpt lat="42.20723" lon="14.59775"><ele>19.0</ele><time>2026-04-16T13:53:40.873Z</time></trkpt><trkpt lat="42.207155" lon="14.5978633"><ele>19.0</ele><time>2026-04-16T13:53:42.873Z</time></trkpt><trkpt lat="42.2070833" lon="14.598005"><ele>19.0</ele><time>2026-04-16T13:53:44.872Z</time></trkpt><trkpt lat="42.2070233" lon="14.5981367"><ele>18.2</ele><time>2026-04-16T13:53:46.873Z</time></trkpt><trkpt lat="42.2069667" lon="14.598275"><ele>17.4</ele><time>2026-04-16T13:53:48.873Z</time></trkpt><trkpt lat="42.2069367" lon="14.5983517"><ele>16.6</ele><time>2026-04-16T13:53:49.872Z</time></trkpt><trkpt lat="42.20691" lon="14.5984317"><ele>15.8</ele><time>2026-04-16T13:53:50.872Z</time></trkpt><trkpt lat="42.2068533" lon="14.59858"><ele>15.0</ele><time>2026-04-16T13:53:52.872Z</time></trkpt><trkpt lat="42.2067933" lon="14.598725"><ele>13.25</ele><time>2026-04-16T13:53:54.872Z</time></trkpt><trkpt lat="42.206725" lon="14.5988633"><ele>11.5</ele><time>2026-04-16T13:53:56.873Z</time></trkpt><trkpt lat="42.2066617" lon="14.5990017"><ele>9.75</ele><time>2026-04-16T13:53:58.873Z</time></trkpt><trkpt lat="42.20661" lon="14.5991417"><ele>8.0</ele><time>2026-04-16T13:54:00.873Z</time></trkpt><trkpt lat="42.2065467" lon="14.5992717"><ele>8.75</ele><time>2026-04-16T13:54:02.872Z</time></trkpt><trkpt lat="42.2064867" lon="14.5994067"><ele>9.5</ele><time>2026-04-16T13:54:04.873Z</time></trkpt><trkpt lat="42.2064333" lon="14.599545"><ele>10.25</ele><time>2026-04-16T13:54:06.873Z</time></trkpt><trkpt lat="42.20637" lon="14.5996733"><ele>11.0</ele><time>2026-04-16T13:54:08.873Z</time></trkpt><trkpt lat="42.206305" lon="14.5997967"><ele>11.0</ele><time>2026-04-16T13:54:10.873Z</time></trkpt><trkpt lat="42.2062417" lon="14.5999233"><ele>11.0</ele><time>2026-04-16T13:54:12.872Z</time></trkpt><trkpt lat="42.20618" lon="14.600045"><ele>11.0</ele><time>2026-04-16T13:54:14.872Z</time></trkpt><trkpt lat="42.2061167" lon="14.6001733"><ele>11.0</ele><time>2026-04-16T13:54:16.873Z</time></trkpt><trkpt lat="42.2060617" lon="14.6003133"><ele>10.25</ele><time>2026-04-16T13:54:18.873Z</time></trkpt><trkpt lat="42.2060083" lon="14.600445"><ele>9.5</ele><time>2026-04-16T13:54:20.872Z</time></trkpt><trkpt lat="42.2059533" lon="14.6005767"><ele>8.75</ele><time>2026-04-16T13:54:22.873Z</time></trkpt><trkpt lat="42.2058983" lon="14.600715"><ele>8.0</ele><time>2026-04-16T13:54:24.873Z</time></trkpt><trkpt lat="42.2058533" lon="14.6008517"><ele>8.0</ele><time>2026-04-16T13:54:26.872Z</time></trkpt><trkpt lat="42.2057983" lon="14.6009883"><ele>8.0</ele><time>2026-04-16T13:54:28.873Z</time></trkpt><trkpt lat="42.205745" lon="14.601125"><ele>8.0</ele><time>2026-04-16T13:54:30.873Z</time></trkpt><trkpt lat="42.2056817" lon="14.6012567"><ele>8.0</ele><time>2026-04-16T13:54:32.872Z</time></trkpt><trkpt lat="42.2056267" lon="14.6013867"><ele>7.800000000000001</ele><time>2026-04-16T13:54:34.873Z</time></trkpt><trkpt lat="42.20557" lon="14.6015133"><ele>7.6000000000000005</ele><time>2026-04-16T13:54:36.872Z</time></trkpt><trkpt lat="42.2055117" lon="14.6016333"><ele>7.3999999999999995</ele><time>2026-04-16T13:54:38.873Z</time></trkpt><trkpt lat="42.2054483" lon="14.60176"><ele>7.199999999999999</ele><time>2026-04-16T13:54:40.873Z</time></trkpt><trkpt lat="42.2053917" lon="14.6018917"><ele>7.0</ele><time>2026-04-16T13:54:42.873Z</time></trkpt><trkpt lat="42.205335" lon="14.6020117"><ele>7.0</ele><time>2026-04-16T13:54:44.872Z</time></trkpt><trkpt lat="42.205275" lon="14.6021333"><ele>6.999999999999999</ele><time>2026-04-16T13:54:46.872Z</time></trkpt><trkpt lat="42.205215" lon="14.6022567"><ele>6.999999999999999</ele><time>2026-04-16T13:54:48.873Z</time></trkpt><trkpt lat="42.2051567" lon="14.60239"><ele>7.0</ele><time>2026-04-16T13:54:50.872Z</time></trkpt><trkpt lat="42.2051017" lon="14.60252"><ele>7.0</ele><time>2026-04-16T13:54:52.873Z</time></trkpt><trkpt lat="42.20505" lon="14.6026533"><ele>7.0</ele><time>2026-04-16T13:54:54.873Z</time></trkpt><trkpt lat="42.2049983" lon="14.6027917"><ele>6.999999999999999</ele><time>2026-04-16T13:54:56.872Z</time></trkpt><trkpt lat="42.2049383" lon="14.60292"><ele>6.999999999999999</ele><time>2026-04-16T13:54:58.873Z</time></trkpt><trkpt lat="42.2048817" lon="14.6030367"><ele>7.0</ele><time>2026-04-16T13:55:00.872Z</time></trkpt><trkpt lat="42.20482" lon="14.6031583"><ele>7.0</ele><time>2026-04-16T13:55:02.873Z</time></trkpt><trkpt lat="42.204765" lon="14.6032767"><ele>5.8</ele><time>2026-04-16T13:55:04.872Z</time></trkpt><trkpt lat="42.2047017" lon="14.603405"><ele>4.6</ele><time>2026-04-16T13:55:06.873Z</time></trkpt><trkpt lat="42.2046383" lon="14.603525"><ele>3.4</ele><time>2026-04-16T13:55:08.872Z</time></trkpt><trkpt lat="42.204575" lon="14.6036483"><ele>2.2</ele><time>2026-04-16T13:55:10.873Z</time></trkpt><trkpt lat="42.2045133" lon="14.6037717"><ele>1.0</ele><time>2026-04-16T13:55:12.873Z</time></trkpt><trkpt lat="42.2044683" lon="14.6039117"><ele>1.0</ele><time>2026-04-16T13:55:14.873Z</time></trkpt><trkpt lat="42.2044217" lon="14.60404"><ele>1.0</ele><time>2026-04-16T13:55:16.873Z</time></trkpt><trkpt lat="42.20437" lon="14.6041733"><ele>1.0</ele><time>2026-04-16T13:55:18.872Z</time></trkpt><trkpt lat="42.2043167" lon="14.6043067"><ele>1.0</ele><time>2026-04-16T13:55:20.873Z</time></trkpt><trkpt lat="42.2042633" lon="14.604435"><ele>1.0</ele><time>2026-04-16T13:55:22.872Z</time></trkpt><trkpt lat="42.204205" lon="14.6045667"><ele>1.0</ele><time>2026-04-16T13:55:24.872Z</time></trkpt><trkpt lat="42.2041517" lon="14.604695"><ele>1.0</ele><time>2026-04-16T13:55:26.873Z</time></trkpt><trkpt lat="42.2040983" lon="14.6048333"><ele>1.0</ele><time>2026-04-16T13:55:28.872Z</time></trkpt><trkpt lat="42.204045" lon="14.6049583"><ele>1.0</ele><time>2026-04-16T13:55:30.872Z</time></trkpt><trkpt lat="42.2039867" lon="14.6050883"><ele>1.0</ele><time>2026-04-16T13:55:32.872Z</time></trkpt><trkpt lat="42.2039283" lon="14.605215"><ele>0.8</ele><time>2026-04-16T13:55:34.873Z</time></trkpt><trkpt lat="42.20387" lon="14.6053417"><ele>0.6000000000000001</ele><time>2026-04-16T13:55:36.873Z</time></trkpt><trkpt lat="42.203815" lon="14.6054717"><ele>0.4</ele><time>2026-04-16T13:55:38.873Z</time></trkpt><trkpt lat="42.2037617" lon="14.6056"><ele>0.2</ele><time>2026-04-16T13:55:40.872Z</time></trkpt><trkpt lat="42.2037067" lon="14.6057233"><ele>0.0</ele><time>2026-04-16T13:55:42.873Z</time></trkpt><trkpt lat="42.2036483" lon="14.6058467"><ele>0.0</ele><time>2026-04-16T13:55:44.873Z</time></trkpt><trkpt lat="42.2035917" lon="14.605975"><ele>0.0</ele><time>2026-04-16T13:55:46.872Z</time></trkpt><trkpt lat="42.2035317" lon="14.6061117"><ele>0.0</ele><time>2026-04-16T13:55:48.873Z</time></trkpt><trkpt lat="42.2034783" lon="14.60625"><ele>0.0</ele><time>2026-04-16T13:55:50.873Z</time></trkpt><trkpt lat="42.20342" lon="14.60638"><ele>0.25</ele><time>2026-04-16T13:55:52.873Z</time></trkpt><trkpt lat="42.20336" lon="14.6065117"><ele>0.5</ele><time>2026-04-16T13:55:54.873Z</time></trkpt><trkpt lat="42.2033" lon="14.6066433"><ele>0.75</ele><time>2026-04-16T13:55:56.872Z</time></trkpt><trkpt lat="42.203245" lon="14.606775"><ele>1.0</ele><time>2026-04-16T13:55:58.873Z</time></trkpt><trkpt lat="42.2031883" lon="14.6069067"><ele>1.4</ele><time>2026-04-16T13:56:00.873Z</time></trkpt><trkpt lat="42.20313" lon="14.6070317"><ele>1.8</ele><time>2026-04-16T13:56:02.872Z</time></trkpt><trkpt lat="42.203075" lon="14.6071633"><ele>2.1999999999999997</ele><time>2026-04-16T13:56:04.873Z</time></trkpt><trkpt lat="42.2030167" lon="14.607295"><ele>2.6</ele><time>2026-04-16T13:56:06.873Z</time></trkpt><trkpt lat="42.20296" lon="14.607425"><ele>3.0</ele><time>2026-04-16T13:56:08.872Z</time></trkpt><trkpt lat="42.2029017" lon="14.6075533"><ele>3.0</ele><time>2026-04-16T13:56:10.873Z</time></trkpt><trkpt lat="42.202845" lon="14.6076833"><ele>3.0</ele><time>2026-04-16T13:56:12.872Z</time></trkpt><trkpt lat="42.20279" lon="14.6078133"><ele>3.0</ele><time>2026-04-16T13:56:14.873Z</time></trkpt><trkpt lat="42.20273" lon="14.607945"><ele>3.0</ele><time>2026-04-16T13:56:16.873Z</time></trkpt><trkpt lat="42.2026733" lon="14.6080783"><ele>3.25</ele><time>2026-04-16T13:56:18.872Z</time></trkpt><trkpt lat="42.20262" lon="14.6082133"><ele>3.5</ele><time>2026-04-16T13:56:20.872Z</time></trkpt><trkpt lat="42.202565" lon="14.6083517"><ele>3.75</ele><time>2026-04-16T13:56:22.873Z</time></trkpt><trkpt lat="42.2025117" lon="14.6084833"><ele>4.0</ele><time>2026-04-16T13:56:24.873Z</time></trkpt><trkpt lat="42.202455" lon="14.6086167"><ele>4.2</ele><time>2026-04-16T13:56:26.872Z</time></trkpt><trkpt lat="42.2024" lon="14.6087433"><ele>4.4</ele><time>2026-04-16T13:56:28.873Z</time></trkpt><trkpt lat="42.2023467" lon="14.608865"><ele>4.6</ele><time>2026-04-16T13:56:30.872Z</time></trkpt><trkpt lat="42.2022867" lon="14.6089933"><ele>4.8</ele><time>2026-04-16T13:56:32.872Z</time></trkpt><trkpt lat="42.2022333" lon="14.6091333"><ele>5.0</ele><time>2026-04-16T13:56:34.873Z</time></trkpt><trkpt lat="42.20218" lon="14.6092733"><ele>4.6</ele><time>2026-04-16T13:56:36.873Z</time></trkpt><trkpt lat="42.202125" lon="14.609415"><ele>4.2</ele><time>2026-04-16T13:56:38.873Z</time></trkpt><trkpt lat="42.2020683" lon="14.6095433"><ele>3.8</ele><time>2026-04-16T13:56:40.873Z</time></trkpt><trkpt lat="42.20202" lon="14.6096683"><ele>3.4</ele><time>2026-04-16T13:56:42.872Z</time></trkpt><trkpt lat="42.2019733" lon="14.609795"><ele>3.0</ele><time>2026-04-16T13:56:44.873Z</time></trkpt><trkpt lat="42.2019483" lon="14.60994"><ele>3.0</ele><time>2026-04-16T13:56:46.872Z</time></trkpt><trkpt lat="42.2019517" lon="14.610105"><ele>3.0</ele><time>2026-04-16T13:56:48.873Z</time></trkpt><trkpt lat="42.2019517" lon="14.6101983"><ele>3.0</ele><time>2026-04-16T13:56:49.873Z</time></trkpt><trkpt lat="42.2019483" lon="14.610295"><ele>3.0</ele><time>2026-04-16T13:56:50.873Z</time></trkpt><trkpt lat="42.2019367" lon="14.6103967"><ele>3.0</ele><time>2026-04-16T13:56:51.873Z</time></trkpt><trkpt lat="42.2019167" lon="14.6105"><ele>3.0</ele><time>2026-04-16T13:56:52.873Z</time></trkpt><trkpt lat="42.2018867" lon="14.610595"><ele>3.3333333333333335</ele><time>2026-04-16T13:56:53.872Z</time></trkpt><trkpt lat="42.2018567" lon="14.610685"><ele>3.666666666666667</ele><time>2026-04-16T13:56:54.873Z</time></trkpt><trkpt lat="42.2018233" lon="14.61077"><ele>4.0</ele><time>2026-04-16T13:56:55.873Z</time></trkpt><trkpt lat="42.2017967" lon="14.6108517"><ele>4.333333333333334</ele><time>2026-04-16T13:56:56.873Z</time></trkpt><trkpt lat="42.2017717" lon="14.6109317"><ele>4.666666666666667</ele><time>2026-04-16T13:56:57.873Z</time></trkpt><trkpt lat="42.2017283" lon="14.6110867"><ele>5.0</ele><time>2026-04-16T13:56:59.872Z</time></trkpt><trkpt lat="42.2016817" lon="14.6112367"><ele>5.0</ele><time>2026-04-16T13:57:01.873Z</time></trkpt><trkpt lat="42.20163" lon="14.6113717"><ele>5.0</ele><time>2026-04-16T13:57:03.873Z</time></trkpt><trkpt lat="42.2015883" lon="14.6114983"><ele>5.0</ele><time>2026-04-16T13:57:05.872Z</time></trkpt><trkpt lat="42.201545" lon="14.6116367"><ele>5.0</ele><time>2026-04-16T13:57:07.872Z</time></trkpt><trkpt lat="42.2014967" lon="14.611775"><ele>5.0</ele><time>2026-04-16T13:57:09.873Z</time></trkpt><trkpt lat="42.20145" lon="14.6119083"><ele>5.2</ele><time>2026-04-16T13:57:11.872Z</time></trkpt><trkpt lat="42.2014117" lon="14.6120467"><ele>5.4</ele><time>2026-04-16T13:57:13.872Z</time></trkpt><trkpt lat="42.20137" lon="14.6121917"><ele>5.6</ele><time>2026-04-16T13:57:15.872Z</time></trkpt><trkpt lat="42.201335" lon="14.6123333"><ele>5.8</ele><time>2026-04-16T13:57:17.873Z</time></trkpt><trkpt lat="42.2012983" lon="14.6124683"><ele>6.0</ele><time>2026-04-16T13:57:19.872Z</time></trkpt><trkpt lat="42.2012617" lon="14.6126083"><ele>6.0</ele><time>2026-04-16T13:57:21.873Z</time></trkpt><trkpt lat="42.2012217" lon="14.612725"><ele>6.0</ele><time>2026-04-16T13:57:23.872Z</time></trkpt><trkpt lat="42.2011833" lon="14.6128417"><ele>6.0</ele><time>2026-04-16T13:57:25.873Z</time></trkpt><trkpt lat="42.2011533" lon="14.6129467"><ele>6.0</ele><time>2026-04-16T13:57:27.872Z</time></trkpt><trkpt lat="42.2011217" lon="14.6130533"><ele>6.0</ele><time>2026-04-16T13:57:29.873Z</time></trkpt><trkpt lat="42.2010867" lon="14.6131617"><ele>6.0</ele><time>2026-04-16T13:57:31.873Z</time></trkpt><trkpt lat="42.20105" lon="14.6132617"><ele>6.166666666666667</ele><time>2026-04-16T13:57:33.873Z</time></trkpt><trkpt lat="42.2010167" lon="14.613355"><ele>6.333333333333334</ele><time>2026-04-16T13:57:35.872Z</time></trkpt><trkpt lat="42.200985" lon="14.6134583"><ele>6.5</ele><time>2026-04-16T13:57:37.873Z</time></trkpt><trkpt lat="42.2009483" lon="14.6135567"><ele>6.666666666666667</ele><time>2026-04-16T13:57:39.873Z</time></trkpt><trkpt lat="42.2009083" lon="14.6136583"><ele>6.833333333333334</ele><time>2026-04-16T13:57:41.873Z</time></trkpt><trkpt lat="42.20087" lon="14.6137733"><ele>7.0</ele><time>2026-04-16T13:57:43.872Z</time></trkpt><trkpt lat="42.200835" lon="14.6138917"><ele>6.6</ele><time>2026-04-16T13:57:45.872Z</time></trkpt><trkpt lat="42.20081" lon="14.6140083"><ele>6.199999999999999</ele><time>2026-04-16T13:57:47.871Z</time></trkpt><trkpt lat="42.20078" lon="14.6141283"><ele>5.8</ele><time>2026-04-16T13:57:49.872Z</time></trkpt><trkpt lat="42.2007517" lon="14.6142417"><ele>5.4</ele><time>2026-04-16T13:57:51.872Z</time></trkpt><trkpt lat="42.2007083" lon="14.6143733"><ele>5.0</ele><time>2026-04-16T13:57:53.871Z</time></trkpt><trkpt lat="42.2006783" lon="14.6145033"><ele>6.0</ele><time>2026-04-16T13:57:55.872Z</time></trkpt><trkpt lat="42.2006533" lon="14.61467"><ele>7.0</ele><time>2026-04-16T13:57:57.872Z</time></trkpt><trkpt lat="42.2006533" lon="14.6148317"><ele>8.0</ele><time>2026-04-16T13:57:59.871Z</time></trkpt><trkpt lat="42.2006333" lon="14.614975"><ele>9.0</ele><time>2026-04-16T13:58:01.871Z</time></trkpt><trkpt lat="42.2005867" lon="14.61511"><ele>9.0</ele><time>2026-04-16T13:58:03.872Z</time></trkpt><trkpt lat="42.200535" lon="14.6151867"><ele>9.0</ele><time>2026-04-16T13:58:05.871Z</time></trkpt><trkpt lat="42.2004817" lon="14.615275"><ele>9.0</ele><time>2026-04-16T13:58:08.872Z</time></trkpt><trkpt lat="42.20044" lon="14.6153617"><ele>9.0</ele><time>2026-04-16T13:58:10.872Z</time></trkpt><trkpt lat="42.2004" lon="14.6154483"><ele>9.0</ele><time>2026-04-16T13:58:12.871Z</time></trkpt><trkpt lat="42.2003433" lon="14.6155367"><ele>9.0</ele><time>2026-04-16T13:58:14.872Z</time></trkpt><trkpt lat="42.2002917" lon="14.6156233"><ele>8.0</ele><time>2026-04-16T13:58:16.872Z</time></trkpt><trkpt lat="42.200245" lon="14.61572"><ele>7.0</ele><time>2026-04-16T13:58:18.872Z</time></trkpt><trkpt lat="42.2002067" lon="14.6158283"><ele>6.0</ele><time>2026-04-16T13:58:20.871Z</time></trkpt><trkpt lat="42.2001683" lon="14.6159433"><ele>5.0</ele><time>2026-04-16T13:58:22.871Z</time></trkpt><trkpt lat="42.2001267" lon="14.616065"><ele>4.0</ele><time>2026-04-16T13:58:24.871Z</time></trkpt><trkpt lat="42.2000817" lon="14.6162"><ele>3.4000000000000004</ele><time>2026-04-16T13:58:26.872Z</time></trkpt><trkpt lat="42.20004" lon="14.6163267"><ele>2.8000000000000003</ele><time>2026-04-16T13:58:28.871Z</time></trkpt><trkpt lat="42.2000033" lon="14.6164467"><ele>2.2</ele><time>2026-04-16T13:58:30.872Z</time></trkpt><trkpt lat="42.199955" lon="14.61659"><ele>1.6</ele><time>2026-04-16T13:58:32.872Z</time></trkpt><trkpt lat="42.19991" lon="14.6167267"><ele>1.0</ele><time>2026-04-16T13:58:34.871Z</time></trkpt><trkpt lat="42.1998667" lon="14.6168617"><ele>2.25</ele><time>2026-04-16T13:58:36.872Z</time></trkpt><trkpt lat="42.1998233" lon="14.6170067"><ele>3.5</ele><time>2026-04-16T13:58:38.872Z</time></trkpt><trkpt lat="42.1997783" lon="14.6171383"><ele>4.75</ele><time>2026-04-16T13:58:40.871Z</time></trkpt><trkpt lat="42.1997317" lon="14.6172833"><ele>6.0</ele><time>2026-04-16T13:58:42.871Z</time></trkpt><trkpt lat="42.19968" lon="14.6174233"><ele>6.0</ele><time>2026-04-16T13:58:44.872Z</time></trkpt><trkpt lat="42.1996367" lon="14.6175683"><ele>6.0</ele><time>2026-04-16T13:58:46.871Z</time></trkpt><trkpt lat="42.1995867" lon="14.6177067"><ele>6.0</ele><time>2026-04-16T13:58:48.872Z</time></trkpt><trkpt lat="42.1995333" lon="14.61785"><ele>6.0</ele><time>2026-04-16T13:58:50.872Z</time></trkpt><trkpt lat="42.199485" lon="14.6179867"><ele>5.3999999999999995</ele><time>2026-04-16T13:58:52.871Z</time></trkpt><trkpt lat="42.199445" lon="14.6181233"><ele>4.8</ele><time>2026-04-16T13:58:54.872Z</time></trkpt><trkpt lat="42.1994017" lon="14.6182567"><ele>4.199999999999999</ele><time>2026-04-16T13:58:56.871Z</time></trkpt><trkpt lat="42.199355" lon="14.6183967"><ele>3.5999999999999996</ele><time>2026-04-16T13:58:58.872Z</time></trkpt><trkpt lat="42.1993017" lon="14.61852"><ele>3.0</ele><time>2026-04-16T13:59:00.871Z</time></trkpt><trkpt lat="42.1992533" lon="14.6186417"><ele>2.8</ele><time>2026-04-16T13:59:02.871Z</time></trkpt><trkpt lat="42.1992133" lon="14.61877"><ele>2.5999999999999996</ele><time>2026-04-16T13:59:04.872Z</time></trkpt><trkpt lat="42.1991683" lon="14.6189067"><ele>2.4000000000000004</ele><time>2026-04-16T13:59:06.872Z</time></trkpt><trkpt lat="42.19913" lon="14.61905"><ele>2.2</ele><time>2026-04-16T13:59:08.872Z</time></trkpt><trkpt lat="42.199085" lon="14.6191883"><ele>2.0</ele><time>2026-04-16T13:59:10.872Z</time></trkpt><trkpt lat="42.1990417" lon="14.61931"><ele>3.2</ele><time>2026-04-16T13:59:12.872Z</time></trkpt><trkpt lat="42.1989917" lon="14.619445"><ele>4.4</ele><time>2026-04-16T13:59:14.872Z</time></trkpt><trkpt lat="42.1989483" lon="14.6195717"><ele>5.6000000000000005</ele><time>2026-04-16T13:59:16.872Z</time></trkpt><trkpt lat="42.198905" lon="14.619705"><ele>6.800000000000001</ele><time>2026-04-16T13:59:18.872Z</time></trkpt><trkpt lat="42.1988683" lon="14.6198417"><ele>8.0</ele><time>2026-04-16T13:59:20.872Z</time></trkpt><trkpt lat="42.1988267" lon="14.6199817"><ele>8.25</ele><time>2026-04-16T13:59:22.872Z</time></trkpt><trkpt lat="42.198785" lon="14.6201183"><ele>8.5</ele><time>2026-04-16T13:59:24.871Z</time></trkpt><trkpt lat="42.1987417" lon="14.6202633"><ele>8.75</ele><time>2026-04-16T13:59:26.872Z</time></trkpt><trkpt lat="42.1987033" lon="14.6204083"><ele>9.0</ele><time>2026-04-16T13:59:28.872Z</time></trkpt><trkpt lat="42.1986667" lon="14.6205567"><ele>9.0</ele><time>2026-04-16T13:59:30.871Z</time></trkpt><trkpt lat="42.1986267" lon="14.6207"><ele>9.0</ele><time>2026-04-16T13:59:32.872Z</time></trkpt><trkpt lat="42.1985883" lon="14.6208417"><ele>9.0</ele><time>2026-04-16T13:59:34.871Z</time></trkpt><trkpt lat="42.19855" lon="14.6209917"><ele>9.0</ele><time>2026-04-16T13:59:36.871Z</time></trkpt><trkpt lat="42.1985067" lon="14.6211333"><ele>8.8</ele><time>2026-04-16T13:59:38.872Z</time></trkpt><trkpt lat="42.1984633" lon="14.62128"><ele>8.600000000000001</ele><time>2026-04-16T13:59:40.871Z</time></trkpt><trkpt lat="42.1984217" lon="14.6214233"><ele>8.4</ele><time>2026-04-16T13:59:42.871Z</time></trkpt><trkpt lat="42.19838" lon="14.6215633"><ele>8.200000000000001</ele><time>2026-04-16T13:59:44.872Z</time></trkpt><trkpt lat="42.19834" lon="14.62169"><ele>8.0</ele><time>2026-04-16T13:59:46.872Z</time></trkpt><trkpt lat="42.198305" lon="14.62183"><ele>8.0</ele><time>2026-04-16T13:59:48.871Z</time></trkpt><trkpt lat="42.1982617" lon="14.6219767"><ele>8.0</ele><time>2026-04-16T13:59:50.871Z</time></trkpt><trkpt lat="42.1982233" lon="14.6221233"><ele>8.0</ele><time>2026-04-16T13:59:52.872Z</time></trkpt><trkpt lat="42.19818" lon="14.6222717"><ele>8.0</ele><time>2026-04-16T13:59:54.872Z</time></trkpt><trkpt lat="42.198145" lon="14.6224133"><ele>8.600000000000001</ele><time>2026-04-16T13:59:56.871Z</time></trkpt><trkpt lat="42.1981033" lon="14.6225483"><ele>9.200000000000001</ele><time>2026-04-16T13:59:58.871Z</time></trkpt><trkpt lat="42.19806" lon="14.6226833"><ele>9.8</ele><time>2026-04-16T14:00:00.872Z</time></trkpt><trkpt lat="42.1980283" lon="14.6228283"><ele>10.4</ele><time>2026-04-16T14:00:02.871Z</time></trkpt><trkpt lat="42.1979817" lon="14.6229483"><ele>11.0</ele><time>2026-04-16T14:00:04.872Z</time></trkpt><trkpt lat="42.1979317" lon="14.6230767"><ele>11.0</ele><time>2026-04-16T14:00:06.871Z</time></trkpt><trkpt lat="42.1979017" lon="14.6232217"><ele>11.0</ele><time>2026-04-16T14:00:08.871Z</time></trkpt><trkpt lat="42.1978617" lon="14.6233583"><ele>11.0</ele><time>2026-04-16T14:00:10.872Z</time></trkpt><trkpt lat="42.1978233" lon="14.6234983"><ele>11.0</ele><time>2026-04-16T14:00:12.872Z</time></trkpt><trkpt lat="42.197785" lon="14.6236333"><ele>11.0</ele><time>2026-04-16T14:00:14.872Z</time></trkpt><trkpt lat="42.1977417" lon="14.6237783"><ele>10.5</ele><time>2026-04-16T14:00:16.872Z</time></trkpt><trkpt lat="42.1977033" lon="14.623925"><ele>10.0</ele><time>2026-04-16T14:00:18.872Z</time></trkpt><trkpt lat="42.1976633" lon="14.6240667"><ele>9.5</ele><time>2026-04-16T14:00:20.872Z</time></trkpt><trkpt lat="42.197625" lon="14.6242033"><ele>9.0</ele><time>2026-04-16T14:00:22.872Z</time></trkpt><trkpt lat="42.197575" lon="14.6243417"><ele>9.0</ele><time>2026-04-16T14:00:24.871Z</time></trkpt><trkpt lat="42.1975283" lon="14.6244733"><ele>9.0</ele><time>2026-04-16T14:00:26.872Z</time></trkpt><trkpt lat="42.1974833" lon="14.624605"><ele>9.0</ele><time>2026-04-16T14:00:28.872Z</time></trkpt><trkpt lat="42.1974383" lon="14.624745"><ele>9.0</ele><time>2026-04-16T14:00:30.871Z</time></trkpt><trkpt lat="42.1973867" lon="14.6248717"><ele>9.0</ele><time>2026-04-16T14:00:32.872Z</time></trkpt><trkpt lat="42.197335" lon="14.6250117"><ele>8.6</ele><time>2026-04-16T14:00:34.872Z</time></trkpt><trkpt lat="42.1972867" lon="14.6251433"><ele>8.2</ele><time>2026-04-16T14:00:36.871Z</time></trkpt><trkpt lat="42.1972367" lon="14.62528"><ele>7.799999999999999</ele><time>2026-04-16T14:00:38.872Z</time></trkpt><trkpt lat="42.1971883" lon="14.6254117"><ele>7.3999999999999995</ele><time>2026-04-16T14:00:40.871Z</time></trkpt><trkpt lat="42.1971417" lon="14.6255483"><ele>7.0</ele><time>2026-04-16T14:00:42.872Z</time></trkpt><trkpt lat="42.1970917" lon="14.62569"><ele>7.0</ele><time>2026-04-16T14:00:44.872Z</time></trkpt><trkpt lat="42.1970367" lon="14.62582"><ele>6.999999999999999</ele><time>2026-04-16T14:00:46.872Z</time></trkpt><trkpt lat="42.1969883" lon="14.62595"><ele>6.999999999999999</ele><time>2026-04-16T14:00:48.872Z</time></trkpt><trkpt lat="42.1969417" lon="14.626085"><ele>7.0</ele><time>2026-04-16T14:00:50.872Z</time></trkpt><trkpt lat="42.1968967" lon="14.6262167"><ele>7.0</ele><time>2026-04-16T14:00:52.871Z</time></trkpt><trkpt lat="42.196855" lon="14.6263483"><ele>5.25</ele><time>2026-04-16T14:00:54.872Z</time></trkpt><trkpt lat="42.1968067" lon="14.62649"><ele>3.5</ele><time>2026-04-16T14:00:56.872Z</time></trkpt><trkpt lat="42.1967533" lon="14.6266267"><ele>1.75</ele><time>2026-04-16T14:00:58.872Z</time></trkpt><trkpt lat="42.1967017" lon="14.62676"><ele>0.0</ele><time>2026-04-16T14:01:00.872Z</time></trkpt><trkpt lat="42.1966517" lon="14.6268983"><ele>0.4</ele><time>2026-04-16T14:01:02.872Z</time></trkpt><trkpt lat="42.196605" lon="14.6270367"><ele>0.8</ele><time>2026-04-16T14:01:04.872Z</time></trkpt><trkpt lat="42.1965533" lon="14.6271683"><ele>1.2000000000000002</ele><time>2026-04-16T14:01:06.871Z</time></trkpt><trkpt lat="42.1965033" lon="14.6273"><ele>1.6</ele><time>2026-04-16T14:01:08.871Z</time></trkpt><trkpt lat="42.1964533" lon="14.6274333"><ele>2.0</ele><time>2026-04-16T14:01:10.871Z</time></trkpt><trkpt lat="42.1964133" lon="14.62757"><ele>2.4000000000000004</ele><time>2026-04-16T14:01:12.872Z</time></trkpt><trkpt lat="42.1963683" lon="14.6277033"><ele>2.8000000000000003</ele><time>2026-04-16T14:01:14.872Z</time></trkpt><trkpt lat="42.1963217" lon="14.6278417"><ele>3.2</ele><time>2026-04-16T14:01:16.872Z</time></trkpt><trkpt lat="42.1962817" lon="14.62797"><ele>3.6</ele><time>2026-04-16T14:01:18.872Z</time></trkpt><trkpt lat="42.196245" lon="14.6280883"><ele>4.0</ele><time>2026-04-16T14:01:20.872Z</time></trkpt><trkpt lat="42.1962067" lon="14.6282017"><ele>4.0</ele><time>2026-04-16T14:01:22.871Z</time></trkpt><trkpt lat="42.1961783" lon="14.62829"><ele>3.9999999999999996</ele><time>2026-04-16T14:01:24.872Z</time></trkpt><trkpt lat="42.1961467" lon="14.628365"><ele>4.0</ele><time>2026-04-16T14:01:26.872Z</time></trkpt><trkpt lat="42.1961283" lon="14.6284517"><ele>4.0</ele><time>2026-04-16T14:01:28.872Z</time></trkpt><trkpt lat="42.196105" lon="14.6285417"><ele>3.9999999999999996</ele><time>2026-04-16T14:01:30.872Z</time></trkpt><trkpt lat="42.196085" lon="14.628635"><ele>4.0</ele><time>2026-04-16T14:01:32.872Z</time></trkpt><trkpt lat="42.1960767" lon="14.6287383"><ele>4.0</ele><time>2026-04-16T14:01:34.872Z</time></trkpt><trkpt lat="42.19607" lon="14.6288467"><ele>3.9999999999999996</ele><time>2026-04-16T14:01:36.872Z</time></trkpt><trkpt lat="42.1960733" lon="14.6289667"><ele>4.0</ele><time>2026-04-16T14:01:38.871Z</time></trkpt><trkpt lat="42.1960717" lon="14.6290917"><ele>4.0</ele><time>2026-04-16T14:01:40.871Z</time></trkpt><trkpt lat="42.1960417" lon="14.6291933"><ele>4.0</ele><time>2026-04-16T14:01:42.872Z</time></trkpt><trkpt lat="42.196" lon="14.6292883"><ele>3.9999999999999996</ele><time>2026-04-16T14:01:44.871Z</time></trkpt><trkpt lat="42.1959567" lon="14.6293767"><ele>4.0</ele><time>2026-04-16T14:01:46.871Z</time></trkpt><trkpt lat="42.19592" lon="14.6294667"><ele>3.833333333333333</ele><time>2026-04-16T14:01:48.872Z</time></trkpt><trkpt lat="42.1958967" lon="14.6295617"><ele>3.6666666666666665</ele><time>2026-04-16T14:01:50.871Z</time></trkpt><trkpt lat="42.19587" lon="14.6296567"><ele>3.5</ele><time>2026-04-16T14:01:52.871Z</time></trkpt><trkpt lat="42.1958433" lon="14.62976"><ele>3.333333333333333</ele><time>2026-04-16T14:01:54.871Z</time></trkpt><trkpt lat="42.1958083" lon="14.629875"><ele>3.1666666666666665</ele><time>2026-04-16T14:01:56.872Z</time></trkpt><trkpt lat="42.195765" lon="14.6299883"><ele>3.0</ele><time>2026-04-16T14:01:58.872Z</time></trkpt><trkpt lat="42.1957233" lon="14.6301"><ele>3.0</ele><time>2026-04-16T14:02:00.872Z</time></trkpt><trkpt lat="42.195685" lon="14.6302167"><ele>3.0</ele><time>2026-04-16T14:02:02.872Z</time></trkpt><trkpt lat="42.1956567" lon="14.63034"><ele>3.0</ele><time>2026-04-16T14:02:04.872Z</time></trkpt><trkpt lat="42.1956183" lon="14.6304783"><ele>3.0</ele><time>2026-04-16T14:02:06.872Z</time></trkpt><trkpt lat="42.195585" lon="14.6306183"><ele>3.0</ele><time>2026-04-16T14:02:08.872Z</time></trkpt><trkpt lat="42.1955467" lon="14.6307567"><ele>3.2</ele><time>2026-04-16T14:02:10.871Z</time></trkpt><trkpt lat="42.19551" lon="14.6308933"><ele>3.4</ele><time>2026-04-16T14:02:12.872Z</time></trkpt><trkpt lat="42.1954717" lon="14.631025"><ele>3.6000000000000005</ele><time>2026-04-16T14:02:14.872Z</time></trkpt><trkpt lat="42.1954383" lon="14.6311633"><ele>3.8000000000000003</ele><time>2026-04-16T14:02:16.872Z</time></trkpt><trkpt lat="42.1954067" lon="14.63131"><ele>4.0</ele><time>2026-04-16T14:02:18.871Z</time></trkpt><trkpt lat="42.1953783" lon="14.6314467"><ele>4.0</ele><time>2026-04-16T14:02:20.872Z</time></trkpt><trkpt lat="42.19534" lon="14.63159"><ele>4.0</ele><time>2026-04-16T14:02:22.871Z</time></trkpt><trkpt lat="42.1952983" lon="14.6317317"><ele>4.0</ele><time>2026-04-16T14:02:24.872Z</time></trkpt><trkpt lat="42.1952533" lon="14.6318733"><ele>4.0</ele><time>2026-04-16T14:02:26.871Z</time></trkpt><trkpt lat="42.1952133" lon="14.6320083"><ele>4.0</ele><time>2026-04-16T14:02:28.872Z</time></trkpt><trkpt lat="42.195175" lon="14.6321433"><ele>4.2</ele><time>2026-04-16T14:02:30.871Z</time></trkpt><trkpt lat="42.1951333" lon="14.63228"><ele>4.4</ele><time>2026-04-16T14:02:32.872Z</time></trkpt><trkpt lat="42.1950867" lon="14.632415"><ele>4.6</ele><time>2026-04-16T14:02:34.872Z</time></trkpt><trkpt lat="42.195045" lon="14.632555"><ele>4.8</ele><time>2026-04-16T14:02:36.872Z</time></trkpt><trkpt lat="42.195005" lon="14.6326967"><ele>5.0</ele><time>2026-04-16T14:02:38.872Z</time></trkpt><trkpt lat="42.19497" lon="14.6328433"><ele>5.2</ele><time>2026-04-16T14:02:40.872Z</time></trkpt><trkpt lat="42.1949333" lon="14.6329583"><ele>5.4</ele><time>2026-04-16T14:02:42.871Z</time></trkpt><trkpt lat="42.1948917" lon="14.6330867"><ele>5.6</ele><time>2026-04-16T14:02:44.871Z</time></trkpt><trkpt lat="42.1948533" lon="14.63321"><ele>5.8</ele><time>2026-04-16T14:02:46.871Z</time></trkpt><trkpt lat="42.1948217" lon="14.63333"><ele>6.0</ele><time>2026-04-16T14:02:48.872Z</time></trkpt><trkpt lat="42.1947917" lon="14.6334417"><ele>6.0</ele><time>2026-04-16T14:02:50.872Z</time></trkpt><trkpt lat="42.1947583" lon="14.6335533"><ele>6.0</ele><time>2026-04-16T14:02:52.871Z</time></trkpt><trkpt lat="42.1947267" lon="14.6336633"><ele>6.0</ele><time>2026-04-16T14:02:54.871Z</time></trkpt><trkpt lat="42.1947" lon="14.6337683"><ele>6.0</ele><time>2026-04-16T14:02:56.872Z</time></trkpt><trkpt lat="42.1946717" lon="14.6338717"><ele>6.0</ele><time>2026-04-16T14:02:58.872Z</time></trkpt><trkpt lat="42.19464" lon="14.6339733"><ele>6.0</ele><time>2026-04-16T14:03:00.872Z</time></trkpt><trkpt lat="42.1946033" lon="14.63405"><ele>5.666666666666667</ele><time>2026-04-16T14:03:02.872Z</time></trkpt><trkpt lat="42.19457" lon="14.6341583"><ele>5.333333333333333</ele><time>2026-04-16T14:03:04.872Z</time></trkpt><trkpt lat="42.1945433" lon="14.6342717"><ele>5.0</ele><time>2026-04-16T14:03:06.872Z</time></trkpt><trkpt lat="42.1945083" lon="14.6343733"><ele>4.666666666666666</ele><time>2026-04-16T14:03:08.871Z</time></trkpt><trkpt lat="42.194475" lon="14.6344617"><ele>4.333333333333333</ele><time>2026-04-16T14:03:10.872Z</time></trkpt><trkpt lat="42.1944417" lon="14.634555"><ele>4.0</ele><time>2026-04-16T14:03:12.872Z</time></trkpt><trkpt lat="42.1944067" lon="14.6346433"><ele>3.6</ele><time>2026-04-16T14:03:14.872Z</time></trkpt><trkpt lat="42.19437" lon="14.634755"><ele>3.2</ele><time>2026-04-16T14:03:16.872Z</time></trkpt><trkpt lat="42.19433" lon="14.6348917"><ele>2.8000000000000003</ele><time>2026-04-16T14:03:18.872Z</time></trkpt><trkpt lat="42.1943017" lon="14.6350117"><ele>2.4000000000000004</ele><time>2026-04-16T14:03:20.872Z</time></trkpt><trkpt lat="42.194265" lon="14.6351433"><ele>2.0</ele><time>2026-04-16T14:03:22.872Z</time></trkpt><trkpt lat="42.194235" lon="14.6352667"><ele>1.8333333333333333</ele><time>2026-04-16T14:03:24.872Z</time></trkpt><trkpt lat="42.1942017" lon="14.63539"><ele>1.6666666666666665</ele><time>2026-04-16T14:03:26.871Z</time></trkpt><trkpt lat="42.1941717" lon="14.6355017"><ele>1.5</ele><time>2026-04-16T14:03:28.872Z</time></trkpt><trkpt lat="42.1941383" lon="14.6356117"><ele>1.3333333333333333</ele><time>2026-04-16T14:03:30.872Z</time></trkpt><trkpt lat="42.1941067" lon="14.6357117"><ele>1.1666666666666665</ele><time>2026-04-16T14:03:32.871Z</time></trkpt><trkpt lat="42.19408" lon="14.6358167"><ele>1.0</ele><time>2026-04-16T14:03:34.872Z</time></trkpt><trkpt lat="42.1940533" lon="14.6359283"><ele>0.9999999999999999</ele><time>2026-04-16T14:03:36.872Z</time></trkpt><trkpt lat="42.1940267" lon="14.636045"><ele>1.0</ele><time>2026-04-16T14:03:38.872Z</time></trkpt><trkpt lat="42.193995" lon="14.6361483"><ele>1.0</ele><time>2026-04-16T14:03:40.871Z</time></trkpt><trkpt lat="42.1939583" lon="14.63624"><ele>1.0</ele><time>2026-04-16T14:03:42.871Z</time></trkpt><trkpt lat="42.1939267" lon="14.6363417"><ele>0.9999999999999999</ele><time>2026-04-16T14:03:44.872Z</time></trkpt><trkpt lat="42.1939067" lon="14.6364283"><ele>1.0</ele><time>2026-04-16T14:03:46.872Z</time></trkpt><trkpt lat="42.1938683" lon="14.6365267"><ele>0.9999999999999999</ele><time>2026-04-16T14:03:48.871Z</time></trkpt><trkpt lat="42.1938433" lon="14.6366217"><ele>1.0</ele><time>2026-04-16T14:03:50.871Z</time></trkpt><trkpt lat="42.193815" lon="14.6367283"><ele>1.0</ele><time>2026-04-16T14:03:52.872Z</time></trkpt><trkpt lat="42.1937883" lon="14.6368317"><ele>1.0</ele><time>2026-04-16T14:03:54.872Z</time></trkpt><trkpt lat="42.1937583" lon="14.63693"><ele>0.9999999999999999</ele><time>2026-04-16T14:03:56.871Z</time></trkpt><trkpt lat="42.193725" lon="14.6370383"><ele>1.0</ele><time>2026-04-16T14:03:58.871Z</time></trkpt><trkpt lat="42.1937017" lon="14.6371483"><ele>0.9999999999999999</ele><time>2026-04-16T14:04:00.872Z</time></trkpt><trkpt lat="42.1936667" lon="14.6372617"><ele>1.0</ele><time>2026-04-16T14:04:02.871Z</time></trkpt><trkpt lat="42.19364" lon="14.6373733"><ele>1.0</ele><time>2026-04-16T14:04:04.872Z</time></trkpt><trkpt lat="42.1936083" lon="14.637475"><ele>1.0</ele><time>2026-04-16T14:04:06.872Z</time></trkpt><trkpt lat="42.193575" lon="14.6375683"><ele>0.9999999999999999</ele><time>2026-04-16T14:04:08.872Z</time></trkpt><trkpt lat="42.193545" lon="14.6376733"><ele>1.0</ele><time>2026-04-16T14:04:10.872Z</time></trkpt><trkpt lat="42.1935117" lon="14.63778"><ele>1.0</ele><time>2026-04-16T14:04:12.872Z</time></trkpt><trkpt lat="42.193485" lon="14.6379017"><ele>1.0</ele><time>2026-04-16T14:04:14.872Z</time></trkpt><trkpt lat="42.193445" lon="14.6380067"><ele>1.0</ele><time>2026-04-16T14:04:16.872Z</time></trkpt><trkpt lat="42.19341" lon="14.6381283"><ele>1.0</ele><time>2026-04-16T14:04:18.871Z</time></trkpt><trkpt lat="42.1933817" lon="14.6382533"><ele>1.0</ele><time>2026-04-16T14:04:20.872Z</time></trkpt><trkpt lat="42.1933483" lon="14.6383733"><ele>1.0</ele><time>2026-04-16T14:04:22.872Z</time></trkpt><trkpt lat="42.1933117" lon="14.6385033"><ele>1.0</ele><time>2026-04-16T14:04:24.872Z</time></trkpt><trkpt lat="42.1932733" lon="14.6386317"><ele>1.0</ele><time>2026-04-16T14:04:26.871Z</time></trkpt><trkpt lat="42.1932383" lon="14.6387667"><ele>1.0</ele><time>2026-04-16T14:04:28.871Z</time></trkpt><trkpt lat="42.1932017" lon="14.6389067"><ele>1.0</ele><time>2026-04-16T14:04:30.872Z</time></trkpt><trkpt lat="42.1931683" lon="14.6390417"><ele>1.0</ele><time>2026-04-16T14:04:32.871Z</time></trkpt><trkpt lat="42.1931283" lon="14.6391817"><ele>1.0</ele><time>2026-04-16T14:04:34.872Z</time></trkpt><trkpt lat="42.19309" lon="14.639315"><ele>1.0</ele><time>2026-04-16T14:04:36.872Z</time></trkpt><trkpt lat="42.1930567" lon="14.63945"><ele>1.0</ele><time>2026-04-16T14:04:38.871Z</time></trkpt><trkpt lat="42.1930233" lon="14.6395883"><ele>1.0</ele><time>2026-04-16T14:04:40.872Z</time></trkpt><trkpt lat="42.1929933" lon="14.6397267"><ele>0.8</ele><time>2026-04-16T14:04:42.872Z</time></trkpt><trkpt lat="42.192955" lon="14.6398667"><ele>0.6000000000000001</ele><time>2026-04-16T14:04:44.872Z</time></trkpt><trkpt lat="42.19292" lon="14.6400083"><ele>0.4</ele><time>2026-04-16T14:04:46.871Z</time></trkpt><trkpt lat="42.1928883" lon="14.6401483"><ele>0.2</ele><time>2026-04-16T14:04:48.872Z</time></trkpt><trkpt lat="42.1928533" lon="14.6402983"><ele>0.0</ele><time>2026-04-16T14:04:50.872Z</time></trkpt><trkpt lat="42.1928217" lon="14.6404367"><ele>0.0</ele><time>2026-04-16T14:04:52.872Z</time></trkpt><trkpt lat="42.1927817" lon="14.6405717"><ele>0.0</ele><time>2026-04-16T14:04:54.872Z</time></trkpt><trkpt lat="42.19275" lon="14.6407167"><ele>0.0</ele><time>2026-04-16T14:04:56.872Z</time></trkpt><trkpt lat="42.1927217" lon="14.6408733"><ele>0.0</ele><time>2026-04-16T14:04:58.871Z</time></trkpt><trkpt lat="42.1926967" lon="14.641025"><ele>0.0</ele><time>2026-04-16T14:05:00.871Z</time></trkpt><trkpt lat="42.192665" lon="14.6411633"><ele>0.0</ele><time>2026-04-16T14:05:02.872Z</time></trkpt><trkpt lat="42.1926317" lon="14.6413033"><ele>0.0</ele><time>2026-04-16T14:05:04.871Z</time></trkpt><trkpt lat="42.19259" lon="14.6414417"><ele>0.0</ele><time>2026-04-16T14:05:06.871Z</time></trkpt><trkpt lat="42.19255" lon="14.6415817"><ele>0.0</ele><time>2026-04-16T14:05:08.872Z</time></trkpt><trkpt lat="42.1925133" lon="14.641725"><ele>0.0</ele><time>2026-04-16T14:05:10.871Z</time></trkpt><trkpt lat="42.1924733" lon="14.641865"><ele>0.0</ele><time>2026-04-16T14:05:12.871Z</time></trkpt><trkpt lat="42.19244" lon="14.6420017"><ele>0.0</ele><time>2026-04-16T14:05:14.872Z</time></trkpt><trkpt lat="42.1924067" lon="14.6421483"><ele>0.0</ele><time>2026-04-16T14:05:16.871Z</time></trkpt><trkpt lat="42.19237" lon="14.642285"><ele>0.0</ele><time>2026-04-16T14:05:18.872Z</time></trkpt><trkpt lat="42.1923233" lon="14.64241"><ele>0.0</ele><time>2026-04-16T14:05:20.871Z</time></trkpt><trkpt lat="42.192245" lon="14.6425167"><ele>0.0</ele><time>2026-04-16T14:05:22.872Z</time></trkpt><trkpt lat="42.1921533" lon="14.6426133"><ele>0.0</ele><time>2026-04-16T14:05:24.872Z</time></trkpt><trkpt lat="42.1920783" lon="14.6427233"><ele>0.0</ele><time>2026-04-16T14:05:26.871Z</time></trkpt><trkpt lat="42.1920017" lon="14.6428383"><ele>0.0</ele><time>2026-04-16T14:05:28.872Z</time></trkpt><trkpt lat="42.1919217" lon="14.642945"><ele>0.0</ele><time>2026-04-16T14:05:30.871Z</time></trkpt><trkpt lat="42.1918483" lon="14.64305"><ele>0.0</ele><time>2026-04-16T14:05:32.872Z</time></trkpt><trkpt lat="42.1917567" lon="14.6431467"><ele>0.0</ele><time>2026-04-16T14:05:34.871Z</time></trkpt><trkpt lat="42.19167" lon="14.6432367"><ele>0.0</ele><time>2026-04-16T14:05:36.871Z</time></trkpt><trkpt lat="42.19159" lon="14.6433267"><ele>0.0</ele><time>2026-04-16T14:05:38.872Z</time></trkpt><trkpt lat="42.1915133" lon="14.6434367"><ele>0.0</ele><time>2026-04-16T14:05:40.872Z</time></trkpt><trkpt lat="42.1914467" lon="14.6435583"><ele>0.0</ele><time>2026-04-16T14:05:42.872Z</time></trkpt><trkpt lat="42.1913833" lon="14.6436833"><ele>0.0</ele><time>2026-04-16T14:05:44.872Z</time></trkpt><trkpt lat="42.191315" lon="14.6438"><ele>0.0</ele><time>2026-04-16T14:05:46.872Z</time></trkpt><trkpt lat="42.1912517" lon="14.6439167"><ele>0.4</ele><time>2026-04-16T14:05:48.871Z</time></trkpt><trkpt lat="42.1911933" lon="14.6440367"><ele>0.8</ele><time>2026-04-16T14:05:50.871Z</time></trkpt><trkpt lat="42.1911283" lon="14.6441433"><ele>1.2000000000000002</ele><time>2026-04-16T14:05:52.871Z</time></trkpt><trkpt lat="42.191055" lon="14.6442467"><ele>1.6</ele><time>2026-04-16T14:05:54.872Z</time></trkpt><trkpt lat="42.1909733" lon="14.6443133"><ele>2.0</ele><time>2026-04-16T14:05:56.871Z</time></trkpt><trkpt lat="42.1908833" lon="14.644355"><ele>2.0</ele><time>2026-04-16T14:05:58.871Z</time></trkpt><trkpt lat="42.1907883" lon="14.6443833"><ele>2.0</ele><time>2026-04-16T14:06:00.872Z</time></trkpt><trkpt lat="42.1906833" lon="14.6444233"><ele>2.0</ele><time>2026-04-16T14:06:02.872Z</time></trkpt><trkpt lat="42.1905833" lon="14.6444617"><ele>2.0</ele><time>2026-04-16T14:06:04.871Z</time></trkpt><trkpt lat="42.1904817" lon="14.6444967"><ele>2.0</ele><time>2026-04-16T14:06:06.872Z</time></trkpt><trkpt lat="42.1903867" lon="14.6445267"><ele>2.1666666666666665</ele><time>2026-04-16T14:06:08.872Z</time></trkpt><trkpt lat="42.1903017" lon="14.64457"><ele>2.333333333333333</ele><time>2026-04-16T14:06:10.872Z</time></trkpt><trkpt lat="42.1902367" lon="14.6446333"><ele>2.5</ele><time>2026-04-16T14:06:12.871Z</time></trkpt><trkpt lat="42.1902067" lon="14.644725"><ele>2.6666666666666665</ele><time>2026-04-16T14:06:14.871Z</time></trkpt><trkpt lat="42.1901833" lon="14.6448283"><ele>2.8333333333333335</ele><time>2026-04-16T14:06:16.872Z</time></trkpt><trkpt lat="42.1901483" lon="14.6449317"><ele>3.0</ele><time>2026-04-16T14:06:18.871Z</time></trkpt><trkpt lat="42.1901117" lon="14.64504"><ele>3.0</ele><time>2026-04-16T14:06:20.871Z</time></trkpt><trkpt lat="42.1900833" lon="14.6451467"><ele>3.0</ele><time>2026-04-16T14:06:22.871Z</time></trkpt><trkpt lat="42.1900367" lon="14.645255"><ele>3.0</ele><time>2026-04-16T14:06:25.872Z</time></trkpt><trkpt lat="42.1899883" lon="14.6453433"><ele>3.0</ele><time>2026-04-16T14:06:28.872Z</time></trkpt><trkpt lat="42.1899467" lon="14.6454183"><ele>3.0</ele><time>2026-04-16T14:06:31.871Z</time></trkpt><trkpt lat="42.1899083" lon="14.6454933"><ele>3.0</ele><time>2026-04-16T14:06:34.872Z</time></trkpt><trkpt lat="42.18988" lon="14.6455733"><ele>3.0</ele><time>2026-04-16T14:06:37.872Z</time></trkpt><trkpt lat="42.1898567" lon="14.6456683"><ele>3.0</ele><time>2026-04-16T14:06:40.872Z</time></trkpt><trkpt lat="42.18982" lon="14.64576"><ele>3.0</ele><time>2026-04-16T14:06:43.872Z</time></trkpt><trkpt lat="42.1897967" lon="14.6458583"><ele>3.0</ele><time>2026-04-16T14:06:46.871Z</time></trkpt><trkpt lat="42.18977" lon="14.64597"><ele>3.0</ele><time>2026-04-16T14:06:49.872Z</time></trkpt><trkpt lat="42.189755" lon="14.6460617"><ele>3.0</ele><time>2026-04-16T14:06:51.872Z</time></trkpt><trkpt lat="42.18975" lon="14.6461583"><ele>3.3333333333333335</ele><time>2026-04-16T14:06:53.872Z</time></trkpt><trkpt lat="42.1897483" lon="14.6462517"><ele>3.666666666666667</ele><time>2026-04-16T14:06:55.871Z</time></trkpt><trkpt lat="42.1897467" lon="14.6463517"><ele>4.0</ele><time>2026-04-16T14:06:57.871Z</time></trkpt><trkpt lat="42.1897367" lon="14.6464433"><ele>4.333333333333334</ele><time>2026-04-16T14:06:59.871Z</time></trkpt><trkpt lat="42.18973" lon="14.64655"><ele>4.666666666666667</ele><time>2026-04-16T14:07:01.872Z</time></trkpt><trkpt lat="42.189725" lon="14.64666"><ele>5.0</ele><time>2026-04-16T14:07:03.872Z</time></trkpt><trkpt lat="42.189725" lon="14.6467683"><ele>5.0</ele><time>2026-04-16T14:07:05.872Z</time></trkpt><trkpt lat="42.1897367" lon="14.6468667"><ele>5.0</ele><time>2026-04-16T14:07:07.872Z</time></trkpt><trkpt lat="42.1897383" lon="14.6469617"><ele>5.0</ele><time>2026-04-16T14:07:09.872Z</time></trkpt><trkpt lat="42.1897383" lon="14.6470633"><ele>5.0</ele><time>2026-04-16T14:07:11.871Z</time></trkpt><trkpt lat="42.1897333" lon="14.64717"><ele>5.0</ele><time>2026-04-16T14:07:13.871Z</time></trkpt><trkpt lat="42.18973" lon="14.6472933"><ele>5.0</ele><time>2026-04-16T14:07:15.872Z</time></trkpt><trkpt lat="42.1897267" lon="14.6474183"><ele>4.833333333333334</ele><time>2026-04-16T14:07:17.872Z</time></trkpt><trkpt lat="42.189725" lon="14.6475333"><ele>4.666666666666667</ele><time>2026-04-16T14:07:19.872Z</time></trkpt><trkpt lat="42.18972" lon="14.6476533"><ele>4.5</ele><time>2026-04-16T14:07:21.872Z</time></trkpt><trkpt lat="42.1897167" lon="14.6477717"><ele>4.333333333333333</ele><time>2026-04-16T14:07:23.872Z</time></trkpt><trkpt lat="42.1897167" lon="14.6478883"><ele>4.166666666666666</ele><time>2026-04-16T14:07:25.872Z</time></trkpt><trkpt lat="42.189715" lon="14.648"><ele>4.0</ele><time>2026-04-16T14:07:27.872Z</time></trkpt><trkpt lat="42.1897083" lon="14.6481083"><ele>4.5</ele><time>2026-04-16T14:07:29.871Z</time></trkpt><trkpt lat="42.1897017" lon="14.6482083"><ele>5.0</ele><time>2026-04-16T14:07:31.871Z</time></trkpt><trkpt lat="42.189695" lon="14.6483183"><ele>5.5</ele><time>2026-04-16T14:07:33.871Z</time></trkpt><trkpt lat="42.189685" lon="14.6484317"><ele>6.0</ele><time>2026-04-16T14:07:35.872Z</time></trkpt><trkpt lat="42.1896783" lon="14.64854"><ele>6.500000000000001</ele><time>2026-04-16T14:07:37.871Z</time></trkpt><trkpt lat="42.1896767" lon="14.648655"><ele>7.0</ele><time>2026-04-16T14:07:39.872Z</time></trkpt><trkpt lat="42.18967" lon="14.6487617"><ele>7.666666666666667</ele><time>2026-04-16T14:07:41.872Z</time></trkpt><trkpt lat="42.1896633" lon="14.648875"><ele>8.333333333333334</ele><time>2026-04-16T14:07:43.872Z</time></trkpt><trkpt lat="42.189655" lon="14.6489867"><ele>9.0</ele><time>2026-04-16T14:07:45.872Z</time></trkpt><trkpt lat="42.1896483" lon="14.64909"><ele>9.666666666666666</ele><time>2026-04-16T14:07:47.872Z</time></trkpt><trkpt lat="42.1896417" lon="14.649195"><ele>10.333333333333332</ele><time>2026-04-16T14:07:49.872Z</time></trkpt><trkpt lat="42.1896417" lon="14.6492967"><ele>11.0</ele><time>2026-04-16T14:07:51.871Z</time></trkpt><trkpt lat="42.1896333" lon="14.649385"><ele>12.571428571428571</ele><time>2026-04-16T14:07:53.872Z</time></trkpt><trkpt lat="42.18961" lon="14.6494683"><ele>14.142857142857142</ele><time>2026-04-16T14:07:55.872Z</time></trkpt><trkpt lat="42.1895367" lon="14.6495267"><ele>15.714285714285715</ele><time>2026-04-16T14:07:58.872Z</time></trkpt><trkpt lat="42.1894817" lon="14.649585"><ele>17.285714285714285</ele><time>2026-04-16T14:08:01.872Z</time></trkpt><trkpt lat="42.1894217" lon="14.64964"><ele>18.857142857142858</ele><time>2026-04-16T14:08:05.871Z</time></trkpt><trkpt lat="42.189375" lon="14.6497017"><ele>20.42857142857143</ele><time>2026-04-16T14:08:09.871Z</time></trkpt><trkpt lat="42.1893433" lon="14.6498017"><ele>22.0</ele><time>2026-04-16T14:08:14.872Z</time></trkpt><trkpt lat="42.1893333" lon="14.6498933"><ele>22.0</ele><time>2026-04-16T14:08:18.872Z</time></trkpt><trkpt lat="42.1893233" lon="14.64998"><ele>22.0</ele><time>2026-04-16T14:08:24.871Z</time></trkpt><trkpt lat="42.1892633" lon="14.65003"><ele>22.0</ele><time>2026-04-16T14:08:31.871Z</time></trkpt><trkpt lat="42.189225" lon="14.6501417"><ele>22.0</ele><time>2026-04-16T14:08:40.871Z</time></trkpt><trkpt lat="42.1891933" lon="14.6502433"><ele>22.0</ele><time>2026-04-16T14:08:45.872Z</time></trkpt><trkpt lat="42.189175" lon="14.6503267"><ele>22.0</ele><time>2026-04-16T14:08:48.871Z</time></trkpt><trkpt lat="42.18915" lon="14.6504333"><ele>22.857142857142858</ele><time>2026-04-16T14:08:52.871Z</time></trkpt><trkpt lat="42.1891267" lon="14.6505217"><ele>23.714285714285715</ele><time>2026-04-16T14:08:55.872Z</time></trkpt><trkpt lat="42.1890867" lon="14.6506"><ele>24.57142857142857</ele><time>2026-04-16T14:08:59.872Z</time></trkpt><trkpt lat="42.1890633" lon="14.65068"><ele>25.42857142857143</ele><time>2026-04-16T14:09:02.871Z</time></trkpt><trkpt lat="42.189045" lon="14.6507683"><ele>26.285714285714285</ele><time>2026-04-16T14:09:05.872Z</time></trkpt><trkpt lat="42.1890267" lon="14.65086"><ele>27.142857142857142</ele><time>2026-04-16T14:09:13.871Z</time></trkpt><trkpt lat="42.1889833" lon="14.65096"><ele>28.0</ele><time>2026-04-16T14:09:14.871Z</time></trkpt><trkpt lat="42.1889533" lon="14.651035"><ele>31.333333333333336</ele><time>2026-04-16T14:09:17.871Z</time></trkpt><trkpt lat="42.1889267" lon="14.6511133"><ele>34.66666666666667</ele><time>2026-04-16T14:09:20.872Z</time></trkpt><trkpt lat="42.1888933" lon="14.6512183"><ele>38.0</ele><time>2026-04-16T14:09:24.871Z</time></trkpt><trkpt lat="42.1888433" lon="14.6513067"><ele>41.333333333333336</ele><time>2026-04-16T14:09:27.872Z</time></trkpt><trkpt lat="42.1887983" lon="14.6513967"><ele>44.666666666666664</ele><time>2026-04-16T14:09:30.872Z</time></trkpt><trkpt lat="42.1887467" lon="14.651485"><ele>48.0</ele><time>2026-04-16T14:09:33.872Z</time></trkpt><trkpt lat="42.1887083" lon="14.6515733"><ele>48.0</ele><time>2026-04-16T14:09:36.872Z</time></trkpt><trkpt lat="42.1886683" lon="14.6516633"><ele>48.0</ele><time>2026-04-16T14:09:39.872Z</time></trkpt><trkpt lat="42.18862" lon="14.6517817"><ele>48.0</ele><time>2026-04-16T14:09:42.871Z</time></trkpt><trkpt lat="42.1885767" lon="14.6519083"><ele>48.0</ele><time>2026-04-16T14:09:45.871Z</time></trkpt><trkpt lat="42.188545" lon="14.652"><ele>48.0</ele><time>2026-04-16T14:09:47.871Z</time></trkpt><trkpt lat="42.1885033" lon="14.652075"><ele>48.0</ele><time>2026-04-16T14:09:49.872Z</time></trkpt><trkpt lat="42.1884517" lon="14.65219"><ele>47.166666666666664</ele><time>2026-04-16T14:09:52.871Z</time></trkpt><trkpt lat="42.1884233" lon="14.6522783"><ele>46.333333333333336</ele><time>2026-04-16T14:09:55.871Z</time></trkpt><trkpt lat="42.1883683" lon="14.6523583"><ele>45.5</ele><time>2026-04-16T14:09:59.871Z</time></trkpt><trkpt lat="42.18836" lon="14.6524567"><ele>44.66666666666667</ele><time>2026-04-16T14:10:01.872Z</time></trkpt><trkpt lat="42.1883767" lon="14.6525983"><ele>43.833333333333336</ele><time>2026-04-16T14:10:03.872Z</time></trkpt><trkpt lat="42.188375" lon="14.6526917"><ele>43.0</ele><time>2026-04-16T14:10:05.871Z</time></trkpt><trkpt lat="42.1883483" lon="14.6527917"><ele>44.4</ele><time>2026-04-16T14:10:08.872Z</time></trkpt><trkpt lat="42.1882833" lon="14.6529133"><ele>45.8</ele><time>2026-04-16T14:10:12.872Z</time></trkpt><trkpt lat="42.188215" lon="14.653005"><ele>47.2</ele><time>2026-04-16T14:10:15.872Z</time></trkpt><trkpt lat="42.18817" lon="14.6530817"><ele>48.6</ele><time>2026-04-16T14:10:17.872Z</time></trkpt><trkpt lat="42.18813" lon="14.65316"><ele>50.0</ele><time>2026-04-16T14:10:19.872Z</time></trkpt><trkpt lat="42.188005" lon="14.653325"><ele>50.0</ele><time>2026-04-16T14:10:26.871Z</time></trkpt><trkpt lat="42.1878583" lon="14.6534267"><ele>50.0</ele><time>2026-04-16T14:10:30.872Z</time></trkpt><trkpt lat="42.1877733" lon="14.6535033"><ele>50.0</ele><time>2026-04-16T14:10:32.871Z</time></trkpt><trkpt lat="42.1876983" lon="14.6535917"><ele>50.0</ele><time>2026-04-16T14:10:34.872Z</time></trkpt><trkpt lat="42.187645" lon="14.65367"><ele>50.0</ele><time>2026-04-16T14:10:36.871Z</time></trkpt><trkpt lat="42.1876083" lon="14.653745"><ele>50.50000000000001</ele><time>2026-04-16T14:10:38.871Z</time></trkpt><trkpt lat="42.1875533" lon="14.6538367"><ele>51.0</ele><time>2026-04-16T14:10:41.872Z</time></trkpt><trkpt lat="42.1875017" lon="14.6539117"><ele>51.5</ele><time>2026-04-16T14:10:43.872Z</time></trkpt><trkpt lat="42.18744" lon="14.6539817"><ele>52.0</ele><time>2026-04-16T14:10:45.872Z</time></trkpt><trkpt lat="42.187385" lon="14.65408"><ele>52.50000000000001</ele><time>2026-04-16T14:10:48.871Z</time></trkpt><trkpt lat="42.1873467" lon="14.654205"><ele>53.0</ele><time>2026-04-16T14:10:51.871Z</time></trkpt><trkpt lat="42.1873117" lon="14.654305"><ele>53.0</ele><time>2026-04-16T14:10:53.871Z</time></trkpt><trkpt lat="42.1872733" lon="14.6543983"><ele>53.0</ele><time>2026-04-16T14:10:55.872Z</time></trkpt><trkpt lat="42.18723" lon="14.654485"><ele>53.0</ele><time>2026-04-16T14:10:57.872Z</time></trkpt><trkpt lat="42.187195" lon="14.654565"><ele>53.0</ele><time>2026-04-16T14:10:59.872Z</time></trkpt><trkpt lat="42.1871583" lon="14.65464"><ele>53.0</ele><time>2026-04-16T14:11:01.872Z</time></trkpt><trkpt lat="42.18712" lon="14.65471"><ele>53.0</ele><time>2026-04-16T14:11:03.872Z</time></trkpt><trkpt lat="42.1870633" lon="14.6547717"><ele>53.0</ele><time>2026-04-16T14:11:05.872Z</time></trkpt><trkpt lat="42.1870017" lon="14.654815"><ele>52.66666666666667</ele><time>2026-04-16T14:11:07.872Z</time></trkpt><trkpt lat="42.1869083" lon="14.6548267"><ele>52.333333333333336</ele><time>2026-04-16T14:11:10.871Z</time></trkpt><trkpt lat="42.1868417" lon="14.654825"><ele>52.0</ele><time>2026-04-16T14:11:12.872Z</time></trkpt><trkpt lat="42.1867533" lon="14.6548033"><ele>51.66666666666667</ele><time>2026-04-16T14:11:15.872Z</time></trkpt><trkpt lat="42.1866967" lon="14.654725"><ele>51.333333333333336</ele><time>2026-04-16T14:11:18.872Z</time></trkpt><trkpt lat="42.1866583" lon="14.6546317"><ele>51.0</ele><time>2026-04-16T14:11:21.872Z</time></trkpt><trkpt lat="42.1866117" lon="14.6545367"><ele>51.333333333333336</ele><time>2026-04-16T14:11:24.872Z</time></trkpt><trkpt lat="42.1865633" lon="14.654435"><ele>51.66666666666667</ele><time>2026-04-16T14:11:27.872Z</time></trkpt><trkpt lat="42.1865133" lon="14.6543383"><ele>52.0</ele><time>2026-04-16T14:11:30.871Z</time></trkpt><trkpt lat="42.1864633" lon="14.6542417"><ele>52.333333333333336</ele><time>2026-04-16T14:11:33.872Z</time></trkpt><trkpt lat="42.1864183" lon="14.654145"><ele>52.66666666666667</ele><time>2026-04-16T14:11:36.872Z</time></trkpt><trkpt lat="42.1863833" lon="14.6540483"><ele>53.0</ele><time>2026-04-16T14:11:39.871Z</time></trkpt><trkpt lat="42.1863417" lon="14.6539483"><ele>53.00000000000001</ele><time>2026-04-16T14:11:42.872Z</time></trkpt><trkpt lat="42.1862967" lon="14.6538517"><ele>53.0</ele><time>2026-04-16T14:11:45.871Z</time></trkpt><trkpt lat="42.186255" lon="14.6537517"><ele>53.0</ele><time>2026-04-16T14:11:48.872Z</time></trkpt><trkpt lat="42.1862133" lon="14.6536567"><ele>53.0</ele><time>2026-04-16T14:11:51.871Z</time></trkpt><trkpt lat="42.1861767" lon="14.65355"><ele>53.00000000000001</ele><time>2026-04-16T14:11:54.871Z</time></trkpt><trkpt lat="42.1861383" lon="14.653445"><ele>53.0</ele><time>2026-04-16T14:11:57.872Z</time></trkpt><trkpt lat="42.1861067" lon="14.6533417"><ele>53.16666666666667</ele><time>2026-04-16T14:12:00.871Z</time></trkpt><trkpt lat="42.1860767" lon="14.65323"><ele>53.333333333333336</ele><time>2026-04-16T14:12:03.872Z</time></trkpt><trkpt lat="42.1860433" lon="14.65313"><ele>53.5</ele><time>2026-04-16T14:12:06.871Z</time></trkpt><trkpt lat="42.1859867" lon="14.6530767"><ele>53.66666666666667</ele><time>2026-04-16T14:12:09.872Z</time></trkpt><trkpt lat="42.1859283" lon="14.65313"><ele>53.833333333333336</ele><time>2026-04-16T14:12:13.872Z</time></trkpt><trkpt lat="42.1858833" lon="14.6532"><ele>54.0</ele><time>2026-04-16T14:12:15.872Z</time></trkpt><trkpt lat="42.1858283" lon="14.653275"><ele>54.0</ele><time>2026-04-16T14:12:17.872Z</time></trkpt><trkpt lat="42.1857733" lon="14.653345"><ele>54.0</ele><time>2026-04-16T14:12:19.871Z</time></trkpt><trkpt lat="42.1857217" lon="14.6534117"><ele>54.0</ele><time>2026-04-16T14:12:21.872Z</time></trkpt><trkpt lat="42.1856617" lon="14.653465"><ele>54.0</ele><time>2026-04-16T14:12:23.872Z</time></trkpt><trkpt lat="42.1855883" lon="14.6535183"><ele>54.0</ele><time>2026-04-16T14:12:25.871Z</time></trkpt><trkpt lat="42.1855083" lon="14.6535833"><ele>54.0</ele><time>2026-04-16T14:12:27.87Z</time></trkpt><trkpt lat="42.1854267" lon="14.6536417"><ele>53.800000000000004</ele><time>2026-04-16T14:12:29.871Z</time></trkpt><trkpt lat="42.1853467" lon="14.65371"><ele>53.60000000000001</ele><time>2026-04-16T14:12:31.87Z</time></trkpt><trkpt lat="42.1852633" lon="14.6537817"><ele>53.4</ele><time>2026-04-16T14:12:33.871Z</time></trkpt><trkpt lat="42.185175" lon="14.6538633"><ele>53.2</ele><time>2026-04-16T14:12:35.871Z</time></trkpt><trkpt lat="42.1850833" lon="14.6539433"><ele>53.0</ele><time>2026-04-16T14:12:37.871Z</time></trkpt><trkpt lat="42.1850033" lon="14.6540117"><ele>53.00000000000001</ele><time>2026-04-16T14:12:39.871Z</time></trkpt><trkpt lat="42.1849217" lon="14.65408"><ele>53.0</ele><time>2026-04-16T14:12:41.87Z</time></trkpt><trkpt lat="42.1848467" lon="14.6541367"><ele>53.0</ele><time>2026-04-16T14:12:43.871Z</time></trkpt><trkpt lat="42.18477" lon="14.654195"><ele>53.0</ele><time>2026-04-16T14:12:45.871Z</time></trkpt><trkpt lat="42.184695" lon="14.65425"><ele>53.00000000000001</ele><time>2026-04-16T14:12:47.87Z</time></trkpt><trkpt lat="42.1846183" lon="14.654305"><ele>53.0</ele><time>2026-04-16T14:12:49.871Z</time></trkpt><trkpt lat="42.1845467" lon="14.6543733"><ele>53.16666666666667</ele><time>2026-04-16T14:12:51.87Z</time></trkpt><trkpt lat="42.18448" lon="14.65443"><ele>53.333333333333336</ele><time>2026-04-16T14:12:53.87Z</time></trkpt><trkpt lat="42.18442" lon="14.6544733"><ele>53.5</ele><time>2026-04-16T14:12:55.87Z</time></trkpt><trkpt lat="42.1843517" lon="14.6545317"><ele>53.66666666666667</ele><time>2026-04-16T14:12:57.87Z</time></trkpt><trkpt lat="42.18427" lon="14.6545933"><ele>53.833333333333336</ele><time>2026-04-16T14:12:59.871Z</time></trkpt><trkpt lat="42.184185" lon="14.654655"><ele>54.0</ele><time>2026-04-16T14:13:01.87Z</time></trkpt><trkpt lat="42.18411" lon="14.6547233"><ele>54.0</ele><time>2026-04-16T14:13:03.871Z</time></trkpt><trkpt lat="42.1840267" lon="14.654795"><ele>54.00000000000001</ele><time>2026-04-16T14:13:05.871Z</time></trkpt><trkpt lat="42.183935" lon="14.6548683"><ele>54.00000000000001</ele><time>2026-04-16T14:13:07.871Z</time></trkpt><trkpt lat="42.1838417" lon="14.6549417"><ele>54.0</ele><time>2026-04-16T14:13:09.871Z</time></trkpt><trkpt lat="42.1837467" lon="14.655015"><ele>54.0</ele><time>2026-04-16T14:13:11.871Z</time></trkpt><trkpt lat="42.1836533" lon="14.655085"><ele>53.800000000000004</ele><time>2026-04-16T14:13:13.87Z</time></trkpt><trkpt lat="42.183565" lon="14.655155"><ele>53.60000000000001</ele><time>2026-04-16T14:13:15.87Z</time></trkpt><trkpt lat="42.18348" lon="14.6552283"><ele>53.4</ele><time>2026-04-16T14:13:17.87Z</time></trkpt><trkpt lat="42.183405" lon="14.6552933"><ele>53.2</ele><time>2026-04-16T14:13:19.871Z</time></trkpt><trkpt lat="42.1833283" lon="14.6553633"><ele>53.0</ele><time>2026-04-16T14:13:21.871Z</time></trkpt><trkpt lat="42.1832417" lon="14.65543"><ele>53.2</ele><time>2026-04-16T14:13:23.87Z</time></trkpt><trkpt lat="42.183155" lon="14.6555133"><ele>53.4</ele><time>2026-04-16T14:13:25.871Z</time></trkpt><trkpt lat="42.183065" lon="14.6555833"><ele>53.60000000000001</ele><time>2026-04-16T14:13:27.87Z</time></trkpt><trkpt lat="42.1829783" lon="14.6556517"><ele>53.800000000000004</ele><time>2026-04-16T14:13:29.871Z</time></trkpt><trkpt lat="42.18289" lon="14.6557167"><ele>54.0</ele><time>2026-04-16T14:13:31.871Z</time></trkpt><trkpt lat="42.1828033" lon="14.6557917"><ele>54.0</ele><time>2026-04-16T14:13:33.87Z</time></trkpt><trkpt lat="42.1827033" lon="14.655855"><ele>54.00000000000001</ele><time>2026-04-16T14:13:35.87Z</time></trkpt><trkpt lat="42.1826167" lon="14.6559283"><ele>54.00000000000001</ele><time>2026-04-16T14:13:37.87Z</time></trkpt><trkpt lat="42.1825283" lon="14.656015"><ele>54.0</ele><time>2026-04-16T14:13:39.871Z</time></trkpt><trkpt lat="42.1824433" lon="14.6561133"><ele>54.0</ele><time>2026-04-16T14:13:41.871Z</time></trkpt><trkpt lat="42.1823617" lon="14.6562083"><ele>54.25</ele><time>2026-04-16T14:13:43.87Z</time></trkpt><trkpt lat="42.1822733" lon="14.6563"><ele>54.5</ele><time>2026-04-16T14:13:45.871Z</time></trkpt><trkpt lat="42.1821833" lon="14.6563917"><ele>54.75</ele><time>2026-04-16T14:13:47.871Z</time></trkpt><trkpt lat="42.1820967" lon="14.6564867"><ele>55.0</ele><time>2026-04-16T14:13:49.87Z</time></trkpt><trkpt lat="42.1820067" lon="14.6565817"><ele>55.0</ele><time>2026-04-16T14:13:51.871Z</time></trkpt><trkpt lat="42.1819183" lon="14.6566733"><ele>55.0</ele><time>2026-04-16T14:13:53.871Z</time></trkpt><trkpt lat="42.18183" lon="14.656765"><ele>55.0</ele><time>2026-04-16T14:13:55.871Z</time></trkpt><trkpt lat="42.1817467" lon="14.6568583"><ele>55.0</ele><time>2026-04-16T14:13:57.87Z</time></trkpt><trkpt lat="42.181665" lon="14.6569567"><ele>55.0</ele><time>2026-04-16T14:13:59.871Z</time></trkpt><trkpt lat="42.1815767" lon="14.6570467"><ele>55.0</ele><time>2026-04-16T14:14:01.87Z</time></trkpt><trkpt lat="42.1814933" lon="14.6571383"><ele>55.0</ele><time>2026-04-16T14:14:03.87Z</time></trkpt><trkpt lat="42.1814083" lon="14.6572367"><ele>55.0</ele><time>2026-04-16T14:14:05.871Z</time></trkpt><trkpt lat="42.1813233" lon="14.6573333"><ele>55.0</ele><time>2026-04-16T14:14:07.871Z</time></trkpt><trkpt lat="42.1812367" lon="14.65743"><ele>55.0</ele><time>2026-04-16T14:14:09.871Z</time></trkpt><trkpt lat="42.18115" lon="14.6575233"><ele>55.0</ele><time>2026-04-16T14:14:11.87Z</time></trkpt><trkpt lat="42.181055" lon="14.657615"><ele>55.0</ele><time>2026-04-16T14:14:13.871Z</time></trkpt><trkpt lat="42.1809633" lon="14.657705"><ele>55.0</ele><time>2026-04-16T14:14:15.871Z</time></trkpt><trkpt lat="42.1808683" lon="14.65779"><ele>55.0</ele><time>2026-04-16T14:14:17.87Z</time></trkpt><trkpt lat="42.180765" lon="14.6578617"><ele>54.75</ele><time>2026-04-16T14:14:19.871Z</time></trkpt><trkpt lat="42.1806617" lon="14.6579333"><ele>54.5</ele><time>2026-04-16T14:14:21.871Z</time></trkpt><trkpt lat="42.1805717" lon="14.6580283"><ele>54.25</ele><time>2026-04-16T14:14:23.87Z</time></trkpt><trkpt lat="42.1804767" lon="14.6581217"><ele>54.0</ele><time>2026-04-16T14:14:25.871Z</time></trkpt><trkpt lat="42.18038" lon="14.6582067"><ele>54.0</ele><time>2026-04-16T14:14:27.871Z</time></trkpt><trkpt lat="42.18029" lon="14.6583083"><ele>54.0</ele><time>2026-04-16T14:14:29.871Z</time></trkpt><trkpt lat="42.1802183" lon="14.6584283"><ele>54.0</ele><time>2026-04-16T14:14:31.87Z</time></trkpt><trkpt lat="42.1801467" lon="14.6585517"><ele>54.0</ele><time>2026-04-16T14:14:33.87Z</time></trkpt><trkpt lat="42.1800783" lon="14.658675"><ele>53.75</ele><time>2026-04-16T14:14:35.87Z</time></trkpt><trkpt lat="42.1800067" lon="14.6588067"><ele>53.5</ele><time>2026-04-16T14:14:37.871Z</time></trkpt><trkpt lat="42.179935" lon="14.658935"><ele>53.25</ele><time>2026-04-16T14:14:39.871Z</time></trkpt><trkpt lat="42.1798617" lon="14.6590667"><ele>53.0</ele><time>2026-04-16T14:14:41.871Z</time></trkpt><trkpt lat="42.1797883" lon="14.6591967"><ele>52.8</ele><time>2026-04-16T14:14:43.87Z</time></trkpt><trkpt lat="42.1797167" lon="14.65932"><ele>52.599999999999994</ele><time>2026-04-16T14:14:45.871Z</time></trkpt><trkpt lat="42.179645" lon="14.6594517"><ele>52.400000000000006</ele><time>2026-04-16T14:14:47.871Z</time></trkpt><trkpt lat="42.179605" lon="14.6595183"><ele>52.2</ele><time>2026-04-16T14:14:48.871Z</time></trkpt><trkpt lat="42.1795267" lon="14.6596517"><ele>52.0</ele><time>2026-04-16T14:14:50.87Z</time></trkpt><trkpt lat="42.1794533" lon="14.6597833"><ele>51.6</ele><time>2026-04-16T14:14:52.871Z</time></trkpt><trkpt lat="42.1793783" lon="14.6599133"><ele>51.2</ele><time>2026-04-16T14:14:54.87Z</time></trkpt><trkpt lat="42.1793083" lon="14.6600533"><ele>50.8</ele><time>2026-04-16T14:14:56.871Z</time></trkpt><trkpt lat="42.17927" lon="14.6601283"><ele>50.4</ele><time>2026-04-16T14:14:57.87Z</time></trkpt><trkpt lat="42.1792267" lon="14.6602"><ele>50.0</ele><time>2026-04-16T14:14:58.87Z</time></trkpt><trkpt lat="42.179185" lon="14.66027"><ele>50.00000000000001</ele><time>2026-04-16T14:14:59.871Z</time></trkpt><trkpt lat="42.1791433" lon="14.6603383"><ele>50.0</ele><time>2026-04-16T14:15:00.871Z</time></trkpt><trkpt lat="42.1791017" lon="14.6604033"><ele>50.0</ele><time>2026-04-16T14:15:01.871Z</time></trkpt><trkpt lat="42.1790617" lon="14.6604767"><ele>50.0</ele><time>2026-04-16T14:15:02.871Z</time></trkpt><trkpt lat="42.179025" lon="14.6605483"><ele>50.00000000000001</ele><time>2026-04-16T14:15:03.871Z</time></trkpt><trkpt lat="42.17896" lon="14.6606783"><ele>50.0</ele><time>2026-04-16T14:15:05.871Z</time></trkpt><trkpt lat="42.1789067" lon="14.6608033"><ele>50.0</ele><time>2026-04-16T14:15:07.87Z</time></trkpt><trkpt lat="42.1788633" lon="14.6609367"><ele>50.0</ele><time>2026-04-16T14:15:09.87Z</time></trkpt><trkpt lat="42.178825" lon="14.66107"><ele>50.0</ele><time>2026-04-16T14:15:11.871Z</time></trkpt><trkpt lat="42.1788" lon="14.6611967"><ele>50.0</ele><time>2026-04-16T14:15:13.87Z</time></trkpt><trkpt lat="42.1787783" lon="14.661315"><ele>50.0</ele><time>2026-04-16T14:15:15.871Z</time></trkpt><trkpt lat="42.1787517" lon="14.6614517"><ele>50.2</ele><time>2026-04-16T14:15:17.87Z</time></trkpt><trkpt lat="42.1787233" lon="14.6615867"><ele>50.4</ele><time>2026-04-16T14:15:19.871Z</time></trkpt><trkpt lat="42.1786967" lon="14.6617217"><ele>50.599999999999994</ele><time>2026-04-16T14:15:21.871Z</time></trkpt><trkpt lat="42.1786767" lon="14.6618667"><ele>50.8</ele><time>2026-04-16T14:15:23.871Z</time></trkpt><trkpt lat="42.1786533" lon="14.6620217"><ele>51.0</ele><time>2026-04-16T14:15:25.87Z</time></trkpt><trkpt lat="42.178635" lon="14.6621767"><ele>50.599999999999994</ele><time>2026-04-16T14:15:27.87Z</time></trkpt><trkpt lat="42.1786067" lon="14.6623183"><ele>50.2</ele><time>2026-04-16T14:15:29.87Z</time></trkpt><trkpt lat="42.1785833" lon="14.6624633"><ele>49.8</ele><time>2026-04-16T14:15:31.87Z</time></trkpt><trkpt lat="42.1785483" lon="14.662595"><ele>49.400000000000006</ele><time>2026-04-16T14:15:33.87Z</time></trkpt><trkpt lat="42.1785033" lon="14.6627233"><ele>49.0</ele><time>2026-04-16T14:15:35.871Z</time></trkpt><trkpt lat="42.1784567" lon="14.66286"><ele>49.0</ele><time>2026-04-16T14:15:37.87Z</time></trkpt><trkpt lat="42.1784" lon="14.66299"><ele>49.0</ele><time>2026-04-16T14:15:39.87Z</time></trkpt><trkpt lat="42.17834" lon="14.66311"><ele>49.0</ele><time>2026-04-16T14:15:41.87Z</time></trkpt><trkpt lat="42.17828" lon="14.6632133"><ele>49.0</ele><time>2026-04-16T14:15:43.871Z</time></trkpt><trkpt lat="42.1782217" lon="14.663325"><ele>49.0</ele><time>2026-04-16T14:15:45.871Z</time></trkpt><trkpt lat="42.1781683" lon="14.6634433"><ele>48.99999999999999</ele><time>2026-04-16T14:15:47.87Z</time></trkpt><trkpt lat="42.17812" lon="14.6635467"><ele>49.0</ele><time>2026-04-16T14:15:49.871Z</time></trkpt><trkpt lat="42.1780633" lon="14.6636383"><ele>49.0</ele><time>2026-04-16T14:15:51.871Z</time></trkpt><trkpt lat="42.1780183" lon="14.6637367"><ele>49.0</ele><time>2026-04-16T14:15:53.871Z</time></trkpt><trkpt lat="42.177975" lon="14.663825"><ele>48.99999999999999</ele><time>2026-04-16T14:15:55.871Z</time></trkpt><trkpt lat="42.17792" lon="14.6639117"><ele>49.0</ele><time>2026-04-16T14:15:57.871Z</time></trkpt><trkpt lat="42.1778717" lon="14.66402"><ele>48.800000000000004</ele><time>2026-04-16T14:15:59.87Z</time></trkpt><trkpt lat="42.1778267" lon="14.6641217"><ele>48.6</ele><time>2026-04-16T14:16:01.871Z</time></trkpt><trkpt lat="42.17778" lon="14.6642333"><ele>48.4</ele><time>2026-04-16T14:16:03.87Z</time></trkpt><trkpt lat="42.17772" lon="14.66434"><ele>48.2</ele><time>2026-04-16T14:16:05.871Z</time></trkpt><trkpt lat="42.1776483" lon="14.664445"><ele>48.0</ele><time>2026-04-16T14:16:07.871Z</time></trkpt><trkpt lat="42.1775767" lon="14.66455"><ele>47.8</ele><time>2026-04-16T14:16:09.871Z</time></trkpt><trkpt lat="42.177515" lon="14.6646483"><ele>47.599999999999994</ele><time>2026-04-16T14:16:11.871Z</time></trkpt><trkpt lat="42.1774417" lon="14.66474"><ele>47.400000000000006</ele><time>2026-04-16T14:16:13.871Z</time></trkpt><trkpt lat="42.17737" lon="14.66483"><ele>47.2</ele><time>2026-04-16T14:16:15.871Z</time></trkpt><trkpt lat="42.1772883" lon="14.6649117"><ele>47.0</ele><time>2026-04-16T14:16:17.871Z</time></trkpt><trkpt lat="42.17719" lon="14.665"><ele>47.5</ele><time>2026-04-16T14:16:19.871Z</time></trkpt><trkpt lat="42.1770967" lon="14.6651"><ele>48.0</ele><time>2026-04-16T14:16:21.871Z</time></trkpt><trkpt lat="42.1770117" lon="14.665205"><ele>48.5</ele><time>2026-04-16T14:16:23.871Z</time></trkpt><trkpt lat="42.17693" lon="14.66531"><ele>49.0</ele><time>2026-04-16T14:16:25.871Z</time></trkpt><trkpt lat="42.17684" lon="14.6654033"><ele>49.0</ele><time>2026-04-16T14:16:27.871Z</time></trkpt><trkpt lat="42.1767567" lon="14.6655033"><ele>49.0</ele><time>2026-04-16T14:16:29.871Z</time></trkpt><trkpt lat="42.176685" lon="14.6656"><ele>49.0</ele><time>2026-04-16T14:16:31.871Z</time></trkpt><trkpt lat="42.1766167" lon="14.6656833"><ele>49.0</ele><time>2026-04-16T14:16:33.871Z</time></trkpt><trkpt lat="42.17655" lon="14.6657633"><ele>49.0</ele><time>2026-04-16T14:16:35.87Z</time></trkpt><trkpt lat="42.17648" lon="14.6658467"><ele>49.0</ele><time>2026-04-16T14:16:37.87Z</time></trkpt><trkpt lat="42.1764117" lon="14.66593"><ele>49.0</ele><time>2026-04-16T14:16:39.871Z</time></trkpt><trkpt lat="42.1763367" lon="14.6660067"><ele>49.0</ele><time>2026-04-16T14:16:41.87Z</time></trkpt><trkpt lat="42.1762533" lon="14.66609"><ele>49.0</ele><time>2026-04-16T14:16:43.871Z</time></trkpt><trkpt lat="42.1761633" lon="14.66617"><ele>49.0</ele><time>2026-04-16T14:16:45.871Z</time></trkpt><trkpt lat="42.17606" lon="14.6662367"><ele>48.49999999999999</ele><time>2026-04-16T14:16:47.87Z</time></trkpt><trkpt lat="42.1759483" lon="14.6663117"><ele>48.0</ele><time>2026-04-16T14:16:49.871Z</time></trkpt><trkpt lat="42.1758933" lon="14.6663533"><ele>47.5</ele><time>2026-04-16T14:16:50.87Z</time></trkpt><trkpt lat="42.175835" lon="14.6663967"><ele>47.0</ele><time>2026-04-16T14:16:51.871Z</time></trkpt><trkpt lat="42.1757767" lon="14.6664317"><ele>46.5</ele><time>2026-04-16T14:16:52.87Z</time></trkpt><trkpt lat="42.1757017" lon="14.6664733"><ele>46.0</ele><time>2026-04-16T14:16:53.871Z</time></trkpt><trkpt lat="42.1756333" lon="14.6665283"><ele>45.5</ele><time>2026-04-16T14:16:54.871Z</time></trkpt><trkpt lat="42.175565" lon="14.6665933"><ele>45.0</ele><time>2026-04-16T14:16:55.87Z</time></trkpt><trkpt lat="42.1754983" lon="14.6666683"><ele>44.5</ele><time>2026-04-16T14:16:56.871Z</time></trkpt><trkpt lat="42.1754283" lon="14.6667483"><ele>44.0</ele><time>2026-04-16T14:16:57.871Z</time></trkpt><trkpt lat="42.1753617" lon="14.6668233"><ele>43.5</ele><time>2026-04-16T14:16:58.871Z</time></trkpt><trkpt lat="42.1752867" lon="14.6669067"><ele>43.0</ele><time>2026-04-16T14:16:59.871Z</time></trkpt><trkpt lat="42.1752117" lon="14.6669917"><ele>42.66666666666667</ele><time>2026-04-16T14:17:00.871Z</time></trkpt><trkpt lat="42.17514" lon="14.6670667"><ele>42.333333333333336</ele><time>2026-04-16T14:17:01.87Z</time></trkpt><trkpt lat="42.1750783" lon="14.6671333"><ele>42.0</ele><time>2026-04-16T14:17:02.87Z</time></trkpt><trkpt lat="42.17502" lon="14.6671967"><ele>41.666666666666664</ele><time>2026-04-16T14:17:03.87Z</time></trkpt><trkpt lat="42.17496" lon="14.6672567"><ele>41.33333333333333</ele><time>2026-04-16T14:17:04.871Z</time></trkpt><trkpt lat="42.1749083" lon="14.6673233"><ele>41.0</ele><time>2026-04-16T14:17:05.871Z</time></trkpt><trkpt lat="42.1748617" lon="14.6673833"><ele>41.666666666666664</ele><time>2026-04-16T14:17:06.871Z</time></trkpt><trkpt lat="42.174815" lon="14.6674417"><ele>42.33333333333333</ele><time>2026-04-16T14:17:07.87Z</time></trkpt><trkpt lat="42.174725" lon="14.6675367"><ele>43.0</ele><time>2026-04-16T14:17:09.871Z</time></trkpt><trkpt lat="42.17465" lon="14.6676267"><ele>43.666666666666664</ele><time>2026-04-16T14:17:11.871Z</time></trkpt><trkpt lat="42.1745867" lon="14.6676967"><ele>44.333333333333336</ele><time>2026-04-16T14:17:13.871Z</time></trkpt><trkpt lat="42.174535" lon="14.6677517"><ele>45.0</ele><time>2026-04-16T14:17:15.87Z</time></trkpt><trkpt lat="42.1744883" lon="14.6678117"><ele>45.333333333333336</ele><time>2026-04-16T14:17:17.871Z</time></trkpt><trkpt lat="42.1744383" lon="14.6678667"><ele>45.666666666666664</ele><time>2026-04-16T14:17:19.871Z</time></trkpt><trkpt lat="42.17438" lon="14.6679583"><ele>46.0</ele><time>2026-04-16T14:17:22.87Z</time></trkpt><trkpt lat="42.1743333" lon="14.66806"><ele>46.33333333333333</ele><time>2026-04-16T14:17:25.871Z</time></trkpt><trkpt lat="42.17431" lon="14.6681433"><ele>46.666666666666664</ele><time>2026-04-16T14:17:27.871Z</time></trkpt><trkpt lat="42.174285" lon="14.668265"><ele>47.0</ele><time>2026-04-16T14:17:30.87Z</time></trkpt><trkpt lat="42.174275" lon="14.6683533"><ele>47.0</ele><time>2026-04-16T14:17:32.871Z</time></trkpt><trkpt lat="42.17427" lon="14.668445"><ele>47.0</ele><time>2026-04-16T14:17:34.871Z</time></trkpt><trkpt lat="42.17426" lon="14.6685317"><ele>47.0</ele><time>2026-04-16T14:17:36.87Z</time></trkpt><trkpt lat="42.1742533" lon="14.66865"><ele>47.0</ele><time>2026-04-16T14:17:39.871Z</time></trkpt><trkpt lat="42.1742283" lon="14.6687583"><ele>47.0</ele><time>2026-04-16T14:17:42.871Z</time></trkpt><trkpt lat="42.1742217" lon="14.6688433"><ele>47.0</ele><time>2026-04-16T14:17:44.87Z</time></trkpt><trkpt lat="42.1742183" lon="14.6689317"><ele>47.0</ele><time>2026-04-16T14:17:46.871Z</time></trkpt><trkpt lat="42.1742" lon="14.6690167"><ele>47.0</ele><time>2026-04-16T14:17:48.871Z</time></trkpt><trkpt lat="42.1741733" lon="14.669105"><ele>47.0</ele><time>2026-04-16T14:17:50.871Z</time></trkpt><trkpt lat="42.174135" lon="14.6692233"><ele>47.0</ele><time>2026-04-16T14:17:53.871Z</time></trkpt><trkpt lat="42.1741033" lon="14.6693217"><ele>47.0</ele><time>2026-04-16T14:17:55.87Z</time></trkpt><trkpt lat="42.1740667" lon="14.669425"><ele>47.0</ele><time>2026-04-16T14:17:57.871Z</time></trkpt><trkpt lat="42.1740317" lon="14.6695333"><ele>47.0</ele><time>2026-04-16T14:17:59.87Z</time></trkpt><trkpt lat="42.17399" lon="14.66964"><ele>47.166666666666664</ele><time>2026-04-16T14:18:01.87Z</time></trkpt><trkpt lat="42.1739467" lon="14.6697467"><ele>47.33333333333333</ele><time>2026-04-16T14:18:03.871Z</time></trkpt><trkpt lat="42.1739067" lon="14.6698517"><ele>47.5</ele><time>2026-04-16T14:18:05.871Z</time></trkpt><trkpt lat="42.1738717" lon="14.6699667"><ele>47.666666666666664</ele><time>2026-04-16T14:18:07.87Z</time></trkpt><trkpt lat="42.1738233" lon="14.6700583"><ele>47.833333333333336</ele><time>2026-04-16T14:18:09.871Z</time></trkpt><trkpt lat="42.1737833" lon="14.670155"><ele>48.0</ele><time>2026-04-16T14:18:11.871Z</time></trkpt><trkpt lat="42.1737467" lon="14.6702533"><ele>47.833333333333336</ele><time>2026-04-16T14:18:13.871Z</time></trkpt><trkpt lat="42.1737067" lon="14.670345"><ele>47.666666666666664</ele><time>2026-04-16T14:18:15.871Z</time></trkpt><trkpt lat="42.17367" lon="14.670445"><ele>47.5</ele><time>2026-04-16T14:18:17.871Z</time></trkpt><trkpt lat="42.17363" lon="14.670545"><ele>47.33333333333333</ele><time>2026-04-16T14:18:19.87Z</time></trkpt><trkpt lat="42.1735883" lon="14.6706417"><ele>47.166666666666664</ele><time>2026-04-16T14:18:21.871Z</time></trkpt><trkpt lat="42.1735483" lon="14.6707483"><ele>47.0</ele><time>2026-04-16T14:18:23.87Z</time></trkpt><trkpt lat="42.1734933" lon="14.6708583"><ele>47.0</ele><time>2026-04-16T14:18:25.87Z</time></trkpt><trkpt lat="42.1734433" lon="14.6709817"><ele>47.0</ele><time>2026-04-16T14:18:27.871Z</time></trkpt><trkpt lat="42.1733833" lon="14.671115"><ele>47.0</ele><time>2026-04-16T14:18:29.871Z</time></trkpt><trkpt lat="42.1733467" lon="14.6711883"><ele>47.0</ele><time>2026-04-16T14:18:30.871Z</time></trkpt><trkpt lat="42.1733133" lon="14.6712617"><ele>47.0</ele><time>2026-04-16T14:18:31.871Z</time></trkpt><trkpt lat="42.17328" lon="14.6713417"><ele>47.0</ele><time>2026-04-16T14:18:32.87Z</time></trkpt><trkpt lat="42.1732417" lon="14.671425"><ele>46.5</ele><time>2026-04-16T14:18:33.871Z</time></trkpt><trkpt lat="42.173205" lon="14.6715133"><ele>46.0</ele><time>2026-04-16T14:18:34.87Z</time></trkpt><trkpt lat="42.1731667" lon="14.6716067"><ele>45.5</ele><time>2026-04-16T14:18:35.87Z</time></trkpt><trkpt lat="42.1731317" lon="14.6717"><ele>45.0</ele><time>2026-04-16T14:18:36.871Z</time></trkpt><trkpt lat="42.1730883" lon="14.6718033"><ele>44.5</ele><time>2026-04-16T14:18:37.871Z</time></trkpt><trkpt lat="42.1730467" lon="14.6719017"><ele>44.0</ele><time>2026-04-16T14:18:38.87Z</time></trkpt><trkpt lat="42.173005" lon="14.6720033"><ele>44.0</ele><time>2026-04-16T14:18:39.871Z</time></trkpt><trkpt lat="42.172965" lon="14.672095"><ele>44.0</ele><time>2026-04-16T14:18:40.87Z</time></trkpt><trkpt lat="42.1729283" lon="14.6721783"><ele>44.0</ele><time>2026-04-16T14:18:41.87Z</time></trkpt><trkpt lat="42.17289" lon="14.67227"><ele>44.0</ele><time>2026-04-16T14:18:42.871Z</time></trkpt><trkpt lat="42.172855" lon="14.672355"><ele>44.0</ele><time>2026-04-16T14:18:43.871Z</time></trkpt><trkpt lat="42.1728167" lon="14.6724433"><ele>44.0</ele><time>2026-04-16T14:18:44.871Z</time></trkpt><trkpt lat="42.17278" lon="14.67253"><ele>44.0</ele><time>2026-04-16T14:18:45.871Z</time></trkpt><trkpt lat="42.1727483" lon="14.6726117"><ele>44.0</ele><time>2026-04-16T14:18:46.871Z</time></trkpt><trkpt lat="42.172675" lon="14.672725"><ele>44.0</ele><time>2026-04-16T14:18:48.87Z</time></trkpt><trkpt lat="42.1726217" lon="14.6728367"><ele>44.0</ele><time>2026-04-16T14:18:50.87Z</time></trkpt><trkpt lat="42.1725633" lon="14.67293"><ele>44.0</ele><time>2026-04-16T14:18:52.871Z</time></trkpt><trkpt lat="42.1725017" lon="14.6730133"><ele>44.0</ele><time>2026-04-16T14:18:54.871Z</time></trkpt><trkpt lat="42.1724367" lon="14.673075"><ele>44.0</ele><time>2026-04-16T14:18:56.87Z</time></trkpt><trkpt lat="42.1723733" lon="14.67315"><ele>44.0</ele><time>2026-04-16T14:18:58.871Z</time></trkpt><trkpt lat="42.1723067" lon="14.673235"><ele>44.0</ele><time>2026-04-16T14:19:00.871Z</time></trkpt><trkpt lat="42.1722467" lon="14.6733167"><ele>44.0</ele><time>2026-04-16T14:19:02.871Z</time></trkpt><trkpt lat="42.1721933" lon="14.6733883"><ele>44.0</ele><time>2026-04-16T14:19:04.871Z</time></trkpt><trkpt lat="42.1721367" lon="14.6734683"><ele>44.166666666666664</ele><time>2026-04-16T14:19:06.87Z</time></trkpt><trkpt lat="42.17208" lon="14.673545"><ele>44.33333333333333</ele><time>2026-04-16T14:19:08.871Z</time></trkpt><trkpt lat="42.1720283" lon="14.67363"><ele>44.5</ele><time>2026-04-16T14:19:10.871Z</time></trkpt><trkpt lat="42.171975" lon="14.67372"><ele>44.666666666666664</ele><time>2026-04-16T14:19:12.871Z</time></trkpt><trkpt lat="42.1719267" lon="14.6738167"><ele>44.833333333333336</ele><time>2026-04-16T14:19:14.87Z</time></trkpt><trkpt lat="42.17188" lon="14.6739167"><ele>45.0</ele><time>2026-04-16T14:19:16.87Z</time></trkpt><trkpt lat="42.1718367" lon="14.67401"><ele>45.166666666666664</ele><time>2026-04-16T14:19:18.871Z</time></trkpt><trkpt lat="42.17179" lon="14.6741083"><ele>45.333333333333336</ele><time>2026-04-16T14:19:20.87Z</time></trkpt><trkpt lat="42.1717383" lon="14.6742083"><ele>45.5</ele><time>2026-04-16T14:19:22.871Z</time></trkpt><trkpt lat="42.171695" lon="14.6743017"><ele>45.66666666666667</ele><time>2026-04-16T14:19:24.871Z</time></trkpt><trkpt lat="42.1716433" lon="14.6743917"><ele>45.833333333333336</ele><time>2026-04-16T14:19:26.87Z</time></trkpt><trkpt lat="42.171595" lon="14.67449"><ele>46.0</ele><time>2026-04-16T14:19:28.871Z</time></trkpt><trkpt lat="42.171545" lon="14.67458"><ele>46.333333333333336</ele><time>2026-04-16T14:19:30.871Z</time></trkpt><trkpt lat="42.1714933" lon="14.6746733"><ele>46.66666666666667</ele><time>2026-04-16T14:19:32.871Z</time></trkpt><trkpt lat="42.1714367" lon="14.67475"><ele>47.0</ele><time>2026-04-16T14:19:34.871Z</time></trkpt><trkpt lat="42.171365" lon="14.674825"><ele>47.333333333333336</ele><time>2026-04-16T14:19:36.871Z</time></trkpt><trkpt lat="42.1712917" lon="14.67487"><ele>47.666666666666664</ele><time>2026-04-16T14:19:38.871Z</time></trkpt><trkpt lat="42.17122" lon="14.6749067"><ele>48.0</ele><time>2026-04-16T14:19:41.871Z</time></trkpt><trkpt lat="42.1711667" lon="14.6749633"><ele>48.0</ele><time>2026-04-16T14:19:46.871Z</time></trkpt><trkpt lat="42.1712" lon="14.6750483"><ele>48.0</ele><time>2026-04-16T14:19:51.871Z</time></trkpt><trkpt lat="42.1712667" lon="14.6751017"><ele>48.0</ele><time>2026-04-16T14:19:53.871Z</time></trkpt><trkpt lat="42.1713517" lon="14.675175"><ele>48.0</ele><time>2026-04-16T14:19:55.871Z</time></trkpt><trkpt lat="42.17145" lon="14.6752467"><ele>48.0</ele><time>2026-04-16T14:19:57.871Z</time></trkpt><trkpt lat="42.1715517" lon="14.6753217"><ele>47.0</ele><time>2026-04-16T14:19:59.871Z</time></trkpt><trkpt lat="42.17166" lon="14.6753983"><ele>46.0</ele><time>2026-04-16T14:20:01.87Z</time></trkpt><trkpt lat="42.1717617" lon="14.675475"><ele>45.0</ele><time>2026-04-16T14:20:03.871Z</time></trkpt><trkpt lat="42.1718667" lon="14.67555"><ele>44.0</ele><time>2026-04-16T14:20:05.871Z</time></trkpt><trkpt lat="42.171975" lon="14.6756283"><ele>44.0</ele><time>2026-04-16T14:20:07.871Z</time></trkpt><trkpt lat="42.1720817" lon="14.6757033"><ele>44.0</ele><time>2026-04-16T14:20:09.87Z</time></trkpt><trkpt lat="42.1721833" lon="14.6757817"><ele>44.0</ele><time>2026-04-16T14:20:11.871Z</time></trkpt><trkpt lat="42.1722883" lon="14.6758633"><ele>44.0</ele><time>2026-04-16T14:20:13.87Z</time></trkpt><trkpt lat="42.1723883" lon="14.67594"><ele>43.75</ele><time>2026-04-16T14:20:15.871Z</time></trkpt><trkpt lat="42.1724917" lon="14.67601"><ele>43.5</ele><time>2026-04-16T14:20:17.87Z</time></trkpt><trkpt lat="42.1725933" lon="14.6760883"><ele>43.25</ele><time>2026-04-16T14:20:19.87Z</time></trkpt><trkpt lat="42.1726967" lon="14.67616"><ele>43.0</ele><time>2026-04-16T14:20:21.871Z</time></trkpt><trkpt lat="42.1728017" lon="14.6762267"><ele>42.599999999999994</ele><time>2026-04-16T14:20:23.871Z</time></trkpt><trkpt lat="42.1729017" lon="14.6762933"><ele>42.199999999999996</ele><time>2026-04-16T14:20:25.871Z</time></trkpt><trkpt lat="42.1729917" lon="14.6763733"><ele>41.8</ele><time>2026-04-16T14:20:27.871Z</time></trkpt><trkpt lat="42.173095" lon="14.6764383"><ele>41.4</ele><time>2026-04-16T14:20:29.871Z</time></trkpt><trkpt lat="42.1731983" lon="14.67651"><ele>41.0</ele><time>2026-04-16T14:20:31.871Z</time></trkpt><trkpt lat="42.1732983" lon="14.6765633"><ele>41.0</ele><time>2026-04-16T14:20:33.871Z</time></trkpt><trkpt lat="42.17339" lon="14.6766483"><ele>41.0</ele><time>2026-04-16T14:20:35.87Z</time></trkpt><trkpt lat="42.1734933" lon="14.6767233"><ele>41.0</ele><time>2026-04-16T14:20:37.871Z</time></trkpt><trkpt lat="42.17356" lon="14.6767583"><ele>41.0</ele><time>2026-04-16T14:20:38.871Z</time></trkpt><trkpt lat="42.1736267" lon="14.67679"><ele>41.0</ele><time>2026-04-16T14:20:39.871Z</time></trkpt><trkpt lat="42.1736917" lon="14.67683"><ele>41.0</ele><time>2026-04-16T14:20:40.87Z</time></trkpt><trkpt lat="42.1737533" lon="14.6768767"><ele>41.0</ele><time>2026-04-16T14:20:41.871Z</time></trkpt><trkpt lat="42.1738617" lon="14.676965"><ele>41.0</ele><time>2026-04-16T14:20:43.87Z</time></trkpt><trkpt lat="42.1739633" lon="14.6770617"><ele>41.0</ele><time>2026-04-16T14:20:45.871Z</time></trkpt><trkpt lat="42.1740483" lon="14.6771317"><ele>41.0</ele><time>2026-04-16T14:20:47.87Z</time></trkpt><trkpt lat="42.1741217" lon="14.6771817"><ele>41.0</ele><time>2026-04-16T14:20:50.87Z</time></trkpt><trkpt lat="42.174085" lon="14.6770983"><ele>40.99999999999999</ele><time>2026-04-16T14:21:02.871Z</time></trkpt><trkpt lat="42.1740267" lon="14.6770517"><ele>41.0</ele><time>2026-04-16T14:21:04.87Z</time></trkpt><trkpt lat="42.1739633" lon="14.676995"><ele>41.0</ele><time>2026-04-16T14:21:06.871Z</time></trkpt><trkpt lat="42.1739133" lon="14.6769367"><ele>41.0</ele><time>2026-04-16T14:21:08.87Z</time></trkpt><trkpt lat="42.173855" lon="14.6768917"><ele>41.0</ele><time>2026-04-16T14:21:10.871Z</time></trkpt><trkpt lat="42.1737867" lon="14.6769117"><ele>40.99999999999999</ele><time>2026-04-16T14:21:13.871Z</time></trkpt><trkpt lat="42.1737183" lon="14.676995"><ele>41.0</ele><time>2026-04-16T14:21:16.87Z</time></trkpt><trkpt lat="42.1736767" lon="14.6770633"><ele>41.0</ele><time>2026-04-16T14:21:18.871Z</time></trkpt><trkpt lat="42.173625" lon="14.6771533"><ele>41.0</ele><time>2026-04-16T14:21:21.87Z</time></trkpt><trkpt lat="42.1735783" lon="14.6772583"><ele>41.0</ele><time>2026-04-16T14:21:24.87Z</time></trkpt><trkpt lat="42.1735417" lon="14.67733"><ele>41.0</ele><time>2026-04-16T14:21:26.871Z</time></trkpt><trkpt lat="42.1735067" lon="14.677405"><ele>41.0</ele><time>2026-04-16T14:21:28.87Z</time></trkpt><trkpt lat="42.173455" lon="14.6775033"><ele>41.0</ele><time>2026-04-16T14:21:31.871Z</time></trkpt><trkpt lat="42.1734067" lon="14.6776017"><ele>41.0</ele><time>2026-04-16T14:21:34.87Z</time></trkpt><trkpt lat="42.173355" lon="14.6776983"><ele>41.0</ele><time>2026-04-16T14:21:37.87Z</time></trkpt><trkpt lat="42.173315" lon="14.6778117"><ele>41.0</ele><time>2026-04-16T14:21:40.871Z</time></trkpt><trkpt lat="42.1732967" lon="14.6779183"><ele>41.0</ele><time>2026-04-16T14:21:43.871Z</time></trkpt><trkpt lat="42.1733283" lon="14.6780067"><ele>41.0</ele><time>2026-04-16T14:21:45.871Z</time></trkpt><trkpt lat="42.1733717" lon="14.6781183"><ele>41.0</ele><time>2026-04-16T14:21:48.871Z</time></trkpt><trkpt lat="42.17338" lon="14.67822"><ele>40.71428571428571</ele><time>2026-04-16T14:21:51.87Z</time></trkpt><trkpt lat="42.1733583" lon="14.678305"><ele>40.42857142857143</ele><time>2026-04-16T14:21:54.871Z</time></trkpt><trkpt lat="42.173325" lon="14.6784017"><ele>40.14285714285714</ele><time>2026-04-16T14:21:57.871Z</time></trkpt><trkpt lat="42.17329" lon="14.6785017"><ele>39.857142857142854</ele><time>2026-04-16T14:22:00.87Z</time></trkpt><trkpt lat="42.1732533" lon="14.678595"><ele>39.57142857142857</ele><time>2026-04-16T14:22:03.871Z</time></trkpt><trkpt lat="42.17322" lon="14.678685"><ele>39.285714285714285</ele><time>2026-04-16T14:22:06.871Z</time></trkpt><trkpt lat="42.173185" lon="14.6787633"><ele>39.0</ele><time>2026-04-16T14:22:08.87Z</time></trkpt><trkpt lat="42.173145" lon="14.6788467"><ele>38.85714285714286</ele><time>2026-04-16T14:22:10.871Z</time></trkpt><trkpt lat="42.17311" lon="14.678935"><ele>38.71428571428571</ele><time>2026-04-16T14:22:12.871Z</time></trkpt><trkpt lat="42.17307" lon="14.6790233"><ele>38.57142857142857</ele><time>2026-04-16T14:22:14.871Z</time></trkpt><trkpt lat="42.1730383" lon="14.679105"><ele>38.42857142857143</ele><time>2026-04-16T14:22:16.87Z</time></trkpt><trkpt lat="42.173" lon="14.6791967"><ele>38.28571428571429</ele><time>2026-04-16T14:22:18.871Z</time></trkpt><trkpt lat="42.1729667" lon="14.67927"><ele>38.14285714285714</ele><time>2026-04-16T14:22:20.871Z</time></trkpt><trkpt lat="42.1729283" lon="14.6793417"><ele>38.0</ele><time>2026-04-16T14:22:23.87Z</time></trkpt><trkpt lat="42.1728917" lon="14.6794233"><ele>37.285714285714285</ele><time>2026-04-16T14:22:26.87Z</time></trkpt><trkpt lat="42.172855" lon="14.679495"><ele>36.57142857142858</ele><time>2026-04-16T14:22:29.87Z</time></trkpt><trkpt lat="42.1728033" lon="14.6795517"><ele>35.85714285714286</ele><time>2026-04-16T14:22:32.87Z</time></trkpt><trkpt lat="42.1727283" lon="14.6795783"><ele>35.14285714285714</ele><time>2026-04-16T14:22:35.871Z</time></trkpt><trkpt lat="42.1726467" lon="14.6795783"><ele>34.42857142857143</ele><time>2026-04-16T14:22:38.87Z</time></trkpt><trkpt lat="42.1725833" lon="14.679585"><ele>33.714285714285715</ele><time>2026-04-16T14:22:40.871Z</time></trkpt><trkpt lat="42.1725133" lon="14.6795817"><ele>33.0</ele><time>2026-04-16T14:22:42.87Z</time></trkpt><trkpt lat="42.1724383" lon="14.6795883"><ele>33.0</ele><time>2026-04-16T14:22:44.87Z</time></trkpt><trkpt lat="42.172375" lon="14.679595"><ele>33.0</ele><time>2026-04-16T14:22:46.871Z</time></trkpt><trkpt lat="42.17231" lon="14.679595"><ele>33.0</ele><time>2026-04-16T14:22:48.87Z</time></trkpt><trkpt lat="42.1722183" lon="14.6796"><ele>33.0</ele><time>2026-04-16T14:22:51.871Z</time></trkpt><trkpt lat="42.1721467" lon="14.6796183"><ele>33.0</ele><time>2026-04-16T14:22:53.871Z</time></trkpt><trkpt lat="42.172075" lon="14.6796617"><ele>33.0</ele><time>2026-04-16T14:22:55.87Z</time></trkpt><trkpt lat="42.172015" lon="14.6797233"><ele>33.0</ele><time>2026-04-16T14:22:57.87Z</time></trkpt><trkpt lat="42.1719617" lon="14.6797767"><ele>32.285714285714285</ele><time>2026-04-16T14:22:59.871Z</time></trkpt><trkpt lat="42.1719033" lon="14.679855"><ele>31.571428571428573</ele><time>2026-04-16T14:23:01.871Z</time></trkpt><trkpt lat="42.1718467" lon="14.67992"><ele>30.857142857142858</ele><time>2026-04-16T14:23:03.871Z</time></trkpt><trkpt lat="42.1718017" lon="14.6799867"><ele>30.142857142857142</ele><time>2026-04-16T14:23:06.871Z</time></trkpt><trkpt lat="42.1717733" lon="14.6800733"><ele>29.42857142857143</ele><time>2026-04-16T14:23:10.871Z</time></trkpt><trkpt lat="42.1717317" lon="14.68015"><ele>28.714285714285715</ele><time>2026-04-16T14:23:14.871Z</time></trkpt><trkpt lat="42.1716833" lon="14.6802133"><ele>28.0</ele><time>2026-04-16T14:23:17.871Z</time></trkpt><trkpt lat="42.17163" lon="14.6802917"><ele>28.0</ele><time>2026-04-16T14:23:20.87Z</time></trkpt><trkpt lat="42.1715833" lon="14.680375"><ele>28.0</ele><time>2026-04-16T14:23:23.87Z</time></trkpt><trkpt lat="42.1715433" lon="14.6804983"><ele>28.0</ele><time>2026-04-16T14:24:20.871Z</time></trkpt><trkpt lat="42.1715883" lon="14.6804317"><ele>28.0</ele><time>2026-04-16T14:24:25.871Z</time></trkpt><trkpt lat="42.171635" lon="14.6803733"><ele>28.0</ele><time>2026-04-16T14:24:30.871Z</time></trkpt><trkpt lat="42.1716933" lon="14.68031"><ele>28.0</ele><time>2026-04-16T14:24:35.87Z</time></trkpt><trkpt lat="42.171735" lon="14.6802417"><ele>28.0</ele><time>2026-04-16T14:24:38.87Z</time></trkpt><trkpt lat="42.1717783" lon="14.6801667"><ele>28.000000000000004</ele><time>2026-04-16T14:24:42.871Z</time></trkpt><trkpt lat="42.1718033" lon="14.6800333"><ele>28.0</ele><time>2026-04-16T14:25:03.87Z</time></trkpt><trkpt lat="42.1718617" lon="14.6799633"><ele>28.0</ele><time>2026-04-16T14:25:07.869Z</time></trkpt><trkpt lat="42.171905" lon="14.6799"><ele>28.0</ele><time>2026-04-16T14:25:12.87Z</time></trkpt><trkpt lat="42.17195" lon="14.67984"><ele>28.000000000000004</ele><time>2026-04-16T14:25:16.869Z</time></trkpt><trkpt lat="42.1720017" lon="14.6797717"><ele>28.0</ele><time>2026-04-16T14:25:20.869Z</time></trkpt><trkpt lat="42.1720567" lon="14.6797083"><ele>28.0</ele><time>2026-04-16T14:25:24.87Z</time></trkpt><trkpt lat="42.1721133" lon="14.6796617"><ele>28.0</ele><time>2026-04-16T14:25:27.87Z</time></trkpt><trkpt lat="42.1721833" lon="14.6796383"><ele>28.0</ele><time>2026-04-16T14:25:30.87Z</time></trkpt><trkpt lat="42.1722483" lon="14.679635"><ele>28.0</ele><time>2026-04-16T14:25:33.87Z</time></trkpt><trkpt lat="42.1723217" lon="14.679635"><ele>28.0</ele><time>2026-04-16T14:25:36.87Z</time></trkpt><trkpt lat="42.1723967" lon="14.679625"><ele>28.0</ele><time>2026-04-16T14:25:39.87Z</time></trkpt><trkpt lat="42.1724667" lon="14.679615"><ele>28.0</ele><time>2026-04-16T14:25:42.87Z</time></trkpt><trkpt lat="42.1725567" lon="14.6796167"><ele>28.833333333333336</ele><time>2026-04-16T14:25:45.87Z</time></trkpt><trkpt lat="42.1726483" lon="14.6796167"><ele>29.666666666666668</ele><time>2026-04-16T14:25:48.87Z</time></trkpt><trkpt lat="42.17274" lon="14.679615"><ele>30.5</ele><time>2026-04-16T14:25:51.869Z</time></trkpt><trkpt lat="42.17282" lon="14.6795717"><ele>31.333333333333336</ele><time>2026-04-16T14:25:54.87Z</time></trkpt><trkpt lat="42.17288" lon="14.6794717"><ele>32.166666666666664</ele><time>2026-04-16T14:25:57.87Z</time></trkpt><trkpt lat="42.1729133" lon="14.6793967"><ele>33.0</ele><time>2026-04-16T14:25:59.87Z</time></trkpt><trkpt lat="42.17295" lon="14.6793167"><ele>33.666666666666664</ele><time>2026-04-16T14:26:01.869Z</time></trkpt><trkpt lat="42.1729883" lon="14.6792317"><ele>34.333333333333336</ele><time>2026-04-16T14:26:03.869Z</time></trkpt><trkpt lat="42.1730267" lon="14.67914"><ele>35.0</ele><time>2026-04-16T14:26:05.87Z</time></trkpt><trkpt lat="42.1730667" lon="14.679035"><ele>35.66666666666667</ele><time>2026-04-16T14:26:08.869Z</time></trkpt><trkpt lat="42.173115" lon="14.6789467"><ele>36.333333333333336</ele><time>2026-04-16T14:26:11.87Z</time></trkpt><trkpt lat="42.1731617" lon="14.6788367"><ele>37.0</ele><time>2026-04-16T14:26:14.87Z</time></trkpt><trkpt lat="42.1731983" lon="14.6787583"><ele>37.0</ele><time>2026-04-16T14:26:16.87Z</time></trkpt><trkpt lat="42.173235" lon="14.67868"><ele>37.0</ele><time>2026-04-16T14:26:18.869Z</time></trkpt><trkpt lat="42.1732783" lon="14.6785667"><ele>37.0</ele><time>2026-04-16T14:26:21.87Z</time></trkpt><trkpt lat="42.1733233" lon="14.67846"><ele>37.0</ele><time>2026-04-16T14:26:24.869Z</time></trkpt><trkpt lat="42.173365" lon="14.6783483"><ele>37.0</ele><time>2026-04-16T14:26:27.87Z</time></trkpt><trkpt lat="42.1734083" lon="14.6782833"><ele>37.0</ele><time>2026-04-16T14:26:29.869Z</time></trkpt><trkpt lat="42.1734767" lon="14.678195"><ele>37.285714285714285</ele><time>2026-04-16T14:26:32.869Z</time></trkpt><trkpt lat="42.1735233" lon="14.6781217"><ele>37.57142857142857</ele><time>2026-04-16T14:26:34.869Z</time></trkpt><trkpt lat="42.1735833" lon="14.6780633"><ele>37.85714285714286</ele><time>2026-04-16T14:26:36.87Z</time></trkpt><trkpt lat="42.1736417" lon="14.6780283"><ele>38.14285714285714</ele><time>2026-04-16T14:26:38.87Z</time></trkpt><trkpt lat="42.173725" lon="14.6779917"><ele>38.42857142857142</ele><time>2026-04-16T14:26:41.869Z</time></trkpt><trkpt lat="42.1737883" lon="14.6779767"><ele>38.714285714285715</ele><time>2026-04-16T14:26:43.869Z</time></trkpt><trkpt lat="42.1738633" lon="14.6779567"><ele>39.0</ele><time>2026-04-16T14:26:45.87Z</time></trkpt><trkpt lat="42.173925" lon="14.6779233"><ele>39.0</ele><time>2026-04-16T14:26:47.87Z</time></trkpt><trkpt lat="42.173985" lon="14.6778783"><ele>39.0</ele><time>2026-04-16T14:26:49.869Z</time></trkpt><trkpt lat="42.1740483" lon="14.6778167"><ele>39.0</ele><time>2026-04-16T14:26:51.87Z</time></trkpt><trkpt lat="42.1741117" lon="14.6777567"><ele>39.0</ele><time>2026-04-16T14:26:53.869Z</time></trkpt><trkpt lat="42.17417" lon="14.6777083"><ele>39.0</ele><time>2026-04-16T14:26:55.87Z</time></trkpt><trkpt lat="42.1742517" lon="14.6776467"><ele>39.0</ele><time>2026-04-16T14:26:58.869Z</time></trkpt><trkpt lat="42.1743133" lon="14.6776067"><ele>39.0</ele><time>2026-04-16T14:27:00.87Z</time></trkpt><trkpt lat="42.1743867" lon="14.6775467"><ele>39.0</ele><time>2026-04-16T14:27:03.869Z</time></trkpt><trkpt lat="42.174455" lon="14.677505"><ele>39.0</ele><time>2026-04-16T14:27:05.87Z</time></trkpt><trkpt lat="42.1745317" lon="14.6774983"><ele>39.0</ele><time>2026-04-16T14:27:07.87Z</time></trkpt><trkpt lat="42.1746033" lon="14.6775183"><ele>39.0</ele><time>2026-04-16T14:27:09.87Z</time></trkpt><trkpt lat="42.1746883" lon="14.6775367"><ele>39.0</ele><time>2026-04-16T14:27:11.869Z</time></trkpt><trkpt lat="42.174775" lon="14.677545"><ele>39.0</ele><time>2026-04-16T14:27:13.87Z</time></trkpt><trkpt lat="42.17485" lon="14.6775567"><ele>39.0</ele><time>2026-04-16T14:27:15.87Z</time></trkpt><trkpt lat="42.17492" lon="14.6775633"><ele>39.0</ele><time>2026-04-16T14:27:17.869Z</time></trkpt><trkpt lat="42.1749883" lon="14.6775667"><ele>39.0</ele><time>2026-04-16T14:27:19.87Z</time></trkpt><trkpt lat="42.175055" lon="14.6775783"><ele>39.0</ele><time>2026-04-16T14:27:21.869Z</time></trkpt><trkpt lat="42.1751283" lon="14.6775767"><ele>39.0</ele><time>2026-04-16T14:27:23.87Z</time></trkpt><trkpt lat="42.1752033" lon="14.67757"><ele>39.0</ele><time>2026-04-16T14:27:25.869Z</time></trkpt><trkpt lat="42.1752733" lon="14.6775417"><ele>38.833333333333336</ele><time>2026-04-16T14:27:27.87Z</time></trkpt><trkpt lat="42.17534" lon="14.6775117"><ele>38.666666666666664</ele><time>2026-04-16T14:27:29.87Z</time></trkpt><trkpt lat="42.1754067" lon="14.6774733"><ele>38.5</ele><time>2026-04-16T14:27:31.869Z</time></trkpt><trkpt lat="42.1754733" lon="14.6774267"><ele>38.33333333333333</ele><time>2026-04-16T14:27:33.869Z</time></trkpt><trkpt lat="42.175545" lon="14.6773883"><ele>38.166666666666664</ele><time>2026-04-16T14:27:35.869Z</time></trkpt><trkpt lat="42.1756217" lon="14.6773317"><ele>38.0</ele><time>2026-04-16T14:27:37.87Z</time></trkpt><trkpt lat="42.175705" lon="14.6772683"><ele>37.75</ele><time>2026-04-16T14:27:39.87Z</time></trkpt><trkpt lat="42.1758033" lon="14.6772133"><ele>37.5</ele><time>2026-04-16T14:27:41.87Z</time></trkpt><trkpt lat="42.1759067" lon="14.6771633"><ele>37.25</ele><time>2026-04-16T14:27:43.87Z</time></trkpt><trkpt lat="42.1760167" lon="14.6771267"><ele>37.0</ele><time>2026-04-16T14:27:45.87Z</time></trkpt><trkpt lat="42.1761417" lon="14.677085"><ele>37.0</ele><time>2026-04-16T14:27:47.87Z</time></trkpt><trkpt lat="42.1762083" lon="14.6770717"><ele>37.0</ele><time>2026-04-16T14:27:48.87Z</time></trkpt><trkpt lat="42.1762717" lon="14.677065"><ele>37.0</ele><time>2026-04-16T14:27:49.87Z</time></trkpt><trkpt lat="42.1763417" lon="14.677055"><ele>37.0</ele><time>2026-04-16T14:27:50.869Z</time></trkpt><trkpt lat="42.1764133" lon="14.677055"><ele>37.0</ele><time>2026-04-16T14:27:51.87Z</time></trkpt><trkpt lat="42.176485" lon="14.67705"><ele>37.0</ele><time>2026-04-16T14:27:52.869Z</time></trkpt><trkpt lat="42.17656" lon="14.6770433"><ele>37.0</ele><time>2026-04-16T14:27:53.87Z</time></trkpt><trkpt lat="42.176635" lon="14.6770333"><ele>36.4</ele><time>2026-04-16T14:27:54.869Z</time></trkpt><trkpt lat="42.1767033" lon="14.6770217"><ele>35.800000000000004</ele><time>2026-04-16T14:27:55.87Z</time></trkpt><trkpt lat="42.1768217" lon="14.6769933"><ele>35.2</ele><time>2026-04-16T14:27:57.87Z</time></trkpt><trkpt lat="42.1769183" lon="14.6769533"><ele>34.6</ele><time>2026-04-16T14:27:59.87Z</time></trkpt><trkpt lat="42.1770033" lon="14.6769033"><ele>34.0</ele><time>2026-04-16T14:28:01.87Z</time></trkpt><trkpt lat="42.1770717" lon="14.6768683"><ele>33.4</ele><time>2026-04-16T14:28:03.87Z</time></trkpt><trkpt lat="42.17715" lon="14.676845"><ele>32.8</ele><time>2026-04-16T14:28:05.87Z</time></trkpt><trkpt lat="42.1772367" lon="14.6768083"><ele>32.2</ele><time>2026-04-16T14:28:07.87Z</time></trkpt><trkpt lat="42.1773283" lon="14.67677"><ele>31.6</ele><time>2026-04-16T14:28:09.869Z</time></trkpt><trkpt lat="42.1774267" lon="14.6767167"><ele>31.0</ele><time>2026-04-16T14:28:11.87Z</time></trkpt><trkpt lat="42.1775267" lon="14.6766683"><ele>31.0</ele><time>2026-04-16T14:28:13.87Z</time></trkpt><trkpt lat="42.1776233" lon="14.6766267"><ele>31.0</ele><time>2026-04-16T14:28:15.87Z</time></trkpt><trkpt lat="42.17773" lon="14.6765817"><ele>31.0</ele><time>2026-04-16T14:28:17.869Z</time></trkpt><trkpt lat="42.1778367" lon="14.676545"><ele>31.0</ele><time>2026-04-16T14:28:19.869Z</time></trkpt><trkpt lat="42.1779383" lon="14.6765033"><ele>31.0</ele><time>2026-04-16T14:28:21.87Z</time></trkpt><trkpt lat="42.17803" lon="14.67646"><ele>31.0</ele><time>2026-04-16T14:28:23.87Z</time></trkpt><trkpt lat="42.1781217" lon="14.676405"><ele>31.0</ele><time>2026-04-16T14:28:25.87Z</time></trkpt><trkpt lat="42.1782217" lon="14.6763483"><ele>31.0</ele><time>2026-04-16T14:28:27.869Z</time></trkpt><trkpt lat="42.1783267" lon="14.6762867"><ele>31.0</ele><time>2026-04-16T14:28:29.87Z</time></trkpt><trkpt lat="42.1784367" lon="14.6762217"><ele>31.0</ele><time>2026-04-16T14:28:31.87Z</time></trkpt><trkpt lat="42.1785383" lon="14.6761717"><ele>30.8</ele><time>2026-04-16T14:28:33.87Z</time></trkpt><trkpt lat="42.17864" lon="14.676115"><ele>30.6</ele><time>2026-04-16T14:28:35.87Z</time></trkpt><trkpt lat="42.1787283" lon="14.6760683"><ele>30.4</ele><time>2026-04-16T14:28:37.87Z</time></trkpt><trkpt lat="42.178825" lon="14.67603"><ele>30.2</ele><time>2026-04-16T14:28:39.869Z</time></trkpt><trkpt lat="42.1789317" lon="14.6759917"><ele>30.0</ele><time>2026-04-16T14:28:41.87Z</time></trkpt><trkpt lat="42.1790383" lon="14.675935"><ele>28.2</ele><time>2026-04-16T14:28:43.87Z</time></trkpt><trkpt lat="42.1791433" lon="14.675875"><ele>26.4</ele><time>2026-04-16T14:28:45.869Z</time></trkpt><trkpt lat="42.1792433" lon="14.6758183"><ele>24.6</ele><time>2026-04-16T14:28:47.869Z</time></trkpt><trkpt lat="42.1793417" lon="14.6757517"><ele>22.8</ele><time>2026-04-16T14:28:49.869Z</time></trkpt><trkpt lat="42.1794367" lon="14.675695"><ele>21.0</ele><time>2026-04-16T14:28:51.87Z</time></trkpt><trkpt lat="42.1795333" lon="14.675635"><ele>21.0</ele><time>2026-04-16T14:28:53.87Z</time></trkpt><trkpt lat="42.179625" lon="14.6755767"><ele>21.0</ele><time>2026-04-16T14:28:55.87Z</time></trkpt><trkpt lat="42.1797033" lon="14.675525"><ele>21.0</ele><time>2026-04-16T14:28:57.869Z</time></trkpt><trkpt lat="42.1797733" lon="14.6754767"><ele>21.0</ele><time>2026-04-16T14:29:00.869Z</time></trkpt><trkpt lat="42.17984" lon="14.6754383"><ele>21.0</ele><time>2026-04-16T14:29:03.87Z</time></trkpt><trkpt lat="42.1799033" lon="14.675385"><ele>21.0</ele><time>2026-04-16T14:29:06.87Z</time></trkpt><trkpt lat="42.179965" lon="14.6753383"><ele>20.833333333333332</ele><time>2026-04-16T14:29:09.869Z</time></trkpt><trkpt lat="42.1800283" lon="14.6753017"><ele>20.666666666666668</ele><time>2026-04-16T14:29:12.87Z</time></trkpt><trkpt lat="42.1801083" lon="14.6752233"><ele>20.5</ele><time>2026-04-16T14:29:15.87Z</time></trkpt><trkpt lat="42.1801767" lon="14.67516"><ele>20.333333333333336</ele><time>2026-04-16T14:29:17.869Z</time></trkpt><trkpt lat="42.1802483" lon="14.67509"><ele>20.166666666666668</ele><time>2026-04-16T14:29:19.869Z</time></trkpt><trkpt lat="42.1803183" lon="14.6750183"><ele>20.0</ele><time>2026-04-16T14:29:21.87Z</time></trkpt><trkpt lat="42.180395" lon="14.6749417"><ele>20.666666666666668</ele><time>2026-04-16T14:29:23.869Z</time></trkpt><trkpt lat="42.1804667" lon="14.6748633"><ele>21.333333333333336</ele><time>2026-04-16T14:29:25.87Z</time></trkpt><trkpt lat="42.18052" lon="14.6748017"><ele>22.0</ele><time>2026-04-16T14:29:27.87Z</time></trkpt><trkpt lat="42.1805783" lon="14.6747317"><ele>22.666666666666668</ele><time>2026-04-16T14:29:29.869Z</time></trkpt><trkpt lat="42.1806367" lon="14.674675"><ele>23.333333333333332</ele><time>2026-04-16T14:29:31.87Z</time></trkpt><trkpt lat="42.18071" lon="14.6746033"><ele>24.0</ele><time>2026-04-16T14:29:34.869Z</time></trkpt><trkpt lat="42.1807733" lon="14.6745283"><ele>23.999999999999996</ele><time>2026-04-16T14:29:37.87Z</time></trkpt><trkpt lat="42.1808217" lon="14.6744667"><ele>24.0</ele><time>2026-04-16T14:29:39.87Z</time></trkpt><trkpt lat="42.1808667" lon="14.6744067"><ele>24.0</ele><time>2026-04-16T14:29:41.87Z</time></trkpt><trkpt lat="42.1809233" lon="14.674345"><ele>24.0</ele><time>2026-04-16T14:29:43.869Z</time></trkpt><trkpt lat="42.18098" lon="14.6742733"><ele>24.0</ele><time>2026-04-16T14:29:45.869Z</time></trkpt><trkpt lat="42.1810383" lon="14.6741917"><ele>23.999999999999996</ele><time>2026-04-16T14:29:47.87Z</time></trkpt><trkpt lat="42.18109" lon="14.6741067"><ele>24.0</ele><time>2026-04-16T14:29:49.869Z</time></trkpt><trkpt lat="42.1811467" lon="14.674015"><ele>24.666666666666668</ele><time>2026-04-16T14:29:51.87Z</time></trkpt><trkpt lat="42.181205" lon="14.6739283"><ele>25.333333333333336</ele><time>2026-04-16T14:29:53.869Z</time></trkpt><trkpt lat="42.1812667" lon="14.67384"><ele>26.0</ele><time>2026-04-16T14:29:55.87Z</time></trkpt><trkpt lat="42.1813183" lon="14.6737617"><ele>26.666666666666668</ele><time>2026-04-16T14:29:57.869Z</time></trkpt><trkpt lat="42.1813667" lon="14.6736783"><ele>27.333333333333336</ele><time>2026-04-16T14:29:59.869Z</time></trkpt><trkpt lat="42.18142" lon="14.673595"><ele>28.0</ele><time>2026-04-16T14:30:01.87Z</time></trkpt><trkpt lat="42.1814783" lon="14.67349"><ele>26.2</ele><time>2026-04-16T14:30:03.87Z</time></trkpt><trkpt lat="42.181525" lon="14.67338"><ele>24.4</ele><time>2026-04-16T14:30:05.87Z</time></trkpt><trkpt lat="42.1815683" lon="14.673275"><ele>22.599999999999998</ele><time>2026-04-16T14:30:07.869Z</time></trkpt><trkpt lat="42.18161" lon="14.67317"><ele>20.799999999999997</ele><time>2026-04-16T14:30:09.869Z</time></trkpt><trkpt lat="42.1816567" lon="14.6730683"><ele>19.0</ele><time>2026-04-16T14:30:11.87Z</time></trkpt><trkpt lat="42.1817033" lon="14.672955"><ele>19.0</ele><time>2026-04-16T14:30:13.869Z</time></trkpt><trkpt lat="42.1817533" lon="14.67283"><ele>19.0</ele><time>2026-04-16T14:30:15.87Z</time></trkpt><trkpt lat="42.1817983" lon="14.672705"><ele>19.0</ele><time>2026-04-16T14:30:17.869Z</time></trkpt><trkpt lat="42.1818333" lon="14.6725933"><ele>19.0</ele><time>2026-04-16T14:30:19.87Z</time></trkpt><trkpt lat="42.1818717" lon="14.6724933"><ele>19.0</ele><time>2026-04-16T14:30:21.87Z</time></trkpt><trkpt lat="42.18191" lon="14.6723783"><ele>19.5</ele><time>2026-04-16T14:30:23.87Z</time></trkpt><trkpt lat="42.1819583" lon="14.6722683"><ele>20.0</ele><time>2026-04-16T14:30:25.869Z</time></trkpt><trkpt lat="42.1819933" lon="14.67217"><ele>20.5</ele><time>2026-04-16T14:30:27.87Z</time></trkpt><trkpt lat="42.1820283" lon="14.6720817"><ele>21.0</ele><time>2026-04-16T14:30:29.87Z</time></trkpt><trkpt lat="42.1820517" lon="14.6719967"><ele>21.5</ele><time>2026-04-16T14:30:31.87Z</time></trkpt><trkpt lat="42.18209" lon="14.6718933"><ele>22.0</ele><time>2026-04-16T14:30:34.87Z</time></trkpt><trkpt lat="42.18212" lon="14.6718117"><ele>22.0</ele><time>2026-04-16T14:30:36.869Z</time></trkpt><trkpt lat="42.1821533" lon="14.6717183"><ele>22.0</ele><time>2026-04-16T14:30:38.87Z</time></trkpt><trkpt lat="42.1821883" lon="14.6716267"><ele>22.0</ele><time>2026-04-16T14:30:40.869Z</time></trkpt><trkpt lat="42.1822283" lon="14.6715417"><ele>22.0</ele><time>2026-04-16T14:30:42.87Z</time></trkpt><trkpt lat="42.1822683" lon="14.671465"><ele>22.0</ele><time>2026-04-16T14:30:44.869Z</time></trkpt><trkpt lat="42.1823" lon="14.6713817"><ele>22.0</ele><time>2026-04-16T14:30:46.869Z</time></trkpt><trkpt lat="42.1823367" lon="14.6712917"><ele>22.0</ele><time>2026-04-16T14:30:48.869Z</time></trkpt><trkpt lat="42.1823617" lon="14.671195"><ele>22.333333333333332</ele><time>2026-04-16T14:30:50.87Z</time></trkpt><trkpt lat="42.1823883" lon="14.671105"><ele>22.666666666666664</ele><time>2026-04-16T14:30:52.869Z</time></trkpt><trkpt lat="42.1824283" lon="14.6710183"><ele>23.0</ele><time>2026-04-16T14:30:54.87Z</time></trkpt><trkpt lat="42.1824717" lon="14.6709167"><ele>23.333333333333332</ele><time>2026-04-16T14:30:56.87Z</time></trkpt><trkpt lat="42.1825133" lon="14.6708267"><ele>23.666666666666668</ele><time>2026-04-16T14:30:58.869Z</time></trkpt><trkpt lat="42.18255" lon="14.670735"><ele>24.0</ele><time>2026-04-16T14:31:00.87Z</time></trkpt><trkpt lat="42.1825833" lon="14.6706533"><ele>24.0</ele><time>2026-04-16T14:31:03.87Z</time></trkpt><trkpt lat="42.1826267" lon="14.6705683"><ele>24.0</ele><time>2026-04-16T14:31:08.869Z</time></trkpt><trkpt lat="42.1826567" lon="14.6704617"><ele>24.0</ele><time>2026-04-16T14:31:12.869Z</time></trkpt><trkpt lat="42.1826867" lon="14.67037"><ele>24.0</ele><time>2026-04-16T14:31:15.869Z</time></trkpt><trkpt lat="42.1827167" lon="14.6702517"><ele>24.0</ele><time>2026-04-16T14:31:18.869Z</time></trkpt><trkpt lat="42.182745" lon="14.6701633"><ele>24.0</ele><time>2026-04-16T14:31:20.87Z</time></trkpt><trkpt lat="42.18278" lon="14.670055"><ele>25.166666666666668</ele><time>2026-04-16T14:31:22.869Z</time></trkpt><trkpt lat="42.18282" lon="14.6699517"><ele>26.333333333333336</ele><time>2026-04-16T14:31:24.87Z</time></trkpt><trkpt lat="42.1828583" lon="14.6698433"><ele>27.5</ele><time>2026-04-16T14:31:26.87Z</time></trkpt><trkpt lat="42.182885" lon="14.6697267"><ele>28.666666666666668</ele><time>2026-04-16T14:31:28.87Z</time></trkpt><trkpt lat="42.1829183" lon="14.669615"><ele>29.833333333333336</ele><time>2026-04-16T14:31:30.87Z</time></trkpt><trkpt lat="42.1829517" lon="14.6695183"><ele>31.0</ele><time>2026-04-16T14:31:32.87Z</time></trkpt><trkpt lat="42.1829867" lon="14.66942"><ele>32.0</ele><time>2026-04-16T14:31:34.87Z</time></trkpt><trkpt lat="42.1830267" lon="14.6693183"><ele>33.0</ele><time>2026-04-16T14:31:36.869Z</time></trkpt><trkpt lat="42.1830633" lon="14.6692183"><ele>34.0</ele><time>2026-04-16T14:31:38.87Z</time></trkpt><trkpt lat="42.183095" lon="14.66912"><ele>35.0</ele><time>2026-04-16T14:31:40.87Z</time></trkpt><trkpt lat="42.18313" lon="14.669035"><ele>36.0</ele><time>2026-04-16T14:31:42.87Z</time></trkpt><trkpt lat="42.1831633" lon="14.66895"><ele>37.0</ele><time>2026-04-16T14:31:44.869Z</time></trkpt><trkpt lat="42.1832033" lon="14.6688733"><ele>35.0</ele><time>2026-04-16T14:31:46.87Z</time></trkpt><trkpt lat="42.1832317" lon="14.668785"><ele>33.0</ele><time>2026-04-16T14:31:48.869Z</time></trkpt><trkpt lat="42.1832617" lon="14.66869"><ele>31.0</ele><time>2026-04-16T14:31:50.869Z</time></trkpt><trkpt lat="42.1833083" lon="14.66859"><ele>29.0</ele><time>2026-04-16T14:31:53.87Z</time></trkpt><trkpt lat="42.1833467" lon="14.66849"><ele>27.000000000000004</ele><time>2026-04-16T14:31:56.87Z</time></trkpt><trkpt lat="42.18337" lon="14.6684033"><ele>25.0</ele><time>2026-04-16T14:31:59.87Z</time></trkpt><trkpt lat="42.18343" lon="14.6683217"><ele>25.0</ele><time>2026-04-16T14:32:05.87Z</time></trkpt><trkpt lat="42.1834533" lon="14.6681367"><ele>25.0</ele><time>2026-04-16T14:32:50.87Z</time></trkpt><trkpt lat="42.18364" lon="14.667985"><ele>25.0</ele><time>2026-04-16T14:33:37.87Z</time></trkpt><trkpt lat="42.1834967" lon="14.6680417"><ele>25.000000000000004</ele><time>2026-04-16T14:34:40.869Z</time></trkpt><trkpt lat="42.1834483" lon="14.6681533"><ele>25.0</ele><time>2026-04-16T14:35:26.869Z</time></trkpt><trkpt lat="42.1834" lon="14.66822"><ele>25.0</ele><time>2026-04-16T14:35:50.87Z</time></trkpt><trkpt lat="42.18335" lon="14.6682883"><ele>25.0</ele><time>2026-04-16T14:35:54.87Z</time></trkpt><trkpt lat="42.1832917" lon="14.6683917"><ele>25.000000000000004</ele><time>2026-04-16T14:35:57.869Z</time></trkpt><trkpt lat="42.18325" lon="14.66847"><ele>25.0</ele><time>2026-04-16T14:35:59.87Z</time></trkpt><trkpt lat="42.1832" lon="14.6685483"><ele>27.000000000000004</ele><time>2026-04-16T14:36:01.869Z</time></trkpt><trkpt lat="42.183165" lon="14.6686533"><ele>29.0</ele><time>2026-04-16T14:36:03.87Z</time></trkpt><trkpt lat="42.18314" lon="14.6687583"><ele>31.0</ele><time>2026-04-16T14:36:05.87Z</time></trkpt><trkpt lat="42.1831117" lon="14.668865"><ele>33.0</ele><time>2026-04-16T14:36:07.869Z</time></trkpt><trkpt lat="42.1830817" lon="14.6689717"><ele>35.0</ele><time>2026-04-16T14:36:09.869Z</time></trkpt><trkpt lat="42.1830467" lon="14.66908"><ele>37.0</ele><time>2026-04-16T14:36:11.869Z</time></trkpt><trkpt lat="42.1830067" lon="14.6691967"><ele>37.0</ele><time>2026-04-16T14:36:13.87Z</time></trkpt><trkpt lat="42.1829633" lon="14.6693"><ele>37.0</ele><time>2026-04-16T14:36:15.869Z</time></trkpt><trkpt lat="42.1829217" lon="14.6694217"><ele>37.0</ele><time>2026-04-16T14:36:17.869Z</time></trkpt><trkpt lat="42.1828867" lon="14.669555"><ele>37.0</ele><time>2026-04-16T14:36:19.87Z</time></trkpt><trkpt lat="42.1828583" lon="14.66967"><ele>37.0</ele><time>2026-04-16T14:36:21.87Z</time></trkpt><trkpt lat="42.1828267" lon="14.66979"><ele>36.0</ele><time>2026-04-16T14:36:23.869Z</time></trkpt><trkpt lat="42.1827933" lon="14.6699033"><ele>35.0</ele><time>2026-04-16T14:36:25.87Z</time></trkpt><trkpt lat="42.18276" lon="14.6700067"><ele>34.0</ele><time>2026-04-16T14:36:27.87Z</time></trkpt><trkpt lat="42.1827183" lon="14.6701083"><ele>33.0</ele><time>2026-04-16T14:36:29.869Z</time></trkpt><trkpt lat="42.1826817" lon="14.6702117"><ele>32.0</ele><time>2026-04-16T14:36:31.869Z</time></trkpt><trkpt lat="42.18266" lon="14.6703133"><ele>31.0</ele><time>2026-04-16T14:36:35.869Z</time></trkpt><trkpt lat="42.1826217" lon="14.6703883"><ele>31.000000000000004</ele><time>2026-04-16T14:36:38.869Z</time></trkpt><trkpt lat="42.18257" lon="14.670455"><ele>31.0</ele><time>2026-04-16T14:36:41.87Z</time></trkpt><trkpt lat="42.1825333" lon="14.6705267"><ele>31.0</ele><time>2026-04-16T14:36:43.869Z</time></trkpt><trkpt lat="42.1824817" lon="14.67063"><ele>31.0</ele><time>2026-04-16T14:36:46.869Z</time></trkpt><trkpt lat="42.1824417" lon="14.6707333"><ele>31.000000000000004</ele><time>2026-04-16T14:36:49.87Z</time></trkpt><trkpt lat="42.1823833" lon="14.670835"><ele>31.0</ele><time>2026-04-16T14:36:52.869Z</time></trkpt><trkpt lat="42.18234" lon="14.670905"><ele>31.000000000000004</ele><time>2026-04-16T14:36:54.87Z</time></trkpt><trkpt lat="42.1823033" lon="14.6709817"><ele>31.0</ele><time>2026-04-16T14:36:56.869Z</time></trkpt><trkpt lat="42.182275" lon="14.6710617"><ele>31.0</ele><time>2026-04-16T14:36:58.869Z</time></trkpt><trkpt lat="42.182245" lon="14.6711617"><ele>31.0</ele><time>2026-04-16T14:37:00.87Z</time></trkpt><trkpt lat="42.1822083" lon="14.6712567"><ele>31.000000000000004</ele><time>2026-04-16T14:37:02.87Z</time></trkpt><trkpt lat="42.182175" lon="14.6713583"><ele>31.0</ele><time>2026-04-16T14:37:04.869Z</time></trkpt><trkpt lat="42.1821417" lon="14.6714733"><ele>29.200000000000003</ele><time>2026-04-16T14:37:06.87Z</time></trkpt><trkpt lat="42.18211" lon="14.6715933"><ele>27.400000000000002</ele><time>2026-04-16T14:37:08.869Z</time></trkpt><trkpt lat="42.1820767" lon="14.671715"><ele>25.6</ele><time>2026-04-16T14:37:10.87Z</time></trkpt><trkpt lat="42.18204" lon="14.671825"><ele>23.8</ele><time>2026-04-16T14:37:12.869Z</time></trkpt><trkpt lat="42.1820033" lon="14.6719417"><ele>22.0</ele><time>2026-04-16T14:37:14.87Z</time></trkpt><trkpt lat="42.18197" lon="14.67205"><ele>22.0</ele><time>2026-04-16T14:37:16.87Z</time></trkpt><trkpt lat="42.1819417" lon="14.6721567"><ele>22.0</ele><time>2026-04-16T14:37:18.87Z</time></trkpt><trkpt lat="42.1819117" lon="14.6722617"><ele>22.0</ele><time>2026-04-16T14:37:20.87Z</time></trkpt><trkpt lat="42.18189" lon="14.6723483"><ele>22.0</ele><time>2026-04-16T14:37:22.869Z</time></trkpt><trkpt lat="42.1818633" lon="14.6724383"><ele>22.0</ele><time>2026-04-16T14:37:24.87Z</time></trkpt><trkpt lat="42.1818283" lon="14.672525"><ele>22.0</ele><time>2026-04-16T14:37:26.87Z</time></trkpt><trkpt lat="42.1818" lon="14.67262"><ele>22.0</ele><time>2026-04-16T14:37:28.869Z</time></trkpt><trkpt lat="42.1817667" lon="14.67271"><ele>22.0</ele><time>2026-04-16T14:37:30.87Z</time></trkpt><trkpt lat="42.1817267" lon="14.6727967"><ele>22.0</ele><time>2026-04-16T14:37:32.869Z</time></trkpt><trkpt lat="42.1816867" lon="14.6728783"><ele>22.0</ele><time>2026-04-16T14:37:34.869Z</time></trkpt><trkpt lat="42.18165" lon="14.6729583"><ele>22.0</ele><time>2026-04-16T14:37:36.869Z</time></trkpt><trkpt lat="42.181615" lon="14.6730367"><ele>22.0</ele><time>2026-04-16T14:37:38.87Z</time></trkpt><trkpt lat="42.1815767" lon="14.6731233"><ele>22.0</ele><time>2026-04-16T14:37:40.87Z</time></trkpt><trkpt lat="42.181535" lon="14.673215"><ele>23.0</ele><time>2026-04-16T14:37:42.869Z</time></trkpt><trkpt lat="42.1814967" lon="14.6733233"><ele>24.0</ele><time>2026-04-16T14:37:44.87Z</time></trkpt><trkpt lat="42.1814433" lon="14.6734183"><ele>25.0</ele><time>2026-04-16T14:37:46.869Z</time></trkpt><trkpt lat="42.1814" lon="14.6735017"><ele>26.0</ele><time>2026-04-16T14:37:48.87Z</time></trkpt><trkpt lat="42.1813583" lon="14.6735783"><ele>27.000000000000004</ele><time>2026-04-16T14:37:50.87Z</time></trkpt><trkpt lat="42.1813083" lon="14.673655"><ele>28.0</ele><time>2026-04-16T14:37:52.87Z</time></trkpt><trkpt lat="42.1812633" lon="14.6737433"><ele>28.000000000000004</ele><time>2026-04-16T14:37:54.869Z</time></trkpt><trkpt lat="42.1812133" lon="14.673825"><ele>28.0</ele><time>2026-04-16T14:37:56.869Z</time></trkpt><trkpt lat="42.181165" lon="14.6739083"><ele>28.0</ele><time>2026-04-16T14:37:58.869Z</time></trkpt><trkpt lat="42.1811167" lon="14.6739867"><ele>28.0</ele><time>2026-04-16T14:38:00.87Z</time></trkpt><trkpt lat="42.1810733" lon="14.674065"><ele>28.000000000000004</ele><time>2026-04-16T14:38:02.869Z</time></trkpt><trkpt lat="42.181025" lon="14.6741367"><ele>28.0</ele><time>2026-04-16T14:38:04.87Z</time></trkpt><trkpt lat="42.1809783" lon="14.6742167"><ele>28.0</ele><time>2026-04-16T14:38:06.869Z</time></trkpt><trkpt lat="42.1809233" lon="14.6742967"><ele>28.0</ele><time>2026-04-16T14:38:08.87Z</time></trkpt><trkpt lat="42.180865" lon="14.67437"><ele>28.0</ele><time>2026-04-16T14:38:10.87Z</time></trkpt><trkpt lat="42.1808183" lon="14.6744333"><ele>28.0</ele><time>2026-04-16T14:38:12.87Z</time></trkpt><trkpt lat="42.1807683" lon="14.6744867"><ele>28.0</ele><time>2026-04-16T14:38:14.87Z</time></trkpt><trkpt lat="42.1807017" lon="14.67456"><ele>28.0</ele><time>2026-04-16T14:38:17.87Z</time></trkpt><trkpt lat="42.1806483" lon="14.67462"><ele>28.0</ele><time>2026-04-16T14:38:20.87Z</time></trkpt><trkpt lat="42.18064" lon="14.6747067"><ele>27.333333333333336</ele><time>2026-04-16T14:38:23.87Z</time></trkpt><trkpt lat="42.1806883" lon="14.6747617"><ele>26.666666666666668</ele><time>2026-04-16T14:38:26.87Z</time></trkpt><trkpt lat="42.1807383" lon="14.6748333"><ele>26.0</ele><time>2026-04-16T14:38:30.869Z</time></trkpt><trkpt lat="42.1807933" lon="14.67491"><ele>25.333333333333336</ele><time>2026-04-16T14:38:34.869Z</time></trkpt><trkpt lat="42.1808467" lon="14.67499"><ele>24.666666666666668</ele><time>2026-04-16T14:38:38.87Z</time></trkpt><trkpt lat="42.1808433" lon="14.6751"><ele>24.0</ele><time>2026-04-16T14:39:06.87Z</time></trkpt><trkpt lat="42.1808317" lon="14.6752067"><ele>23.999999999999996</ele><time>2026-04-16T14:39:10.869Z</time></trkpt><trkpt lat="42.18082" lon="14.6752917"><ele>24.0</ele><time>2026-04-16T14:39:13.87Z</time></trkpt><trkpt lat="42.1808" lon="14.67538"><ele>24.0</ele><time>2026-04-16T14:39:16.87Z</time></trkpt><trkpt lat="42.18081" lon="14.6754867"><ele>24.0</ele><time>2026-04-16T14:40:39.869Z</time></trkpt><trkpt lat="42.1808197" lon="14.6754005"><ele>24.0</ele><time>2026-04-16T14:41:53.869Z</time></trkpt><trkpt lat="42.1808314" lon="14.6752902"><ele>23.999999999999996</ele><time>2026-04-16T14:41:57.87Z</time></trkpt><trkpt lat="42.1808374" lon="14.6751959"><ele>24.0</ele><time>2026-04-16T14:42:01.87Z</time></trkpt><trkpt lat="42.1808416" lon="14.675097"><ele>23.999999999999996</ele><time>2026-04-16T14:42:05.87Z</time></trkpt><trkpt lat="42.1808347" lon="14.6749991"><ele>24.0</ele><time>2026-04-16T14:42:09.869Z</time></trkpt><trkpt lat="42.1808043" lon="14.6749238"><ele>24.0</ele><time>2026-04-16T14:42:13.87Z</time></trkpt><trkpt lat="42.1807524" lon="14.6748602"><ele>24.0</ele><time>2026-04-16T14:42:17.869Z</time></trkpt><trkpt lat="42.1807079" lon="14.6747971"><ele>24.0</ele><time>2026-04-16T14:42:20.87Z</time></trkpt><trkpt lat="42.1806271" lon="14.6747358"><ele>23.999999999999996</ele><time>2026-04-16T14:42:23.869Z</time></trkpt><trkpt lat="42.1805521" lon="14.6747559"><ele>24.0</ele><time>2026-04-16T14:42:25.869Z</time></trkpt><trkpt lat="42.180489" lon="14.6748065"><ele>24.333333333333332</ele><time>2026-04-16T14:42:27.87Z</time></trkpt><trkpt lat="42.180431" lon="14.6748623"><ele>24.666666666666664</ele><time>2026-04-16T14:42:29.87Z</time></trkpt><trkpt lat="42.1803751" lon="14.6749145"><ele>25.0</ele><time>2026-04-16T14:42:31.87Z</time></trkpt><trkpt lat="42.1803192" lon="14.67498"><ele>25.333333333333332</ele><time>2026-04-16T14:42:33.87Z</time></trkpt><trkpt lat="42.1802532" lon="14.6750473"><ele>25.666666666666664</ele><time>2026-04-16T14:42:35.87Z</time></trkpt><trkpt lat="42.1801888" lon="14.6751"><ele>26.0</ele><time>2026-04-16T14:42:37.87Z</time></trkpt><trkpt lat="42.1801214" lon="14.6751549"><ele>26.0</ele><time>2026-04-16T14:42:39.87Z</time></trkpt><trkpt lat="42.1800651" lon="14.6752105"><ele>26.0</ele><time>2026-04-16T14:42:42.869Z</time></trkpt><trkpt lat="42.1799983" lon="14.6752567"><ele>26.0</ele><time>2026-04-16T14:44:06.869Z</time></trkpt><trkpt lat="42.179935" lon="14.6752917"><ele>26.0</ele><time>2026-04-16T14:44:09.868Z</time></trkpt><trkpt lat="42.17988" lon="14.67534"><ele>26.0</ele><time>2026-04-16T14:44:13.869Z</time></trkpt><trkpt lat="42.17982" lon="14.675375"><ele>26.0</ele><time>2026-04-16T14:44:16.869Z</time></trkpt><trkpt lat="42.179745" lon="14.675425"><ele>26.0</ele><time>2026-04-16T14:44:19.869Z</time></trkpt><trkpt lat="42.1796717" lon="14.6754717"><ele>25.285714285714285</ele><time>2026-04-16T14:44:22.869Z</time></trkpt><trkpt lat="42.17961" lon="14.67551"><ele>24.571428571428573</ele><time>2026-04-16T14:44:25.869Z</time></trkpt><trkpt lat="42.17955" lon="14.675545"><ele>23.857142857142858</ele><time>2026-04-16T14:44:28.869Z</time></trkpt><trkpt lat="42.1794867" lon="14.6755833"><ele>23.142857142857142</ele><time>2026-04-16T14:44:31.869Z</time></trkpt><trkpt lat="42.1794217" lon="14.67562"><ele>22.42857142857143</ele><time>2026-04-16T14:44:34.869Z</time></trkpt><trkpt lat="42.1793433" lon="14.67566"><ele>21.714285714285715</ele><time>2026-04-16T14:44:37.869Z</time></trkpt><trkpt lat="42.1792783" lon="14.6756967"><ele>21.0</ele><time>2026-04-16T14:44:39.869Z</time></trkpt><trkpt lat="42.1792133" lon="14.675735"><ele>21.0</ele><time>2026-04-16T14:44:41.868Z</time></trkpt><trkpt lat="42.1791483" lon="14.67577"><ele>21.0</ele><time>2026-04-16T14:44:43.869Z</time></trkpt><trkpt lat="42.17908" lon="14.675795"><ele>21.0</ele><time>2026-04-16T14:44:46.868Z</time></trkpt><trkpt lat="42.1790083" lon="14.67583"><ele>21.0</ele><time>2026-04-16T14:44:49.869Z</time></trkpt><trkpt lat="42.1789167" lon="14.67588"><ele>21.0</ele><time>2026-04-16T14:44:52.869Z</time></trkpt><trkpt lat="42.1788517" lon="14.6759167"><ele>21.0</ele><time>2026-04-16T14:44:54.869Z</time></trkpt><trkpt lat="42.17879" lon="14.67595"><ele>21.666666666666668</ele><time>2026-04-16T14:44:56.869Z</time></trkpt><trkpt lat="42.1787267" lon="14.6759817"><ele>22.333333333333336</ele><time>2026-04-16T14:44:58.869Z</time></trkpt><trkpt lat="42.1786417" lon="14.6760233"><ele>23.0</ele><time>2026-04-16T14:45:01.869Z</time></trkpt><trkpt lat="42.1785683" lon="14.6760583"><ele>23.666666666666668</ele><time>2026-04-16T14:45:03.868Z</time></trkpt><trkpt lat="42.1785" lon="14.6760967"><ele>24.333333333333336</ele><time>2026-04-16T14:45:05.869Z</time></trkpt><trkpt lat="42.1784283" lon="14.6761383"><ele>25.0</ele><time>2026-04-16T14:45:07.868Z</time></trkpt><trkpt lat="42.1783583" lon="14.676175"><ele>25.000000000000004</ele><time>2026-04-16T14:45:09.868Z</time></trkpt><trkpt lat="42.17829" lon="14.6762117"><ele>25.0</ele><time>2026-04-16T14:45:11.869Z</time></trkpt><trkpt lat="42.178225" lon="14.6762433"><ele>25.0</ele><time>2026-04-16T14:45:13.869Z</time></trkpt><trkpt lat="42.1781583" lon="14.67628"><ele>25.0</ele><time>2026-04-16T14:45:15.869Z</time></trkpt><trkpt lat="42.1780883" lon="14.6763133"><ele>25.0</ele><time>2026-04-16T14:45:17.868Z</time></trkpt><trkpt lat="42.1780233" lon="14.6763467"><ele>25.000000000000004</ele><time>2026-04-16T14:45:19.869Z</time></trkpt><trkpt lat="42.17795" lon="14.676385"><ele>25.0</ele><time>2026-04-16T14:45:21.869Z</time></trkpt><trkpt lat="42.1778733" lon="14.67643"><ele>26.000000000000004</ele><time>2026-04-16T14:45:23.868Z</time></trkpt><trkpt lat="42.177795" lon="14.676475"><ele>27.0</ele><time>2026-04-16T14:45:25.868Z</time></trkpt><trkpt lat="42.177715" lon="14.6765233"><ele>28.0</ele><time>2026-04-16T14:45:27.868Z</time></trkpt><trkpt lat="42.1776433" lon="14.6765583"><ele>29.0</ele><time>2026-04-16T14:45:29.869Z</time></trkpt><trkpt lat="42.177575" lon="14.676585"><ele>30.000000000000004</ele><time>2026-04-16T14:45:31.869Z</time></trkpt><trkpt lat="42.1775017" lon="14.67662"><ele>31.0</ele><time>2026-04-16T14:45:33.869Z</time></trkpt><trkpt lat="42.1774317" lon="14.6766533"><ele>31.000000000000004</ele><time>2026-04-16T14:45:35.868Z</time></trkpt><trkpt lat="42.17736" lon="14.6766867"><ele>31.0</ele><time>2026-04-16T14:45:37.868Z</time></trkpt><trkpt lat="42.1772933" lon="14.6767217"><ele>31.0</ele><time>2026-04-16T14:45:39.868Z</time></trkpt><trkpt lat="42.1772317" lon="14.6767533"><ele>31.0</ele><time>2026-04-16T14:45:41.868Z</time></trkpt><trkpt lat="42.177165" lon="14.67678"><ele>31.000000000000004</ele><time>2026-04-16T14:45:43.868Z</time></trkpt><trkpt lat="42.1770817" lon="14.6768167"><ele>31.0</ele><time>2026-04-16T14:45:46.868Z</time></trkpt><trkpt lat="42.1769967" lon="14.6768767"><ele>31.0</ele><time>2026-04-16T14:45:49.868Z</time></trkpt><trkpt lat="42.1769333" lon="14.67691"><ele>31.000000000000004</ele><time>2026-04-16T14:45:51.869Z</time></trkpt><trkpt lat="42.1768583" lon="14.6769483"><ele>31.0</ele><time>2026-04-16T14:45:54.869Z</time></trkpt><trkpt lat="42.176795" lon="14.6769583"><ele>31.0</ele><time>2026-04-16T14:45:57.869Z</time></trkpt><trkpt lat="42.176705" lon="14.6769783"><ele>31.000000000000004</ele><time>2026-04-16T14:46:00.868Z</time></trkpt><trkpt lat="42.1766417" lon="14.6769933"><ele>31.0</ele><time>2026-04-16T14:46:02.869Z</time></trkpt><trkpt lat="42.1765733" lon="14.6770033"><ele>31.0</ele><time>2026-04-16T14:46:04.868Z</time></trkpt><trkpt lat="42.1765083" lon="14.6770117"><ele>31.857142857142858</ele><time>2026-04-16T14:46:06.869Z</time></trkpt><trkpt lat="42.1764367" lon="14.67701"><ele>32.714285714285715</ele><time>2026-04-16T14:46:08.869Z</time></trkpt><trkpt lat="42.1763667" lon="14.6770067"><ele>33.57142857142857</ele><time>2026-04-16T14:46:10.869Z</time></trkpt><trkpt lat="42.1763" lon="14.677015"><ele>34.42857142857143</ele><time>2026-04-16T14:46:12.869Z</time></trkpt><trkpt lat="42.176235" lon="14.67703"><ele>35.285714285714285</ele><time>2026-04-16T14:46:14.868Z</time></trkpt><trkpt lat="42.1761717" lon="14.677045"><ele>36.142857142857146</ele><time>2026-04-16T14:46:16.869Z</time></trkpt><trkpt lat="42.1761067" lon="14.6770633"><ele>37.0</ele><time>2026-04-16T14:46:18.868Z</time></trkpt><trkpt lat="42.1760417" lon="14.6770767"><ele>37.0</ele><time>2026-04-16T14:46:20.869Z</time></trkpt><trkpt lat="42.1759517" lon="14.677105"><ele>37.0</ele><time>2026-04-16T14:46:23.869Z</time></trkpt><trkpt lat="42.1758883" lon="14.67713"><ele>37.0</ele><time>2026-04-16T14:46:25.869Z</time></trkpt><trkpt lat="42.1758233" lon="14.6771583"><ele>37.0</ele><time>2026-04-16T14:46:27.869Z</time></trkpt><trkpt lat="42.1757617" lon="14.6771933"><ele>37.0</ele><time>2026-04-16T14:46:29.869Z</time></trkpt><trkpt lat="42.1757" lon="14.6772233"><ele>37.0</ele><time>2026-04-16T14:46:31.869Z</time></trkpt><trkpt lat="42.1756167" lon="14.677275"><ele>37.16666666666667</ele><time>2026-04-16T14:46:34.869Z</time></trkpt><trkpt lat="42.1755367" lon="14.67734"><ele>37.333333333333336</ele><time>2026-04-16T14:46:37.868Z</time></trkpt><trkpt lat="42.17546" lon="14.6773933"><ele>37.5</ele><time>2026-04-16T14:46:40.868Z</time></trkpt><trkpt lat="42.1753767" lon="14.6774367"><ele>37.666666666666664</ele><time>2026-04-16T14:46:43.869Z</time></trkpt><trkpt lat="42.175305" lon="14.67748"><ele>37.83333333333333</ele><time>2026-04-16T14:46:46.868Z</time></trkpt><trkpt lat="42.17521" lon="14.6775083"><ele>38.0</ele><time>2026-04-16T14:46:49.869Z</time></trkpt><trkpt lat="42.1751367" lon="14.6775233"><ele>38.0</ele><time>2026-04-16T14:46:51.869Z</time></trkpt><trkpt lat="42.175055" lon="14.67753"><ele>38.0</ele><time>2026-04-16T14:46:54.868Z</time></trkpt><trkpt lat="42.174985" lon="14.6775133"><ele>38.0</ele><time>2026-04-16T14:46:57.869Z</time></trkpt><trkpt lat="42.174915" lon="14.6775067"><ele>38.0</ele><time>2026-04-16T14:47:00.869Z</time></trkpt><trkpt lat="42.174835" lon="14.67749"><ele>38.0</ele><time>2026-04-16T14:47:03.869Z</time></trkpt><trkpt lat="42.17477" lon="14.67748"><ele>38.0</ele><time>2026-04-16T14:47:05.869Z</time></trkpt><trkpt lat="42.1746933" lon="14.677465"><ele>38.0</ele><time>2026-04-16T14:47:07.868Z</time></trkpt><trkpt lat="42.17461" lon="14.6774417"><ele>38.166666666666664</ele><time>2026-04-16T14:47:09.869Z</time></trkpt><trkpt lat="42.1745167" lon="14.67741"><ele>38.33333333333333</ele><time>2026-04-16T14:47:11.868Z</time></trkpt><trkpt lat="42.17444" lon="14.6773767"><ele>38.5</ele><time>2026-04-16T14:47:13.869Z</time></trkpt><trkpt lat="42.174375" lon="14.677325"><ele>38.666666666666664</ele><time>2026-04-16T14:47:15.869Z</time></trkpt><trkpt lat="42.1743183" lon="14.6772683"><ele>38.833333333333336</ele><time>2026-04-16T14:47:17.869Z</time></trkpt><trkpt lat="42.17426" lon="14.6772133"><ele>39.0</ele><time>2026-04-16T14:47:19.869Z</time></trkpt><trkpt lat="42.1741917" lon="14.67716"><ele>39.0</ele><time>2026-04-16T14:47:21.869Z</time></trkpt><trkpt lat="42.174135" lon="14.6771067"><ele>39.0</ele><time>2026-04-16T14:47:23.868Z</time></trkpt><trkpt lat="42.17408" lon="14.6770417"><ele>39.0</ele><time>2026-04-16T14:47:25.869Z</time></trkpt><trkpt lat="42.174015" lon="14.67697"><ele>39.0</ele><time>2026-04-16T14:47:27.868Z</time></trkpt><trkpt lat="42.17395" lon="14.6769"><ele>39.0</ele><time>2026-04-16T14:47:29.868Z</time></trkpt><trkpt lat="42.1738917" lon="14.6768417"><ele>39.0</ele><time>2026-04-16T14:47:31.869Z</time></trkpt><trkpt lat="42.1738283" lon="14.6767833"><ele>39.333333333333336</ele><time>2026-04-16T14:47:33.869Z</time></trkpt><trkpt lat="42.1737617" lon="14.67672"><ele>39.666666666666664</ele><time>2026-04-16T14:47:35.869Z</time></trkpt><trkpt lat="42.1736783" lon="14.6766633"><ele>40.0</ele><time>2026-04-16T14:47:37.869Z</time></trkpt><trkpt lat="42.1735933" lon="14.6766133"><ele>40.33333333333333</ele><time>2026-04-16T14:47:39.869Z</time></trkpt><trkpt lat="42.1735333" lon="14.6765817"><ele>40.666666666666664</ele><time>2026-04-16T14:47:40.869Z</time></trkpt><trkpt lat="42.1734383" lon="14.6765317"><ele>41.0</ele><time>2026-04-16T14:47:42.869Z</time></trkpt><trkpt lat="42.17336" lon="14.6764833"><ele>41.0</ele><time>2026-04-16T14:47:44.869Z</time></trkpt><trkpt lat="42.1732833" lon="14.6764433"><ele>41.0</ele><time>2026-04-16T14:47:46.869Z</time></trkpt><trkpt lat="42.173195" lon="14.6763983"><ele>41.0</ele><time>2026-04-16T14:47:48.868Z</time></trkpt><trkpt lat="42.1731133" lon="14.6763533"><ele>41.0</ele><time>2026-04-16T14:47:50.868Z</time></trkpt><trkpt lat="42.1730417" lon="14.676305"><ele>41.0</ele><time>2026-04-16T14:47:52.868Z</time></trkpt><trkpt lat="42.172965" lon="14.6762533"><ele>41.0</ele><time>2026-04-16T14:47:54.868Z</time></trkpt><trkpt lat="42.17289" lon="14.6762"><ele>41.0</ele><time>2026-04-16T14:47:56.869Z</time></trkpt><trkpt lat="42.172815" lon="14.6761517"><ele>41.0</ele><time>2026-04-16T14:47:58.869Z</time></trkpt><trkpt lat="42.1727383" lon="14.676105"><ele>41.0</ele><time>2026-04-16T14:48:00.869Z</time></trkpt><trkpt lat="42.1726633" lon="14.6760483"><ele>41.0</ele><time>2026-04-16T14:48:02.869Z</time></trkpt><trkpt lat="42.1725917" lon="14.6759967"><ele>41.0</ele><time>2026-04-16T14:48:04.869Z</time></trkpt><trkpt lat="42.172515" lon="14.6759517"><ele>41.0</ele><time>2026-04-16T14:48:06.869Z</time></trkpt><trkpt lat="42.1724467" lon="14.6759017"><ele>41.33333333333333</ele><time>2026-04-16T14:48:08.869Z</time></trkpt><trkpt lat="42.1723733" lon="14.6758483"><ele>41.666666666666664</ele><time>2026-04-16T14:48:10.869Z</time></trkpt><trkpt lat="42.1723017" lon="14.675795"><ele>42.0</ele><time>2026-04-16T14:48:12.869Z</time></trkpt><trkpt lat="42.17223" lon="14.6757467"><ele>42.333333333333336</ele><time>2026-04-16T14:48:14.868Z</time></trkpt><trkpt lat="42.1721583" lon="14.67569"><ele>42.66666666666667</ele><time>2026-04-16T14:48:16.869Z</time></trkpt><trkpt lat="42.172085" lon="14.6756317"><ele>43.0</ele><time>2026-04-16T14:48:18.869Z</time></trkpt><trkpt lat="42.1720117" lon="14.6755833"><ele>43.16666666666667</ele><time>2026-04-16T14:48:20.868Z</time></trkpt><trkpt lat="42.1719367" lon="14.675535"><ele>43.333333333333336</ele><time>2026-04-16T14:48:22.868Z</time></trkpt><trkpt lat="42.1718633" lon="14.675485"><ele>43.5</ele><time>2026-04-16T14:48:24.869Z</time></trkpt><trkpt lat="42.1717917" lon="14.6754417"><ele>43.666666666666664</ele><time>2026-04-16T14:48:26.868Z</time></trkpt><trkpt lat="42.1717233" lon="14.675385"><ele>43.83333333333333</ele><time>2026-04-16T14:48:28.868Z</time></trkpt><trkpt lat="42.1716567" lon="14.6753333"><ele>44.0</ele><time>2026-04-16T14:48:30.868Z</time></trkpt><trkpt lat="42.1715833" lon="14.6752767"><ele>44.666666666666664</ele><time>2026-04-16T14:48:32.868Z</time></trkpt><trkpt lat="42.1715133" lon="14.675225"><ele>45.33333333333333</ele><time>2026-04-16T14:48:34.869Z</time></trkpt><trkpt lat="42.17144" lon="14.6751783"><ele>46.0</ele><time>2026-04-16T14:48:36.869Z</time></trkpt><trkpt lat="42.1713733" lon="14.67513"><ele>46.666666666666664</ele><time>2026-04-16T14:48:38.869Z</time></trkpt><trkpt lat="42.17131" lon="14.67507"><ele>47.333333333333336</ele><time>2026-04-16T14:48:40.868Z</time></trkpt><trkpt lat="42.17128" lon="14.6749883"><ele>48.0</ele><time>2026-04-16T14:48:43.869Z</time></trkpt><trkpt lat="42.1713517" lon="14.6749183"><ele>48.0</ele><time>2026-04-16T14:48:46.868Z</time></trkpt><trkpt lat="42.1714033" lon="14.6748667"><ele>48.0</ele><time>2026-04-16T14:48:48.869Z</time></trkpt><trkpt lat="42.1714617" lon="14.6748067"><ele>48.0</ele><time>2026-04-16T14:48:50.869Z</time></trkpt><trkpt lat="42.1715167" lon="14.6747383"><ele>48.0</ele><time>2026-04-16T14:48:52.868Z</time></trkpt><trkpt lat="42.17157" lon="14.6746583"><ele>48.0</ele><time>2026-04-16T14:48:54.868Z</time></trkpt><trkpt lat="42.1716233" lon="14.674565"><ele>48.0</ele><time>2026-04-16T14:48:56.869Z</time></trkpt><trkpt lat="42.1716767" lon="14.6744633"><ele>47.8</ele><time>2026-04-16T14:48:58.869Z</time></trkpt><trkpt lat="42.1717267" lon="14.67436"><ele>47.599999999999994</ele><time>2026-04-16T14:49:00.869Z</time></trkpt><trkpt lat="42.1717783" lon="14.6742417"><ele>47.400000000000006</ele><time>2026-04-16T14:49:02.869Z</time></trkpt><trkpt lat="42.171835" lon="14.6741283"><ele>47.2</ele><time>2026-04-16T14:49:04.868Z</time></trkpt><trkpt lat="42.1718867" lon="14.6740167"><ele>47.0</ele><time>2026-04-16T14:49:06.868Z</time></trkpt><trkpt lat="42.1719417" lon="14.673905"><ele>47.0</ele><time>2026-04-16T14:49:08.868Z</time></trkpt><trkpt lat="42.171995" lon="14.6737933"><ele>47.0</ele><time>2026-04-16T14:49:10.869Z</time></trkpt><trkpt lat="42.1720517" lon="14.6736883"><ele>47.0</ele><time>2026-04-16T14:49:12.869Z</time></trkpt><trkpt lat="42.1721183" lon="14.6735817"><ele>47.0</ele><time>2026-04-16T14:49:14.868Z</time></trkpt><trkpt lat="42.1721917" lon="14.6734717"><ele>47.0</ele><time>2026-04-16T14:49:16.869Z</time></trkpt><trkpt lat="42.1722733" lon="14.6733667"><ele>46.25</ele><time>2026-04-16T14:49:18.868Z</time></trkpt><trkpt lat="42.1723583" lon="14.673265"><ele>45.5</ele><time>2026-04-16T14:49:20.869Z</time></trkpt><trkpt lat="42.1724483" lon="14.67316"><ele>44.75</ele><time>2026-04-16T14:49:22.868Z</time></trkpt><trkpt lat="42.17254" lon="14.6730467"><ele>44.0</ele><time>2026-04-16T14:49:24.869Z</time></trkpt><trkpt lat="42.1726283" lon="14.6729233"><ele>44.0</ele><time>2026-04-16T14:49:26.869Z</time></trkpt><trkpt lat="42.172705" lon="14.6727783"><ele>44.0</ele><time>2026-04-16T14:49:28.868Z</time></trkpt><trkpt lat="42.1727417" lon="14.6726933"><ele>44.0</ele><time>2026-04-16T14:49:29.869Z</time></trkpt><trkpt lat="42.1727817" lon="14.6726083"><ele>44.0</ele><time>2026-04-16T14:49:30.868Z</time></trkpt><trkpt lat="42.1728217" lon="14.6725233"><ele>44.0</ele><time>2026-04-16T14:49:31.869Z</time></trkpt><trkpt lat="42.17286" lon="14.6724383"><ele>44.0</ele><time>2026-04-16T14:49:32.869Z</time></trkpt><trkpt lat="42.1728933" lon="14.672355"><ele>44.0</ele><time>2026-04-16T14:49:33.869Z</time></trkpt><trkpt lat="42.1729283" lon="14.67228"><ele>44.0</ele><time>2026-04-16T14:49:34.868Z</time></trkpt><trkpt lat="42.1729833" lon="14.6721433"><ele>44.0</ele><time>2026-04-16T14:49:36.868Z</time></trkpt><trkpt lat="42.1730317" lon="14.6720033"><ele>44.0</ele><time>2026-04-16T14:49:38.868Z</time></trkpt><trkpt lat="42.1730867" lon="14.6718867"><ele>44.0</ele><time>2026-04-16T14:49:40.869Z</time></trkpt><trkpt lat="42.1731317" lon="14.6717667"><ele>44.0</ele><time>2026-04-16T14:49:42.869Z</time></trkpt><trkpt lat="42.173175" lon="14.6716617"><ele>44.0</ele><time>2026-04-16T14:49:44.869Z</time></trkpt><trkpt lat="42.1732217" lon="14.6715617"><ele>44.0</ele><time>2026-04-16T14:49:46.868Z</time></trkpt><trkpt lat="42.1732717" lon="14.67145"><ele>44.0</ele><time>2026-04-16T14:49:48.869Z</time></trkpt><trkpt lat="42.173315" lon="14.67134"><ele>44.0</ele><time>2026-04-16T14:49:50.869Z</time></trkpt><trkpt lat="42.173355" lon="14.6712317"><ele>44.0</ele><time>2026-04-16T14:49:52.868Z</time></trkpt><trkpt lat="42.1733933" lon="14.6711333"><ele>44.0</ele><time>2026-04-16T14:49:54.868Z</time></trkpt><trkpt lat="42.173435" lon="14.671045"><ele>44.0</ele><time>2026-04-16T14:49:56.868Z</time></trkpt><trkpt lat="42.1734817" lon="14.67095"><ele>44.0</ele><time>2026-04-16T14:49:58.868Z</time></trkpt><trkpt lat="42.1735317" lon="14.6708483"><ele>44.0</ele><time>2026-04-16T14:50:00.868Z</time></trkpt><trkpt lat="42.1735767" lon="14.6707383"><ele>44.0</ele><time>2026-04-16T14:50:02.869Z</time></trkpt><trkpt lat="42.1736267" lon="14.6706267"><ele>44.6</ele><time>2026-04-16T14:50:04.869Z</time></trkpt><trkpt lat="42.1736733" lon="14.6705167"><ele>45.2</ele><time>2026-04-16T14:50:06.869Z</time></trkpt><trkpt lat="42.1737167" lon="14.670405"><ele>45.800000000000004</ele><time>2026-04-16T14:50:08.868Z</time></trkpt><trkpt lat="42.1737633" lon="14.6702967"><ele>46.400000000000006</ele><time>2026-04-16T14:50:10.868Z</time></trkpt><trkpt lat="42.17381" lon="14.6701867"><ele>47.0</ele><time>2026-04-16T14:50:12.869Z</time></trkpt><trkpt lat="42.173855" lon="14.67008"><ele>47.0</ele><time>2026-04-16T14:50:14.868Z</time></trkpt><trkpt lat="42.1739017" lon="14.6699683"><ele>47.0</ele><time>2026-04-16T14:50:16.869Z</time></trkpt><trkpt lat="42.1739517" lon="14.6698567"><ele>47.0</ele><time>2026-04-16T14:50:18.869Z</time></trkpt><trkpt lat="42.1739983" lon="14.6697483"><ele>47.0</ele><time>2026-04-16T14:50:20.869Z</time></trkpt><trkpt lat="42.1740433" lon="14.669645"><ele>47.0</ele><time>2026-04-16T14:50:22.868Z</time></trkpt><trkpt lat="42.1740917" lon="14.6695267"><ele>47.2</ele><time>2026-04-16T14:50:24.869Z</time></trkpt><trkpt lat="42.1741367" lon="14.6694067"><ele>47.400000000000006</ele><time>2026-04-16T14:50:26.869Z</time></trkpt><trkpt lat="42.174175" lon="14.6692983"><ele>47.599999999999994</ele><time>2026-04-16T14:50:28.869Z</time></trkpt><trkpt lat="42.1742117" lon="14.669185"><ele>47.8</ele><time>2026-04-16T14:50:30.869Z</time></trkpt><trkpt lat="42.1742417" lon="14.6690683"><ele>48.0</ele><time>2026-04-16T14:50:32.868Z</time></trkpt><trkpt lat="42.17426" lon="14.6689567"><ele>48.0</ele><time>2026-04-16T14:50:34.869Z</time></trkpt><trkpt lat="42.1742767" lon="14.66884"><ele>48.0</ele><time>2026-04-16T14:50:36.869Z</time></trkpt><trkpt lat="42.17429" lon="14.6687233"><ele>48.0</ele><time>2026-04-16T14:50:38.869Z</time></trkpt><trkpt lat="42.1743" lon="14.6685817"><ele>48.0</ele><time>2026-04-16T14:50:40.869Z</time></trkpt><trkpt lat="42.1743133" lon="14.668415"><ele>48.0</ele><time>2026-04-16T14:50:42.869Z</time></trkpt><trkpt lat="42.174335" lon="14.6682417"><ele>47.833333333333336</ele><time>2026-04-16T14:50:44.868Z</time></trkpt><trkpt lat="42.174355" lon="14.6681517"><ele>47.666666666666664</ele><time>2026-04-16T14:50:45.869Z</time></trkpt><trkpt lat="42.1743883" lon="14.6680583"><ele>47.5</ele><time>2026-04-16T14:50:46.868Z</time></trkpt><trkpt lat="42.17443" lon="14.66797"><ele>47.33333333333333</ele><time>2026-04-16T14:50:47.868Z</time></trkpt><trkpt lat="42.1744833" lon="14.6678917"><ele>47.166666666666664</ele><time>2026-04-16T14:50:48.868Z</time></trkpt><trkpt lat="42.174545" lon="14.6678217"><ele>47.0</ele><time>2026-04-16T14:50:49.869Z</time></trkpt><trkpt lat="42.1746133" lon="14.6677467"><ele>46.6</ele><time>2026-04-16T14:50:50.869Z</time></trkpt><trkpt lat="42.1746833" lon="14.6676667"><ele>46.2</ele><time>2026-04-16T14:50:51.869Z</time></trkpt><trkpt lat="42.1747517" lon="14.6675883"><ele>45.8</ele><time>2026-04-16T14:50:52.868Z</time></trkpt><trkpt lat="42.1748233" lon="14.6675"><ele>45.4</ele><time>2026-04-16T14:50:53.868Z</time></trkpt><trkpt lat="42.1748917" lon="14.6674167"><ele>45.0</ele><time>2026-04-16T14:50:54.869Z</time></trkpt><trkpt lat="42.1749567" lon="14.6673417"><ele>44.666666666666664</ele><time>2026-04-16T14:50:55.868Z</time></trkpt><trkpt lat="42.1750183" lon="14.6672667"><ele>44.333333333333336</ele><time>2026-04-16T14:50:56.869Z</time></trkpt><trkpt lat="42.1750733" lon="14.667195"><ele>44.0</ele><time>2026-04-16T14:50:57.869Z</time></trkpt><trkpt lat="42.1751367" lon="14.667125"><ele>43.66666666666667</ele><time>2026-04-16T14:50:58.869Z</time></trkpt><trkpt lat="42.1751917" lon="14.66706"><ele>43.333333333333336</ele><time>2026-04-16T14:50:59.869Z</time></trkpt><trkpt lat="42.1752433" lon="14.6670017"><ele>43.0</ele><time>2026-04-16T14:51:00.869Z</time></trkpt><trkpt lat="42.1753233" lon="14.66692"><ele>43.0</ele><time>2026-04-16T14:51:02.869Z</time></trkpt><trkpt lat="42.1753933" lon="14.66684"><ele>43.0</ele><time>2026-04-16T14:51:04.869Z</time></trkpt><trkpt lat="42.175445" lon="14.66678"><ele>43.0</ele><time>2026-04-16T14:51:06.869Z</time></trkpt><trkpt lat="42.175495" lon="14.666725"><ele>43.0</ele><time>2026-04-16T14:51:08.868Z</time></trkpt><trkpt lat="42.17557" lon="14.666665"><ele>43.0</ele><time>2026-04-16T14:51:11.869Z</time></trkpt><trkpt lat="42.17563" lon="14.666615"><ele>43.0</ele><time>2026-04-16T14:51:13.868Z</time></trkpt><trkpt lat="42.1756917" lon="14.66656"><ele>43.5</ele><time>2026-04-16T14:51:15.868Z</time></trkpt><trkpt lat="42.1757617" lon="14.6665067"><ele>44.0</ele><time>2026-04-16T14:51:17.868Z</time></trkpt><trkpt lat="42.1758267" lon="14.666455"><ele>44.5</ele><time>2026-04-16T14:51:19.868Z</time></trkpt><trkpt lat="42.17589" lon="14.6664133"><ele>45.0</ele><time>2026-04-16T14:51:21.869Z</time></trkpt><trkpt lat="42.1759517" lon="14.66638"><ele>45.5</ele><time>2026-04-16T14:51:23.869Z</time></trkpt><trkpt lat="42.1760333" lon="14.66633"><ele>46.0</ele><time>2026-04-16T14:51:26.868Z</time></trkpt><trkpt lat="42.176095" lon="14.6662717"><ele>46.0</ele><time>2026-04-16T14:51:28.869Z</time></trkpt><trkpt lat="42.1761567" lon="14.6662267"><ele>46.0</ele><time>2026-04-16T14:51:30.869Z</time></trkpt><trkpt lat="42.17622" lon="14.6661683"><ele>46.0</ele><time>2026-04-16T14:51:32.869Z</time></trkpt><trkpt lat="42.1762867" lon="14.666115"><ele>46.0</ele><time>2026-04-16T14:51:34.869Z</time></trkpt><trkpt lat="42.1763517" lon="14.6660583"><ele>46.0</ele><time>2026-04-16T14:51:36.869Z</time></trkpt><trkpt lat="42.17641" lon="14.6659967"><ele>46.0</ele><time>2026-04-16T14:51:38.869Z</time></trkpt><trkpt lat="42.1764717" lon="14.66593"><ele>46.5</ele><time>2026-04-16T14:51:40.868Z</time></trkpt><trkpt lat="42.1765267" lon="14.665865"><ele>47.0</ele><time>2026-04-16T14:51:42.868Z</time></trkpt><trkpt lat="42.1765783" lon="14.6658"><ele>47.5</ele><time>2026-04-16T14:51:44.869Z</time></trkpt><trkpt lat="42.1766383" lon="14.6657383"><ele>48.0</ele><time>2026-04-16T14:51:46.869Z</time></trkpt><trkpt lat="42.1766983" lon="14.6656567"><ele>48.49999999999999</ele><time>2026-04-16T14:51:48.868Z</time></trkpt><trkpt lat="42.1767583" lon="14.66558"><ele>49.0</ele><time>2026-04-16T14:51:50.869Z</time></trkpt><trkpt lat="42.1768233" lon="14.6655117"><ele>48.99999999999999</ele><time>2026-04-16T14:51:52.869Z</time></trkpt><trkpt lat="42.1768867" lon="14.6654467"><ele>49.0</ele><time>2026-04-16T14:51:54.869Z</time></trkpt><trkpt lat="42.1769483" lon="14.6653733"><ele>49.0</ele><time>2026-04-16T14:51:56.868Z</time></trkpt><trkpt lat="42.177015" lon="14.6652883"><ele>49.0</ele><time>2026-04-16T14:51:58.868Z</time></trkpt><trkpt lat="42.177085" lon="14.6652167"><ele>48.99999999999999</ele><time>2026-04-16T14:52:00.868Z</time></trkpt><trkpt lat="42.17715" lon="14.665145"><ele>49.0</ele><time>2026-04-16T14:52:02.869Z</time></trkpt><trkpt lat="42.1772167" lon="14.6650667"><ele>48.99999999999999</ele><time>2026-04-16T14:52:04.869Z</time></trkpt><trkpt lat="42.177275" lon="14.6649917"><ele>49.0</ele><time>2026-04-16T14:52:06.869Z</time></trkpt><trkpt lat="42.17734" lon="14.6649167"><ele>49.0</ele><time>2026-04-16T14:52:08.869Z</time></trkpt><trkpt lat="42.1774083" lon="14.6648433"><ele>49.0</ele><time>2026-04-16T14:52:10.869Z</time></trkpt><trkpt lat="42.177475" lon="14.66477"><ele>48.99999999999999</ele><time>2026-04-16T14:52:12.869Z</time></trkpt><trkpt lat="42.1775433" lon="14.6646883"><ele>49.0</ele><time>2026-04-16T14:52:14.869Z</time></trkpt><trkpt lat="42.1776067" lon="14.6645867"><ele>48.800000000000004</ele><time>2026-04-16T14:52:16.869Z</time></trkpt><trkpt lat="42.1776683" lon="14.664485"><ele>48.6</ele><time>2026-04-16T14:52:18.869Z</time></trkpt><trkpt lat="42.1777333" lon="14.6643833"><ele>48.4</ele><time>2026-04-16T14:52:20.869Z</time></trkpt><trkpt lat="42.1777917" lon="14.66428"><ele>48.2</ele><time>2026-04-16T14:52:22.868Z</time></trkpt><trkpt lat="42.17785" lon="14.6641667"><ele>48.0</ele><time>2026-04-16T14:52:24.869Z</time></trkpt><trkpt lat="42.1779083" lon="14.6640667"><ele>48.0</ele><time>2026-04-16T14:52:26.869Z</time></trkpt><trkpt lat="42.1779583" lon="14.6639667"><ele>48.0</ele><time>2026-04-16T14:52:28.869Z</time></trkpt><trkpt lat="42.1780167" lon="14.6638567"><ele>48.0</ele><time>2026-04-16T14:52:30.868Z</time></trkpt><trkpt lat="42.17807" lon="14.6637483"><ele>48.0</ele><time>2026-04-16T14:52:32.869Z</time></trkpt><trkpt lat="42.1781233" lon="14.6636467"><ele>48.0</ele><time>2026-04-16T14:52:34.869Z</time></trkpt><trkpt lat="42.1781767" lon="14.6635417"><ele>48.0</ele><time>2026-04-16T14:52:36.869Z</time></trkpt><trkpt lat="42.1782317" lon="14.6634317"><ele>48.0</ele><time>2026-04-16T14:52:38.869Z</time></trkpt><trkpt lat="42.1782833" lon="14.66332"><ele>48.0</ele><time>2026-04-16T14:52:40.868Z</time></trkpt><trkpt lat="42.1783383" lon="14.6632133"><ele>48.0</ele><time>2026-04-16T14:52:42.869Z</time></trkpt><trkpt lat="42.1783917" lon="14.6631083"><ele>48.0</ele><time>2026-04-16T14:52:44.868Z</time></trkpt><trkpt lat="42.1784317" lon="14.663015"><ele>48.0</ele><time>2026-04-16T14:52:46.868Z</time></trkpt><trkpt lat="42.1784733" lon="14.6629283"><ele>48.0</ele><time>2026-04-16T14:52:48.868Z</time></trkpt><trkpt lat="42.17851" lon="14.66284"><ele>48.0</ele><time>2026-04-16T14:52:50.868Z</time></trkpt><trkpt lat="42.1785483" lon="14.6627433"><ele>48.0</ele><time>2026-04-16T14:52:52.869Z</time></trkpt><trkpt lat="42.1785883" lon="14.6626283"><ele>48.0</ele><time>2026-04-16T14:52:54.869Z</time></trkpt><trkpt lat="42.17861" lon="14.662505"><ele>48.0</ele><time>2026-04-16T14:52:56.869Z</time></trkpt><trkpt lat="42.1786417" lon="14.66238"><ele>48.166666666666664</ele><time>2026-04-16T14:52:58.869Z</time></trkpt><trkpt lat="42.1786633" lon="14.6622533"><ele>48.33333333333333</ele><time>2026-04-16T14:53:00.869Z</time></trkpt><trkpt lat="42.1786767" lon="14.662135"><ele>48.5</ele><time>2026-04-16T14:53:02.869Z</time></trkpt><trkpt lat="42.1787" lon="14.6620183"><ele>48.666666666666664</ele><time>2026-04-16T14:53:04.868Z</time></trkpt><trkpt lat="42.1787117" lon="14.6619133"><ele>48.83333333333333</ele><time>2026-04-16T14:53:06.869Z</time></trkpt><trkpt lat="42.1787283" lon="14.6618"><ele>49.0</ele><time>2026-04-16T14:53:08.869Z</time></trkpt><trkpt lat="42.1787483" lon="14.6616883"><ele>49.2</ele><time>2026-04-16T14:53:10.869Z</time></trkpt><trkpt lat="42.178765" lon="14.661575"><ele>49.400000000000006</ele><time>2026-04-16T14:53:12.869Z</time></trkpt><trkpt lat="42.178785" lon="14.6614417"><ele>49.6</ele><time>2026-04-16T14:53:14.868Z</time></trkpt><trkpt lat="42.1788083" lon="14.6613067"><ele>49.8</ele><time>2026-04-16T14:53:16.868Z</time></trkpt><trkpt lat="42.1788367" lon="14.6611767"><ele>50.0</ele><time>2026-04-16T14:53:18.869Z</time></trkpt><trkpt lat="42.17886" lon="14.661045"><ele>50.0</ele><time>2026-04-16T14:53:20.868Z</time></trkpt><trkpt lat="42.1788933" lon="14.660925"><ele>50.0</ele><time>2026-04-16T14:53:22.869Z</time></trkpt><trkpt lat="42.1789367" lon="14.6608017"><ele>50.0</ele><time>2026-04-16T14:53:24.869Z</time></trkpt><trkpt lat="42.1789867" lon="14.6606933"><ele>50.0</ele><time>2026-04-16T14:53:26.868Z</time></trkpt><trkpt lat="42.1790367" lon="14.66059"><ele>50.0</ele><time>2026-04-16T14:53:28.868Z</time></trkpt><trkpt lat="42.179095" lon="14.6604833"><ele>50.00000000000001</ele><time>2026-04-16T14:53:30.869Z</time></trkpt><trkpt lat="42.1791483" lon="14.66039"><ele>50.0</ele><time>2026-04-16T14:53:32.869Z</time></trkpt><trkpt lat="42.17921" lon="14.6603"><ele>50.0</ele><time>2026-04-16T14:53:34.869Z</time></trkpt><trkpt lat="42.1792617" lon="14.6602017"><ele>50.0</ele><time>2026-04-16T14:53:36.869Z</time></trkpt><trkpt lat="42.1793167" lon="14.6601083"><ele>50.00000000000001</ele><time>2026-04-16T14:53:38.868Z</time></trkpt><trkpt lat="42.179375" lon="14.6600133"><ele>50.0</ele><time>2026-04-16T14:53:40.869Z</time></trkpt><trkpt lat="42.1794317" lon="14.6599167"><ele>50.00000000000001</ele><time>2026-04-16T14:53:42.869Z</time></trkpt><trkpt lat="42.1794817" lon="14.6598183"><ele>50.0</ele><time>2026-04-16T14:53:44.869Z</time></trkpt><trkpt lat="42.17953" lon="14.6597267"><ele>50.0</ele><time>2026-04-16T14:53:46.869Z</time></trkpt><trkpt lat="42.1795817" lon="14.65964"><ele>50.0</ele><time>2026-04-16T14:53:48.869Z</time></trkpt><trkpt lat="42.17963" lon="14.6595467"><ele>50.00000000000001</ele><time>2026-04-16T14:53:50.868Z</time></trkpt><trkpt lat="42.1796767" lon="14.6594633"><ele>50.0</ele><time>2026-04-16T14:53:52.868Z</time></trkpt><trkpt lat="42.1797233" lon="14.6593783"><ele>50.333333333333336</ele><time>2026-04-16T14:53:54.869Z</time></trkpt><trkpt lat="42.17977" lon="14.659295"><ele>50.66666666666667</ele><time>2026-04-16T14:53:56.868Z</time></trkpt><trkpt lat="42.1798183" lon="14.6592017"><ele>51.0</ele><time>2026-04-16T14:53:58.868Z</time></trkpt><trkpt lat="42.1798733" lon="14.6591067"><ele>51.33333333333333</ele><time>2026-04-16T14:54:00.869Z</time></trkpt><trkpt lat="42.1799233" lon="14.659015"><ele>51.666666666666664</ele><time>2026-04-16T14:54:02.868Z</time></trkpt><trkpt lat="42.179975" lon="14.658925"><ele>52.0</ele><time>2026-04-16T14:54:04.869Z</time></trkpt><trkpt lat="42.1800233" lon="14.6588333"><ele>52.166666666666664</ele><time>2026-04-16T14:54:06.868Z</time></trkpt><trkpt lat="42.1800733" lon="14.6587467"><ele>52.33333333333333</ele><time>2026-04-16T14:54:08.869Z</time></trkpt><trkpt lat="42.1801267" lon="14.6586583"><ele>52.5</ele><time>2026-04-16T14:54:10.868Z</time></trkpt><trkpt lat="42.1801767" lon="14.6585733"><ele>52.66666666666667</ele><time>2026-04-16T14:54:12.869Z</time></trkpt><trkpt lat="42.18023" lon="14.6584867"><ele>52.833333333333336</ele><time>2026-04-16T14:54:14.868Z</time></trkpt><trkpt lat="42.1802833" lon="14.6584017"><ele>53.0</ele><time>2026-04-16T14:54:16.869Z</time></trkpt><trkpt lat="42.18034" lon="14.658325"><ele>53.16666666666667</ele><time>2026-04-16T14:54:18.869Z</time></trkpt><trkpt lat="42.1804017" lon="14.6582533"><ele>53.333333333333336</ele><time>2026-04-16T14:54:20.868Z</time></trkpt><trkpt lat="42.18047" lon="14.6581867"><ele>53.5</ele><time>2026-04-16T14:54:22.868Z</time></trkpt><trkpt lat="42.18054" lon="14.6581217"><ele>53.66666666666667</ele><time>2026-04-16T14:54:24.869Z</time></trkpt><trkpt lat="42.1806133" lon="14.658065"><ele>53.833333333333336</ele><time>2026-04-16T14:54:26.868Z</time></trkpt><trkpt lat="42.1806867" lon="14.6580017"><ele>54.0</ele><time>2026-04-16T14:54:28.869Z</time></trkpt><trkpt lat="42.1807617" lon="14.6579467"><ele>54.0</ele><time>2026-04-16T14:54:30.868Z</time></trkpt><trkpt lat="42.1808367" lon="14.6578883"><ele>54.0</ele><time>2026-04-16T14:54:32.869Z</time></trkpt><trkpt lat="42.18091" lon="14.6578167"><ele>54.0</ele><time>2026-04-16T14:54:34.869Z</time></trkpt><trkpt lat="42.180985" lon="14.6577467"><ele>54.0</ele><time>2026-04-16T14:54:36.868Z</time></trkpt><trkpt lat="42.18106" lon="14.65767"><ele>54.0</ele><time>2026-04-16T14:54:38.868Z</time></trkpt><trkpt lat="42.1811283" lon="14.6575983"><ele>54.0</ele><time>2026-04-16T14:54:40.868Z</time></trkpt><trkpt lat="42.1811933" lon="14.657525"><ele>54.2</ele><time>2026-04-16T14:54:42.869Z</time></trkpt><trkpt lat="42.1812633" lon="14.657445"><ele>54.400000000000006</ele><time>2026-04-16T14:54:44.869Z</time></trkpt><trkpt lat="42.1813317" lon="14.657365"><ele>54.6</ele><time>2026-04-16T14:54:46.869Z</time></trkpt><trkpt lat="42.181405" lon="14.6572883"><ele>54.8</ele><time>2026-04-16T14:54:48.868Z</time></trkpt><trkpt lat="42.1814833" lon="14.65721"><ele>55.0</ele><time>2026-04-16T14:54:50.869Z</time></trkpt><trkpt lat="42.1815583" lon="14.6571333"><ele>55.0</ele><time>2026-04-16T14:54:52.868Z</time></trkpt><trkpt lat="42.1816317" lon="14.6570483"><ele>55.0</ele><time>2026-04-16T14:54:54.869Z</time></trkpt><trkpt lat="42.1817033" lon="14.6569683"><ele>55.0</ele><time>2026-04-16T14:54:56.869Z</time></trkpt><trkpt lat="42.1817633" lon="14.6568917"><ele>55.0</ele><time>2026-04-16T14:54:58.869Z</time></trkpt><trkpt lat="42.1818333" lon="14.6568183"><ele>55.0</ele><time>2026-04-16T14:55:00.869Z</time></trkpt><trkpt lat="42.1819117" lon="14.656735"><ele>55.0</ele><time>2026-04-16T14:55:02.869Z</time></trkpt><trkpt lat="42.1819967" lon="14.656645"><ele>55.0</ele><time>2026-04-16T14:55:04.869Z</time></trkpt><trkpt lat="42.1820717" lon="14.6565583"><ele>55.0</ele><time>2026-04-16T14:55:06.868Z</time></trkpt><trkpt lat="42.182145" lon="14.6564633"><ele>55.0</ele><time>2026-04-16T14:55:08.869Z</time></trkpt><trkpt lat="42.1822233" lon="14.65638"><ele>55.0</ele><time>2026-04-16T14:55:10.869Z</time></trkpt><trkpt lat="42.1822983" lon="14.6562983"><ele>54.8</ele><time>2026-04-16T14:55:12.869Z</time></trkpt><trkpt lat="42.1823767" lon="14.656215"><ele>54.6</ele><time>2026-04-16T14:55:14.869Z</time></trkpt><trkpt lat="42.1824567" lon="14.65614"><ele>54.400000000000006</ele><time>2026-04-16T14:55:16.869Z</time></trkpt><trkpt lat="42.1825367" lon="14.6560667"><ele>54.2</ele><time>2026-04-16T14:55:18.868Z</time></trkpt><trkpt lat="42.1826133" lon="14.6559883"><ele>54.0</ele><time>2026-04-16T14:55:20.869Z</time></trkpt><trkpt lat="42.1826933" lon="14.6559117"><ele>54.0</ele><time>2026-04-16T14:55:22.868Z</time></trkpt><trkpt lat="42.1827817" lon="14.6558533"><ele>54.00000000000001</ele><time>2026-04-16T14:55:24.868Z</time></trkpt><trkpt lat="42.1828633" lon="14.6557817"><ele>54.00000000000001</ele><time>2026-04-16T14:55:26.869Z</time></trkpt><trkpt lat="42.1829433" lon="14.6557167"><ele>54.0</ele><time>2026-04-16T14:55:28.868Z</time></trkpt><trkpt lat="42.1830217" lon="14.6556483"><ele>54.0</ele><time>2026-04-16T14:55:30.869Z</time></trkpt><trkpt lat="42.1831" lon="14.6555833"><ele>53.800000000000004</ele><time>2026-04-16T14:55:32.869Z</time></trkpt><trkpt lat="42.1831867" lon="14.6555133"><ele>53.60000000000001</ele><time>2026-04-16T14:55:34.869Z</time></trkpt><trkpt lat="42.1832767" lon="14.6554433"><ele>53.4</ele><time>2026-04-16T14:55:36.868Z</time></trkpt><trkpt lat="42.1833483" lon="14.655375"><ele>53.2</ele><time>2026-04-16T14:55:38.869Z</time></trkpt><trkpt lat="42.1834367" lon="14.6553067"><ele>53.0</ele><time>2026-04-16T14:55:40.869Z</time></trkpt><trkpt lat="42.18352" lon="14.655235"><ele>53.0</ele><time>2026-04-16T14:55:42.868Z</time></trkpt><trkpt lat="42.1836" lon="14.6551667"><ele>53.0</ele><time>2026-04-16T14:55:44.869Z</time></trkpt><trkpt lat="42.1836833" lon="14.6551033"><ele>53.0</ele><time>2026-04-16T14:55:46.868Z</time></trkpt><trkpt lat="42.18376" lon="14.6550333"><ele>53.0</ele><time>2026-04-16T14:55:48.868Z</time></trkpt><trkpt lat="42.1838517" lon="14.6549717"><ele>53.0</ele><time>2026-04-16T14:55:50.868Z</time></trkpt><trkpt lat="42.1839383" lon="14.6548983"><ele>53.2</ele><time>2026-04-16T14:55:52.869Z</time></trkpt><trkpt lat="42.1840183" lon="14.6548317"><ele>53.4</ele><time>2026-04-16T14:55:54.869Z</time></trkpt><trkpt lat="42.1841017" lon="14.6547583"><ele>53.60000000000001</ele><time>2026-04-16T14:55:56.869Z</time></trkpt><trkpt lat="42.1841817" lon="14.65469"><ele>53.800000000000004</ele><time>2026-04-16T14:55:58.869Z</time></trkpt><trkpt lat="42.1842733" lon="14.6546233"><ele>54.0</ele><time>2026-04-16T14:56:00.868Z</time></trkpt><trkpt lat="42.18436" lon="14.65454"><ele>54.0</ele><time>2026-04-16T14:56:02.869Z</time></trkpt><trkpt lat="42.1844483" lon="14.6544667"><ele>54.00000000000001</ele><time>2026-04-16T14:56:04.868Z</time></trkpt><trkpt lat="42.1845333" lon="14.6544"><ele>54.00000000000001</ele><time>2026-04-16T14:56:06.869Z</time></trkpt><trkpt lat="42.1846167" lon="14.6543267"><ele>54.0</ele><time>2026-04-16T14:56:08.869Z</time></trkpt><trkpt lat="42.184695" lon="14.6542533"><ele>54.0</ele><time>2026-04-16T14:56:10.868Z</time></trkpt><trkpt lat="42.1847783" lon="14.6541867"><ele>53.800000000000004</ele><time>2026-04-16T14:56:12.869Z</time></trkpt><trkpt lat="42.18486" lon="14.6541233"><ele>53.60000000000001</ele><time>2026-04-16T14:56:14.868Z</time></trkpt><trkpt lat="42.184945" lon="14.65406"><ele>53.4</ele><time>2026-04-16T14:56:16.869Z</time></trkpt><trkpt lat="42.1850317" lon="14.65399"><ele>53.2</ele><time>2026-04-16T14:56:18.869Z</time></trkpt><trkpt lat="42.185115" lon="14.6539183"><ele>53.0</ele><time>2026-04-16T14:56:20.868Z</time></trkpt><trkpt lat="42.1851983" lon="14.6538467"><ele>53.0</ele><time>2026-04-16T14:56:22.868Z</time></trkpt><trkpt lat="42.1852783" lon="14.6537783"><ele>53.0</ele><time>2026-04-16T14:56:24.869Z</time></trkpt><trkpt lat="42.1853583" lon="14.653705"><ele>53.0</ele><time>2026-04-16T14:56:26.868Z</time></trkpt><trkpt lat="42.18545" lon="14.6536383"><ele>53.0</ele><time>2026-04-16T14:56:28.868Z</time></trkpt><trkpt lat="42.1855367" lon="14.653575"><ele>53.0</ele><time>2026-04-16T14:56:30.869Z</time></trkpt><trkpt lat="42.18562" lon="14.653515"><ele>53.16666666666667</ele><time>2026-04-16T14:56:32.868Z</time></trkpt><trkpt lat="42.1857033" lon="14.653445"><ele>53.333333333333336</ele><time>2026-04-16T14:56:34.869Z</time></trkpt><trkpt lat="42.1857733" lon="14.6533633"><ele>53.5</ele><time>2026-04-16T14:56:36.869Z</time></trkpt><trkpt lat="42.1858233" lon="14.6532817"><ele>53.66666666666667</ele><time>2026-04-16T14:56:38.868Z</time></trkpt><trkpt lat="42.1858783" lon="14.6532183"><ele>53.833333333333336</ele><time>2026-04-16T14:56:41.869Z</time></trkpt><trkpt lat="42.18592" lon="14.653145"><ele>54.0</ele><time>2026-04-16T14:56:44.868Z</time></trkpt><trkpt lat="42.1859867" lon="14.6530933"><ele>54.0</ele><time>2026-04-16T14:56:47.869Z</time></trkpt><trkpt lat="42.18606" lon="14.653165"><ele>54.0</ele><time>2026-04-16T14:56:50.869Z</time></trkpt><trkpt lat="42.18608" lon="14.6532483"><ele>54.0</ele><time>2026-04-16T14:56:52.868Z</time></trkpt><trkpt lat="42.1861117" lon="14.6533667"><ele>54.0</ele><time>2026-04-16T14:56:55.868Z</time></trkpt><trkpt lat="42.1861483" lon="14.653485"><ele>54.0</ele><time>2026-04-16T14:56:58.869Z</time></trkpt><trkpt lat="42.1861767" lon="14.6535633"><ele>54.0</ele><time>2026-04-16T14:57:00.869Z</time></trkpt><trkpt lat="42.18621" lon="14.6536517"><ele>53.833333333333336</ele><time>2026-04-16T14:57:02.869Z</time></trkpt><trkpt lat="42.1862533" lon="14.6537533"><ele>53.66666666666667</ele><time>2026-04-16T14:57:04.869Z</time></trkpt><trkpt lat="42.1862933" lon="14.6538517"><ele>53.5</ele><time>2026-04-16T14:57:06.869Z</time></trkpt><trkpt lat="42.1863383" lon="14.6539483"><ele>53.333333333333336</ele><time>2026-04-16T14:57:08.868Z</time></trkpt><trkpt lat="42.186375" lon="14.6540433"><ele>53.16666666666667</ele><time>2026-04-16T14:57:10.869Z</time></trkpt><trkpt lat="42.1864167" lon="14.654135"><ele>53.0</ele><time>2026-04-16T14:57:12.868Z</time></trkpt><trkpt lat="42.18646" lon="14.654225"><ele>53.00000000000001</ele><time>2026-04-16T14:57:14.869Z</time></trkpt><trkpt lat="42.1864983" lon="14.654305"><ele>53.0</ele><time>2026-04-16T14:57:16.869Z</time></trkpt><trkpt lat="42.1865383" lon="14.6543883"><ele>53.0</ele><time>2026-04-16T14:57:18.869Z</time></trkpt><trkpt lat="42.186585" lon="14.654485"><ele>53.0</ele><time>2026-04-16T14:57:20.869Z</time></trkpt><trkpt lat="42.1866283" lon="14.6545817"><ele>53.00000000000001</ele><time>2026-04-16T14:57:22.869Z</time></trkpt><trkpt lat="42.1866733" lon="14.6546767"><ele>53.0</ele><time>2026-04-16T14:57:24.868Z</time></trkpt><trkpt lat="42.186725" lon="14.6547783"><ele>52.599999999999994</ele><time>2026-04-16T14:57:26.869Z</time></trkpt><trkpt lat="42.1868033" lon="14.6548417"><ele>52.199999999999996</ele><time>2026-04-16T14:57:28.868Z</time></trkpt><trkpt lat="42.1869133" lon="14.6548467"><ele>51.8</ele><time>2026-04-16T14:57:30.868Z</time></trkpt><trkpt lat="42.1870167" lon="14.654825"><ele>51.4</ele><time>2026-04-16T14:57:32.868Z</time></trkpt><trkpt lat="42.1870917" lon="14.654765"><ele>51.0</ele><time>2026-04-16T14:57:34.869Z</time></trkpt><trkpt lat="42.1871483" lon="14.654685"><ele>51.0</ele><time>2026-04-16T14:57:36.869Z</time></trkpt><trkpt lat="42.1871983" lon="14.654585"><ele>51.0</ele><time>2026-04-16T14:57:38.868Z</time></trkpt><trkpt lat="42.18724" lon="14.6544933"><ele>51.0</ele><time>2026-04-16T14:57:40.868Z</time></trkpt><trkpt lat="42.1872817" lon="14.654405"><ele>51.0</ele><time>2026-04-16T14:57:42.869Z</time></trkpt><trkpt lat="42.1873183" lon="14.6543117"><ele>51.0</ele><time>2026-04-16T14:57:44.869Z</time></trkpt><trkpt lat="42.1873417" lon="14.654225"><ele>51.0</ele><time>2026-04-16T14:57:46.869Z</time></trkpt><trkpt lat="42.1873667" lon="14.6541317"><ele>50.142857142857146</ele><time>2026-04-16T14:57:48.868Z</time></trkpt><trkpt lat="42.1874067" lon="14.65405"><ele>49.28571428571429</ele><time>2026-04-16T14:57:50.869Z</time></trkpt><trkpt lat="42.1874567" lon="14.6539967"><ele>48.42857142857143</ele><time>2026-04-16T14:57:52.869Z</time></trkpt><trkpt lat="42.18753" lon="14.6539467"><ele>47.57142857142857</ele><time>2026-04-16T14:57:55.868Z</time></trkpt><trkpt lat="42.1875833" lon="14.6538833"><ele>46.714285714285715</ele><time>2026-04-16T14:57:57.869Z</time></trkpt><trkpt lat="42.1876133" lon="14.6538017"><ele>45.857142857142854</ele><time>2026-04-16T14:57:59.869Z</time></trkpt><trkpt lat="42.1876667" lon="14.65372"><ele>45.0</ele><time>2026-04-16T14:58:02.869Z</time></trkpt><trkpt lat="42.1877317" lon="14.6536433"><ele>45.833333333333336</ele><time>2026-04-16T14:58:05.869Z</time></trkpt><trkpt lat="42.1878" lon="14.6536"><ele>46.66666666666667</ele><time>2026-04-16T14:58:08.868Z</time></trkpt><trkpt lat="42.18786" lon="14.6535517"><ele>47.5</ele><time>2026-04-16T14:58:11.868Z</time></trkpt><trkpt lat="42.1879117" lon="14.6534983"><ele>48.333333333333336</ele><time>2026-04-16T14:58:13.869Z</time></trkpt><trkpt lat="42.1879767" lon="14.6534333"><ele>49.16666666666667</ele><time>2026-04-16T14:58:15.869Z</time></trkpt><trkpt lat="42.188045" lon="14.6533767"><ele>50.0</ele><time>2026-04-16T14:58:17.869Z</time></trkpt><trkpt lat="42.1881167" lon="14.6533033"><ele>46.66666666666667</ele><time>2026-04-16T14:58:19.868Z</time></trkpt><trkpt lat="42.1881817" lon="14.6532317"><ele>43.333333333333336</ele><time>2026-04-16T14:58:21.869Z</time></trkpt><trkpt lat="42.18826" lon="14.6531667"><ele>40.0</ele><time>2026-04-16T14:58:23.868Z</time></trkpt><trkpt lat="42.1883383" lon="14.65309"><ele>36.66666666666667</ele><time>2026-04-16T14:58:25.869Z</time></trkpt><trkpt lat="42.1884017" lon="14.65303"><ele>33.333333333333336</ele><time>2026-04-16T14:58:27.869Z</time></trkpt><trkpt lat="42.1884383" lon="14.6529467"><ele>30.0</ele><time>2026-04-16T14:58:29.869Z</time></trkpt><trkpt lat="42.1884767" lon="14.6528683"><ele>32.166666666666664</ele><time>2026-04-16T14:58:31.869Z</time></trkpt><trkpt lat="42.1885233" lon="14.65275"><ele>34.333333333333336</ele><time>2026-04-16T14:58:33.868Z</time></trkpt><trkpt lat="42.1885517" lon="14.652665"><ele>36.5</ele><time>2026-04-16T14:58:35.868Z</time></trkpt><trkpt lat="42.1885817" lon="14.6525817"><ele>38.66666666666667</ele><time>2026-04-16T14:58:37.869Z</time></trkpt><trkpt lat="42.18861" lon="14.6524717"><ele>40.833333333333336</ele><time>2026-04-16T14:58:40.869Z</time></trkpt><trkpt lat="42.18864" lon="14.6523533"><ele>43.0</ele><time>2026-04-16T14:58:42.869Z</time></trkpt><trkpt lat="42.18868" lon="14.6522267"><ele>43.0</ele><time>2026-04-16T14:58:44.869Z</time></trkpt><trkpt lat="42.1887133" lon="14.6521267"><ele>43.0</ele><time>2026-04-16T14:58:46.869Z</time></trkpt><trkpt lat="42.1887533" lon="14.6520167"><ele>43.0</ele><time>2026-04-16T14:58:48.868Z</time></trkpt><trkpt lat="42.1887817" lon="14.6519383"><ele>43.0</ele><time>2026-04-16T14:58:50.869Z</time></trkpt><trkpt lat="42.1888133" lon="14.6518633"><ele>43.0</ele><time>2026-04-16T14:58:52.869Z</time></trkpt><trkpt lat="42.1888767" lon="14.6517117"><ele>43.0</ele><time>2026-04-16T14:58:54.868Z</time></trkpt><trkpt lat="42.18894" lon="14.6515683"><ele>44.0</ele><time>2026-04-16T14:58:56.868Z</time></trkpt><trkpt lat="42.188975" lon="14.651475"><ele>45.0</ele><time>2026-04-16T14:58:57.869Z</time></trkpt><trkpt lat="42.189015" lon="14.6513217"><ele>46.0</ele><time>2026-04-16T14:58:59.869Z</time></trkpt><trkpt lat="42.1890533" lon="14.651185"><ele>47.0</ele><time>2026-04-16T14:59:01.869Z</time></trkpt><trkpt lat="42.1890917" lon="14.6510483"><ele>48.0</ele><time>2026-04-16T14:59:03.868Z</time></trkpt><trkpt lat="42.18911" lon="14.65095"><ele>44.666666666666664</ele><time>2026-04-16T14:59:05.869Z</time></trkpt><trkpt lat="42.1891333" lon="14.6508333"><ele>41.333333333333336</ele><time>2026-04-16T14:59:07.869Z</time></trkpt><trkpt lat="42.18915" lon="14.6507367"><ele>38.0</ele><time>2026-04-16T14:59:09.869Z</time></trkpt><trkpt lat="42.18917" lon="14.6506233"><ele>34.66666666666667</ele><time>2026-04-16T14:59:12.869Z</time></trkpt><trkpt lat="42.18918" lon="14.6505283"><ele>31.333333333333336</ele><time>2026-04-16T14:59:15.868Z</time></trkpt><trkpt lat="42.18921" lon="14.6503917"><ele>28.0</ele><time>2026-04-16T14:59:18.868Z</time></trkpt><trkpt lat="42.1892433" lon="14.650245"><ele>26.799999999999997</ele><time>2026-04-16T14:59:20.869Z</time></trkpt><trkpt lat="42.18926" lon="14.6501317"><ele>25.599999999999998</ele><time>2026-04-16T14:59:22.868Z</time></trkpt><trkpt lat="42.18929" lon="14.6499817"><ele>24.4</ele><time>2026-04-16T14:59:24.868Z</time></trkpt><trkpt lat="42.1893167" lon="14.6498717"><ele>23.200000000000003</ele><time>2026-04-16T14:59:26.868Z</time></trkpt><trkpt lat="42.189365" lon="14.6497817"><ele>22.0</ele><time>2026-04-16T14:59:28.869Z</time></trkpt><trkpt lat="42.1894383" lon="14.6496967"><ele>22.0</ele><time>2026-04-16T14:59:30.869Z</time></trkpt><trkpt lat="42.18952" lon="14.6496483"><ele>22.0</ele><time>2026-04-16T14:59:32.869Z</time></trkpt><trkpt lat="42.189595" lon="14.649585"><ele>22.0</ele><time>2026-04-16T14:59:34.868Z</time></trkpt><trkpt lat="42.1896367" lon="14.6495"><ele>22.0</ele><time>2026-04-16T14:59:36.869Z</time></trkpt><trkpt lat="42.1896517" lon="14.6493933"><ele>22.0</ele><time>2026-04-16T14:59:38.869Z</time></trkpt><trkpt lat="42.1896533" lon="14.6492917"><ele>22.0</ele><time>2026-04-16T14:59:40.869Z</time></trkpt><trkpt lat="42.189655" lon="14.649195"><ele>19.8</ele><time>2026-04-16T14:59:42.869Z</time></trkpt><trkpt lat="42.1896667" lon="14.6490867"><ele>17.6</ele><time>2026-04-16T14:59:44.869Z</time></trkpt><trkpt lat="42.1896717" lon="14.6489583"><ele>15.400000000000002</ele><time>2026-04-16T14:59:46.869Z</time></trkpt><trkpt lat="42.1896833" lon="14.6488117"><ele>13.200000000000001</ele><time>2026-04-16T14:59:48.869Z</time></trkpt><trkpt lat="42.18969" lon="14.648665"><ele>11.0</ele><time>2026-04-16T14:59:50.869Z</time></trkpt><trkpt lat="42.1896983" lon="14.6485283"><ele>10.200000000000001</ele><time>2026-04-16T14:59:52.869Z</time></trkpt><trkpt lat="42.1897067" lon="14.64838"><ele>9.4</ele><time>2026-04-16T14:59:54.869Z</time></trkpt><trkpt lat="42.1897183" lon="14.6482267"><ele>8.6</ele><time>2026-04-16T14:59:56.869Z</time></trkpt><trkpt lat="42.18972" lon="14.6481417"><ele>7.8</ele><time>2026-04-16T14:59:57.868Z</time></trkpt><trkpt lat="42.18972" lon="14.6480517"><ele>7.0</ele><time>2026-04-16T14:59:58.868Z</time></trkpt><trkpt lat="42.1897267" lon="14.6479083"><ele>6.500000000000001</ele><time>2026-04-16T15:00:00.869Z</time></trkpt><trkpt lat="42.1897367" lon="14.6477867"><ele>6.0</ele><time>2026-04-16T15:00:02.868Z</time></trkpt><trkpt lat="42.18974" lon="14.6476667"><ele>5.5</ele><time>2026-04-16T15:00:04.869Z</time></trkpt><trkpt lat="42.189745" lon="14.6475517"><ele>5.0</ele><time>2026-04-16T15:00:06.869Z</time></trkpt><trkpt lat="42.1897483" lon="14.6474533"><ele>4.5</ele><time>2026-04-16T15:00:08.869Z</time></trkpt><trkpt lat="42.1897533" lon="14.6473667"><ele>4.0</ele><time>2026-04-16T15:00:10.868Z</time></trkpt><trkpt lat="42.1897583" lon="14.647275"><ele>3.9999999999999996</ele><time>2026-04-16T15:00:12.869Z</time></trkpt><trkpt lat="42.18976" lon="14.64718"><ele>4.0</ele><time>2026-04-16T15:00:14.869Z</time></trkpt><trkpt lat="42.189755" lon="14.6470833"><ele>4.0</ele><time>2026-04-16T15:00:16.868Z</time></trkpt><trkpt lat="42.1897617" lon="14.646965"><ele>4.0</ele><time>2026-04-16T15:00:19.869Z</time></trkpt><trkpt lat="42.1897583" lon="14.64684"><ele>3.9999999999999996</ele><time>2026-04-16T15:00:22.868Z</time></trkpt><trkpt lat="42.1897533" lon="14.6467333"><ele>4.0</ele><time>2026-04-16T15:00:24.869Z</time></trkpt><trkpt lat="42.1897517" lon="14.6466183"><ele>4.166666666666666</ele><time>2026-04-16T15:00:26.869Z</time></trkpt><trkpt lat="42.1897517" lon="14.6465117"><ele>4.333333333333333</ele><time>2026-04-16T15:00:28.868Z</time></trkpt><trkpt lat="42.18976" lon="14.6463933"><ele>4.5</ele><time>2026-04-16T15:00:30.869Z</time></trkpt><trkpt lat="42.189765" lon="14.6462717"><ele>4.666666666666667</ele><time>2026-04-16T15:00:32.868Z</time></trkpt><trkpt lat="42.1897633" lon="14.6461517"><ele>4.833333333333334</ele><time>2026-04-16T15:00:34.869Z</time></trkpt><trkpt lat="42.1897733" lon="14.6460317"><ele>5.0</ele><time>2026-04-16T15:00:36.869Z</time></trkpt><trkpt lat="42.1897933" lon="14.64592"><ele>4.6</ele><time>2026-04-16T15:00:38.868Z</time></trkpt><trkpt lat="42.1898183" lon="14.6458033"><ele>4.2</ele><time>2026-04-16T15:00:40.869Z</time></trkpt><trkpt lat="42.1898583" lon="14.6456783"><ele>3.8</ele><time>2026-04-16T15:00:42.869Z</time></trkpt><trkpt lat="42.1899117" lon="14.6455533"><ele>3.4</ele><time>2026-04-16T15:00:44.869Z</time></trkpt><trkpt lat="42.1899683" lon="14.6454167"><ele>3.0</ele><time>2026-04-16T15:00:46.868Z</time></trkpt><trkpt lat="42.190035" lon="14.6452833"><ele>3.0</ele><time>2026-04-16T15:00:48.868Z</time></trkpt><trkpt lat="42.190095" lon="14.6451267"><ele>3.0</ele><time>2026-04-16T15:00:50.869Z</time></trkpt><trkpt lat="42.19012" lon="14.6450433"><ele>3.0</ele><time>2026-04-16T15:00:51.869Z</time></trkpt><trkpt lat="42.190165" lon="14.64491"><ele>3.0</ele><time>2026-04-16T15:00:53.869Z</time></trkpt><trkpt lat="42.1901867" lon="14.6447967"><ele>3.0</ele><time>2026-04-16T15:00:55.868Z</time></trkpt><trkpt lat="42.1901467" lon="14.644695"><ele>2.9999999999999996</ele><time>2026-04-16T15:00:58.868Z</time></trkpt><trkpt lat="42.190095" lon="14.6446417"><ele>3.0</ele><time>2026-04-16T15:01:00.869Z</time></trkpt><trkpt lat="42.190035" lon="14.6446017"><ele>3.0</ele><time>2026-04-16T15:01:02.868Z</time></trkpt><trkpt lat="42.1899633" lon="14.6445733"><ele>3.0</ele><time>2026-04-16T15:01:04.868Z</time></trkpt><trkpt lat="42.1898817" lon="14.6445667"><ele>3.0</ele><time>2026-04-16T15:01:07.868Z</time></trkpt><trkpt lat="42.1898133" lon="14.6445417"><ele>2.9999999999999996</ele><time>2026-04-16T15:01:09.869Z</time></trkpt><trkpt lat="42.1897583" lon="14.644495"><ele>3.0</ele><time>2026-04-16T15:01:10.869Z</time></trkpt><trkpt lat="42.1896517" lon="14.64447"><ele>2.6666666666666665</ele><time>2026-04-16T15:01:12.869Z</time></trkpt><trkpt lat="42.1895883" lon="14.644495"><ele>2.3333333333333335</ele><time>2026-04-16T15:01:13.869Z</time></trkpt><trkpt lat="42.189515" lon="14.6445383"><ele>2.0</ele><time>2026-04-16T15:01:14.868Z</time></trkpt><trkpt lat="42.1894233" lon="14.6446267"><ele>1.6666666666666665</ele><time>2026-04-16T15:01:16.868Z</time></trkpt><trkpt lat="42.1893333" lon="14.6446467"><ele>1.3333333333333333</ele><time>2026-04-16T15:01:18.869Z</time></trkpt><trkpt lat="42.1892467" lon="14.64465"><ele>1.0</ele><time>2026-04-16T15:01:20.869Z</time></trkpt><trkpt lat="42.18916" lon="14.64464"><ele>0.9999999999999999</ele><time>2026-04-16T15:01:22.869Z</time></trkpt><trkpt lat="42.18907" lon="14.64464"><ele>1.0</ele><time>2026-04-16T15:01:24.869Z</time></trkpt><trkpt lat="42.18899" lon="14.6446433"><ele>1.0</ele><time>2026-04-16T15:01:26.869Z</time></trkpt><trkpt lat="42.18891" lon="14.6446533"><ele>1.0</ele><time>2026-04-16T15:01:28.868Z</time></trkpt><trkpt lat="42.188845" lon="14.64461"><ele>0.9999999999999999</ele><time>2026-04-16T15:01:30.868Z</time></trkpt><trkpt lat="42.1888183" lon="14.6445167"><ele>1.0</ele><time>2026-04-16T15:01:32.868Z</time></trkpt><trkpt lat="42.1888267" lon="14.6444033"><ele>1.3333333333333333</ele><time>2026-04-16T15:01:34.869Z</time></trkpt><trkpt lat="42.1888517" lon="14.6442867"><ele>1.6666666666666665</ele><time>2026-04-16T15:01:36.868Z</time></trkpt><trkpt lat="42.1888767" lon="14.6441733"><ele>2.0</ele><time>2026-04-16T15:01:38.868Z</time></trkpt><trkpt lat="42.1888967" lon="14.6440617"><ele>2.3333333333333335</ele><time>2026-04-16T15:01:40.869Z</time></trkpt><trkpt lat="42.18892" lon="14.6439433"><ele>2.6666666666666665</ele><time>2026-04-16T15:01:42.868Z</time></trkpt><trkpt lat="42.188955" lon="14.6438233"><ele>3.0</ele><time>2026-04-16T15:01:44.869Z</time></trkpt><trkpt lat="42.1889783" lon="14.64371"><ele>2.8333333333333335</ele><time>2026-04-16T15:01:46.868Z</time></trkpt><trkpt lat="42.188995" lon="14.6435933"><ele>2.6666666666666665</ele><time>2026-04-16T15:01:48.869Z</time></trkpt><trkpt lat="42.189015" lon="14.6434783"><ele>2.5</ele><time>2026-04-16T15:01:50.869Z</time></trkpt><trkpt lat="42.1890333" lon="14.6433583"><ele>2.333333333333333</ele><time>2026-04-16T15:01:52.869Z</time></trkpt><trkpt lat="42.18906" lon="14.6432417"><ele>2.1666666666666665</ele><time>2026-04-16T15:01:54.869Z</time></trkpt><trkpt lat="42.1890867" lon="14.6431233"><ele>2.0</ele><time>2026-04-16T15:01:56.869Z</time></trkpt><trkpt lat="42.1891083" lon="14.6430083"><ele>1.8</ele><time>2026-04-16T15:01:58.869Z</time></trkpt><trkpt lat="42.1891333" lon="14.6428883"><ele>1.6</ele><time>2026-04-16T15:02:00.868Z</time></trkpt><trkpt lat="42.1891683" lon="14.6427767"><ele>1.4000000000000001</ele><time>2026-04-16T15:02:02.869Z</time></trkpt><trkpt lat="42.1892" lon="14.6426567"><ele>1.2000000000000002</ele><time>2026-04-16T15:02:04.869Z</time></trkpt><trkpt lat="42.189215" lon="14.6425383"><ele>1.0</ele><time>2026-04-16T15:02:06.869Z</time></trkpt><trkpt lat="42.1892217" lon="14.6424167"><ele>0.8</ele><time>2026-04-16T15:02:08.868Z</time></trkpt><trkpt lat="42.1892233" lon="14.6422917"><ele>0.6000000000000001</ele><time>2026-04-16T15:02:10.868Z</time></trkpt><trkpt lat="42.18923" lon="14.6421667"><ele>0.4</ele><time>2026-04-16T15:02:12.869Z</time></trkpt><trkpt lat="42.18924" lon="14.642045"><ele>0.2</ele><time>2026-04-16T15:02:14.869Z</time></trkpt><trkpt lat="42.189255" lon="14.6419217"><ele>0.0</ele><time>2026-04-16T15:02:16.869Z</time></trkpt><trkpt lat="42.1892733" lon="14.6418"><ele>0.0</ele><time>2026-04-16T15:02:18.868Z</time></trkpt><trkpt lat="42.189305" lon="14.6416767"><ele>0.0</ele><time>2026-04-16T15:02:20.869Z</time></trkpt><trkpt lat="42.1893483" lon="14.6415617"><ele>0.0</ele><time>2026-04-16T15:02:22.868Z</time></trkpt><trkpt lat="42.1894067" lon="14.6414483"><ele>0.0</ele><time>2026-04-16T15:02:24.868Z</time></trkpt><trkpt lat="42.1894683" lon="14.6413417"><ele>0.0</ele><time>2026-04-16T15:02:26.868Z</time></trkpt><trkpt lat="42.1895317" lon="14.6412317"><ele>0.16666666666666666</ele><time>2026-04-16T15:02:28.869Z</time></trkpt><trkpt lat="42.1896017" lon="14.6411267"><ele>0.3333333333333333</ele><time>2026-04-16T15:02:30.868Z</time></trkpt><trkpt lat="42.1896617" lon="14.6410383"><ele>0.5</ele><time>2026-04-16T15:02:32.869Z</time></trkpt><trkpt lat="42.1897267" lon="14.6409583"><ele>0.6666666666666666</ele><time>2026-04-16T15:02:34.868Z</time></trkpt><trkpt lat="42.1897783" lon="14.640885"><ele>0.8333333333333333</ele><time>2026-04-16T15:02:36.868Z</time></trkpt><trkpt lat="42.1898417" lon="14.64081"><ele>1.0</ele><time>2026-04-16T15:02:39.869Z</time></trkpt><trkpt lat="42.189935" lon="14.64081"><ele>0.9999999999999999</ele><time>2026-04-16T15:02:42.869Z</time></trkpt><trkpt lat="42.1900167" lon="14.6408483"><ele>1.0</ele><time>2026-04-16T15:02:44.869Z</time></trkpt><trkpt lat="42.1901017" lon="14.6408717"><ele>1.0</ele><time>2026-04-16T15:02:46.869Z</time></trkpt><trkpt lat="42.1901783" lon="14.640895"><ele>1.0</ele><time>2026-04-16T15:02:48.869Z</time></trkpt><trkpt lat="42.19025" lon="14.6408933"><ele>0.9999999999999999</ele><time>2026-04-16T15:02:50.868Z</time></trkpt><trkpt lat="42.1903167" lon="14.64082"><ele>1.0</ele><time>2026-04-16T15:02:52.869Z</time></trkpt><trkpt lat="42.1903517" lon="14.6407067"><ele>1.0</ele><time>2026-04-16T15:02:54.869Z</time></trkpt><trkpt lat="42.1903767" lon="14.64059"><ele>1.0</ele><time>2026-04-16T15:02:56.869Z</time></trkpt><trkpt lat="42.1904" lon="14.6404683"><ele>1.0</ele><time>2026-04-16T15:02:58.868Z</time></trkpt><trkpt lat="42.1904283" lon="14.6403433"><ele>1.0</ele><time>2026-04-16T15:03:00.869Z</time></trkpt><trkpt lat="42.19046" lon="14.6402033"><ele>1.0</ele><time>2026-04-16T15:03:02.869Z</time></trkpt><trkpt lat="42.1904833" lon="14.64007"><ele>1.0</ele><time>2026-04-16T15:03:04.869Z</time></trkpt><trkpt lat="42.19051" lon="14.6399533"><ele>1.0</ele><time>2026-04-16T15:03:06.869Z</time></trkpt><trkpt lat="42.1905383" lon="14.6398283"><ele>1.0</ele><time>2026-04-16T15:03:08.869Z</time></trkpt><trkpt lat="42.1905683" lon="14.6397033"><ele>1.0</ele><time>2026-04-16T15:03:10.868Z</time></trkpt><trkpt lat="42.1906017" lon="14.63957"><ele>1.0</ele><time>2026-04-16T15:03:12.869Z</time></trkpt><trkpt lat="42.1906283" lon="14.6394333"><ele>1.0</ele><time>2026-04-16T15:03:14.869Z</time></trkpt><trkpt lat="42.190645" lon="14.6392967"><ele>1.0</ele><time>2026-04-16T15:03:16.869Z</time></trkpt><trkpt lat="42.1906783" lon="14.6391617"><ele>1.0</ele><time>2026-04-16T15:03:18.869Z</time></trkpt><trkpt lat="42.1907083" lon="14.6390167"><ele>1.0</ele><time>2026-04-16T15:03:20.869Z</time></trkpt><trkpt lat="42.190735" lon="14.6388767"><ele>1.0</ele><time>2026-04-16T15:03:22.869Z</time></trkpt><trkpt lat="42.1907717" lon="14.63874"><ele>1.0</ele><time>2026-04-16T15:03:24.869Z</time></trkpt><trkpt lat="42.190805" lon="14.6386017"><ele>1.0</ele><time>2026-04-16T15:03:26.869Z</time></trkpt><trkpt lat="42.190835" lon="14.6384667"><ele>1.0</ele><time>2026-04-16T15:03:28.868Z</time></trkpt><trkpt lat="42.1908667" lon="14.6383317"><ele>1.0</ele><time>2026-04-16T15:03:30.869Z</time></trkpt><trkpt lat="42.190905" lon="14.6381967"><ele>1.0</ele><time>2026-04-16T15:03:32.869Z</time></trkpt><trkpt lat="42.1909483" lon="14.6380683"><ele>1.0</ele><time>2026-04-16T15:03:34.869Z</time></trkpt><trkpt lat="42.1909883" lon="14.6379483"><ele>1.0</ele><time>2026-04-16T15:03:36.869Z</time></trkpt><trkpt lat="42.1910267" lon="14.637815"><ele>1.0</ele><time>2026-04-16T15:03:38.868Z</time></trkpt><trkpt lat="42.1910633" lon="14.6376833"><ele>1.0</ele><time>2026-04-16T15:03:40.868Z</time></trkpt><trkpt lat="42.191095" lon="14.637555"><ele>1.0</ele><time>2026-04-16T15:03:42.869Z</time></trkpt><trkpt lat="42.1911333" lon="14.6374217"><ele>1.4</ele><time>2026-04-16T15:03:44.869Z</time></trkpt><trkpt lat="42.1911717" lon="14.6372883"><ele>1.8</ele><time>2026-04-16T15:03:46.868Z</time></trkpt><trkpt lat="42.191205" lon="14.637155"><ele>2.1999999999999997</ele><time>2026-04-16T15:03:48.868Z</time></trkpt><trkpt lat="42.1912333" lon="14.6370183"><ele>2.6</ele><time>2026-04-16T15:03:50.869Z</time></trkpt><trkpt lat="42.1912633" lon="14.6368767"><ele>3.0</ele><time>2026-04-16T15:03:52.869Z</time></trkpt><trkpt lat="42.1913" lon="14.6367333"><ele>3.0</ele><time>2026-04-16T15:03:54.868Z</time></trkpt><trkpt lat="42.19134" lon="14.6365983"><ele>3.0</ele><time>2026-04-16T15:03:56.868Z</time></trkpt><trkpt lat="42.19138" lon="14.6364617"><ele>3.0</ele><time>2026-04-16T15:03:58.869Z</time></trkpt><trkpt lat="42.1914267" lon="14.6363233"><ele>3.0</ele><time>2026-04-16T15:04:00.869Z</time></trkpt><trkpt lat="42.1914683" lon="14.6361983"><ele>3.0</ele><time>2026-04-16T15:04:02.869Z</time></trkpt><trkpt lat="42.1915067" lon="14.6360667"><ele>3.5999999999999996</ele><time>2026-04-16T15:04:04.868Z</time></trkpt><trkpt lat="42.191545" lon="14.635935"><ele>4.199999999999999</ele><time>2026-04-16T15:04:06.869Z</time></trkpt><trkpt lat="42.1915883" lon="14.6358017"><ele>4.8</ele><time>2026-04-16T15:04:08.868Z</time></trkpt><trkpt lat="42.1916217" lon="14.6356567"><ele>5.3999999999999995</ele><time>2026-04-16T15:04:10.869Z</time></trkpt><trkpt lat="42.191625" lon="14.6355117"><ele>6.0</ele><time>2026-04-16T15:04:12.869Z</time></trkpt><trkpt lat="42.1915967" lon="14.635375"><ele>5.6</ele><time>2026-04-16T15:04:14.868Z</time></trkpt><trkpt lat="42.19155" lon="14.635245"><ele>5.199999999999999</ele><time>2026-04-16T15:04:16.869Z</time></trkpt><trkpt lat="42.1915017" lon="14.635125"><ele>4.800000000000001</ele><time>2026-04-16T15:04:18.868Z</time></trkpt><trkpt lat="42.1914533" lon="14.6350017"><ele>4.4</ele><time>2026-04-16T15:04:20.868Z</time></trkpt><trkpt lat="42.1914" lon="14.6348783"><ele>4.0</ele><time>2026-04-16T15:04:22.869Z</time></trkpt><trkpt lat="42.19135" lon="14.6347483"><ele>4.0</ele><time>2026-04-16T15:04:24.869Z</time></trkpt><trkpt lat="42.1913" lon="14.6346183"><ele>4.0</ele><time>2026-04-16T15:04:26.868Z</time></trkpt><trkpt lat="42.191295" lon="14.63448"><ele>4.0</ele><time>2026-04-16T15:04:28.869Z</time></trkpt><trkpt lat="42.1913383" lon="14.6343567"><ele>4.0</ele><time>2026-04-16T15:04:30.868Z</time></trkpt><trkpt lat="42.1913933" lon="14.63424"><ele>4.0</ele><time>2026-04-16T15:04:32.868Z</time></trkpt><trkpt lat="42.19145" lon="14.634155"><ele>4.5</ele><time>2026-04-16T15:04:34.868Z</time></trkpt><trkpt lat="42.1915083" lon="14.6340933"><ele>5.0</ele><time>2026-04-16T15:04:36.868Z</time></trkpt><trkpt lat="42.191575" lon="14.63403"><ele>5.5</ele><time>2026-04-16T15:04:38.868Z</time></trkpt><trkpt lat="42.1916433" lon="14.6339583"><ele>6.0</ele><time>2026-04-16T15:04:40.868Z</time></trkpt><trkpt lat="42.1917083" lon="14.633905"><ele>6.500000000000001</ele><time>2026-04-16T15:04:42.869Z</time></trkpt><trkpt lat="42.1917683" lon="14.6338617"><ele>7.0</ele><time>2026-04-16T15:04:44.868Z</time></trkpt><trkpt lat="42.191825" lon="14.63382"><ele>7.000000000000001</ele><time>2026-04-16T15:04:46.868Z</time></trkpt><trkpt lat="42.1918783" lon="14.6337533"><ele>7.0</ele><time>2026-04-16T15:04:48.868Z</time></trkpt><trkpt lat="42.1919267" lon="14.6336617"><ele>7.0</ele><time>2026-04-16T15:04:51.869Z</time></trkpt><trkpt lat="42.1919533" lon="14.6335567"><ele>7.0</ele><time>2026-04-16T15:04:54.869Z</time></trkpt><trkpt lat="42.1919817" lon="14.6334767"><ele>7.000000000000001</ele><time>2026-04-16T15:04:57.869Z</time></trkpt><trkpt lat="42.192035" lon="14.6334"><ele>7.0</ele><time>2026-04-16T15:05:02.869Z</time></trkpt><trkpt lat="42.1921" lon="14.63335"><ele>7.666666666666667</ele><time>2026-04-16T15:05:05.869Z</time></trkpt><trkpt lat="42.1920833" lon="14.6334683"><ele>8.333333333333334</ele><time>2026-04-16T15:06:11.371Z</time></trkpt><trkpt lat="42.19211" lon="14.6333883"><ele>9.0</ele><time>2026-04-16T15:06:21.871Z</time></trkpt><trkpt lat="42.1921667" lon="14.6332433"><ele>9.666666666666666</ele><time>2026-04-16T15:07:19.871Z</time></trkpt><trkpt lat="42.1921783" lon="14.633155"><ele>10.333333333333332</ele><time>2026-04-16T15:07:22.871Z</time></trkpt><trkpt lat="42.1921567" lon="14.63304"><ele>11.0</ele><time>2026-04-16T15:07:26.872Z</time></trkpt><trkpt lat="42.192105" lon="14.6329517"><ele>11.0</ele><time>2026-04-16T15:07:29.872Z</time></trkpt><trkpt lat="42.1920467" lon="14.63291"><ele>11.0</ele><time>2026-04-16T15:07:31.871Z</time></trkpt><trkpt lat="42.1919817" lon="14.6329"><ele>11.0</ele><time>2026-04-16T15:07:33.871Z</time></trkpt><trkpt lat="42.1919183" lon="14.632895"><ele>11.0</ele><time>2026-04-16T15:07:35.871Z</time></trkpt><trkpt lat="42.1918517" lon="14.6329017"><ele>11.0</ele><time>2026-04-16T15:07:37.871Z</time></trkpt><trkpt lat="42.19178" lon="14.6329283"><ele>11.0</ele><time>2026-04-16T15:07:39.871Z</time></trkpt><trkpt lat="42.1917183" lon="14.6329533"><ele>11.0</ele><time>2026-04-16T15:07:41.872Z</time></trkpt><trkpt lat="42.19166" lon="14.6329933"><ele>11.0</ele><time>2026-04-16T15:07:44.871Z</time></trkpt><trkpt lat="42.1915783" lon="14.6330183"><ele>11.0</ele><time>2026-04-16T15:07:47.872Z</time></trkpt><trkpt lat="42.1915017" lon="14.6330533"><ele>11.0</ele><time>2026-04-16T15:07:50.871Z</time></trkpt><trkpt lat="42.191405" lon="14.6330467"><ele>11.0</ele><time>2026-04-16T15:07:53.871Z</time></trkpt><trkpt lat="42.1913317" lon="14.6330517"><ele>11.0</ele><time>2026-04-16T15:07:55.871Z</time></trkpt><trkpt lat="42.1912533" lon="14.633055"><ele>11.0</ele><time>2026-04-16T15:07:57.872Z</time></trkpt><trkpt lat="42.1911767" lon="14.63306"><ele>11.5</ele><time>2026-04-16T15:07:59.872Z</time></trkpt><trkpt lat="42.1910967" lon="14.6330667"><ele>12.0</ele><time>2026-04-16T15:08:01.872Z</time></trkpt><trkpt lat="42.191015" lon="14.6330717"><ele>12.5</ele><time>2026-04-16T15:08:03.872Z</time></trkpt><trkpt lat="42.1909333" lon="14.63308"><ele>13.0</ele><time>2026-04-16T15:08:05.871Z</time></trkpt><trkpt lat="42.1908533" lon="14.6330833"><ele>13.500000000000002</ele><time>2026-04-16T15:08:07.872Z</time></trkpt><trkpt lat="42.1907733" lon="14.6330867"><ele>14.0</ele><time>2026-04-16T15:08:09.872Z</time></trkpt><trkpt lat="42.1906917" lon="14.6330933"><ele>14.833333333333334</ele><time>2026-04-16T15:08:11.871Z</time></trkpt><trkpt lat="42.190605" lon="14.6331"><ele>15.666666666666668</ele><time>2026-04-16T15:08:13.871Z</time></trkpt><trkpt lat="42.19052" lon="14.6331067"><ele>16.5</ele><time>2026-04-16T15:08:15.872Z</time></trkpt><trkpt lat="42.1904333" lon="14.6331133"><ele>17.333333333333332</ele><time>2026-04-16T15:08:17.872Z</time></trkpt><trkpt lat="42.190345" lon="14.6331233"><ele>18.166666666666664</ele><time>2026-04-16T15:08:19.872Z</time></trkpt><trkpt lat="42.1902683" lon="14.6331417"><ele>19.0</ele><time>2026-04-16T15:08:21.872Z</time></trkpt><trkpt lat="42.1902033" lon="14.63313"><ele>19.0</ele><time>2026-04-16T15:08:23.871Z</time></trkpt><trkpt lat="42.19013" lon="14.6330933"><ele>19.0</ele><time>2026-04-16T15:08:26.871Z</time></trkpt><trkpt lat="42.190065" lon="14.6330717"><ele>19.0</ele><time>2026-04-16T15:08:29.871Z</time></trkpt><trkpt lat="42.190005" lon="14.6331133"><ele>19.0</ele><time>2026-04-16T15:08:31.872Z</time></trkpt><trkpt lat="42.1899517" lon="14.6331717"><ele>19.0</ele><time>2026-04-16T15:08:33.872Z</time></trkpt><trkpt lat="42.189885" lon="14.633215"><ele>19.0</ele><time>2026-04-16T15:08:35.872Z</time></trkpt><trkpt lat="42.1898017" lon="14.633245"><ele>19.0</ele><time>2026-04-16T15:08:37.871Z</time></trkpt><trkpt lat="42.18971" lon="14.6332767"><ele>19.0</ele><time>2026-04-16T15:08:39.871Z</time></trkpt><trkpt lat="42.189615" lon="14.6332967"><ele>19.0</ele><time>2026-04-16T15:08:41.872Z</time></trkpt><trkpt lat="42.1895167" lon="14.6333167"><ele>19.0</ele><time>2026-04-16T15:08:43.871Z</time></trkpt><trkpt lat="42.1894117" lon="14.6333367"><ele>19.0</ele><time>2026-04-16T15:08:45.872Z</time></trkpt><trkpt lat="42.1893083" lon="14.63335"><ele>19.0</ele><time>2026-04-16T15:08:47.872Z</time></trkpt><trkpt lat="42.1891933" lon="14.6333617"><ele>19.0</ele><time>2026-04-16T15:08:49.871Z</time></trkpt><trkpt lat="42.18908" lon="14.633375"><ele>19.0</ele><time>2026-04-16T15:08:51.871Z</time></trkpt><trkpt lat="42.1889733" lon="14.6333967"><ele>19.0</ele><time>2026-04-16T15:08:53.871Z</time></trkpt><trkpt lat="42.1888733" lon="14.633415"><ele>19.0</ele><time>2026-04-16T15:08:55.872Z</time></trkpt><trkpt lat="42.18878" lon="14.6334267"><ele>19.0</ele><time>2026-04-16T15:08:57.872Z</time></trkpt><trkpt lat="42.188685" lon="14.6334383"><ele>18.8</ele><time>2026-04-16T15:08:59.872Z</time></trkpt><trkpt lat="42.1885933" lon="14.6334517"><ele>18.599999999999998</ele><time>2026-04-16T15:09:01.872Z</time></trkpt><trkpt lat="42.1884817" lon="14.633475"><ele>18.4</ele><time>2026-04-16T15:09:03.872Z</time></trkpt><trkpt lat="42.1883733" lon="14.6334917"><ele>18.2</ele><time>2026-04-16T15:09:05.872Z</time></trkpt><trkpt lat="42.1882517" lon="14.6335133"><ele>18.0</ele><time>2026-04-16T15:09:07.872Z</time></trkpt><trkpt lat="42.1881283" lon="14.633535"><ele>17.571428571428573</ele><time>2026-04-16T15:09:09.872Z</time></trkpt><trkpt lat="42.188065" lon="14.6335483"><ele>17.142857142857142</ele><time>2026-04-16T15:09:10.872Z</time></trkpt><trkpt lat="42.188" lon="14.63356"><ele>16.714285714285715</ele><time>2026-04-16T15:09:11.872Z</time></trkpt><trkpt lat="42.1879333" lon="14.63357"><ele>16.285714285714285</ele><time>2026-04-16T15:09:12.872Z</time></trkpt><trkpt lat="42.1878633" lon="14.6335767"><ele>15.857142857142858</ele><time>2026-04-16T15:09:13.872Z</time></trkpt><trkpt lat="42.187795" lon="14.6335867"><ele>15.428571428571429</ele><time>2026-04-16T15:09:14.872Z</time></trkpt><trkpt lat="42.18772" lon="14.6336"><ele>15.0</ele><time>2026-04-16T15:09:15.871Z</time></trkpt><trkpt lat="42.1876467" lon="14.6336133"><ele>15.0</ele><time>2026-04-16T15:09:16.872Z</time></trkpt><trkpt lat="42.187565" lon="14.63363"><ele>15.0</ele><time>2026-04-16T15:09:17.872Z</time></trkpt><trkpt lat="42.187485" lon="14.63366"><ele>15.0</ele><time>2026-04-16T15:09:18.872Z</time></trkpt><trkpt lat="42.1874083" lon="14.6336817"><ele>15.0</ele><time>2026-04-16T15:09:19.872Z</time></trkpt><trkpt lat="42.1873317" lon="14.6336983"><ele>15.0</ele><time>2026-04-16T15:09:20.871Z</time></trkpt><trkpt lat="42.1872483" lon="14.6337117"><ele>15.0</ele><time>2026-04-16T15:09:21.871Z</time></trkpt><trkpt lat="42.1871783" lon="14.6337233"><ele>14.5</ele><time>2026-04-16T15:09:22.871Z</time></trkpt><trkpt lat="42.1871017" lon="14.6337317"><ele>14.0</ele><time>2026-04-16T15:09:23.872Z</time></trkpt><trkpt lat="42.1870317" lon="14.6337433"><ele>13.5</ele><time>2026-04-16T15:09:24.872Z</time></trkpt><trkpt lat="42.1869583" lon="14.633755"><ele>13.0</ele><time>2026-04-16T15:09:25.872Z</time></trkpt><trkpt lat="42.1868867" lon="14.63377"><ele>12.5</ele><time>2026-04-16T15:09:26.872Z</time></trkpt><trkpt lat="42.1867633" lon="14.6338"><ele>12.0</ele><time>2026-04-16T15:09:28.871Z</time></trkpt><trkpt lat="42.186655" lon="14.6338233"><ele>12.0</ele><time>2026-04-16T15:09:30.872Z</time></trkpt><trkpt lat="42.1865583" lon="14.6338467"><ele>12.0</ele><time>2026-04-16T15:09:32.872Z</time></trkpt><trkpt lat="42.1864667" lon="14.6338683"><ele>12.0</ele><time>2026-04-16T15:09:34.871Z</time></trkpt><trkpt lat="42.1863917" lon="14.6338817"><ele>12.0</ele><time>2026-04-16T15:09:36.873Z</time></trkpt><trkpt lat="42.1863233" lon="14.63389"><ele>12.0</ele><time>2026-04-16T15:09:38.873Z</time></trkpt><trkpt lat="42.1862567" lon="14.6339"><ele>12.0</ele><time>2026-04-16T15:09:40.872Z</time></trkpt><trkpt lat="42.186175" lon="14.6339117"><ele>12.166666666666666</ele><time>2026-04-16T15:09:42.873Z</time></trkpt><trkpt lat="42.1860983" lon="14.6339267"><ele>12.333333333333332</ele><time>2026-04-16T15:09:44.873Z</time></trkpt><trkpt lat="42.1860167" lon="14.6339383"><ele>12.5</ele><time>2026-04-16T15:09:46.873Z</time></trkpt><trkpt lat="42.1859317" lon="14.6339467"><ele>12.666666666666666</ele><time>2026-04-16T15:09:48.872Z</time></trkpt><trkpt lat="42.1858433" lon="14.6339633"><ele>12.833333333333332</ele><time>2026-04-16T15:09:50.873Z</time></trkpt><trkpt lat="42.1857583" lon="14.63398"><ele>13.0</ele><time>2026-04-16T15:09:52.872Z</time></trkpt><trkpt lat="42.1856833" lon="14.6339933"><ele>13.142857142857142</ele><time>2026-04-16T15:09:54.873Z</time></trkpt><trkpt lat="42.1856217" lon="14.6339733"><ele>13.285714285714286</ele><time>2026-04-16T15:09:56.873Z</time></trkpt><trkpt lat="42.1855583" lon="14.6339333"><ele>13.428571428571429</ele><time>2026-04-16T15:09:58.872Z</time></trkpt><trkpt lat="42.1854983" lon="14.6338733"><ele>13.571428571428571</ele><time>2026-04-16T15:10:00.873Z</time></trkpt><trkpt lat="42.185435" lon="14.6338067"><ele>13.714285714285715</ele><time>2026-04-16T15:10:02.872Z</time></trkpt><trkpt lat="42.1853717" lon="14.6337367"><ele>13.857142857142858</ele><time>2026-04-16T15:10:04.873Z</time></trkpt><trkpt lat="42.18531" lon="14.6336733"><ele>14.0</ele><time>2026-04-16T15:10:06.873Z</time></trkpt><trkpt lat="42.185255" lon="14.6336117"><ele>14.666666666666668</ele><time>2026-04-16T15:10:08.872Z</time></trkpt><trkpt lat="42.185195" lon="14.6335383"><ele>15.333333333333334</ele><time>2026-04-16T15:10:10.873Z</time></trkpt><trkpt lat="42.1851267" lon="14.63347"><ele>16.0</ele><time>2026-04-16T15:10:12.872Z</time></trkpt><trkpt lat="42.1850617" lon="14.6333983"><ele>16.666666666666668</ele><time>2026-04-16T15:10:14.872Z</time></trkpt><trkpt lat="42.185" lon="14.6333283"><ele>17.333333333333332</ele><time>2026-04-16T15:10:16.872Z</time></trkpt><trkpt lat="42.1849383" lon="14.6332667"><ele>18.0</ele><time>2026-04-16T15:10:18.873Z</time></trkpt><trkpt lat="42.184885" lon="14.633215"><ele>18.166666666666668</ele><time>2026-04-16T15:10:20.873Z</time></trkpt><trkpt lat="42.1848117" lon="14.63313"><ele>18.333333333333332</ele><time>2026-04-16T15:10:23.872Z</time></trkpt><trkpt lat="42.1847567" lon="14.6330667"><ele>18.5</ele><time>2026-04-16T15:10:25.873Z</time></trkpt><trkpt lat="42.1846967" lon="14.632995"><ele>18.666666666666664</ele><time>2026-04-16T15:10:27.873Z</time></trkpt><trkpt lat="42.184635" lon="14.6329267"><ele>18.833333333333332</ele><time>2026-04-16T15:10:29.873Z</time></trkpt><trkpt lat="42.1845783" lon="14.6328633"><ele>19.0</ele><time>2026-04-16T15:10:31.872Z</time></trkpt><trkpt lat="42.1845183" lon="14.6327983"><ele>19.57142857142857</ele><time>2026-04-16T15:10:33.873Z</time></trkpt><trkpt lat="42.18446" lon="14.63273"><ele>20.142857142857146</ele><time>2026-04-16T15:10:35.873Z</time></trkpt><trkpt lat="42.1844017" lon="14.632665"><ele>20.714285714285715</ele><time>2026-04-16T15:10:37.872Z</time></trkpt><trkpt lat="42.184345" lon="14.6326017"><ele>21.285714285714285</ele><time>2026-04-16T15:10:39.872Z</time></trkpt><trkpt lat="42.1842917" lon="14.6325417"><ele>21.857142857142854</ele><time>2026-04-16T15:10:41.873Z</time></trkpt><trkpt lat="42.1842433" lon="14.6324833"><ele>22.42857142857143</ele><time>2026-04-16T15:10:43.873Z</time></trkpt><trkpt lat="42.1841883" lon="14.6324317"><ele>23.0</ele><time>2026-04-16T15:10:45.873Z</time></trkpt><trkpt lat="42.1841383" lon="14.63238"><ele>23.0</ele><time>2026-04-16T15:10:47.873Z</time></trkpt><trkpt lat="42.1840833" lon="14.632325"><ele>23.0</ele><time>2026-04-16T15:10:49.873Z</time></trkpt><trkpt lat="42.1840333" lon="14.6322667"><ele>23.0</ele><time>2026-04-16T15:10:51.873Z</time></trkpt><trkpt lat="42.1839817" lon="14.6322083"><ele>23.0</ele><time>2026-04-16T15:10:53.873Z</time></trkpt><trkpt lat="42.1839333" lon="14.6321533"><ele>23.0</ele><time>2026-04-16T15:10:55.872Z</time></trkpt><trkpt lat="42.18386" lon="14.6320783"><ele>23.0</ele><time>2026-04-16T15:10:58.872Z</time></trkpt><trkpt lat="42.1837967" lon="14.6320083"><ele>23.0</ele><time>2026-04-16T15:11:01.873Z</time></trkpt><trkpt lat="42.18374" lon="14.6319417"><ele>24.833333333333336</ele><time>2026-04-16T15:11:04.873Z</time></trkpt><trkpt lat="42.1836717" lon="14.6318633"><ele>26.666666666666668</ele><time>2026-04-16T15:11:07.873Z</time></trkpt><trkpt lat="42.1835967" lon="14.6317817"><ele>28.5</ele><time>2026-04-16T15:11:10.873Z</time></trkpt><trkpt lat="42.1835233" lon="14.6317017"><ele>30.333333333333336</ele><time>2026-04-16T15:11:13.873Z</time></trkpt><trkpt lat="42.1834717" lon="14.631645"><ele>32.16666666666667</ele><time>2026-04-16T15:11:15.872Z</time></trkpt><trkpt lat="42.1834183" lon="14.631595"><ele>34.0</ele><time>2026-04-16T15:11:17.873Z</time></trkpt><trkpt lat="42.18337" lon="14.63154"><ele>34.0</ele><time>2026-04-16T15:11:19.873Z</time></trkpt><trkpt lat="42.1833117" lon="14.6314733"><ele>34.0</ele><time>2026-04-16T15:11:22.873Z</time></trkpt><trkpt lat="42.1832417" lon="14.6314"><ele>34.0</ele><time>2026-04-16T15:11:25.873Z</time></trkpt><trkpt lat="42.1831633" lon="14.6313417"><ele>34.0</ele><time>2026-04-16T15:11:28.873Z</time></trkpt><trkpt lat="42.183085" lon="14.6312967"><ele>34.0</ele><time>2026-04-16T15:11:31.872Z</time></trkpt><trkpt lat="42.1830167" lon="14.6312767"><ele>34.0</ele><time>2026-04-16T15:11:34.872Z</time></trkpt><trkpt lat="42.182935" lon="14.6312767"><ele>35.333333333333336</ele><time>2026-04-16T15:11:38.873Z</time></trkpt><trkpt lat="42.1828417" lon="14.6313"><ele>36.66666666666667</ele><time>2026-04-16T15:11:41.872Z</time></trkpt><trkpt lat="42.1827717" lon="14.6313183"><ele>38.0</ele><time>2026-04-16T15:11:43.872Z</time></trkpt><trkpt lat="42.1826933" lon="14.63133"><ele>39.333333333333336</ele><time>2026-04-16T15:11:45.873Z</time></trkpt><trkpt lat="42.1826183" lon="14.63135"><ele>40.666666666666664</ele><time>2026-04-16T15:11:47.872Z</time></trkpt><trkpt lat="42.1825467" lon="14.6313683"><ele>42.0</ele><time>2026-04-16T15:11:49.873Z</time></trkpt><trkpt lat="42.1824733" lon="14.6313917"><ele>42.0</ele><time>2026-04-16T15:11:51.872Z</time></trkpt><trkpt lat="42.1823767" lon="14.6314"><ele>42.0</ele><time>2026-04-16T15:11:54.873Z</time></trkpt><trkpt lat="42.1822867" lon="14.6313933"><ele>42.0</ele><time>2026-04-16T15:11:57.872Z</time></trkpt><trkpt lat="42.1822217" lon="14.6314017"><ele>42.0</ele><time>2026-04-16T15:11:59.873Z</time></trkpt><trkpt lat="42.1821533" lon="14.6314083"><ele>42.0</ele><time>2026-04-16T15:12:01.873Z</time></trkpt><trkpt lat="42.1820783" lon="14.6314117"><ele>42.0</ele><time>2026-04-16T15:12:03.872Z</time></trkpt><trkpt lat="42.1819917" lon="14.6314133"><ele>43.5</ele><time>2026-04-16T15:12:06.872Z</time></trkpt><trkpt lat="42.1819133" lon="14.631405"><ele>45.0</ele><time>2026-04-16T15:12:09.873Z</time></trkpt><trkpt lat="42.1818317" lon="14.6314"><ele>46.5</ele><time>2026-04-16T15:12:12.873Z</time></trkpt><trkpt lat="42.1817317" lon="14.6314067"><ele>48.0</ele><time>2026-04-16T15:12:15.873Z</time></trkpt><trkpt lat="42.1816633" lon="14.6314133"><ele>49.5</ele><time>2026-04-16T15:12:17.873Z</time></trkpt><trkpt lat="42.1816" lon="14.6314083"><ele>51.0</ele><time>2026-04-16T15:12:19.873Z</time></trkpt><trkpt lat="42.181515" lon="14.631395"><ele>51.85714285714286</ele><time>2026-04-16T15:12:22.873Z</time></trkpt><trkpt lat="42.181445" lon="14.63138"><ele>52.714285714285715</ele><time>2026-04-16T15:12:24.873Z</time></trkpt><trkpt lat="42.181375" lon="14.6313533"><ele>53.57142857142857</ele><time>2026-04-16T15:12:26.872Z</time></trkpt><trkpt lat="42.1813167" lon="14.63132"><ele>54.42857142857143</ele><time>2026-04-16T15:12:28.872Z</time></trkpt><trkpt lat="42.1812333" lon="14.6312717"><ele>55.28571428571428</ele><time>2026-04-16T15:12:31.873Z</time></trkpt><trkpt lat="42.1811517" lon="14.6312567"><ele>56.14285714285714</ele><time>2026-04-16T15:12:34.873Z</time></trkpt><trkpt lat="42.1810883" lon="14.6312417"><ele>57.0</ele><time>2026-04-16T15:12:36.873Z</time></trkpt><trkpt lat="42.1810133" lon="14.63124"><ele>57.0</ele><time>2026-04-16T15:12:38.873Z</time></trkpt><trkpt lat="42.1809317" lon="14.63125"><ele>56.99999999999999</ele><time>2026-04-16T15:12:40.873Z</time></trkpt><trkpt lat="42.1808617" lon="14.6312667"><ele>57.0</ele><time>2026-04-16T15:12:42.873Z</time></trkpt><trkpt lat="42.1807933" lon="14.6312867"><ele>57.0</ele><time>2026-04-16T15:12:44.872Z</time></trkpt><trkpt lat="42.1807317" lon="14.631315"><ele>56.99999999999999</ele><time>2026-04-16T15:12:46.872Z</time></trkpt><trkpt lat="42.1806617" lon="14.6313317"><ele>57.0</ele><time>2026-04-16T15:12:48.873Z</time></trkpt><trkpt lat="42.1805967" lon="14.631345"><ele>57.0</ele><time>2026-04-16T15:12:50.872Z</time></trkpt><trkpt lat="42.180535" lon="14.631365"><ele>57.6</ele><time>2026-04-16T15:12:52.873Z</time></trkpt><trkpt lat="42.180445" lon="14.6313933"><ele>58.2</ele><time>2026-04-16T15:12:55.873Z</time></trkpt><trkpt lat="42.18036" lon="14.63142"><ele>58.8</ele><time>2026-04-16T15:12:58.873Z</time></trkpt><trkpt lat="42.180275" lon="14.6314467"><ele>59.4</ele><time>2026-04-16T15:13:01.872Z</time></trkpt><trkpt lat="42.1801833" lon="14.63147"><ele>60.0</ele><time>2026-04-16T15:13:04.872Z</time></trkpt><trkpt lat="42.18009" lon="14.6314933"><ele>60.0</ele><time>2026-04-16T15:13:07.873Z</time></trkpt><trkpt lat="42.180025" lon="14.63151"><ele>60.0</ele><time>2026-04-16T15:13:09.872Z</time></trkpt><trkpt lat="42.1799583" lon="14.63153"><ele>60.0</ele><time>2026-04-16T15:13:11.872Z</time></trkpt><trkpt lat="42.1798883" lon="14.6315517"><ele>60.0</ele><time>2026-04-16T15:13:13.873Z</time></trkpt><trkpt lat="42.179825" lon="14.6315717"><ele>60.0</ele><time>2026-04-16T15:13:15.873Z</time></trkpt><trkpt lat="42.1797583" lon="14.6315867"><ele>60.0</ele><time>2026-04-16T15:13:17.873Z</time></trkpt><trkpt lat="42.1796967" lon="14.6316083"><ele>60.0</ele><time>2026-04-16T15:13:19.872Z</time></trkpt><trkpt lat="42.17963" lon="14.6316233"><ele>60.85714285714286</ele><time>2026-04-16T15:13:21.872Z</time></trkpt><trkpt lat="42.1795667" lon="14.63164"><ele>61.71428571428571</ele><time>2026-04-16T15:13:23.872Z</time></trkpt><trkpt lat="42.1795033" lon="14.6316617"><ele>62.57142857142857</ele><time>2026-04-16T15:13:25.873Z</time></trkpt><trkpt lat="42.1794367" lon="14.6316767"><ele>63.42857142857143</ele><time>2026-04-16T15:13:27.872Z</time></trkpt><trkpt lat="42.179365" lon="14.6316983"><ele>64.28571428571429</ele><time>2026-04-16T15:13:29.872Z</time></trkpt><trkpt lat="42.179295" lon="14.631715"><ele>65.14285714285714</ele><time>2026-04-16T15:13:31.873Z</time></trkpt><trkpt lat="42.1792217" lon="14.63174"><ele>66.0</ele><time>2026-04-16T15:13:33.873Z</time></trkpt><trkpt lat="42.1791567" lon="14.63177"><ele>66.0</ele><time>2026-04-16T15:13:35.872Z</time></trkpt><trkpt lat="42.1790917" lon="14.6317883"><ele>66.0</ele><time>2026-04-16T15:13:37.873Z</time></trkpt><trkpt lat="42.1790217" lon="14.6318"><ele>66.0</ele><time>2026-04-16T15:13:39.873Z</time></trkpt><trkpt lat="42.1789567" lon="14.631815"><ele>66.0</ele><time>2026-04-16T15:13:41.873Z</time></trkpt><trkpt lat="42.1788917" lon="14.631835"><ele>66.0</ele><time>2026-04-16T15:13:43.873Z</time></trkpt><trkpt lat="42.17883" lon="14.631855"><ele>66.0</ele><time>2026-04-16T15:13:45.873Z</time></trkpt><trkpt lat="42.1787667" lon="14.6318683"><ele>66.0</ele><time>2026-04-16T15:13:47.872Z</time></trkpt><trkpt lat="42.1786983" lon="14.631885"><ele>65.42857142857143</ele><time>2026-04-16T15:13:49.872Z</time></trkpt><trkpt lat="42.178635" lon="14.631915"><ele>64.85714285714286</ele><time>2026-04-16T15:13:51.872Z</time></trkpt><trkpt lat="42.1785633" lon="14.6319283"><ele>64.28571428571429</ele><time>2026-04-16T15:13:53.872Z</time></trkpt><trkpt lat="42.1784917" lon="14.63195"><ele>63.714285714285715</ele><time>2026-04-16T15:13:55.873Z</time></trkpt><trkpt lat="42.1784183" lon="14.63197"><ele>63.14285714285715</ele><time>2026-04-16T15:13:57.872Z</time></trkpt><trkpt lat="42.178345" lon="14.6319917"><ele>62.57142857142858</ele><time>2026-04-16T15:13:59.873Z</time></trkpt><trkpt lat="42.1782783" lon="14.6320117"><ele>62.0</ele><time>2026-04-16T15:14:01.872Z</time></trkpt><trkpt lat="42.17821" lon="14.632035"><ele>62.714285714285715</ele><time>2026-04-16T15:14:03.873Z</time></trkpt><trkpt lat="42.1781417" lon="14.6320583"><ele>63.42857142857143</ele><time>2026-04-16T15:14:05.873Z</time></trkpt><trkpt lat="42.1780733" lon="14.6320717"><ele>64.14285714285714</ele><time>2026-04-16T15:14:07.873Z</time></trkpt><trkpt lat="42.17801" lon="14.6320883"><ele>64.85714285714286</ele><time>2026-04-16T15:14:09.873Z</time></trkpt><trkpt lat="42.1779267" lon="14.6320867"><ele>65.57142857142857</ele><time>2026-04-16T15:14:12.872Z</time></trkpt><trkpt lat="42.1778333" lon="14.6320817"><ele>66.28571428571429</ele><time>2026-04-16T15:14:15.873Z</time></trkpt><trkpt lat="42.17777" lon="14.63208"><ele>67.0</ele><time>2026-04-16T15:14:17.873Z</time></trkpt><trkpt lat="42.1777067" lon="14.6320717"><ele>67.0</ele><time>2026-04-16T15:14:19.873Z</time></trkpt><trkpt lat="42.1776383" lon="14.63206"><ele>67.0</ele><time>2026-04-16T15:14:21.872Z</time></trkpt><trkpt lat="42.1775633" lon="14.63204"><ele>67.0</ele><time>2026-04-16T15:14:23.872Z</time></trkpt><trkpt lat="42.1774983" lon="14.6320033"><ele>67.0</ele><time>2026-04-16T15:14:25.873Z</time></trkpt><trkpt lat="42.177435" lon="14.6319667"><ele>67.0</ele><time>2026-04-16T15:14:27.873Z</time></trkpt><trkpt lat="42.1773767" lon="14.63192"><ele>67.0</ele><time>2026-04-16T15:14:29.873Z</time></trkpt><trkpt lat="42.17732" lon="14.6318733"><ele>67.0</ele><time>2026-04-16T15:14:31.873Z</time></trkpt><trkpt lat="42.1772533" lon="14.631825"><ele>68.85714285714286</ele><time>2026-04-16T15:14:33.872Z</time></trkpt><trkpt lat="42.1771967" lon="14.6317817"><ele>70.71428571428571</ele><time>2026-04-16T15:14:35.872Z</time></trkpt><trkpt lat="42.1771333" lon="14.6317383"><ele>72.57142857142857</ele><time>2026-04-16T15:14:37.873Z</time></trkpt><trkpt lat="42.1770667" lon="14.631685"><ele>74.42857142857143</ele><time>2026-04-16T15:14:39.873Z</time></trkpt><trkpt lat="42.1770033" lon="14.63163"><ele>76.28571428571429</ele><time>2026-04-16T15:14:41.873Z</time></trkpt><trkpt lat="42.1769467" lon="14.6315883"><ele>78.14285714285714</ele><time>2026-04-16T15:14:43.873Z</time></trkpt><trkpt lat="42.1768867" lon="14.6315417"><ele>80.0</ele><time>2026-04-16T15:14:45.873Z</time></trkpt><trkpt lat="42.17683" lon="14.6314933"><ele>80.0</ele><time>2026-04-16T15:14:47.872Z</time></trkpt><trkpt lat="42.1767633" lon="14.63145"><ele>80.0</ele><time>2026-04-16T15:14:49.873Z</time></trkpt><trkpt lat="42.1766967" lon="14.6314067"><ele>80.0</ele><time>2026-04-16T15:14:51.872Z</time></trkpt><trkpt lat="42.1766317" lon="14.6313583"><ele>80.0</ele><time>2026-04-16T15:14:53.872Z</time></trkpt><trkpt lat="42.1765667" lon="14.631315"><ele>80.0</ele><time>2026-04-16T15:14:55.872Z</time></trkpt><trkpt lat="42.1765033" lon="14.631255"><ele>80.0</ele><time>2026-04-16T15:14:57.872Z</time></trkpt><trkpt lat="42.1764433" lon="14.6311933"><ele>80.0</ele><time>2026-04-16T15:14:59.873Z</time></trkpt><trkpt lat="42.176385" lon="14.6311333"><ele>81.6</ele><time>2026-04-16T15:15:01.873Z</time></trkpt><trkpt lat="42.1763167" lon="14.6310717"><ele>83.2</ele><time>2026-04-16T15:15:03.873Z</time></trkpt><trkpt lat="42.176255" lon="14.6310167"><ele>84.80000000000001</ele><time>2026-04-16T15:15:05.873Z</time></trkpt><trkpt lat="42.1761933" lon="14.6309717"><ele>86.4</ele><time>2026-04-16T15:15:07.873Z</time></trkpt><trkpt lat="42.17609" lon="14.6311267"><ele>88.0</ele><time>2026-04-16T15:16:12.787Z</time></trkpt><trkpt lat="42.1760917" lon="14.63102"><ele>88.0</ele><time>2026-04-16T15:16:13.869Z</time></trkpt><trkpt lat="42.1760867" lon="14.6309217"><ele>88.0</ele><time>2026-04-16T15:19:09.871Z</time></trkpt><trkpt lat="42.1760333" lon="14.6308617"><ele>88.0</ele><time>2026-04-16T15:19:12.871Z</time></trkpt><trkpt lat="42.1759617" lon="14.6307917"><ele>88.0</ele><time>2026-04-16T15:19:15.871Z</time></trkpt><trkpt lat="42.1758967" lon="14.6307367"><ele>88.0</ele><time>2026-04-16T15:19:17.872Z</time></trkpt><trkpt lat="42.1758333" lon="14.6306717"><ele>88.0</ele><time>2026-04-16T15:19:19.872Z</time></trkpt><trkpt lat="42.1757433" lon="14.6305983"><ele>88.0</ele><time>2026-04-16T15:19:21.872Z</time></trkpt><trkpt lat="42.1756633" lon="14.63053"><ele>88.0</ele><time>2026-04-16T15:19:23.871Z</time></trkpt><trkpt lat="42.1755867" lon="14.6304567"><ele>88.0</ele><time>2026-04-16T15:19:25.872Z</time></trkpt><trkpt lat="42.1755083" lon="14.6303967"><ele>88.0</ele><time>2026-04-16T15:19:27.871Z</time></trkpt><trkpt lat="42.1754367" lon="14.630325"><ele>88.0</ele><time>2026-04-16T15:19:29.872Z</time></trkpt><trkpt lat="42.17535" lon="14.63026"><ele>88.0</ele><time>2026-04-16T15:19:31.872Z</time></trkpt><trkpt lat="42.1752683" lon="14.6301933"><ele>88.0</ele><time>2026-04-16T15:19:33.872Z</time></trkpt><trkpt lat="42.1751833" lon="14.630125"><ele>88.0</ele><time>2026-04-16T15:19:35.871Z</time></trkpt><trkpt lat="42.17511" lon="14.6300533"><ele>88.0</ele><time>2026-04-16T15:19:37.871Z</time></trkpt><trkpt lat="42.1750317" lon="14.62998"><ele>88.0</ele><time>2026-04-16T15:19:39.872Z</time></trkpt><trkpt lat="42.1749533" lon="14.629915"><ele>88.0</ele><time>2026-04-16T15:19:41.871Z</time></trkpt><trkpt lat="42.1748733" lon="14.629845"><ele>88.0</ele><time>2026-04-16T15:19:43.871Z</time></trkpt><trkpt lat="42.1747917" lon="14.629775"><ele>88.0</ele><time>2026-04-16T15:19:45.871Z</time></trkpt><trkpt lat="42.1747217" lon="14.629695"><ele>88.0</ele><time>2026-04-16T15:19:47.872Z</time></trkpt><trkpt lat="42.1746483" lon="14.62961"><ele>88.0</ele><time>2026-04-16T15:19:49.872Z</time></trkpt><trkpt lat="42.1745867" lon="14.6295083"><ele>88.0</ele><time>2026-04-16T15:19:51.871Z</time></trkpt><trkpt lat="42.174525" lon="14.6294067"><ele>88.0</ele><time>2026-04-16T15:19:53.871Z</time></trkpt><trkpt lat="42.174465" lon="14.6293083"><ele>88.0</ele><time>2026-04-16T15:19:55.872Z</time></trkpt><trkpt lat="42.1744" lon="14.629215"><ele>88.0</ele><time>2026-04-16T15:19:57.872Z</time></trkpt><trkpt lat="42.1743317" lon="14.6291267"><ele>88.0</ele><time>2026-04-16T15:19:59.872Z</time></trkpt><trkpt lat="42.174255" lon="14.62904"><ele>88.0</ele><time>2026-04-16T15:20:01.871Z</time></trkpt><trkpt lat="42.1741833" lon="14.6289533"><ele>88.0</ele><time>2026-04-16T15:20:03.871Z</time></trkpt><trkpt lat="42.1741083" lon="14.62887"><ele>88.0</ele><time>2026-04-16T15:20:05.871Z</time></trkpt><trkpt lat="42.1740283" lon="14.6288017"><ele>88.0</ele><time>2026-04-16T15:20:07.871Z</time></trkpt><trkpt lat="42.1739467" lon="14.628735"><ele>88.0</ele><time>2026-04-16T15:20:09.872Z</time></trkpt><trkpt lat="42.1738633" lon="14.6286667"><ele>88.60000000000001</ele><time>2026-04-16T15:20:11.871Z</time></trkpt><trkpt lat="42.1737717" lon="14.6286"><ele>89.2</ele><time>2026-04-16T15:20:13.871Z</time></trkpt><trkpt lat="42.1736817" lon="14.6285367"><ele>89.8</ele><time>2026-04-16T15:20:15.872Z</time></trkpt><trkpt lat="42.1735967" lon="14.6284733"><ele>90.4</ele><time>2026-04-16T15:20:17.872Z</time></trkpt><trkpt lat="42.173515" lon="14.6284067"><ele>91.0</ele><time>2026-04-16T15:20:19.872Z</time></trkpt><trkpt lat="42.173435" lon="14.6283433"><ele>91.0</ele><time>2026-04-16T15:20:21.872Z</time></trkpt><trkpt lat="42.1733533" lon="14.6282867"><ele>91.0</ele><time>2026-04-16T15:20:23.871Z</time></trkpt><trkpt lat="42.1732717" lon="14.62823"><ele>91.0</ele><time>2026-04-16T15:20:25.872Z</time></trkpt><trkpt lat="42.173195" lon="14.6281633"><ele>91.0</ele><time>2026-04-16T15:20:27.872Z</time></trkpt><trkpt lat="42.173115" lon="14.6280933"><ele>91.0</ele><time>2026-04-16T15:20:29.872Z</time></trkpt><trkpt lat="42.173015" lon="14.6280283"><ele>91.0</ele><time>2026-04-16T15:20:31.872Z</time></trkpt><trkpt lat="42.1729283" lon="14.6279667"><ele>91.0</ele><time>2026-04-16T15:20:33.871Z</time></trkpt><trkpt lat="42.17284" lon="14.6278967"><ele>91.0</ele><time>2026-04-16T15:20:35.871Z</time></trkpt><trkpt lat="42.172755" lon="14.6278317"><ele>91.0</ele><time>2026-04-16T15:20:37.872Z</time></trkpt><trkpt lat="42.1726683" lon="14.627765"><ele>91.0</ele><time>2026-04-16T15:20:39.871Z</time></trkpt><trkpt lat="42.1725833" lon="14.6276983"><ele>91.19999999999999</ele><time>2026-04-16T15:20:41.871Z</time></trkpt><trkpt lat="42.172505" lon="14.62764"><ele>91.39999999999999</ele><time>2026-04-16T15:20:43.872Z</time></trkpt><trkpt lat="42.1724183" lon="14.62759"><ele>91.6</ele><time>2026-04-16T15:20:45.872Z</time></trkpt><trkpt lat="42.1723283" lon="14.6275417"><ele>91.8</ele><time>2026-04-16T15:20:47.872Z</time></trkpt><trkpt lat="42.1722367" lon="14.627495"><ele>92.0</ele><time>2026-04-16T15:20:49.872Z</time></trkpt><trkpt lat="42.17215" lon="14.6274517"><ele>92.39999999999999</ele><time>2026-04-16T15:20:51.872Z</time></trkpt><trkpt lat="42.1720517" lon="14.6274"><ele>92.8</ele><time>2026-04-16T15:20:53.872Z</time></trkpt><trkpt lat="42.171955" lon="14.62735"><ele>93.2</ele><time>2026-04-16T15:20:55.872Z</time></trkpt><trkpt lat="42.1718583" lon="14.627305"><ele>93.6</ele><time>2026-04-16T15:20:57.872Z</time></trkpt><trkpt lat="42.171765" lon="14.6272517"><ele>94.0</ele><time>2026-04-16T15:20:59.872Z</time></trkpt><trkpt lat="42.1716783" lon="14.6272033"><ele>94.0</ele><time>2026-04-16T15:21:01.872Z</time></trkpt><trkpt lat="42.1715917" lon="14.6271583"><ele>94.0</ele><time>2026-04-16T15:21:03.871Z</time></trkpt><trkpt lat="42.1715017" lon="14.62711"><ele>94.0</ele><time>2026-04-16T15:21:05.872Z</time></trkpt><trkpt lat="42.1714117" lon="14.62706"><ele>94.0</ele><time>2026-04-16T15:21:07.871Z</time></trkpt><trkpt lat="42.1713217" lon="14.6270083"><ele>94.0</ele><time>2026-04-16T15:21:09.871Z</time></trkpt><trkpt lat="42.17122" lon="14.62696"><ele>94.0</ele><time>2026-04-16T15:21:11.872Z</time></trkpt><trkpt lat="42.1711183" lon="14.6269267"><ele>94.0</ele><time>2026-04-16T15:21:13.872Z</time></trkpt><trkpt lat="42.1710267" lon="14.62692"><ele>94.0</ele><time>2026-04-16T15:21:15.872Z</time></trkpt><trkpt lat="42.1709333" lon="14.626945"><ele>94.0</ele><time>2026-04-16T15:21:17.872Z</time></trkpt><trkpt lat="42.1708367" lon="14.6269867"><ele>94.0</ele><time>2026-04-16T15:21:19.871Z</time></trkpt><trkpt lat="42.17074" lon="14.6270217"><ele>94.2</ele><time>2026-04-16T15:21:21.872Z</time></trkpt><trkpt lat="42.17065" lon="14.627055"><ele>94.4</ele><time>2026-04-16T15:21:23.872Z</time></trkpt><trkpt lat="42.1705567" lon="14.62706"><ele>94.6</ele><time>2026-04-16T15:21:25.872Z</time></trkpt><trkpt lat="42.170475" lon="14.62702"><ele>94.8</ele><time>2026-04-16T15:21:27.872Z</time></trkpt><trkpt lat="42.170425" lon="14.6269283"><ele>95.0</ele><time>2026-04-16T15:21:29.872Z</time></trkpt><trkpt lat="42.170385" lon="14.6268017"><ele>95.0</ele><time>2026-04-16T15:21:31.872Z</time></trkpt><trkpt lat="42.17036" lon="14.626665"><ele>95.0</ele><time>2026-04-16T15:21:33.872Z</time></trkpt><trkpt lat="42.1703317" lon="14.6265367"><ele>95.0</ele><time>2026-04-16T15:21:35.871Z</time></trkpt><trkpt lat="42.170305" lon="14.62641"><ele>95.0</ele><time>2026-04-16T15:21:37.872Z</time></trkpt><trkpt lat="42.1702767" lon="14.6262867"><ele>95.0</ele><time>2026-04-16T15:21:39.871Z</time></trkpt><trkpt lat="42.170245" lon="14.6261617"><ele>95.4</ele><time>2026-04-16T15:21:41.872Z</time></trkpt><trkpt lat="42.1702167" lon="14.6260383"><ele>95.8</ele><time>2026-04-16T15:21:43.872Z</time></trkpt><trkpt lat="42.1701883" lon="14.625915"><ele>96.19999999999999</ele><time>2026-04-16T15:21:45.872Z</time></trkpt><trkpt lat="42.17016" lon="14.6257933"><ele>96.6</ele><time>2026-04-16T15:21:47.872Z</time></trkpt><trkpt lat="42.1701267" lon="14.62567"><ele>97.0</ele><time>2026-04-16T15:21:49.872Z</time></trkpt><trkpt lat="42.17009" lon="14.62555"><ele>97.0</ele><time>2026-04-16T15:21:51.872Z</time></trkpt><trkpt lat="42.17005" lon="14.6254317"><ele>97.0</ele><time>2026-04-16T15:21:53.871Z</time></trkpt><trkpt lat="42.1699983" lon="14.62532"><ele>97.0</ele><time>2026-04-16T15:21:55.871Z</time></trkpt><trkpt lat="42.169945" lon="14.625205"><ele>97.0</ele><time>2026-04-16T15:21:57.871Z</time></trkpt><trkpt lat="42.16989" lon="14.6251"><ele>97.0</ele><time>2026-04-16T15:21:59.871Z</time></trkpt><trkpt lat="42.1698483" lon="14.6249983"><ele>97.19999999999999</ele><time>2026-04-16T15:22:01.871Z</time></trkpt><trkpt lat="42.1698033" lon="14.624895"><ele>97.4</ele><time>2026-04-16T15:22:03.872Z</time></trkpt><trkpt lat="42.16975" lon="14.6248017"><ele>97.6</ele><time>2026-04-16T15:22:05.871Z</time></trkpt><trkpt lat="42.1697017" lon="14.624695"><ele>97.80000000000001</ele><time>2026-04-16T15:22:07.871Z</time></trkpt><trkpt lat="42.1696533" lon="14.6245833"><ele>98.0</ele><time>2026-04-16T15:22:09.872Z</time></trkpt><trkpt lat="42.169605" lon="14.6244733"><ele>98.4</ele><time>2026-04-16T15:22:11.871Z</time></trkpt><trkpt lat="42.1695617" lon="14.62437"><ele>98.80000000000001</ele><time>2026-04-16T15:22:13.871Z</time></trkpt><trkpt lat="42.1695083" lon="14.6242717"><ele>99.2</ele><time>2026-04-16T15:22:15.872Z</time></trkpt><trkpt lat="42.169445" lon="14.624185"><ele>99.6</ele><time>2026-04-16T15:22:17.872Z</time></trkpt><trkpt lat="42.1693767" lon="14.6240983"><ele>100.0</ele><time>2026-04-16T15:22:19.872Z</time></trkpt><trkpt lat="42.16931" lon="14.624005"><ele>100.0</ele><time>2026-04-16T15:22:21.872Z</time></trkpt><trkpt lat="42.1692467" lon="14.62391"><ele>100.0</ele><time>2026-04-16T15:22:23.871Z</time></trkpt><trkpt lat="42.1691867" lon="14.6238083"><ele>100.0</ele><time>2026-04-16T15:22:25.871Z</time></trkpt><trkpt lat="42.1691283" lon="14.6236917"><ele>100.0</ele><time>2026-04-16T15:22:27.871Z</time></trkpt><trkpt lat="42.1690683" lon="14.623585"><ele>100.0</ele><time>2026-04-16T15:22:29.872Z</time></trkpt><trkpt lat="42.1690083" lon="14.6234817"><ele>100.8</ele><time>2026-04-16T15:22:31.871Z</time></trkpt><trkpt lat="42.1689517" lon="14.623385"><ele>101.6</ele><time>2026-04-16T15:22:33.871Z</time></trkpt><trkpt lat="42.1688967" lon="14.6232683"><ele>102.4</ele><time>2026-04-16T15:22:35.872Z</time></trkpt><trkpt lat="42.1688283" lon="14.6231617"><ele>103.2</ele><time>2026-04-16T15:22:37.872Z</time></trkpt><trkpt lat="42.1687633" lon="14.623065"><ele>104.0</ele><time>2026-04-16T15:22:39.871Z</time></trkpt><trkpt lat="42.1686983" lon="14.6229667"><ele>104.0</ele><time>2026-04-16T15:22:41.872Z</time></trkpt><trkpt lat="42.1686417" lon="14.6228683"><ele>104.0</ele><time>2026-04-16T15:22:43.872Z</time></trkpt><trkpt lat="42.1685833" lon="14.6227733"><ele>104.0</ele><time>2026-04-16T15:22:45.871Z</time></trkpt><trkpt lat="42.16852" lon="14.6226817"><ele>104.0</ele><time>2026-04-16T15:22:47.872Z</time></trkpt><trkpt lat="42.16846" lon="14.62258"><ele>104.0</ele><time>2026-04-16T15:22:49.872Z</time></trkpt><trkpt lat="42.1684133" lon="14.6224667"><ele>104.2</ele><time>2026-04-16T15:22:51.871Z</time></trkpt><trkpt lat="42.16837" lon="14.6223417"><ele>104.4</ele><time>2026-04-16T15:22:53.872Z</time></trkpt><trkpt lat="42.168325" lon="14.62221"><ele>104.6</ele><time>2026-04-16T15:22:55.871Z</time></trkpt><trkpt lat="42.1682817" lon="14.622095"><ele>104.8</ele><time>2026-04-16T15:22:57.871Z</time></trkpt><trkpt lat="42.16824" lon="14.6219583"><ele>105.0</ele><time>2026-04-16T15:22:59.872Z</time></trkpt><trkpt lat="42.168205" lon="14.621815"><ele>105.75</ele><time>2026-04-16T15:23:01.871Z</time></trkpt><trkpt lat="42.1681617" lon="14.6216683"><ele>106.5</ele><time>2026-04-16T15:23:03.872Z</time></trkpt><trkpt lat="42.1681117" lon="14.621515"><ele>107.25</ele><time>2026-04-16T15:23:05.871Z</time></trkpt><trkpt lat="42.1680667" lon="14.621365"><ele>108.0</ele><time>2026-04-16T15:23:07.871Z</time></trkpt><trkpt lat="42.168025" lon="14.6212233"><ele>108.4</ele><time>2026-04-16T15:23:09.871Z</time></trkpt><trkpt lat="42.1679767" lon="14.6210933"><ele>108.80000000000001</ele><time>2026-04-16T15:23:11.871Z</time></trkpt><trkpt lat="42.167925" lon="14.6209733"><ele>109.2</ele><time>2026-04-16T15:23:13.871Z</time></trkpt><trkpt lat="42.1678533" lon="14.6208567"><ele>109.6</ele><time>2026-04-16T15:23:15.872Z</time></trkpt><trkpt lat="42.1677767" lon="14.6207467"><ele>110.0</ele><time>2026-04-16T15:23:17.871Z</time></trkpt><trkpt lat="42.1677017" lon="14.620635"><ele>110.0</ele><time>2026-04-16T15:23:19.871Z</time></trkpt><trkpt lat="42.1676283" lon="14.620535"><ele>110.0</ele><time>2026-04-16T15:23:21.871Z</time></trkpt><trkpt lat="42.1675517" lon="14.620445"><ele>110.0</ele><time>2026-04-16T15:23:23.872Z</time></trkpt><trkpt lat="42.16748" lon="14.6203483"><ele>110.0</ele><time>2026-04-16T15:23:25.871Z</time></trkpt><trkpt lat="42.1674117" lon="14.62024"><ele>110.0</ele><time>2026-04-16T15:23:27.872Z</time></trkpt><trkpt lat="42.1673483" lon="14.62013"><ele>110.6</ele><time>2026-04-16T15:23:29.871Z</time></trkpt><trkpt lat="42.1672883" lon="14.6200133"><ele>111.2</ele><time>2026-04-16T15:23:31.871Z</time></trkpt><trkpt lat="42.1672183" lon="14.6199"><ele>111.80000000000001</ele><time>2026-04-16T15:23:33.871Z</time></trkpt><trkpt lat="42.16715" lon="14.61979"><ele>112.4</ele><time>2026-04-16T15:23:35.871Z</time></trkpt><trkpt lat="42.1670733" lon="14.6196767"><ele>113.0</ele><time>2026-04-16T15:23:37.872Z</time></trkpt><trkpt lat="42.1669983" lon="14.6195667"><ele>113.2</ele><time>2026-04-16T15:23:39.872Z</time></trkpt><trkpt lat="42.1669367" lon="14.61946"><ele>113.4</ele><time>2026-04-16T15:23:41.871Z</time></trkpt><trkpt lat="42.16687" lon="14.6193583"><ele>113.60000000000001</ele><time>2026-04-16T15:23:43.871Z</time></trkpt><trkpt lat="42.1668" lon="14.6192483"><ele>113.80000000000001</ele><time>2026-04-16T15:23:45.871Z</time></trkpt><trkpt lat="42.1667317" lon="14.6191417"><ele>114.0</ele><time>2026-04-16T15:23:47.871Z</time></trkpt><trkpt lat="42.16665" lon="14.6190433"><ele>114.0</ele><time>2026-04-16T15:23:49.872Z</time></trkpt><trkpt lat="42.166575" lon="14.61894"><ele>114.0</ele><time>2026-04-16T15:23:51.871Z</time></trkpt><trkpt lat="42.1665033" lon="14.6188433"><ele>114.0</ele><time>2026-04-16T15:23:53.872Z</time></trkpt><trkpt lat="42.16643" lon="14.6187417"><ele>114.0</ele><time>2026-04-16T15:23:55.872Z</time></trkpt><trkpt lat="42.1663583" lon="14.61864"><ele>114.0</ele><time>2026-04-16T15:23:57.872Z</time></trkpt><trkpt lat="42.1662867" lon="14.61854"><ele>114.4</ele><time>2026-04-16T15:23:59.871Z</time></trkpt><trkpt lat="42.16621" lon="14.61844"><ele>114.80000000000001</ele><time>2026-04-16T15:24:01.872Z</time></trkpt><trkpt lat="42.1661267" lon="14.6183367"><ele>115.19999999999999</ele><time>2026-04-16T15:24:03.872Z</time></trkpt><trkpt lat="42.1660467" lon="14.6182367"><ele>115.6</ele><time>2026-04-16T15:24:05.871Z</time></trkpt><trkpt lat="42.165965" lon="14.618135"><ele>116.0</ele><time>2026-04-16T15:24:07.871Z</time></trkpt><trkpt lat="42.1658883" lon="14.618035"><ele>116.0</ele><time>2026-04-16T15:24:09.872Z</time></trkpt><trkpt lat="42.16581" lon="14.6179333"><ele>116.0</ele><time>2026-04-16T15:24:11.871Z</time></trkpt><trkpt lat="42.1657283" lon="14.6178333"><ele>116.0</ele><time>2026-04-16T15:24:13.871Z</time></trkpt><trkpt lat="42.1656483" lon="14.617745"><ele>116.0</ele><time>2026-04-16T15:24:15.871Z</time></trkpt><trkpt lat="42.1655617" lon="14.6176633"><ele>116.0</ele><time>2026-04-16T15:24:17.872Z</time></trkpt><trkpt lat="42.165485" lon="14.6176033"><ele>116.6</ele><time>2026-04-16T15:24:19.872Z</time></trkpt><trkpt lat="42.1654" lon="14.617545"><ele>117.19999999999999</ele><time>2026-04-16T15:24:21.872Z</time></trkpt><trkpt lat="42.1653017" lon="14.6175017"><ele>117.80000000000001</ele><time>2026-04-16T15:24:23.872Z</time></trkpt><trkpt lat="42.1651967" lon="14.617465"><ele>118.4</ele><time>2026-04-16T15:24:25.871Z</time></trkpt><trkpt lat="42.1650883" lon="14.617435"><ele>119.0</ele><time>2026-04-16T15:24:27.872Z</time></trkpt><trkpt lat="42.16497" lon="14.6173933"><ele>119.5</ele><time>2026-04-16T15:24:29.872Z</time></trkpt><trkpt lat="42.1648567" lon="14.61735"><ele>120.0</ele><time>2026-04-16T15:24:31.871Z</time></trkpt><trkpt lat="42.164745" lon="14.617315"><ele>120.5</ele><time>2026-04-16T15:24:33.872Z</time></trkpt><trkpt lat="42.1646317" lon="14.6172733"><ele>121.0</ele><time>2026-04-16T15:24:35.871Z</time></trkpt><trkpt lat="42.1645283" lon="14.6172183"><ele>121.0</ele><time>2026-04-16T15:24:37.872Z</time></trkpt><trkpt lat="42.1644333" lon="14.617145"><ele>121.0</ele><time>2026-04-16T15:24:39.871Z</time></trkpt><trkpt lat="42.1643383" lon="14.6170767"><ele>121.0</ele><time>2026-04-16T15:24:41.872Z</time></trkpt><trkpt lat="42.1642483" lon="14.617"><ele>121.0</ele><time>2026-04-16T15:24:43.872Z</time></trkpt><trkpt lat="42.1641533" lon="14.6169383"><ele>121.0</ele><time>2026-04-16T15:24:45.872Z</time></trkpt><trkpt lat="42.164055" lon="14.6168733"><ele>121.0</ele><time>2026-04-16T15:24:47.872Z</time></trkpt><trkpt lat="42.1639517" lon="14.616795"><ele>121.0</ele><time>2026-04-16T15:24:49.872Z</time></trkpt><trkpt lat="42.16385" lon="14.6167183"><ele>121.0</ele><time>2026-04-16T15:24:51.871Z</time></trkpt><trkpt lat="42.1637483" lon="14.616645"><ele>121.0</ele><time>2026-04-16T15:24:53.871Z</time></trkpt><trkpt lat="42.1636483" lon="14.6165733"><ele>121.0</ele><time>2026-04-16T15:24:55.872Z</time></trkpt><trkpt lat="42.1635483" lon="14.6165"><ele>121.0</ele><time>2026-04-16T15:24:57.871Z</time></trkpt><trkpt lat="42.163455" lon="14.61643"><ele>121.0</ele><time>2026-04-16T15:24:59.871Z</time></trkpt><trkpt lat="42.1633533" lon="14.6163617"><ele>121.0</ele><time>2026-04-16T15:25:01.872Z</time></trkpt><trkpt lat="42.1632583" lon="14.6163"><ele>121.0</ele><time>2026-04-16T15:25:03.871Z</time></trkpt><trkpt lat="42.163165" lon="14.616225"><ele>121.6</ele><time>2026-04-16T15:25:05.871Z</time></trkpt><trkpt lat="42.1630733" lon="14.6161467"><ele>122.19999999999999</ele><time>2026-04-16T15:25:07.872Z</time></trkpt><trkpt lat="42.1629783" lon="14.61607"><ele>122.80000000000001</ele><time>2026-04-16T15:25:09.872Z</time></trkpt><trkpt lat="42.1629183" lon="14.61603"><ele>123.4</ele><time>2026-04-16T15:25:10.872Z</time></trkpt><trkpt lat="42.1628117" lon="14.6159533"><ele>124.0</ele><time>2026-04-16T15:25:12.872Z</time></trkpt><trkpt lat="42.1627067" lon="14.615885"><ele>124.0</ele><time>2026-04-16T15:25:14.872Z</time></trkpt><trkpt lat="42.1626067" lon="14.6158183"><ele>124.0</ele><time>2026-04-16T15:25:16.872Z</time></trkpt><trkpt lat="42.162495" lon="14.6157783"><ele>124.0</ele><time>2026-04-16T15:25:18.872Z</time></trkpt><trkpt lat="42.1623833" lon="14.61575"><ele>124.0</ele><time>2026-04-16T15:25:20.872Z</time></trkpt><trkpt lat="42.16227" lon="14.6157183"><ele>124.0</ele><time>2026-04-16T15:25:22.872Z</time></trkpt><trkpt lat="42.1621617" lon="14.6156983"><ele>124.0</ele><time>2026-04-16T15:25:24.871Z</time></trkpt><trkpt lat="42.1620483" lon="14.615675"><ele>124.0</ele><time>2026-04-16T15:25:26.872Z</time></trkpt><trkpt lat="42.161945" lon="14.615655"><ele>124.0</ele><time>2026-04-16T15:25:28.871Z</time></trkpt><trkpt lat="42.1618817" lon="14.6156483"><ele>124.0</ele><time>2026-04-16T15:25:29.871Z</time></trkpt><trkpt lat="42.1617883" lon="14.6155983"><ele>124.0</ele><time>2026-04-16T15:25:31.872Z</time></trkpt><trkpt lat="42.16169" lon="14.6155333"><ele>124.0</ele><time>2026-04-16T15:25:33.871Z</time></trkpt><trkpt lat="42.1615867" lon="14.615455"><ele>124.0</ele><time>2026-04-16T15:25:35.872Z</time></trkpt><trkpt lat="42.1614883" lon="14.6153883"><ele>124.0</ele><time>2026-04-16T15:25:37.871Z</time></trkpt><trkpt lat="42.1613983" lon="14.6153267"><ele>124.0</ele><time>2026-04-16T15:25:39.872Z</time></trkpt><trkpt lat="42.1613233" lon="14.6152683"><ele>124.50000000000001</ele><time>2026-04-16T15:25:41.872Z</time></trkpt><trkpt lat="42.1612617" lon="14.61519"><ele>125.0</ele><time>2026-04-16T15:25:43.872Z</time></trkpt><trkpt lat="42.16119" lon="14.6151283"><ele>125.5</ele><time>2026-04-16T15:25:46.872Z</time></trkpt><trkpt lat="42.16112" lon="14.6151083"><ele>126.0</ele><time>2026-04-16T15:25:49.872Z</time></trkpt><trkpt lat="42.1610417" lon="14.6150817"><ele>126.50000000000001</ele><time>2026-04-16T15:25:51.872Z</time></trkpt><trkpt lat="42.1609633" lon="14.615075"><ele>127.0</ele><time>2026-04-16T15:25:53.871Z</time></trkpt><trkpt lat="42.1608683" lon="14.6150867"><ele>127.0</ele><time>2026-04-16T15:25:55.872Z</time></trkpt><trkpt lat="42.1607817" lon="14.6151"><ele>126.99999999999999</ele><time>2026-04-16T15:25:57.872Z</time></trkpt><trkpt lat="42.16068" lon="14.6151167"><ele>126.99999999999999</ele><time>2026-04-16T15:25:59.871Z</time></trkpt><trkpt lat="42.1605717" lon="14.6151317"><ele>127.0</ele><time>2026-04-16T15:26:01.872Z</time></trkpt><trkpt lat="42.160455" lon="14.6151517"><ele>127.0</ele><time>2026-04-16T15:26:03.872Z</time></trkpt><trkpt lat="42.16034" lon="14.6151667"><ele>127.75</ele><time>2026-04-16T15:26:05.871Z</time></trkpt><trkpt lat="42.1602333" lon="14.6151867"><ele>128.5</ele><time>2026-04-16T15:26:07.871Z</time></trkpt><trkpt lat="42.16012" lon="14.6152117"><ele>129.25</ele><time>2026-04-16T15:26:09.872Z</time></trkpt><trkpt lat="42.160005" lon="14.6152067"><ele>130.0</ele><time>2026-04-16T15:26:11.872Z</time></trkpt><trkpt lat="42.159885" lon="14.6152217"><ele>129.75</ele><time>2026-04-16T15:26:13.872Z</time></trkpt><trkpt lat="42.15977" lon="14.615235"><ele>129.5</ele><time>2026-04-16T15:26:15.872Z</time></trkpt><trkpt lat="42.1596583" lon="14.6152533"><ele>129.25</ele><time>2026-04-16T15:26:17.871Z</time></trkpt><trkpt lat="42.1595417" lon="14.6152683"><ele>129.0</ele><time>2026-04-16T15:26:19.872Z</time></trkpt><trkpt lat="42.1594283" lon="14.6152783"><ele>129.0</ele><time>2026-04-16T15:26:21.872Z</time></trkpt><trkpt lat="42.1593083" lon="14.615295"><ele>129.0</ele><time>2026-04-16T15:26:23.871Z</time></trkpt><trkpt lat="42.1592417" lon="14.6153033"><ele>129.0</ele><time>2026-04-16T15:26:24.872Z</time></trkpt><trkpt lat="42.1591783" lon="14.6153133"><ele>129.0</ele><time>2026-04-16T15:26:25.871Z</time></trkpt><trkpt lat="42.1590567" lon="14.6153317"><ele>129.0</ele><time>2026-04-16T15:26:27.871Z</time></trkpt><trkpt lat="42.158945" lon="14.6153483"><ele>129.6</ele><time>2026-04-16T15:26:29.872Z</time></trkpt><trkpt lat="42.1588383" lon="14.6153617"><ele>130.2</ele><time>2026-04-16T15:26:31.872Z</time></trkpt><trkpt lat="42.1587317" lon="14.6153567"><ele>130.79999999999998</ele><time>2026-04-16T15:26:33.872Z</time></trkpt><trkpt lat="42.158625" lon="14.6153433"><ele>131.4</ele><time>2026-04-16T15:26:35.871Z</time></trkpt><trkpt lat="42.1585233" lon="14.6153167"><ele>132.0</ele><time>2026-04-16T15:26:37.871Z</time></trkpt><trkpt lat="42.1584233" lon="14.6152717"><ele>132.0</ele><time>2026-04-16T15:26:39.872Z</time></trkpt><trkpt lat="42.158315" lon="14.6152017"><ele>132.0</ele><time>2026-04-16T15:26:41.871Z</time></trkpt><trkpt lat="42.15824" lon="14.615085"><ele>132.0</ele><time>2026-04-16T15:26:43.871Z</time></trkpt><trkpt lat="42.158165" lon="14.6149767"><ele>132.0</ele><time>2026-04-16T15:26:45.872Z</time></trkpt><trkpt lat="42.158075" lon="14.6149167"><ele>132.0</ele><time>2026-04-16T15:26:47.872Z</time></trkpt><trkpt lat="42.157975" lon="14.61487"><ele>132.5</ele><time>2026-04-16T15:26:49.872Z</time></trkpt><trkpt lat="42.1578883" lon="14.61478"><ele>133.0</ele><time>2026-04-16T15:26:51.872Z</time></trkpt><trkpt lat="42.15782" lon="14.61466"><ele>133.5</ele><time>2026-04-16T15:26:53.871Z</time></trkpt><trkpt lat="42.15775" lon="14.61453"><ele>134.0</ele><time>2026-04-16T15:26:55.872Z</time></trkpt><trkpt lat="42.157675" lon="14.6144"><ele>134.0</ele><time>2026-04-16T15:26:57.871Z</time></trkpt><trkpt lat="42.1576083" lon="14.614275"><ele>134.0</ele><time>2026-04-16T15:26:59.872Z</time></trkpt><trkpt lat="42.1575483" lon="14.6141433"><ele>134.0</ele><time>2026-04-16T15:27:01.871Z</time></trkpt><trkpt lat="42.1574883" lon="14.61401"><ele>134.0</ele><time>2026-04-16T15:27:03.871Z</time></trkpt><trkpt lat="42.1574283" lon="14.61388"><ele>134.0</ele><time>2026-04-16T15:27:05.872Z</time></trkpt><trkpt lat="42.157365" lon="14.6137517"><ele>134.0</ele><time>2026-04-16T15:27:07.871Z</time></trkpt><trkpt lat="42.1573" lon="14.6136183"><ele>134.0</ele><time>2026-04-16T15:27:09.871Z</time></trkpt><trkpt lat="42.157235" lon="14.61349"><ele>134.0</ele><time>2026-04-16T15:27:11.872Z</time></trkpt><trkpt lat="42.157175" lon="14.61335"><ele>134.0</ele><time>2026-04-16T15:27:13.871Z</time></trkpt><trkpt lat="42.1571133" lon="14.613225"><ele>134.0</ele><time>2026-04-16T15:27:15.871Z</time></trkpt><trkpt lat="42.1570467" lon="14.6130833"><ele>134.0</ele><time>2026-04-16T15:27:17.872Z</time></trkpt><trkpt lat="42.15699" lon="14.6129483"><ele>134.0</ele><time>2026-04-16T15:27:19.871Z</time></trkpt><trkpt lat="42.156945" lon="14.6128167"><ele>134.75</ele><time>2026-04-16T15:27:21.871Z</time></trkpt><trkpt lat="42.1569067" lon="14.6126717"><ele>135.5</ele><time>2026-04-16T15:27:23.871Z</time></trkpt><trkpt lat="42.15687" lon="14.6125233"><ele>136.25</ele><time>2026-04-16T15:27:25.872Z</time></trkpt><trkpt lat="42.1568367" lon="14.612375"><ele>137.0</ele><time>2026-04-16T15:27:27.871Z</time></trkpt><trkpt lat="42.1567983" lon="14.6122217"><ele>137.0</ele><time>2026-04-16T15:27:29.872Z</time></trkpt><trkpt lat="42.1567733" lon="14.61207"><ele>137.0</ele><time>2026-04-16T15:27:31.872Z</time></trkpt><trkpt lat="42.1567433" lon="14.6119083"><ele>137.0</ele><time>2026-04-16T15:27:33.872Z</time></trkpt><trkpt lat="42.15671" lon="14.6117567"><ele>137.0</ele><time>2026-04-16T15:27:35.871Z</time></trkpt><trkpt lat="42.1566767" lon="14.6116017"><ele>136.5</ele><time>2026-04-16T15:27:37.872Z</time></trkpt><trkpt lat="42.1566417" lon="14.6114517"><ele>136.0</ele><time>2026-04-16T15:27:39.871Z</time></trkpt><trkpt lat="42.1566067" lon="14.6113067"><ele>135.5</ele><time>2026-04-16T15:27:41.872Z</time></trkpt><trkpt lat="42.156575" lon="14.6111567"><ele>135.0</ele><time>2026-04-16T15:27:43.872Z</time></trkpt><trkpt lat="42.1565383" lon="14.611005"><ele>134.75</ele><time>2026-04-16T15:27:45.872Z</time></trkpt><trkpt lat="42.1565033" lon="14.6108567"><ele>134.5</ele><time>2026-04-16T15:27:47.871Z</time></trkpt><trkpt lat="42.1564683" lon="14.6107067"><ele>134.25</ele><time>2026-04-16T15:27:49.872Z</time></trkpt><trkpt lat="42.1564367" lon="14.6105567"><ele>134.0</ele><time>2026-04-16T15:27:51.871Z</time></trkpt><trkpt lat="42.1564017" lon="14.6104083"><ele>134.2</ele><time>2026-04-16T15:27:53.871Z</time></trkpt><trkpt lat="42.156385" lon="14.6103233"><ele>134.4</ele><time>2026-04-16T15:27:54.872Z</time></trkpt><trkpt lat="42.1563533" lon="14.6101733"><ele>134.6</ele><time>2026-04-16T15:27:56.871Z</time></trkpt><trkpt lat="42.1563183" lon="14.61003"><ele>134.8</ele><time>2026-04-16T15:27:58.872Z</time></trkpt><trkpt lat="42.156285" lon="14.6098883"><ele>135.0</ele><time>2026-04-16T15:28:00.871Z</time></trkpt><trkpt lat="42.1562567" lon="14.6097483"><ele>135.0</ele><time>2026-04-16T15:28:02.872Z</time></trkpt><trkpt lat="42.1562267" lon="14.6096067"><ele>135.0</ele><time>2026-04-16T15:28:04.871Z</time></trkpt><trkpt lat="42.1561983" lon="14.609465"><ele>135.0</ele><time>2026-04-16T15:28:06.872Z</time></trkpt><trkpt lat="42.1561617" lon="14.6093267"><ele>135.0</ele><time>2026-04-16T15:28:08.872Z</time></trkpt><trkpt lat="42.156125" lon="14.6091917"><ele>135.0</ele><time>2026-04-16T15:28:10.872Z</time></trkpt><trkpt lat="42.1560867" lon="14.60906"><ele>135.4</ele><time>2026-04-16T15:28:12.872Z</time></trkpt><trkpt lat="42.1560683" lon="14.6089783"><ele>135.8</ele><time>2026-04-16T15:28:13.872Z</time></trkpt><trkpt lat="42.15604" lon="14.6088233"><ele>136.2</ele><time>2026-04-16T15:28:15.872Z</time></trkpt><trkpt lat="42.1560117" lon="14.608675"><ele>136.6</ele><time>2026-04-16T15:28:17.872Z</time></trkpt><trkpt lat="42.1559817" lon="14.6085167"><ele>137.0</ele><time>2026-04-16T15:28:19.872Z</time></trkpt><trkpt lat="42.1559483" lon="14.6083667"><ele>137.0</ele><time>2026-04-16T15:28:21.872Z</time></trkpt><trkpt lat="42.1559133" lon="14.608215"><ele>137.0</ele><time>2026-04-16T15:28:23.871Z</time></trkpt><trkpt lat="42.1558767" lon="14.60807"><ele>137.0</ele><time>2026-04-16T15:28:25.872Z</time></trkpt><trkpt lat="42.1558483" lon="14.6079167"><ele>137.0</ele><time>2026-04-16T15:28:27.872Z</time></trkpt><trkpt lat="42.1558133" lon="14.6077733"><ele>136.79999999999998</ele><time>2026-04-16T15:28:29.872Z</time></trkpt><trkpt lat="42.1557867" lon="14.6076233"><ele>136.6</ele><time>2026-04-16T15:28:31.871Z</time></trkpt><trkpt lat="42.1557633" lon="14.6074733"><ele>136.39999999999998</ele><time>2026-04-16T15:28:33.871Z</time></trkpt><trkpt lat="42.15573" lon="14.6073217"><ele>136.2</ele><time>2026-04-16T15:28:35.872Z</time></trkpt><trkpt lat="42.155715" lon="14.6072367"><ele>136.0</ele><time>2026-04-16T15:28:36.871Z</time></trkpt><trkpt lat="42.1556783" lon="14.6070883"><ele>136.75</ele><time>2026-04-16T15:28:38.872Z</time></trkpt><trkpt lat="42.1556417" lon="14.6069417"><ele>137.5</ele><time>2026-04-16T15:28:40.872Z</time></trkpt><trkpt lat="42.1556033" lon="14.6067933"><ele>138.25</ele><time>2026-04-16T15:28:42.871Z</time></trkpt><trkpt lat="42.1555683" lon="14.60665"><ele>139.0</ele><time>2026-04-16T15:28:44.871Z</time></trkpt><trkpt lat="42.1555383" lon="14.6065067"><ele>139.0</ele><time>2026-04-16T15:28:46.871Z</time></trkpt><trkpt lat="42.1555067" lon="14.6063617"><ele>139.0</ele><time>2026-04-16T15:28:48.871Z</time></trkpt><trkpt lat="42.155475" lon="14.6062167"><ele>139.0</ele><time>2026-04-16T15:28:50.872Z</time></trkpt><trkpt lat="42.1554367" lon="14.6060867"><ele>139.0</ele><time>2026-04-16T15:28:52.871Z</time></trkpt><trkpt lat="42.1554083" lon="14.6059467"><ele>139.0</ele><time>2026-04-16T15:28:54.871Z</time></trkpt><trkpt lat="42.1553783" lon="14.605805"><ele>139.2</ele><time>2026-04-16T15:28:56.872Z</time></trkpt><trkpt lat="42.1553483" lon="14.6056517"><ele>139.4</ele><time>2026-04-16T15:28:58.872Z</time></trkpt><trkpt lat="42.1553167" lon="14.60551"><ele>139.6</ele><time>2026-04-16T15:29:00.871Z</time></trkpt><trkpt lat="42.1552883" lon="14.605375"><ele>139.8</ele><time>2026-04-16T15:29:02.871Z</time></trkpt><trkpt lat="42.15525" lon="14.60523"><ele>140.0</ele><time>2026-04-16T15:29:04.872Z</time></trkpt><trkpt lat="42.155225" lon="14.605085"><ele>140.25</ele><time>2026-04-16T15:29:06.871Z</time></trkpt><trkpt lat="42.1551967" lon="14.6049333"><ele>140.5</ele><time>2026-04-16T15:29:08.872Z</time></trkpt><trkpt lat="42.1551633" lon="14.6047817"><ele>140.75</ele><time>2026-04-16T15:29:10.872Z</time></trkpt><trkpt lat="42.155135" lon="14.604635"><ele>141.0</ele><time>2026-04-16T15:29:12.872Z</time></trkpt><trkpt lat="42.155095" lon="14.6044833"><ele>141.25</ele><time>2026-04-16T15:29:14.872Z</time></trkpt><trkpt lat="42.1550567" lon="14.6043317"><ele>141.5</ele><time>2026-04-16T15:29:16.872Z</time></trkpt><trkpt lat="42.1550267" lon="14.6041883"><ele>141.75</ele><time>2026-04-16T15:29:18.871Z</time></trkpt><trkpt lat="42.1549867" lon="14.60404"><ele>142.0</ele><time>2026-04-16T15:29:20.871Z</time></trkpt><trkpt lat="42.1549567" lon="14.603905"><ele>142.0</ele><time>2026-04-16T15:29:22.872Z</time></trkpt><trkpt lat="42.1549283" lon="14.60375"><ele>142.0</ele><time>2026-04-16T15:29:24.871Z</time></trkpt><trkpt lat="42.15489" lon="14.60362"><ele>142.0</ele><time>2026-04-16T15:29:26.871Z</time></trkpt><trkpt lat="42.1548617" lon="14.6034733"><ele>142.0</ele><time>2026-04-16T15:29:28.872Z</time></trkpt><trkpt lat="42.154825" lon="14.603335"><ele>142.0</ele><time>2026-04-16T15:29:30.872Z</time></trkpt><trkpt lat="42.1547917" lon="14.603185"><ele>142.79999999999998</ele><time>2026-04-16T15:29:32.872Z</time></trkpt><trkpt lat="42.1547633" lon="14.6030417"><ele>143.6</ele><time>2026-04-16T15:29:34.872Z</time></trkpt><trkpt lat="42.154735" lon="14.6028967"><ele>144.39999999999998</ele><time>2026-04-16T15:29:36.872Z</time></trkpt><trkpt lat="42.1547017" lon="14.6027483"><ele>145.2</ele><time>2026-04-16T15:29:38.872Z</time></trkpt><trkpt lat="42.15467" lon="14.6026133"><ele>146.0</ele><time>2026-04-16T15:29:40.872Z</time></trkpt><trkpt lat="42.1546383" lon="14.60248"><ele>146.0</ele><time>2026-04-16T15:29:42.872Z</time></trkpt><trkpt lat="42.15461" lon="14.6023367"><ele>146.0</ele><time>2026-04-16T15:29:44.872Z</time></trkpt><trkpt lat="42.1545767" lon="14.6021917"><ele>146.0</ele><time>2026-04-16T15:29:46.872Z</time></trkpt><trkpt lat="42.1545467" lon="14.6020433"><ele>146.0</ele><time>2026-04-16T15:29:48.871Z</time></trkpt><trkpt lat="42.1545167" lon="14.60189"><ele>146.25</ele><time>2026-04-16T15:29:50.871Z</time></trkpt><trkpt lat="42.1544833" lon="14.60174"><ele>146.5</ele><time>2026-04-16T15:29:52.872Z</time></trkpt><trkpt lat="42.1544517" lon="14.601595"><ele>146.75</ele><time>2026-04-16T15:29:54.871Z</time></trkpt><trkpt lat="42.15441" lon="14.6014467"><ele>147.0</ele><time>2026-04-16T15:29:56.871Z</time></trkpt><trkpt lat="42.1543667" lon="14.6013017"><ele>147.25</ele><time>2026-04-16T15:29:58.872Z</time></trkpt><trkpt lat="42.1543283" lon="14.6011533"><ele>147.5</ele><time>2026-04-16T15:30:00.871Z</time></trkpt><trkpt lat="42.1542967" lon="14.601"><ele>147.75</ele><time>2026-04-16T15:30:02.872Z</time></trkpt><trkpt lat="42.1542633" lon="14.6008583"><ele>148.0</ele><time>2026-04-16T15:30:04.871Z</time></trkpt><trkpt lat="42.1542317" lon="14.600715"><ele>148.0</ele><time>2026-04-16T15:30:06.872Z</time></trkpt><trkpt lat="42.1541933" lon="14.600575"><ele>148.0</ele><time>2026-04-16T15:30:08.872Z</time></trkpt><trkpt lat="42.15415" lon="14.6004483"><ele>148.0</ele><time>2026-04-16T15:30:10.872Z</time></trkpt><trkpt lat="42.15411" lon="14.6003267"><ele>148.0</ele><time>2026-04-16T15:30:12.872Z</time></trkpt><trkpt lat="42.1540617" lon="14.60025"><ele>148.0</ele><time>2026-04-16T15:30:14.871Z</time></trkpt><trkpt lat="42.1540117" lon="14.6001983"><ele>148.33333333333334</ele><time>2026-04-16T15:30:16.871Z</time></trkpt><trkpt lat="42.15396" lon="14.6001317"><ele>148.66666666666669</ele><time>2026-04-16T15:31:41.871Z</time></trkpt><trkpt lat="42.1538922" lon="14.6000995"><ele>149.0</ele><time>2026-04-16T15:56:28.874Z</time></trkpt><trkpt lat="42.1539545" lon="14.6001299"><ele>149.33333333333334</ele><time>2026-04-16T15:56:49.873Z</time></trkpt><trkpt lat="42.1538797" lon="14.6001636"><ele>149.66666666666666</ele><time>2026-04-16T15:58:50.874Z</time></trkpt><trkpt lat="42.1539588" lon="14.6000937"><ele>150.0</ele><time>2026-04-16T15:59:59.873Z</time></trkpt><trkpt lat="42.1540068" lon="14.6001865"><ele>150.0</ele><time>2026-04-16T16:05:19.873Z</time></trkpt><trkpt lat="42.1538894" lon="14.6001919"><ele>150.0</ele><time>2026-04-16T16:05:56.873Z</time></trkpt><trkpt lat="42.1539198" lon="14.6001034"><ele>150.0</ele><time>2026-04-16T16:08:05.873Z</time></trkpt><trkpt lat="42.1539324" lon="14.6001964"><ele>150.0</ele><time>2026-04-16T16:10:09.872Z</time></trkpt><trkpt lat="42.1538679" lon="14.6002084"><ele>150.0</ele><time>2026-04-16T16:10:39.873Z</time></trkpt><trkpt lat="42.1539384" lon="14.6001026"><ele>150.0</ele><time>2026-04-16T16:12:05.872Z</time></trkpt><trkpt lat="42.1539354" lon="14.5999935"><ele>150.0</ele><time>2026-04-16T16:23:02.873Z</time></trkpt><trkpt lat="42.1539541" lon="14.5999069"><ele>150.0</ele><time>2026-04-16T16:23:04.872Z</time></trkpt><trkpt lat="42.153959" lon="14.5997998"><ele>150.0</ele><time>2026-04-16T16:23:07.872Z</time></trkpt><trkpt lat="42.153955" lon="14.5997017"><ele>150.0</ele><time>2026-04-16T16:23:11.873Z</time></trkpt><trkpt lat="42.1539617" lon="14.5996017"><ele>150.0</ele><time>2026-04-16T16:23:14.872Z</time></trkpt><trkpt lat="42.153965" lon="14.599485"><ele>150.0</ele><time>2026-04-16T16:23:16.873Z</time></trkpt><trkpt lat="42.1539483" lon="14.59934"><ele>150.4</ele><time>2026-04-16T16:23:18.873Z</time></trkpt><trkpt lat="42.15392" lon="14.5991967"><ele>150.8</ele><time>2026-04-16T16:23:20.873Z</time></trkpt><trkpt lat="42.1538917" lon="14.5990583"><ele>151.2</ele><time>2026-04-16T16:23:22.873Z</time></trkpt><trkpt lat="42.1538617" lon="14.598915"><ele>151.6</ele><time>2026-04-16T16:23:24.872Z</time></trkpt><trkpt lat="42.15383" lon="14.5987717"><ele>152.0</ele><time>2026-04-16T16:23:26.872Z</time></trkpt><trkpt lat="42.1537917" lon="14.5986217"><ele>152.5</ele><time>2026-04-16T16:23:28.873Z</time></trkpt><trkpt lat="42.153755" lon="14.5984717"><ele>153.0</ele><time>2026-04-16T16:23:30.872Z</time></trkpt><trkpt lat="42.1537217" lon="14.5983267"><ele>153.5</ele><time>2026-04-16T16:23:32.873Z</time></trkpt><trkpt lat="42.15369" lon="14.5981783"><ele>154.0</ele><time>2026-04-16T16:23:34.873Z</time></trkpt><trkpt lat="42.1536567" lon="14.5980283"><ele>154.0</ele><time>2026-04-16T16:23:36.872Z</time></trkpt><trkpt lat="42.1536433" lon="14.597945"><ele>154.0</ele><time>2026-04-16T16:23:37.873Z</time></trkpt><trkpt lat="42.15361" lon="14.5977933"><ele>154.0</ele><time>2026-04-16T16:23:39.873Z</time></trkpt><trkpt lat="42.153575" lon="14.5976467"><ele>154.0</ele><time>2026-04-16T16:23:41.872Z</time></trkpt><trkpt lat="42.1535417" lon="14.5975"><ele>154.0</ele><time>2026-04-16T16:23:43.873Z</time></trkpt><trkpt lat="42.1535133" lon="14.59735"><ele>154.0</ele><time>2026-04-16T16:23:45.872Z</time></trkpt><trkpt lat="42.153485" lon="14.597205"><ele>154.0</ele><time>2026-04-16T16:23:47.872Z</time></trkpt><trkpt lat="42.153455" lon="14.5970583"><ele>154.0</ele><time>2026-04-16T16:23:49.872Z</time></trkpt><trkpt lat="42.1534183" lon="14.5969167"><ele>154.0</ele><time>2026-04-16T16:23:51.873Z</time></trkpt><trkpt lat="42.1533867" lon="14.5967567"><ele>154.0</ele><time>2026-04-16T16:23:53.872Z</time></trkpt><trkpt lat="42.15336" lon="14.5966083"><ele>154.0</ele><time>2026-04-16T16:23:55.872Z</time></trkpt><trkpt lat="42.15333" lon="14.5964533"><ele>154.0</ele><time>2026-04-16T16:23:57.873Z</time></trkpt><trkpt lat="42.1533033" lon="14.5963667"><ele>154.0</ele><time>2026-04-16T16:23:58.873Z</time></trkpt><trkpt lat="42.1532767" lon="14.5962883"><ele>154.0</ele><time>2026-04-16T16:23:59.873Z</time></trkpt><trkpt lat="42.1532383" lon="14.5961267"><ele>154.2</ele><time>2026-04-16T16:24:01.873Z</time></trkpt><trkpt lat="42.1532233" lon="14.59604"><ele>154.4</ele><time>2026-04-16T16:24:02.873Z</time></trkpt><trkpt lat="42.1531867" lon="14.595885"><ele>154.6</ele><time>2026-04-16T16:24:04.873Z</time></trkpt><trkpt lat="42.1531583" lon="14.5957367"><ele>154.8</ele><time>2026-04-16T16:24:06.872Z</time></trkpt><trkpt lat="42.1531317" lon="14.5955867"><ele>155.0</ele><time>2026-04-16T16:24:08.873Z</time></trkpt><trkpt lat="42.1531" lon="14.5954417"><ele>155.4</ele><time>2026-04-16T16:24:10.873Z</time></trkpt><trkpt lat="42.15306" lon="14.5953"><ele>155.8</ele><time>2026-04-16T16:24:12.872Z</time></trkpt><trkpt lat="42.153035" lon="14.5951533"><ele>156.2</ele><time>2026-04-16T16:24:14.873Z</time></trkpt><trkpt lat="42.153005" lon="14.59501"><ele>156.6</ele><time>2026-04-16T16:24:16.872Z</time></trkpt><trkpt lat="42.152975" lon="14.5948633"><ele>157.0</ele><time>2026-04-16T16:24:18.873Z</time></trkpt><trkpt lat="42.15294" lon="14.59472"><ele>157.0</ele><time>2026-04-16T16:24:20.873Z</time></trkpt><trkpt lat="42.1529017" lon="14.59458"><ele>157.0</ele><time>2026-04-16T16:24:22.873Z</time></trkpt><trkpt lat="42.1528767" lon="14.594435"><ele>157.0</ele><time>2026-04-16T16:24:24.873Z</time></trkpt><trkpt lat="42.1528533" lon="14.5942933"><ele>157.0</ele><time>2026-04-16T16:24:26.873Z</time></trkpt><trkpt lat="42.1528233" lon="14.5941533"><ele>157.0</ele><time>2026-04-16T16:24:28.873Z</time></trkpt><trkpt lat="42.1527867" lon="14.5940067"><ele>157.2</ele><time>2026-04-16T16:24:30.872Z</time></trkpt><trkpt lat="42.1527517" lon="14.5938633"><ele>157.39999999999998</ele><time>2026-04-16T16:24:32.872Z</time></trkpt><trkpt lat="42.1527217" lon="14.5937217"><ele>157.60000000000002</ele><time>2026-04-16T16:24:34.873Z</time></trkpt><trkpt lat="42.15269" lon="14.5935883"><ele>157.8</ele><time>2026-04-16T16:24:36.873Z</time></trkpt><trkpt lat="42.1526667" lon="14.59344"><ele>158.0</ele><time>2026-04-16T16:24:38.872Z</time></trkpt><trkpt lat="42.1526417" lon="14.593295"><ele>159.0</ele><time>2026-04-16T16:24:40.872Z</time></trkpt><trkpt lat="42.1525983" lon="14.5931433"><ele>160.0</ele><time>2026-04-16T16:24:42.872Z</time></trkpt><trkpt lat="42.1525633" lon="14.593005"><ele>161.0</ele><time>2026-04-16T16:24:44.873Z</time></trkpt><trkpt lat="42.1525283" lon="14.5928617"><ele>162.0</ele><time>2026-04-16T16:24:46.872Z</time></trkpt><trkpt lat="42.152495" lon="14.5927167"><ele>162.0</ele><time>2026-04-16T16:24:48.873Z</time></trkpt><trkpt lat="42.1524617" lon="14.59258"><ele>162.0</ele><time>2026-04-16T16:24:50.872Z</time></trkpt><trkpt lat="42.1524317" lon="14.5924333"><ele>162.0</ele><time>2026-04-16T16:24:52.873Z</time></trkpt><trkpt lat="42.1524" lon="14.592295"><ele>162.0</ele><time>2026-04-16T16:24:54.873Z</time></trkpt><trkpt lat="42.1523683" lon="14.5921567"><ele>162.0</ele><time>2026-04-16T16:24:56.872Z</time></trkpt><trkpt lat="42.1523367" lon="14.5920117"><ele>162.39999999999998</ele><time>2026-04-16T16:24:58.873Z</time></trkpt><trkpt lat="42.1522967" lon="14.5918783"><ele>162.79999999999998</ele><time>2026-04-16T16:25:00.873Z</time></trkpt><trkpt lat="42.1522733" lon="14.59174"><ele>163.2</ele><time>2026-04-16T16:25:02.872Z</time></trkpt><trkpt lat="42.1522583" lon="14.5915933"><ele>163.6</ele><time>2026-04-16T16:25:04.873Z</time></trkpt><trkpt lat="42.1522667" lon="14.5914617"><ele>164.0</ele><time>2026-04-16T16:25:06.873Z</time></trkpt><trkpt lat="42.1522933" lon="14.59133"><ele>164.0</ele><time>2026-04-16T16:25:08.873Z</time></trkpt><trkpt lat="42.15235" lon="14.5912117"><ele>164.0</ele><time>2026-04-16T16:25:10.873Z</time></trkpt><trkpt lat="42.15242" lon="14.59112"><ele>164.0</ele><time>2026-04-16T16:25:12.872Z</time></trkpt><trkpt lat="42.1524983" lon="14.5910517"><ele>164.0</ele><time>2026-04-16T16:25:14.873Z</time></trkpt><trkpt lat="42.1525817" lon="14.5910033"><ele>164.0</ele><time>2026-04-16T16:25:16.873Z</time></trkpt><trkpt lat="42.1526583" lon="14.5909467"><ele>164.6</ele><time>2026-04-16T16:25:18.873Z</time></trkpt><trkpt lat="42.152755" lon="14.5908717"><ele>165.2</ele><time>2026-04-16T16:25:20.873Z</time></trkpt><trkpt lat="42.15285" lon="14.5907967"><ele>165.79999999999998</ele><time>2026-04-16T16:25:22.873Z</time></trkpt><trkpt lat="42.152935" lon="14.590715"><ele>166.39999999999998</ele><time>2026-04-16T16:25:24.873Z</time></trkpt><trkpt lat="42.1530217" lon="14.59063"><ele>167.0</ele><time>2026-04-16T16:25:26.872Z</time></trkpt><trkpt lat="42.1531217" lon="14.59053"><ele>167.0</ele><time>2026-04-16T16:25:28.872Z</time></trkpt><trkpt lat="42.1531733" lon="14.590475"><ele>167.0</ele><time>2026-04-16T16:25:29.873Z</time></trkpt><trkpt lat="42.153265" lon="14.5903683"><ele>167.0</ele><time>2026-04-16T16:25:31.873Z</time></trkpt><trkpt lat="42.15336" lon="14.5902583"><ele>167.0</ele><time>2026-04-16T16:25:33.872Z</time></trkpt><trkpt lat="42.15341" lon="14.5902033"><ele>167.0</ele><time>2026-04-16T16:25:34.872Z</time></trkpt><trkpt lat="42.1534583" lon="14.5901433"><ele>167.0</ele><time>2026-04-16T16:25:35.873Z</time></trkpt><trkpt lat="42.1535033" lon="14.5900767"><ele>167.0</ele><time>2026-04-16T16:25:36.873Z</time></trkpt><trkpt lat="42.153585" lon="14.5899483"><ele>167.0</ele><time>2026-04-16T16:25:38.873Z</time></trkpt><trkpt lat="42.15366" lon="14.5898167"><ele>167.0</ele><time>2026-04-16T16:25:40.872Z</time></trkpt><trkpt lat="42.1537017" lon="14.58974"><ele>167.0</ele><time>2026-04-16T16:25:41.873Z</time></trkpt><trkpt lat="42.1537367" lon="14.5896683"><ele>167.0</ele><time>2026-04-16T16:25:42.872Z</time></trkpt><trkpt lat="42.1537717" lon="14.5895967"><ele>167.0</ele><time>2026-04-16T16:25:43.872Z</time></trkpt><trkpt lat="42.153835" lon="14.5894617"><ele>167.0</ele><time>2026-04-16T16:25:45.872Z</time></trkpt><trkpt lat="42.153895" lon="14.589335"><ele>167.0</ele><time>2026-04-16T16:25:47.872Z</time></trkpt><trkpt lat="42.1539433" lon="14.5892017"><ele>167.0</ele><time>2026-04-16T16:25:49.873Z</time></trkpt><trkpt lat="42.1539817" lon="14.5890767"><ele>167.0</ele><time>2026-04-16T16:25:51.873Z</time></trkpt><trkpt lat="42.1540183" lon="14.5889467"><ele>167.0</ele><time>2026-04-16T16:25:53.873Z</time></trkpt><trkpt lat="42.1540467" lon="14.5888067"><ele>167.2</ele><time>2026-04-16T16:25:55.872Z</time></trkpt><trkpt lat="42.154065" lon="14.58866"><ele>167.39999999999998</ele><time>2026-04-16T16:25:57.873Z</time></trkpt><trkpt lat="42.1540767" lon="14.58851"><ele>167.60000000000002</ele><time>2026-04-16T16:25:59.873Z</time></trkpt><trkpt lat="42.1540717" lon="14.58836"><ele>167.8</ele><time>2026-04-16T16:26:01.872Z</time></trkpt><trkpt lat="42.1540717" lon="14.58822"><ele>168.0</ele><time>2026-04-16T16:26:03.873Z</time></trkpt><trkpt lat="42.1540667" lon="14.588075"><ele>168.0</ele><time>2026-04-16T16:26:05.872Z</time></trkpt><trkpt lat="42.1540667" lon="14.5879317"><ele>168.0</ele><time>2026-04-16T16:26:07.872Z</time></trkpt><trkpt lat="42.1540833" lon="14.5877917"><ele>168.0</ele><time>2026-04-16T16:26:09.873Z</time></trkpt><trkpt lat="42.1541233" lon="14.5876617"><ele>168.0</ele><time>2026-04-16T16:26:11.872Z</time></trkpt><trkpt lat="42.1541683" lon="14.5875333"><ele>168.0</ele><time>2026-04-16T16:26:13.873Z</time></trkpt><trkpt lat="42.1542233" lon="14.5873983"><ele>168.25</ele><time>2026-04-16T16:26:15.873Z</time></trkpt><trkpt lat="42.1542683" lon="14.5872517"><ele>168.5</ele><time>2026-04-16T16:26:17.873Z</time></trkpt><trkpt lat="42.1542967" lon="14.587105"><ele>168.75</ele><time>2026-04-16T16:26:19.873Z</time></trkpt><trkpt lat="42.1543017" lon="14.5869517"><ele>169.0</ele><time>2026-04-16T16:26:21.873Z</time></trkpt><trkpt lat="42.154285" lon="14.58681"><ele>169.39999999999998</ele><time>2026-04-16T16:26:23.873Z</time></trkpt><trkpt lat="42.1542383" lon="14.5866867"><ele>169.8</ele><time>2026-04-16T16:26:25.873Z</time></trkpt><trkpt lat="42.1541667" lon="14.5865833"><ele>170.2</ele><time>2026-04-16T16:26:27.873Z</time></trkpt><trkpt lat="42.1540933" lon="14.5864967"><ele>170.60000000000002</ele><time>2026-04-16T16:26:29.873Z</time></trkpt><trkpt lat="42.154015" lon="14.5864033"><ele>171.0</ele><time>2026-04-16T16:26:31.873Z</time></trkpt><trkpt lat="42.1539417" lon="14.58631"><ele>172.0</ele><time>2026-04-16T16:26:33.873Z</time></trkpt><trkpt lat="42.1538767" lon="14.5862133"><ele>173.0</ele><time>2026-04-16T16:26:35.873Z</time></trkpt><trkpt lat="42.1538167" lon="14.5861217"><ele>174.0</ele><time>2026-04-16T16:26:37.872Z</time></trkpt><trkpt lat="42.1537567" lon="14.5860183"><ele>175.0</ele><time>2026-04-16T16:26:39.873Z</time></trkpt><trkpt lat="42.153695" lon="14.5859167"><ele>176.0</ele><time>2026-04-16T16:26:41.873Z</time></trkpt><trkpt lat="42.1536317" lon="14.58581"><ele>176.16666666666666</ele><time>2026-04-16T16:26:43.872Z</time></trkpt><trkpt lat="42.1535833" lon="14.58571"><ele>176.33333333333331</ele><time>2026-04-16T16:26:45.872Z</time></trkpt><trkpt lat="42.1535367" lon="14.585615"><ele>176.5</ele><time>2026-04-16T16:26:47.873Z</time></trkpt><trkpt lat="42.153495" lon="14.5855283"><ele>176.66666666666666</ele><time>2026-04-16T16:26:49.872Z</time></trkpt><trkpt lat="42.1534583" lon="14.5854367"><ele>176.83333333333334</ele><time>2026-04-16T16:26:51.872Z</time></trkpt><trkpt lat="42.1534383" lon="14.5853517"><ele>177.0</ele><time>2026-04-16T16:26:53.872Z</time></trkpt><trkpt lat="42.15342" lon="14.5852417"><ele>177.0</ele><time>2026-04-16T16:26:55.872Z</time></trkpt><trkpt lat="42.1534" lon="14.5851083"><ele>177.0</ele><time>2026-04-16T16:26:57.873Z</time></trkpt><trkpt lat="42.1533767" lon="14.5849667"><ele>177.0</ele><time>2026-04-16T16:26:59.872Z</time></trkpt><trkpt lat="42.15335" lon="14.584825"><ele>177.0</ele><time>2026-04-16T16:27:01.873Z</time></trkpt><trkpt lat="42.1533" lon="14.5846817"><ele>177.0</ele><time>2026-04-16T16:27:03.873Z</time></trkpt><trkpt lat="42.1532583" lon="14.5845583"><ele>176.8</ele><time>2026-04-16T16:27:05.872Z</time></trkpt><trkpt lat="42.1532067" lon="14.58444"><ele>176.6</ele><time>2026-04-16T16:27:07.873Z</time></trkpt><trkpt lat="42.1531567" lon="14.5843233"><ele>176.4</ele><time>2026-04-16T16:27:09.872Z</time></trkpt><trkpt lat="42.1531" lon="14.5842233"><ele>176.20000000000002</ele><time>2026-04-16T16:27:11.873Z</time></trkpt><trkpt lat="42.15303" lon="14.5841283"><ele>176.0</ele><time>2026-04-16T16:27:13.872Z</time></trkpt><trkpt lat="42.15296" lon="14.5840333"><ele>177.4</ele><time>2026-04-16T16:27:15.873Z</time></trkpt><trkpt lat="42.152895" lon="14.58394"><ele>178.8</ele><time>2026-04-16T16:27:17.872Z</time></trkpt><trkpt lat="42.152825" lon="14.583845"><ele>180.20000000000002</ele><time>2026-04-16T16:27:19.873Z</time></trkpt><trkpt lat="42.152755" lon="14.5837533"><ele>181.60000000000002</ele><time>2026-04-16T16:27:21.872Z</time></trkpt><trkpt lat="42.1526867" lon="14.5836683"><ele>183.0</ele><time>2026-04-16T16:27:23.874Z</time></trkpt><trkpt lat="42.1526183" lon="14.5835817"><ele>183.0</ele><time>2026-04-16T16:27:25.874Z</time></trkpt><trkpt lat="42.152555" lon="14.583495"><ele>183.0</ele><time>2026-04-16T16:27:27.874Z</time></trkpt><trkpt lat="42.1524917" lon="14.583415"><ele>183.0</ele><time>2026-04-16T16:27:29.874Z</time></trkpt><trkpt lat="42.1524267" lon="14.5833367"><ele>183.0</ele><time>2026-04-16T16:27:31.874Z</time></trkpt><trkpt lat="42.1523667" lon="14.5832517"><ele>183.0</ele><time>2026-04-16T16:27:33.873Z</time></trkpt><trkpt lat="42.1523083" lon="14.5831667"><ele>183.0</ele><time>2026-04-16T16:27:35.874Z</time></trkpt><trkpt lat="42.1522467" lon="14.5830717"><ele>184.5</ele><time>2026-04-16T16:27:37.874Z</time></trkpt><trkpt lat="42.152185" lon="14.5829883"><ele>186.0</ele><time>2026-04-16T16:27:39.873Z</time></trkpt><trkpt lat="42.152145" lon="14.5829183"><ele>187.5</ele><time>2026-04-16T16:27:41.874Z</time></trkpt><trkpt lat="42.152105" lon="14.5828417"><ele>189.0</ele><time>2026-04-16T16:27:43.874Z</time></trkpt><trkpt lat="42.1520567" lon="14.5827617"><ele>190.5</ele><time>2026-04-16T16:27:45.874Z</time></trkpt><trkpt lat="42.1519883" lon="14.582675"><ele>192.0</ele><time>2026-04-16T16:27:47.874Z</time></trkpt><trkpt lat="42.151935" lon="14.58259"><ele>192.0</ele><time>2026-04-16T16:27:49.874Z</time></trkpt><trkpt lat="42.151885" lon="14.582505"><ele>192.0</ele><time>2026-04-16T16:27:51.873Z</time></trkpt><trkpt lat="42.15183" lon="14.5824117"><ele>192.0</ele><time>2026-04-16T16:27:53.874Z</time></trkpt><trkpt lat="42.15178" lon="14.5823133"><ele>192.0</ele><time>2026-04-16T16:27:55.873Z</time></trkpt><trkpt lat="42.1517283" lon="14.582195"><ele>192.0</ele><time>2026-04-16T16:27:57.874Z</time></trkpt><trkpt lat="42.1516883" lon="14.5820767"><ele>192.5</ele><time>2026-04-16T16:27:59.873Z</time></trkpt><trkpt lat="42.15166" lon="14.58197"><ele>193.0</ele><time>2026-04-16T16:28:01.874Z</time></trkpt><trkpt lat="42.151645" lon="14.58187"><ele>193.5</ele><time>2026-04-16T16:28:03.874Z</time></trkpt><trkpt lat="42.1516267" lon="14.5817633"><ele>194.0</ele><time>2026-04-16T16:28:05.874Z</time></trkpt><trkpt lat="42.151615" lon="14.5816567"><ele>194.5</ele><time>2026-04-16T16:28:07.874Z</time></trkpt><trkpt lat="42.151605" lon="14.5815667"><ele>195.0</ele><time>2026-04-16T16:28:09.874Z</time></trkpt><trkpt lat="42.1516033" lon="14.58148"><ele>195.0</ele><time>2026-04-16T16:28:11.873Z</time></trkpt><trkpt lat="42.151605" lon="14.5813917"><ele>195.0</ele><time>2026-04-16T16:28:13.874Z</time></trkpt><trkpt lat="42.1516017" lon="14.5813"><ele>195.0</ele><time>2026-04-16T16:28:15.873Z</time></trkpt><trkpt lat="42.1516" lon="14.5812033"><ele>195.0</ele><time>2026-04-16T16:28:17.873Z</time></trkpt><trkpt lat="42.151605" lon="14.5810767"><ele>195.0</ele><time>2026-04-16T16:28:19.874Z</time></trkpt><trkpt lat="42.1516017" lon="14.580965"><ele>195.0</ele><time>2026-04-16T16:28:21.873Z</time></trkpt><trkpt lat="42.1515967" lon="14.5808583"><ele>195.42857142857142</ele><time>2026-04-16T16:28:23.874Z</time></trkpt><trkpt lat="42.1515933" lon="14.58075"><ele>195.85714285714283</ele><time>2026-04-16T16:28:25.874Z</time></trkpt><trkpt lat="42.1515917" lon="14.58065"><ele>196.28571428571428</ele><time>2026-04-16T16:28:27.873Z</time></trkpt><trkpt lat="42.15159" lon="14.5805517"><ele>196.71428571428572</ele><time>2026-04-16T16:28:29.874Z</time></trkpt><trkpt lat="42.151585" lon="14.5804583"><ele>197.14285714285714</ele><time>2026-04-16T16:28:31.873Z</time></trkpt><trkpt lat="42.1515783" lon="14.5803717"><ele>197.57142857142858</ele><time>2026-04-16T16:28:33.874Z</time></trkpt><trkpt lat="42.1515683" lon="14.5802867"><ele>198.0</ele><time>2026-04-16T16:28:35.874Z</time></trkpt><trkpt lat="42.1515117" lon="14.5801883"><ele>199.57142857142858</ele><time>2026-04-16T16:28:38.873Z</time></trkpt><trkpt lat="42.1514417" lon="14.580165"><ele>201.14285714285714</ele><time>2026-04-16T16:28:40.874Z</time></trkpt><trkpt lat="42.1513717" lon="14.580155"><ele>202.71428571428572</ele><time>2026-04-16T16:28:42.874Z</time></trkpt><trkpt lat="42.1513083" lon="14.5801517"><ele>204.28571428571428</ele><time>2026-04-16T16:28:44.874Z</time></trkpt><trkpt lat="42.151225" lon="14.5801533"><ele>205.85714285714283</ele><time>2026-04-16T16:28:46.874Z</time></trkpt><trkpt lat="42.1511467" lon="14.5801533"><ele>207.42857142857142</ele><time>2026-04-16T16:28:48.873Z</time></trkpt><trkpt lat="42.15107" lon="14.5801533"><ele>209.0</ele><time>2026-04-16T16:28:50.874Z</time></trkpt><trkpt lat="42.1509917" lon="14.58015"><ele>209.0</ele><time>2026-04-16T16:28:52.874Z</time></trkpt><trkpt lat="42.1509183" lon="14.580145"><ele>209.0</ele><time>2026-04-16T16:28:54.874Z</time></trkpt><trkpt lat="42.1508433" lon="14.580145"><ele>209.0</ele><time>2026-04-16T16:28:56.873Z</time></trkpt><trkpt lat="42.1507683" lon="14.5801417"><ele>209.0</ele><time>2026-04-16T16:28:58.874Z</time></trkpt><trkpt lat="42.1507017" lon="14.5801433"><ele>209.0</ele><time>2026-04-16T16:29:00.874Z</time></trkpt><trkpt lat="42.1506317" lon="14.5801433"><ele>209.0</ele><time>2026-04-16T16:29:02.874Z</time></trkpt><trkpt lat="42.150565" lon="14.5801383"><ele>209.0</ele><time>2026-04-16T16:29:04.874Z</time></trkpt><trkpt lat="42.150475" lon="14.5801333"><ele>209.83333333333334</ele><time>2026-04-16T16:29:07.873Z</time></trkpt><trkpt lat="42.1503783" lon="14.5801417"><ele>210.66666666666669</ele><time>2026-04-16T16:29:10.873Z</time></trkpt><trkpt lat="42.1503" lon="14.580135"><ele>211.5</ele><time>2026-04-16T16:29:13.873Z</time></trkpt><trkpt lat="42.150235" lon="14.580085"><ele>212.33333333333331</ele><time>2026-04-16T16:29:17.873Z</time></trkpt><trkpt lat="42.1501983" lon="14.57998"><ele>213.16666666666666</ele><time>2026-04-16T16:29:20.874Z</time></trkpt><trkpt lat="42.1501833" lon="14.57985"><ele>214.0</ele><time>2026-04-16T16:29:23.873Z</time></trkpt><trkpt lat="42.1501833" lon="14.5797567"><ele>214.00000000000003</ele><time>2026-04-16T16:29:25.874Z</time></trkpt><trkpt lat="42.1501817" lon="14.5796633"><ele>214.0</ele><time>2026-04-16T16:29:27.874Z</time></trkpt><trkpt lat="42.150185" lon="14.579565"><ele>214.0</ele><time>2026-04-16T16:29:29.874Z</time></trkpt><trkpt lat="42.1501967" lon="14.5794767"><ele>214.0</ele><time>2026-04-16T16:29:31.873Z</time></trkpt><trkpt lat="42.1502133" lon="14.5793833"><ele>214.0</ele><time>2026-04-16T16:29:33.874Z</time></trkpt><trkpt lat="42.1502183" lon="14.579295"><ele>214.00000000000003</ele><time>2026-04-16T16:29:35.874Z</time></trkpt><trkpt lat="42.15021" lon="14.5791733"><ele>214.0</ele><time>2026-04-16T16:29:38.873Z</time></trkpt><trkpt lat="42.150205" lon="14.5790483"><ele>214.33333333333331</ele><time>2026-04-16T16:29:41.874Z</time></trkpt><trkpt lat="42.1502" lon="14.5789583"><ele>214.66666666666666</ele><time>2026-04-16T16:29:43.873Z</time></trkpt><trkpt lat="42.1501967" lon="14.578845"><ele>215.0</ele><time>2026-04-16T16:29:45.873Z</time></trkpt><trkpt lat="42.150195" lon="14.5787417"><ele>215.33333333333331</ele><time>2026-04-16T16:29:47.873Z</time></trkpt><trkpt lat="42.1501983" lon="14.5785917"><ele>215.66666666666666</ele><time>2026-04-16T16:29:49.873Z</time></trkpt><trkpt lat="42.1501817" lon="14.5784633"><ele>216.0</ele><time>2026-04-16T16:29:51.874Z</time></trkpt><trkpt lat="42.1501467" lon="14.57838"><ele>216.5</ele><time>2026-04-16T16:29:53.874Z</time></trkpt><trkpt lat="42.1501" lon="14.578315"><ele>217.0</ele><time>2026-04-16T16:29:55.874Z</time></trkpt><trkpt lat="42.1500267" lon="14.5782667"><ele>217.5</ele><time>2026-04-16T16:29:58.873Z</time></trkpt><trkpt lat="42.1499583" lon="14.57826"><ele>218.0</ele><time>2026-04-16T16:30:00.874Z</time></trkpt><trkpt lat="42.149875" lon="14.5782767"><ele>218.5</ele><time>2026-04-16T16:30:02.874Z</time></trkpt><trkpt lat="42.1497883" lon="14.5783033"><ele>219.0</ele><time>2026-04-16T16:30:04.873Z</time></trkpt><trkpt lat="42.1497083" lon="14.5783367"><ele>219.42857142857144</ele><time>2026-04-16T16:30:06.873Z</time></trkpt><trkpt lat="42.149645" lon="14.5783683"><ele>219.85714285714283</ele><time>2026-04-16T16:30:08.874Z</time></trkpt><trkpt lat="42.1495867" lon="14.5784017"><ele>220.28571428571428</ele><time>2026-04-16T16:30:10.874Z</time></trkpt><trkpt lat="42.1495267" lon="14.5784433"><ele>220.71428571428572</ele><time>2026-04-16T16:30:12.874Z</time></trkpt><trkpt lat="42.1494567" lon="14.5784817"><ele>221.14285714285717</ele><time>2026-04-16T16:30:14.874Z</time></trkpt><trkpt lat="42.1493967" lon="14.578515"><ele>221.57142857142856</ele><time>2026-04-16T16:30:16.874Z</time></trkpt><trkpt lat="42.1493217" lon="14.578565"><ele>222.0</ele><time>2026-04-16T16:30:19.873Z</time></trkpt><trkpt lat="42.1492483" lon="14.5786"><ele>222.0</ele><time>2026-04-16T16:30:22.874Z</time></trkpt><trkpt lat="42.1491667" lon="14.5786017"><ele>222.0</ele><time>2026-04-16T16:30:25.874Z</time></trkpt><trkpt lat="42.14909" lon="14.5785967"><ele>222.0</ele><time>2026-04-16T16:30:27.873Z</time></trkpt><trkpt lat="42.1489967" lon="14.5785817"><ele>222.0</ele><time>2026-04-16T16:30:29.874Z</time></trkpt><trkpt lat="42.1489183" lon="14.5785567"><ele>222.0</ele><time>2026-04-16T16:30:31.874Z</time></trkpt><trkpt lat="42.148855" lon="14.578555"><ele>222.0</ele><time>2026-04-16T16:30:33.874Z</time></trkpt><trkpt lat="42.1487867" lon="14.5785917"><ele>220.5</ele><time>2026-04-16T16:30:36.874Z</time></trkpt><trkpt lat="42.1487367" lon="14.5786467"><ele>219.0</ele><time>2026-04-16T16:30:39.874Z</time></trkpt><trkpt lat="42.148715" lon="14.5787283"><ele>217.5</ele><time>2026-04-16T16:30:41.874Z</time></trkpt><trkpt lat="42.1487" lon="14.5788433"><ele>216.0</ele><time>2026-04-16T16:30:43.873Z</time></trkpt><trkpt lat="42.1486933" lon="14.57897"><ele>214.5</ele><time>2026-04-16T16:30:45.874Z</time></trkpt><trkpt lat="42.1487" lon="14.579105"><ele>213.0</ele><time>2026-04-16T16:30:47.873Z</time></trkpt><trkpt lat="42.1487083" lon="14.5792433"><ele>213.0</ele><time>2026-04-16T16:30:49.873Z</time></trkpt><trkpt lat="42.1487183" lon="14.5793933"><ele>213.0</ele><time>2026-04-16T16:30:51.874Z</time></trkpt><trkpt lat="42.148725" lon="14.57956"><ele>213.0</ele><time>2026-04-16T16:30:53.873Z</time></trkpt><trkpt lat="42.1487283" lon="14.57965"><ele>213.0</ele><time>2026-04-16T16:30:54.873Z</time></trkpt><trkpt lat="42.1487317" lon="14.57974"><ele>213.0</ele><time>2026-04-16T16:30:55.873Z</time></trkpt><trkpt lat="42.14874" lon="14.5798283"><ele>213.0</ele><time>2026-04-16T16:30:56.873Z</time></trkpt><trkpt lat="42.148745" lon="14.5799217"><ele>212.83333333333334</ele><time>2026-04-16T16:30:57.873Z</time></trkpt><trkpt lat="42.14875" lon="14.5800183"><ele>212.66666666666669</ele><time>2026-04-16T16:30:58.874Z</time></trkpt><trkpt lat="42.1487533" lon="14.5801233"><ele>212.5</ele><time>2026-04-16T16:30:59.873Z</time></trkpt><trkpt lat="42.1487567" lon="14.5802367"><ele>212.33333333333334</ele><time>2026-04-16T16:31:00.874Z</time></trkpt><trkpt lat="42.1487567" lon="14.5803467"><ele>212.16666666666669</ele><time>2026-04-16T16:31:01.873Z</time></trkpt><trkpt lat="42.148755" lon="14.580455"><ele>212.0</ele><time>2026-04-16T16:31:02.873Z</time></trkpt><trkpt lat="42.1487533" lon="14.58057"><ele>210.83333333333334</ele><time>2026-04-16T16:31:03.873Z</time></trkpt><trkpt lat="42.1487533" lon="14.58068"><ele>209.66666666666669</ele><time>2026-04-16T16:31:04.873Z</time></trkpt><trkpt lat="42.1487567" lon="14.5807917"><ele>208.5</ele><time>2026-04-16T16:31:05.873Z</time></trkpt><trkpt lat="42.1487617" lon="14.5809067"><ele>207.33333333333331</ele><time>2026-04-16T16:31:06.873Z</time></trkpt><trkpt lat="42.1487617" lon="14.5810283"><ele>206.16666666666666</ele><time>2026-04-16T16:31:07.874Z</time></trkpt><trkpt lat="42.1487617" lon="14.5811467"><ele>205.0</ele><time>2026-04-16T16:31:08.874Z</time></trkpt><trkpt lat="42.1487667" lon="14.581265"><ele>202.0</ele><time>2026-04-16T16:31:09.874Z</time></trkpt><trkpt lat="42.148785" lon="14.5813883"><ele>199.0</ele><time>2026-04-16T16:31:10.874Z</time></trkpt><trkpt lat="42.1488133" lon="14.581505"><ele>196.0</ele><time>2026-04-16T16:31:11.873Z</time></trkpt><trkpt lat="42.14886" lon="14.581605"><ele>193.0</ele><time>2026-04-16T16:31:12.874Z</time></trkpt><trkpt lat="42.1489233" lon="14.5817067"><ele>190.0</ele><time>2026-04-16T16:31:13.873Z</time></trkpt><trkpt lat="42.1489867" lon="14.58181"><ele>191.83333333333334</ele><time>2026-04-16T16:31:14.874Z</time></trkpt><trkpt lat="42.1490433" lon="14.5819067"><ele>193.66666666666669</ele><time>2026-04-16T16:31:15.874Z</time></trkpt><trkpt lat="42.1491033" lon="14.582"><ele>195.5</ele><time>2026-04-16T16:31:16.873Z</time></trkpt><trkpt lat="42.1491683" lon="14.5820933"><ele>197.33333333333334</ele><time>2026-04-16T16:31:17.873Z</time></trkpt><trkpt lat="42.149225" lon="14.5821817"><ele>199.16666666666666</ele><time>2026-04-16T16:31:18.874Z</time></trkpt><trkpt lat="42.1492767" lon="14.58226"><ele>201.0</ele><time>2026-04-16T16:31:19.874Z</time></trkpt><trkpt lat="42.1493167" lon="14.5823333"><ele>201.0</ele><time>2026-04-16T16:31:20.873Z</time></trkpt><trkpt lat="42.1493567" lon="14.5824033"><ele>201.0</ele><time>2026-04-16T16:31:21.873Z</time></trkpt><trkpt lat="42.149395" lon="14.582475"><ele>201.0</ele><time>2026-04-16T16:31:22.874Z</time></trkpt><trkpt lat="42.149425" lon="14.5825567"><ele>201.0</ele><time>2026-04-16T16:31:23.874Z</time></trkpt><trkpt lat="42.1494383" lon="14.582645"><ele>201.0</ele><time>2026-04-16T16:31:24.873Z</time></trkpt><trkpt lat="42.1494383" lon="14.5827383"><ele>201.0</ele><time>2026-04-16T16:31:25.874Z</time></trkpt><trkpt lat="42.1494267" lon="14.5828383"><ele>201.0</ele><time>2026-04-16T16:31:26.873Z</time></trkpt><trkpt lat="42.1494083" lon="14.5829383"><ele>199.83333333333334</ele><time>2026-04-16T16:31:27.873Z</time></trkpt><trkpt lat="42.14939" lon="14.5830317"><ele>198.66666666666669</ele><time>2026-04-16T16:31:28.873Z</time></trkpt><trkpt lat="42.1493933" lon="14.58317"><ele>197.5</ele><time>2026-04-16T16:31:30.874Z</time></trkpt><trkpt lat="42.1494383" lon="14.5832583"><ele>196.33333333333334</ele><time>2026-04-16T16:31:32.874Z</time></trkpt><trkpt lat="42.149505" lon="14.5832967"><ele>195.16666666666669</ele><time>2026-04-16T16:31:34.874Z</time></trkpt><trkpt lat="42.1495667" lon="14.5833383"><ele>194.0</ele><time>2026-04-16T16:31:36.874Z</time></trkpt><trkpt lat="42.1496117" lon="14.5834183"><ele>194.00000000000003</ele><time>2026-04-16T16:31:38.874Z</time></trkpt><trkpt lat="42.1496717" lon="14.5834883"><ele>194.0</ele><time>2026-04-16T16:31:40.874Z</time></trkpt><trkpt lat="42.14973" lon="14.5835333"><ele>194.0</ele><time>2026-04-16T16:31:42.874Z</time></trkpt><trkpt lat="42.14982" lon="14.5835583"><ele>194.0</ele><time>2026-04-16T16:31:45.874Z</time></trkpt><trkpt lat="42.1498883" lon="14.5835617"><ele>194.00000000000003</ele><time>2026-04-16T16:31:47.873Z</time></trkpt><trkpt lat="42.14998" lon="14.5835933"><ele>194.0</ele><time>2026-04-16T16:31:50.874Z</time></trkpt><trkpt lat="42.1500567" lon="14.583685"><ele>196.28571428571428</ele><time>2026-04-16T16:31:52.874Z</time></trkpt><trkpt lat="42.150125" lon="14.5837617"><ele>198.57142857142858</ele><time>2026-04-16T16:31:54.874Z</time></trkpt><trkpt lat="42.1501867" lon="14.5838317"><ele>200.85714285714286</ele><time>2026-04-16T16:31:56.873Z</time></trkpt><trkpt lat="42.1502417" lon="14.5838883"><ele>203.14285714285714</ele><time>2026-04-16T16:31:58.874Z</time></trkpt><trkpt lat="42.1502933" lon="14.5839583"><ele>205.42857142857144</ele><time>2026-04-16T16:32:00.873Z</time></trkpt><trkpt lat="42.1503517" lon="14.5840133"><ele>207.71428571428572</ele><time>2026-04-16T16:32:02.873Z</time></trkpt><trkpt lat="42.1504" lon="14.5840733"><ele>210.0</ele><time>2026-04-16T16:32:04.874Z</time></trkpt><trkpt lat="42.150435" lon="14.5841817"><ele>210.0</ele><time>2026-04-16T16:32:07.874Z</time></trkpt><trkpt lat="42.1504133" lon="14.584265"><ele>210.0</ele><time>2026-04-16T16:32:09.874Z</time></trkpt><trkpt lat="42.1503933" lon="14.58435"><ele>210.0</ele><time>2026-04-16T16:32:11.874Z</time></trkpt><trkpt lat="42.1503917" lon="14.58444"><ele>210.0</ele><time>2026-04-16T16:32:13.874Z</time></trkpt><trkpt lat="42.1504233" lon="14.5845333"><ele>210.0</ele><time>2026-04-16T16:32:15.873Z</time></trkpt><trkpt lat="42.1504667" lon="14.58466"><ele>210.0</ele><time>2026-04-16T16:32:17.873Z</time></trkpt><trkpt lat="42.1504833" lon="14.5847533"><ele>210.0</ele><time>2026-04-16T16:32:19.873Z</time></trkpt><trkpt lat="42.1504983" lon="14.5848717"><ele>209.16666666666666</ele><time>2026-04-16T16:32:22.874Z</time></trkpt><trkpt lat="42.1504467" lon="14.5849383"><ele>208.33333333333331</ele><time>2026-04-16T16:32:25.873Z</time></trkpt><trkpt lat="42.1503983" lon="14.5849967"><ele>207.5</ele><time>2026-04-16T16:32:27.874Z</time></trkpt><trkpt lat="42.1503133" lon="14.5850483"><ele>206.66666666666666</ele><time>2026-04-16T16:32:30.873Z</time></trkpt><trkpt lat="42.1502333" lon="14.5850833"><ele>205.83333333333331</ele><time>2026-04-16T16:32:33.874Z</time></trkpt><trkpt lat="42.1501467" lon="14.5851283"><ele>205.0</ele><time>2026-04-16T16:32:36.874Z</time></trkpt><trkpt lat="42.1500983" lon="14.58519"><ele>205.0</ele><time>2026-04-16T16:32:39.873Z</time></trkpt><trkpt lat="42.1500533" lon="14.5852633"><ele>205.0</ele><time>2026-04-16T16:32:43.873Z</time></trkpt><trkpt lat="42.1499383" lon="14.5852967"><ele>205.0</ele><time>2026-04-16T16:32:52.873Z</time></trkpt><trkpt lat="42.1500783" lon="14.5853667"><ele>205.0</ele><time>2026-04-16T16:33:34.073Z</time></trkpt><trkpt lat="42.1499067" lon="14.5853333"><ele>205.0</ele><time>2026-04-16T16:33:39.871Z</time></trkpt><trkpt lat="42.1499917" lon="14.585275"><ele>205.0</ele><time>2026-04-16T16:36:24.871Z</time></trkpt><trkpt lat="42.1499117" lon="14.5852733"><ele>205.0</ele><time>2026-04-16T16:37:35.869Z</time></trkpt></trkseg></trk></gpx>